<?xml version="1.0" encoding="UTF-8" standalone="no" ?>
<gpx xmlns="http://www.topografix.com/GPX/1/1" xmlns:xsi="http://www.w3.org/2001/XMLSchema-instance" xsi:schemaLocation="http://www.topografix.com/GPX/1/1 http://www.topografix.com/GPX/1/1/gpx.xsd" version="1.1" creator="VisuGPX - https://www.visugpx.com">
  <metadata>
    <name>2013-01-05 Col d'Oncet et lac d'Oncet (Ski de randonnée)</name>
    <desc><![CDATA[La trace ne détaille que la montée. Très beau temps. Les couteaux étaient bien utiles. Belle descente par le Col d'Oncet avec une vue splendide sur le Pic du Midi de Bigorre. Bonne neige en haut se dégradant très fort dans le bas.]]></desc>
  </metadata>
  <trk>
    <name><![CDATA[2013-01-05 Col d'Oncet et lac d'Oncet (Ski de randonnée)_1]]></name>
    <trkseg>
      <trkpt lat="42.90837" lon="0.11576">
        <ele>1633</ele>
        <time>2013-01-05T08:21:28Z</time>
      </trkpt>
      <trkpt lat="42.90863" lon="0.11587">
        <ele>1643</ele>
        <time>2013-01-05T08:24:19Z</time>
      </trkpt>
      <trkpt lat="42.90864" lon="0.11587">
        <ele>1643</ele>
        <time>2013-01-05T08:24:21Z</time>
      </trkpt>
      <trkpt lat="42.90865" lon="0.11586">
        <ele>1643</ele>
        <time>2013-01-05T08:24:23Z</time>
      </trkpt>
      <trkpt lat="42.90866" lon="0.11586">
        <ele>1643</ele>
        <time>2013-01-05T08:24:25Z</time>
      </trkpt>
      <trkpt lat="42.90868" lon="0.11586">
        <ele>1643</ele>
        <time>2013-01-05T08:24:27Z</time>
      </trkpt>
      <trkpt lat="42.90869" lon="0.11586">
        <ele>1643</ele>
        <time>2013-01-05T08:24:30Z</time>
      </trkpt>
      <trkpt lat="42.90871" lon="0.11588">
        <ele>1643</ele>
        <time>2013-01-05T08:24:33Z</time>
      </trkpt>
      <trkpt lat="42.90871" lon="0.11589">
        <ele>1643</ele>
        <time>2013-01-05T08:24:35Z</time>
      </trkpt>
      <trkpt lat="42.90871" lon="0.11591">
        <ele>1643</ele>
        <time>2013-01-05T08:24:37Z</time>
      </trkpt>
      <trkpt lat="42.90872" lon="0.11593">
        <ele>1643</ele>
        <time>2013-01-05T08:24:39Z</time>
      </trkpt>
      <trkpt lat="42.90872" lon="0.11595">
        <ele>1643</ele>
        <time>2013-01-05T08:24:41Z</time>
      </trkpt>
      <trkpt lat="42.90873" lon="0.11596">
        <ele>1643</ele>
        <time>2013-01-05T08:24:43Z</time>
      </trkpt>
      <trkpt lat="42.90874" lon="0.11598">
        <ele>1643</ele>
        <time>2013-01-05T08:24:45Z</time>
      </trkpt>
      <trkpt lat="42.90875" lon="0.11598">
        <ele>1643</ele>
        <time>2013-01-05T08:24:47Z</time>
      </trkpt>
      <trkpt lat="42.90876" lon="0.11597">
        <ele>1643</ele>
        <time>2013-01-05T08:24:49Z</time>
      </trkpt>
      <trkpt lat="42.90878" lon="0.11598">
        <ele>1643</ele>
        <time>2013-01-05T08:24:51Z</time>
      </trkpt>
      <trkpt lat="42.90879" lon="0.11598">
        <ele>1643</ele>
        <time>2013-01-05T08:24:53Z</time>
      </trkpt>
      <trkpt lat="42.9088" lon="0.11598">
        <ele>1643</ele>
        <time>2013-01-05T08:24:55Z</time>
      </trkpt>
      <trkpt lat="42.90881" lon="0.116">
        <ele>1643</ele>
        <time>2013-01-05T08:24:59Z</time>
      </trkpt>
      <trkpt lat="42.90881" lon="0.11601">
        <ele>1643</ele>
        <time>2013-01-05T08:25:01Z</time>
      </trkpt>
      <trkpt lat="42.90881" lon="0.11603">
        <ele>1644</ele>
        <time>2013-01-05T08:25:03Z</time>
      </trkpt>
      <trkpt lat="42.90881" lon="0.11605">
        <ele>1645</ele>
        <time>2013-01-05T08:25:06Z</time>
      </trkpt>
      <trkpt lat="42.90882" lon="0.11607">
        <ele>1645</ele>
        <time>2013-01-05T08:25:08Z</time>
      </trkpt>
      <trkpt lat="42.90883" lon="0.11607">
        <ele>1646</ele>
        <time>2013-01-05T08:25:10Z</time>
      </trkpt>
      <trkpt lat="42.90885" lon="0.11607">
        <ele>1646</ele>
        <time>2013-01-05T08:25:13Z</time>
      </trkpt>
      <trkpt lat="42.90886" lon="0.11606">
        <ele>1647</ele>
        <time>2013-01-05T08:25:17Z</time>
      </trkpt>
      <trkpt lat="42.90887" lon="0.11605">
        <ele>1647</ele>
        <time>2013-01-05T08:25:20Z</time>
      </trkpt>
      <trkpt lat="42.90889" lon="0.11605">
        <ele>1647</ele>
        <time>2013-01-05T08:25:23Z</time>
      </trkpt>
      <trkpt lat="42.9089" lon="0.11605">
        <ele>1648</ele>
        <time>2013-01-05T08:25:33Z</time>
      </trkpt>
      <trkpt lat="42.90891" lon="0.11607">
        <ele>1649</ele>
        <time>2013-01-05T08:25:37Z</time>
      </trkpt>
      <trkpt lat="42.90891" lon="0.11609">
        <ele>1649</ele>
        <time>2013-01-05T08:25:39Z</time>
      </trkpt>
      <trkpt lat="42.90889" lon="0.1161">
        <ele>1649</ele>
        <time>2013-01-05T08:25:42Z</time>
      </trkpt>
      <trkpt lat="42.90891" lon="0.1161">
        <ele>1650</ele>
        <time>2013-01-05T08:25:45Z</time>
      </trkpt>
      <trkpt lat="42.90892" lon="0.1161">
        <ele>1650</ele>
        <time>2013-01-05T08:25:47Z</time>
      </trkpt>
      <trkpt lat="42.90893" lon="0.1161">
        <ele>1650</ele>
        <time>2013-01-05T08:25:49Z</time>
      </trkpt>
      <trkpt lat="42.90894" lon="0.1161">
        <ele>1650</ele>
        <time>2013-01-05T08:25:51Z</time>
      </trkpt>
      <trkpt lat="42.90896" lon="0.11611">
        <ele>1651</ele>
        <time>2013-01-05T08:25:54Z</time>
      </trkpt>
      <trkpt lat="42.90897" lon="0.11612">
        <ele>1651</ele>
        <time>2013-01-05T08:25:57Z</time>
      </trkpt>
      <trkpt lat="42.90899" lon="0.11614">
        <ele>1652</ele>
        <time>2013-01-05T08:26:00Z</time>
      </trkpt>
      <trkpt lat="42.909" lon="0.11615">
        <ele>1652</ele>
        <time>2013-01-05T08:26:03Z</time>
      </trkpt>
      <trkpt lat="42.90902" lon="0.11616">
        <ele>1653</ele>
        <time>2013-01-05T08:26:06Z</time>
      </trkpt>
      <trkpt lat="42.90903" lon="0.11617">
        <ele>1653</ele>
        <time>2013-01-05T08:26:09Z</time>
      </trkpt>
      <trkpt lat="42.90904" lon="0.11619">
        <ele>1654</ele>
        <time>2013-01-05T08:26:12Z</time>
      </trkpt>
      <trkpt lat="42.90905" lon="0.1162">
        <ele>1654</ele>
        <time>2013-01-05T08:26:15Z</time>
      </trkpt>
      <trkpt lat="42.90907" lon="0.11622">
        <ele>1654</ele>
        <time>2013-01-05T08:26:19Z</time>
      </trkpt>
      <trkpt lat="42.90908" lon="0.11623">
        <ele>1655</ele>
        <time>2013-01-05T08:26:22Z</time>
      </trkpt>
      <trkpt lat="42.90908" lon="0.11625">
        <ele>1655</ele>
        <time>2013-01-05T08:26:24Z</time>
      </trkpt>
      <trkpt lat="42.9091" lon="0.11626">
        <ele>1656</ele>
        <time>2013-01-05T08:26:28Z</time>
      </trkpt>
      <trkpt lat="42.9091" lon="0.11628">
        <ele>1657</ele>
        <time>2013-01-05T08:26:31Z</time>
      </trkpt>
      <trkpt lat="42.90912" lon="0.1163">
        <ele>1657</ele>
        <time>2013-01-05T08:26:34Z</time>
      </trkpt>
      <trkpt lat="42.90913" lon="0.11631">
        <ele>1658</ele>
        <time>2013-01-05T08:26:37Z</time>
      </trkpt>
      <trkpt lat="42.90914" lon="0.11633">
        <ele>1658</ele>
        <time>2013-01-05T08:26:40Z</time>
      </trkpt>
      <trkpt lat="42.90915" lon="0.11635">
        <ele>1658</ele>
        <time>2013-01-05T08:26:47Z</time>
      </trkpt>
      <trkpt lat="42.90916" lon="0.11636">
        <ele>1659</ele>
        <time>2013-01-05T08:26:54Z</time>
      </trkpt>
      <trkpt lat="42.90917" lon="0.11638">
        <ele>1659</ele>
        <time>2013-01-05T08:26:58Z</time>
      </trkpt>
      <trkpt lat="42.90918" lon="0.1164">
        <ele>1660</ele>
        <time>2013-01-05T08:27:02Z</time>
      </trkpt>
      <trkpt lat="42.90919" lon="0.11642">
        <ele>1660</ele>
        <time>2013-01-05T08:27:05Z</time>
      </trkpt>
      <trkpt lat="42.9092" lon="0.11643">
        <ele>1661</ele>
        <time>2013-01-05T08:27:17Z</time>
      </trkpt>
      <trkpt lat="42.90921" lon="0.11644">
        <ele>1662</ele>
        <time>2013-01-05T08:27:24Z</time>
      </trkpt>
      <trkpt lat="42.90923" lon="0.11645">
        <ele>1662</ele>
        <time>2013-01-05T08:27:27Z</time>
      </trkpt>
      <trkpt lat="42.90924" lon="0.11646">
        <ele>1662</ele>
        <time>2013-01-05T08:27:30Z</time>
      </trkpt>
      <trkpt lat="42.90925" lon="0.11647">
        <ele>1663</ele>
        <time>2013-01-05T08:27:33Z</time>
      </trkpt>
      <trkpt lat="42.90926" lon="0.11648">
        <ele>1663</ele>
        <time>2013-01-05T08:27:37Z</time>
      </trkpt>
      <trkpt lat="42.90928" lon="0.1165">
        <ele>1664</ele>
        <time>2013-01-05T08:27:42Z</time>
      </trkpt>
      <trkpt lat="42.90928" lon="0.11651">
        <ele>1665</ele>
        <time>2013-01-05T08:27:45Z</time>
      </trkpt>
      <trkpt lat="42.90929" lon="0.11653">
        <ele>1665</ele>
        <time>2013-01-05T08:27:48Z</time>
      </trkpt>
      <trkpt lat="42.90931" lon="0.11654">
        <ele>1666</ele>
        <time>2013-01-05T08:27:51Z</time>
      </trkpt>
      <trkpt lat="42.90931" lon="0.11655">
        <ele>1666</ele>
        <time>2013-01-05T08:27:53Z</time>
      </trkpt>
      <trkpt lat="42.90933" lon="0.11657">
        <ele>1667</ele>
        <time>2013-01-05T08:27:56Z</time>
      </trkpt>
      <trkpt lat="42.90934" lon="0.11658">
        <ele>1667</ele>
        <time>2013-01-05T08:27:59Z</time>
      </trkpt>
      <trkpt lat="42.90935" lon="0.1166">
        <ele>1668</ele>
        <time>2013-01-05T08:28:02Z</time>
      </trkpt>
      <trkpt lat="42.90936" lon="0.11662">
        <ele>1669</ele>
        <time>2013-01-05T08:28:05Z</time>
      </trkpt>
      <trkpt lat="42.90937" lon="0.11663">
        <ele>1669</ele>
        <time>2013-01-05T08:28:08Z</time>
      </trkpt>
      <trkpt lat="42.90938" lon="0.11665">
        <ele>1670</ele>
        <time>2013-01-05T08:28:11Z</time>
      </trkpt>
      <trkpt lat="42.90939" lon="0.11666">
        <ele>1670</ele>
        <time>2013-01-05T08:28:14Z</time>
      </trkpt>
      <trkpt lat="42.90941" lon="0.11667">
        <ele>1670</ele>
        <time>2013-01-05T08:28:17Z</time>
      </trkpt>
      <trkpt lat="42.90942" lon="0.11669">
        <ele>1671</ele>
        <time>2013-01-05T08:28:20Z</time>
      </trkpt>
      <trkpt lat="42.90943" lon="0.1167">
        <ele>1671</ele>
        <time>2013-01-05T08:28:23Z</time>
      </trkpt>
      <trkpt lat="42.90944" lon="0.11672">
        <ele>1671</ele>
        <time>2013-01-05T08:28:26Z</time>
      </trkpt>
      <trkpt lat="42.90945" lon="0.11673">
        <ele>1672</ele>
        <time>2013-01-05T08:28:29Z</time>
      </trkpt>
      <trkpt lat="42.90946" lon="0.11675">
        <ele>1673</ele>
        <time>2013-01-05T08:28:31Z</time>
      </trkpt>
      <trkpt lat="42.90947" lon="0.11677">
        <ele>1673</ele>
        <time>2013-01-05T08:28:33Z</time>
      </trkpt>
      <trkpt lat="42.90947" lon="0.11679">
        <ele>1673</ele>
        <time>2013-01-05T08:28:35Z</time>
      </trkpt>
      <trkpt lat="42.90948" lon="0.11681">
        <ele>1674</ele>
        <time>2013-01-05T08:28:38Z</time>
      </trkpt>
      <trkpt lat="42.90949" lon="0.11682">
        <ele>1674</ele>
        <time>2013-01-05T08:28:40Z</time>
      </trkpt>
      <trkpt lat="42.90949" lon="0.11684">
        <ele>1675</ele>
        <time>2013-01-05T08:28:42Z</time>
      </trkpt>
      <trkpt lat="42.9095" lon="0.11685">
        <ele>1675</ele>
        <time>2013-01-05T08:28:45Z</time>
      </trkpt>
      <trkpt lat="42.90951" lon="0.11687">
        <ele>1675</ele>
        <time>2013-01-05T08:28:48Z</time>
      </trkpt>
      <trkpt lat="42.90952" lon="0.11688">
        <ele>1676</ele>
        <time>2013-01-05T08:28:51Z</time>
      </trkpt>
      <trkpt lat="42.90954" lon="0.1169">
        <ele>1676</ele>
        <time>2013-01-05T08:28:54Z</time>
      </trkpt>
      <trkpt lat="42.90955" lon="0.11691">
        <ele>1676</ele>
        <time>2013-01-05T08:28:57Z</time>
      </trkpt>
      <trkpt lat="42.90956" lon="0.11692">
        <ele>1676</ele>
        <time>2013-01-05T08:29:00Z</time>
      </trkpt>
      <trkpt lat="42.90957" lon="0.11694">
        <ele>1676</ele>
        <time>2013-01-05T08:29:02Z</time>
      </trkpt>
      <trkpt lat="42.90958" lon="0.11695">
        <ele>1677</ele>
        <time>2013-01-05T08:29:05Z</time>
      </trkpt>
      <trkpt lat="42.9096" lon="0.11698">
        <ele>1677</ele>
        <time>2013-01-05T08:29:08Z</time>
      </trkpt>
      <trkpt lat="42.90961" lon="0.11699">
        <ele>1678</ele>
        <time>2013-01-05T08:29:11Z</time>
      </trkpt>
      <trkpt lat="42.90962" lon="0.11701">
        <ele>1678</ele>
        <time>2013-01-05T08:29:13Z</time>
      </trkpt>
      <trkpt lat="42.90963" lon="0.11702">
        <ele>1678</ele>
        <time>2013-01-05T08:29:16Z</time>
      </trkpt>
      <trkpt lat="42.90963" lon="0.11704">
        <ele>1679</ele>
        <time>2013-01-05T08:29:19Z</time>
      </trkpt>
      <trkpt lat="42.90964" lon="0.11705">
        <ele>1679</ele>
        <time>2013-01-05T08:29:21Z</time>
      </trkpt>
      <trkpt lat="42.90965" lon="0.11707">
        <ele>1679</ele>
        <time>2013-01-05T08:29:24Z</time>
      </trkpt>
      <trkpt lat="42.90966" lon="0.11709">
        <ele>1680</ele>
        <time>2013-01-05T08:29:28Z</time>
      </trkpt>
      <trkpt lat="42.90967" lon="0.1171">
        <ele>1680</ele>
        <time>2013-01-05T08:29:31Z</time>
      </trkpt>
      <trkpt lat="42.90967" lon="0.11712">
        <ele>1680</ele>
        <time>2013-01-05T08:29:35Z</time>
      </trkpt>
      <trkpt lat="42.90967" lon="0.11714">
        <ele>1680</ele>
        <time>2013-01-05T08:29:37Z</time>
      </trkpt>
      <trkpt lat="42.90967" lon="0.11715">
        <ele>1680</ele>
        <time>2013-01-05T08:29:39Z</time>
      </trkpt>
      <trkpt lat="42.90968" lon="0.11717">
        <ele>1681</ele>
        <time>2013-01-05T08:29:41Z</time>
      </trkpt>
      <trkpt lat="42.90968" lon="0.11719">
        <ele>1681</ele>
        <time>2013-01-05T08:29:44Z</time>
      </trkpt>
      <trkpt lat="42.9097" lon="0.11721">
        <ele>1682</ele>
        <time>2013-01-05T08:29:47Z</time>
      </trkpt>
      <trkpt lat="42.90971" lon="0.11722">
        <ele>1683</ele>
        <time>2013-01-05T08:29:50Z</time>
      </trkpt>
      <trkpt lat="42.90973" lon="0.11723">
        <ele>1683</ele>
        <time>2013-01-05T08:29:53Z</time>
      </trkpt>
      <trkpt lat="42.90974" lon="0.11724">
        <ele>1683</ele>
        <time>2013-01-05T08:29:55Z</time>
      </trkpt>
      <trkpt lat="42.90975" lon="0.11726">
        <ele>1684</ele>
        <time>2013-01-05T08:29:59Z</time>
      </trkpt>
      <trkpt lat="42.90977" lon="0.11727">
        <ele>1685</ele>
        <time>2013-01-05T08:30:02Z</time>
      </trkpt>
      <trkpt lat="42.90978" lon="0.11729">
        <ele>1686</ele>
        <time>2013-01-05T08:30:05Z</time>
      </trkpt>
      <trkpt lat="42.90979" lon="0.11731">
        <ele>1686</ele>
        <time>2013-01-05T08:30:08Z</time>
      </trkpt>
      <trkpt lat="42.90979" lon="0.11733">
        <ele>1686</ele>
        <time>2013-01-05T08:30:10Z</time>
      </trkpt>
      <trkpt lat="42.90981" lon="0.11735">
        <ele>1687</ele>
        <time>2013-01-05T08:30:13Z</time>
      </trkpt>
      <trkpt lat="42.90982" lon="0.11737">
        <ele>1688</ele>
        <time>2013-01-05T08:30:16Z</time>
      </trkpt>
      <trkpt lat="42.90983" lon="0.11738">
        <ele>1688</ele>
        <time>2013-01-05T08:30:19Z</time>
      </trkpt>
      <trkpt lat="42.90984" lon="0.1174">
        <ele>1689</ele>
        <time>2013-01-05T08:30:21Z</time>
      </trkpt>
      <trkpt lat="42.90985" lon="0.11741">
        <ele>1689</ele>
        <time>2013-01-05T08:30:24Z</time>
      </trkpt>
      <trkpt lat="42.90986" lon="0.11743">
        <ele>1689</ele>
        <time>2013-01-05T08:30:26Z</time>
      </trkpt>
      <trkpt lat="42.90987" lon="0.11744">
        <ele>1689</ele>
        <time>2013-01-05T08:30:29Z</time>
      </trkpt>
      <trkpt lat="42.90988" lon="0.11746">
        <ele>1690</ele>
        <time>2013-01-05T08:30:32Z</time>
      </trkpt>
      <trkpt lat="42.90989" lon="0.11748">
        <ele>1690</ele>
        <time>2013-01-05T08:30:35Z</time>
      </trkpt>
      <trkpt lat="42.9099" lon="0.1175">
        <ele>1691</ele>
        <time>2013-01-05T08:30:38Z</time>
      </trkpt>
      <trkpt lat="42.9099" lon="0.11751">
        <ele>1692</ele>
        <time>2013-01-05T08:30:42Z</time>
      </trkpt>
      <trkpt lat="42.9099" lon="0.11753">
        <ele>1692</ele>
        <time>2013-01-05T08:30:46Z</time>
      </trkpt>
      <trkpt lat="42.9099" lon="0.11754">
        <ele>1693</ele>
        <time>2013-01-05T08:30:49Z</time>
      </trkpt>
      <trkpt lat="42.9099" lon="0.11756">
        <ele>1693</ele>
        <time>2013-01-05T08:30:51Z</time>
      </trkpt>
      <trkpt lat="42.9099" lon="0.11757">
        <ele>1693</ele>
        <time>2013-01-05T08:30:53Z</time>
      </trkpt>
      <trkpt lat="42.9099" lon="0.11759">
        <ele>1694</ele>
        <time>2013-01-05T08:30:56Z</time>
      </trkpt>
      <trkpt lat="42.90991" lon="0.11761">
        <ele>1694</ele>
        <time>2013-01-05T08:30:59Z</time>
      </trkpt>
      <trkpt lat="42.90992" lon="0.11763">
        <ele>1695</ele>
        <time>2013-01-05T08:31:02Z</time>
      </trkpt>
      <trkpt lat="42.90993" lon="0.11765">
        <ele>1696</ele>
        <time>2013-01-05T08:31:08Z</time>
      </trkpt>
      <trkpt lat="42.90995" lon="0.11766">
        <ele>1697</ele>
        <time>2013-01-05T08:31:12Z</time>
      </trkpt>
      <trkpt lat="42.90996" lon="0.11766">
        <ele>1697</ele>
        <time>2013-01-05T08:31:15Z</time>
      </trkpt>
      <trkpt lat="42.90997" lon="0.11766">
        <ele>1697</ele>
        <time>2013-01-05T08:31:16Z</time>
      </trkpt>
      <trkpt lat="42.90999" lon="0.11765">
        <ele>1697</ele>
        <time>2013-01-05T08:31:18Z</time>
      </trkpt>
      <trkpt lat="42.91" lon="0.11765">
        <ele>1697</ele>
        <time>2013-01-05T08:31:20Z</time>
      </trkpt>
      <trkpt lat="42.91001" lon="0.11765">
        <ele>1697</ele>
        <time>2013-01-05T08:31:22Z</time>
      </trkpt>
      <trkpt lat="42.91003" lon="0.11764">
        <ele>1697</ele>
        <time>2013-01-05T08:31:25Z</time>
      </trkpt>
      <trkpt lat="42.91004" lon="0.11764">
        <ele>1697</ele>
        <time>2013-01-05T08:31:27Z</time>
      </trkpt>
      <trkpt lat="42.91005" lon="0.11764">
        <ele>1697</ele>
        <time>2013-01-05T08:31:29Z</time>
      </trkpt>
      <trkpt lat="42.91007" lon="0.11763">
        <ele>1697</ele>
        <time>2013-01-05T08:31:32Z</time>
      </trkpt>
      <trkpt lat="42.91008" lon="0.11763">
        <ele>1697</ele>
        <time>2013-01-05T08:31:35Z</time>
      </trkpt>
      <trkpt lat="42.9101" lon="0.11763">
        <ele>1697</ele>
        <time>2013-01-05T08:31:37Z</time>
      </trkpt>
      <trkpt lat="42.91011" lon="0.11763">
        <ele>1697</ele>
        <time>2013-01-05T08:31:39Z</time>
      </trkpt>
      <trkpt lat="42.91012" lon="0.11763">
        <ele>1698</ele>
        <time>2013-01-05T08:31:43Z</time>
      </trkpt>
      <trkpt lat="42.91014" lon="0.11763">
        <ele>1698</ele>
        <time>2013-01-05T08:31:46Z</time>
      </trkpt>
      <trkpt lat="42.91015" lon="0.11765">
        <ele>1699</ele>
        <time>2013-01-05T08:31:50Z</time>
      </trkpt>
      <trkpt lat="42.91016" lon="0.11767">
        <ele>1700</ele>
        <time>2013-01-05T08:31:53Z</time>
      </trkpt>
      <trkpt lat="42.91017" lon="0.11768">
        <ele>1701</ele>
        <time>2013-01-05T08:31:56Z</time>
      </trkpt>
      <trkpt lat="42.91017" lon="0.1177">
        <ele>1701</ele>
        <time>2013-01-05T08:31:57Z</time>
      </trkpt>
      <trkpt lat="42.91018" lon="0.11771">
        <ele>1702</ele>
        <time>2013-01-05T08:32:00Z</time>
      </trkpt>
      <trkpt lat="42.91018" lon="0.11773">
        <ele>1703</ele>
        <time>2013-01-05T08:32:02Z</time>
      </trkpt>
      <trkpt lat="42.91019" lon="0.11774">
        <ele>1704</ele>
        <time>2013-01-05T08:32:05Z</time>
      </trkpt>
      <trkpt lat="42.91019" lon="0.11776">
        <ele>1705</ele>
        <time>2013-01-05T08:32:08Z</time>
      </trkpt>
      <trkpt lat="42.9102" lon="0.11778">
        <ele>1706</ele>
        <time>2013-01-05T08:32:11Z</time>
      </trkpt>
      <trkpt lat="42.91021" lon="0.11779">
        <ele>1706</ele>
        <time>2013-01-05T08:32:14Z</time>
      </trkpt>
      <trkpt lat="42.91022" lon="0.11781">
        <ele>1707</ele>
        <time>2013-01-05T08:32:17Z</time>
      </trkpt>
      <trkpt lat="42.91024" lon="0.11782">
        <ele>1708</ele>
        <time>2013-01-05T08:32:20Z</time>
      </trkpt>
      <trkpt lat="42.91025" lon="0.11783">
        <ele>1708</ele>
        <time>2013-01-05T08:32:21Z</time>
      </trkpt>
      <trkpt lat="42.91026" lon="0.11785">
        <ele>1709</ele>
        <time>2013-01-05T08:32:25Z</time>
      </trkpt>
      <trkpt lat="42.91027" lon="0.11787">
        <ele>1709</ele>
        <time>2013-01-05T08:32:26Z</time>
      </trkpt>
      <trkpt lat="42.91028" lon="0.11788">
        <ele>1710</ele>
        <time>2013-01-05T08:32:29Z</time>
      </trkpt>
      <trkpt lat="42.91029" lon="0.1179">
        <ele>1710</ele>
        <time>2013-01-05T08:32:32Z</time>
      </trkpt>
      <trkpt lat="42.9103" lon="0.11792">
        <ele>1711</ele>
        <time>2013-01-05T08:32:35Z</time>
      </trkpt>
      <trkpt lat="42.91031" lon="0.11793">
        <ele>1711</ele>
        <time>2013-01-05T08:32:37Z</time>
      </trkpt>
      <trkpt lat="42.91031" lon="0.11795">
        <ele>1711</ele>
        <time>2013-01-05T08:32:39Z</time>
      </trkpt>
      <trkpt lat="42.91031" lon="0.11796">
        <ele>1711</ele>
        <time>2013-01-05T08:32:41Z</time>
      </trkpt>
      <trkpt lat="42.91032" lon="0.11797">
        <ele>1712</ele>
        <time>2013-01-05T08:32:47Z</time>
      </trkpt>
      <trkpt lat="42.91033" lon="0.11799">
        <ele>1712</ele>
        <time>2013-01-05T08:32:49Z</time>
      </trkpt>
      <trkpt lat="42.91033" lon="0.11801">
        <ele>1712</ele>
        <time>2013-01-05T08:32:53Z</time>
      </trkpt>
      <trkpt lat="42.91034" lon="0.11802">
        <ele>1712</ele>
        <time>2013-01-05T08:32:55Z</time>
      </trkpt>
      <trkpt lat="42.91035" lon="0.11801">
        <ele>1714</ele>
        <time>2013-01-05T08:33:19Z</time>
      </trkpt>
      <trkpt lat="42.91035" lon="0.11803">
        <ele>1714</ele>
        <time>2013-01-05T08:33:37Z</time>
      </trkpt>
      <trkpt lat="42.91036" lon="0.11804">
        <ele>1714</ele>
        <time>2013-01-05T08:33:42Z</time>
      </trkpt>
      <trkpt lat="42.91037" lon="0.11806">
        <ele>1714</ele>
        <time>2013-01-05T08:33:45Z</time>
      </trkpt>
      <trkpt lat="42.91038" lon="0.11808">
        <ele>1714</ele>
        <time>2013-01-05T08:33:48Z</time>
      </trkpt>
      <trkpt lat="42.91038" lon="0.1181">
        <ele>1714</ele>
        <time>2013-01-05T08:33:51Z</time>
      </trkpt>
      <trkpt lat="42.91039" lon="0.11812">
        <ele>1714</ele>
        <time>2013-01-05T08:33:54Z</time>
      </trkpt>
      <trkpt lat="42.91039" lon="0.11813">
        <ele>1714</ele>
        <time>2013-01-05T08:33:56Z</time>
      </trkpt>
      <trkpt lat="42.9104" lon="0.11815">
        <ele>1715</ele>
        <time>2013-01-05T08:33:58Z</time>
      </trkpt>
      <trkpt lat="42.9104" lon="0.11817">
        <ele>1716</ele>
        <time>2013-01-05T08:34:01Z</time>
      </trkpt>
      <trkpt lat="42.91042" lon="0.11818">
        <ele>1716</ele>
        <time>2013-01-05T08:34:03Z</time>
      </trkpt>
      <trkpt lat="42.91043" lon="0.1182">
        <ele>1717</ele>
        <time>2013-01-05T08:34:08Z</time>
      </trkpt>
      <trkpt lat="42.91043" lon="0.11822">
        <ele>1718</ele>
        <time>2013-01-05T08:34:10Z</time>
      </trkpt>
      <trkpt lat="42.91045" lon="0.11823">
        <ele>1719</ele>
        <time>2013-01-05T08:34:16Z</time>
      </trkpt>
      <trkpt lat="42.91046" lon="0.11824">
        <ele>1719</ele>
        <time>2013-01-05T08:34:17Z</time>
      </trkpt>
      <trkpt lat="42.91047" lon="0.11825">
        <ele>1720</ele>
        <time>2013-01-05T08:34:21Z</time>
      </trkpt>
      <trkpt lat="42.91049" lon="0.11824">
        <ele>1720</ele>
        <time>2013-01-05T08:34:23Z</time>
      </trkpt>
      <trkpt lat="42.9105" lon="0.11823">
        <ele>1720</ele>
        <time>2013-01-05T08:34:25Z</time>
      </trkpt>
      <trkpt lat="42.9105" lon="0.11825">
        <ele>1720</ele>
        <time>2013-01-05T08:34:46Z</time>
      </trkpt>
      <trkpt lat="42.91051" lon="0.11827">
        <ele>1720</ele>
        <time>2013-01-05T08:34:47Z</time>
      </trkpt>
      <trkpt lat="42.91052" lon="0.11829">
        <ele>1720</ele>
        <time>2013-01-05T08:34:50Z</time>
      </trkpt>
      <trkpt lat="42.91053" lon="0.1183">
        <ele>1720</ele>
        <time>2013-01-05T08:34:52Z</time>
      </trkpt>
      <trkpt lat="42.91055" lon="0.11833">
        <ele>1720</ele>
        <time>2013-01-05T08:34:53Z</time>
      </trkpt>
      <trkpt lat="42.91055" lon="0.11834">
        <ele>1720</ele>
        <time>2013-01-05T08:34:56Z</time>
      </trkpt>
      <trkpt lat="42.91056" lon="0.11836">
        <ele>1720</ele>
        <time>2013-01-05T08:34:58Z</time>
      </trkpt>
      <trkpt lat="42.91057" lon="0.11838">
        <ele>1720</ele>
        <time>2013-01-05T08:34:59Z</time>
      </trkpt>
      <trkpt lat="42.91057" lon="0.1184">
        <ele>1720</ele>
        <time>2013-01-05T08:35:02Z</time>
      </trkpt>
      <trkpt lat="42.91058" lon="0.11841">
        <ele>1720</ele>
        <time>2013-01-05T08:35:04Z</time>
      </trkpt>
      <trkpt lat="42.91058" lon="0.11843">
        <ele>1721</ele>
        <time>2013-01-05T08:35:05Z</time>
      </trkpt>
      <trkpt lat="42.91059" lon="0.11845">
        <ele>1721</ele>
        <time>2013-01-05T08:35:07Z</time>
      </trkpt>
      <trkpt lat="42.9106" lon="0.11846">
        <ele>1722</ele>
        <time>2013-01-05T08:35:10Z</time>
      </trkpt>
      <trkpt lat="42.91061" lon="0.11848">
        <ele>1722</ele>
        <time>2013-01-05T08:35:12Z</time>
      </trkpt>
      <trkpt lat="42.91061" lon="0.11849">
        <ele>1722</ele>
        <time>2013-01-05T08:35:13Z</time>
      </trkpt>
      <trkpt lat="42.91062" lon="0.11851">
        <ele>1722</ele>
        <time>2013-01-05T08:35:16Z</time>
      </trkpt>
      <trkpt lat="42.91063" lon="0.11852">
        <ele>1723</ele>
        <time>2013-01-05T08:35:18Z</time>
      </trkpt>
      <trkpt lat="42.91064" lon="0.11854">
        <ele>1723</ele>
        <time>2013-01-05T08:35:20Z</time>
      </trkpt>
      <trkpt lat="42.91066" lon="0.11856">
        <ele>1724</ele>
        <time>2013-01-05T08:35:24Z</time>
      </trkpt>
      <trkpt lat="42.91067" lon="0.11857">
        <ele>1724</ele>
        <time>2013-01-05T08:35:26Z</time>
      </trkpt>
      <trkpt lat="42.91068" lon="0.11857">
        <ele>1724</ele>
        <time>2013-01-05T08:35:27Z</time>
      </trkpt>
      <trkpt lat="42.91069" lon="0.11858">
        <ele>1724</ele>
        <time>2013-01-05T08:35:31Z</time>
      </trkpt>
      <trkpt lat="42.9107" lon="0.11859">
        <ele>1725</ele>
        <time>2013-01-05T08:35:33Z</time>
      </trkpt>
      <trkpt lat="42.91071" lon="0.11861">
        <ele>1725</ele>
        <time>2013-01-05T08:35:37Z</time>
      </trkpt>
      <trkpt lat="42.91071" lon="0.11863">
        <ele>1726</ele>
        <time>2013-01-05T08:35:40Z</time>
      </trkpt>
      <trkpt lat="42.91072" lon="0.11865">
        <ele>1726</ele>
        <time>2013-01-05T08:35:43Z</time>
      </trkpt>
      <trkpt lat="42.91073" lon="0.11866">
        <ele>1727</ele>
        <time>2013-01-05T08:35:46Z</time>
      </trkpt>
      <trkpt lat="42.91075" lon="0.11868">
        <ele>1727</ele>
        <time>2013-01-05T08:35:50Z</time>
      </trkpt>
      <trkpt lat="42.91076" lon="0.1187">
        <ele>1728</ele>
        <time>2013-01-05T08:35:53Z</time>
      </trkpt>
      <trkpt lat="42.91077" lon="0.11871">
        <ele>1728</ele>
        <time>2013-01-05T08:35:56Z</time>
      </trkpt>
      <trkpt lat="42.91078" lon="0.11872">
        <ele>1729</ele>
        <time>2013-01-05T08:35:59Z</time>
      </trkpt>
      <trkpt lat="42.9108" lon="0.11873">
        <ele>1729</ele>
        <time>2013-01-05T08:36:02Z</time>
      </trkpt>
      <trkpt lat="42.91081" lon="0.11873">
        <ele>1729</ele>
        <time>2013-01-05T08:36:04Z</time>
      </trkpt>
      <trkpt lat="42.91082" lon="0.11874">
        <ele>1729</ele>
        <time>2013-01-05T08:36:07Z</time>
      </trkpt>
      <trkpt lat="42.91084" lon="0.11875">
        <ele>1729</ele>
        <time>2013-01-05T08:36:09Z</time>
      </trkpt>
      <trkpt lat="42.91085" lon="0.11875">
        <ele>1730</ele>
        <time>2013-01-05T08:36:11Z</time>
      </trkpt>
      <trkpt lat="42.91086" lon="0.11875">
        <ele>1730</ele>
        <time>2013-01-05T08:36:14Z</time>
      </trkpt>
      <trkpt lat="42.91087" lon="0.11876">
        <ele>1730</ele>
        <time>2013-01-05T08:36:15Z</time>
      </trkpt>
      <trkpt lat="42.91089" lon="0.11876">
        <ele>1730</ele>
        <time>2013-01-05T08:36:21Z</time>
      </trkpt>
      <trkpt lat="42.9109" lon="0.11877">
        <ele>1730</ele>
        <time>2013-01-05T08:36:26Z</time>
      </trkpt>
      <trkpt lat="42.91091" lon="0.11875">
        <ele>1730</ele>
        <time>2013-01-05T08:36:27Z</time>
      </trkpt>
      <trkpt lat="42.91091" lon="0.11874">
        <ele>1730</ele>
        <time>2013-01-05T08:36:29Z</time>
      </trkpt>
      <trkpt lat="42.91092" lon="0.11872">
        <ele>1730</ele>
        <time>2013-01-05T08:36:32Z</time>
      </trkpt>
      <trkpt lat="42.91092" lon="0.1187">
        <ele>1730</ele>
        <time>2013-01-05T08:36:33Z</time>
      </trkpt>
      <trkpt lat="42.91092" lon="0.11869">
        <ele>1731</ele>
        <time>2013-01-05T08:36:35Z</time>
      </trkpt>
      <trkpt lat="42.91092" lon="0.11867">
        <ele>1731</ele>
        <time>2013-01-05T08:36:39Z</time>
      </trkpt>
      <trkpt lat="42.91093" lon="0.11866">
        <ele>1732</ele>
        <time>2013-01-05T08:36:41Z</time>
      </trkpt>
      <trkpt lat="42.91094" lon="0.11866">
        <ele>1732</ele>
        <time>2013-01-05T08:36:45Z</time>
      </trkpt>
      <trkpt lat="42.91096" lon="0.11867">
        <ele>1733</ele>
        <time>2013-01-05T08:36:48Z</time>
      </trkpt>
      <trkpt lat="42.91097" lon="0.11867">
        <ele>1734</ele>
        <time>2013-01-05T08:36:51Z</time>
      </trkpt>
      <trkpt lat="42.91099" lon="0.11868">
        <ele>1734</ele>
        <time>2013-01-05T08:36:53Z</time>
      </trkpt>
      <trkpt lat="42.911" lon="0.11868">
        <ele>1734</ele>
        <time>2013-01-05T08:36:57Z</time>
      </trkpt>
      <trkpt lat="42.91102" lon="0.11869">
        <ele>1735</ele>
        <time>2013-01-05T08:37:00Z</time>
      </trkpt>
      <trkpt lat="42.91103" lon="0.1187">
        <ele>1736</ele>
        <time>2013-01-05T08:37:03Z</time>
      </trkpt>
      <trkpt lat="42.91105" lon="0.11872">
        <ele>1737</ele>
        <time>2013-01-05T08:37:06Z</time>
      </trkpt>
      <trkpt lat="42.91106" lon="0.11873">
        <ele>1738</ele>
        <time>2013-01-05T08:37:09Z</time>
      </trkpt>
      <trkpt lat="42.91107" lon="0.11874">
        <ele>1738</ele>
        <time>2013-01-05T08:37:13Z</time>
      </trkpt>
      <trkpt lat="42.91108" lon="0.11875">
        <ele>1739</ele>
        <time>2013-01-05T08:37:16Z</time>
      </trkpt>
      <trkpt lat="42.9111" lon="0.11876">
        <ele>1739</ele>
        <time>2013-01-05T08:37:19Z</time>
      </trkpt>
      <trkpt lat="42.91111" lon="0.11878">
        <ele>1740</ele>
        <time>2013-01-05T08:37:23Z</time>
      </trkpt>
      <trkpt lat="42.91113" lon="0.11878">
        <ele>1740</ele>
        <time>2013-01-05T08:37:25Z</time>
      </trkpt>
      <trkpt lat="42.91114" lon="0.11879">
        <ele>1740</ele>
        <time>2013-01-05T08:37:31Z</time>
      </trkpt>
      <trkpt lat="42.91115" lon="0.1188">
        <ele>1741</ele>
        <time>2013-01-05T08:37:33Z</time>
      </trkpt>
      <trkpt lat="42.91116" lon="0.11882">
        <ele>1741</ele>
        <time>2013-01-05T08:37:38Z</time>
      </trkpt>
      <trkpt lat="42.91117" lon="0.11883">
        <ele>1742</ele>
        <time>2013-01-05T08:37:40Z</time>
      </trkpt>
      <trkpt lat="42.91119" lon="0.11884">
        <ele>1742</ele>
        <time>2013-01-05T08:37:44Z</time>
      </trkpt>
      <trkpt lat="42.9112" lon="0.11884">
        <ele>1742</ele>
        <time>2013-01-05T08:37:46Z</time>
      </trkpt>
      <trkpt lat="42.91121" lon="0.11886">
        <ele>1743</ele>
        <time>2013-01-05T08:37:50Z</time>
      </trkpt>
      <trkpt lat="42.91122" lon="0.11887">
        <ele>1744</ele>
        <time>2013-01-05T08:37:52Z</time>
      </trkpt>
      <trkpt lat="42.91123" lon="0.11889">
        <ele>1744</ele>
        <time>2013-01-05T08:37:56Z</time>
      </trkpt>
      <trkpt lat="42.91124" lon="0.11891">
        <ele>1745</ele>
        <time>2013-01-05T08:37:59Z</time>
      </trkpt>
      <trkpt lat="42.91124" lon="0.11892">
        <ele>1746</ele>
        <time>2013-01-05T08:38:02Z</time>
      </trkpt>
      <trkpt lat="42.91125" lon="0.11894">
        <ele>1746</ele>
        <time>2013-01-05T08:38:04Z</time>
      </trkpt>
      <trkpt lat="42.91126" lon="0.11896">
        <ele>1747</ele>
        <time>2013-01-05T08:38:08Z</time>
      </trkpt>
      <trkpt lat="42.91127" lon="0.11897">
        <ele>1747</ele>
        <time>2013-01-05T08:38:11Z</time>
      </trkpt>
      <trkpt lat="42.91128" lon="0.11898">
        <ele>1748</ele>
        <time>2013-01-05T08:38:14Z</time>
      </trkpt>
      <trkpt lat="42.91129" lon="0.11899">
        <ele>1748</ele>
        <time>2013-01-05T08:38:16Z</time>
      </trkpt>
      <trkpt lat="42.91131" lon="0.11899">
        <ele>1748</ele>
        <time>2013-01-05T08:38:18Z</time>
      </trkpt>
      <trkpt lat="42.91132" lon="0.119">
        <ele>1748</ele>
        <time>2013-01-05T08:38:22Z</time>
      </trkpt>
      <trkpt lat="42.91133" lon="0.11902">
        <ele>1748</ele>
        <time>2013-01-05T08:38:24Z</time>
      </trkpt>
      <trkpt lat="42.91135" lon="0.11903">
        <ele>1749</ele>
        <time>2013-01-05T08:38:28Z</time>
      </trkpt>
      <trkpt lat="42.91136" lon="0.11903">
        <ele>1749</ele>
        <time>2013-01-05T08:38:31Z</time>
      </trkpt>
      <trkpt lat="42.91137" lon="0.11904">
        <ele>1749</ele>
        <time>2013-01-05T08:38:34Z</time>
      </trkpt>
      <trkpt lat="42.91139" lon="0.11905">
        <ele>1750</ele>
        <time>2013-01-05T08:38:37Z</time>
      </trkpt>
      <trkpt lat="42.9114" lon="0.11905">
        <ele>1750</ele>
        <time>2013-01-05T08:38:40Z</time>
      </trkpt>
      <trkpt lat="42.91141" lon="0.11906">
        <ele>1750</ele>
        <time>2013-01-05T08:38:41Z</time>
      </trkpt>
      <trkpt lat="42.91143" lon="0.11906">
        <ele>1750</ele>
        <time>2013-01-05T08:38:44Z</time>
      </trkpt>
      <trkpt lat="42.91144" lon="0.11906">
        <ele>1750</ele>
        <time>2013-01-05T08:38:46Z</time>
      </trkpt>
      <trkpt lat="42.91145" lon="0.11906">
        <ele>1750</ele>
        <time>2013-01-05T08:38:48Z</time>
      </trkpt>
      <trkpt lat="42.91146" lon="0.11907">
        <ele>1750</ele>
        <time>2013-01-05T08:38:51Z</time>
      </trkpt>
      <trkpt lat="42.91147" lon="0.11908">
        <ele>1751</ele>
        <time>2013-01-05T08:38:52Z</time>
      </trkpt>
      <trkpt lat="42.91148" lon="0.11908">
        <ele>1752</ele>
        <time>2013-01-05T08:38:57Z</time>
      </trkpt>
      <trkpt lat="42.9115" lon="0.1191">
        <ele>1752</ele>
        <time>2013-01-05T08:39:00Z</time>
      </trkpt>
      <trkpt lat="42.91151" lon="0.1191">
        <ele>1752</ele>
        <time>2013-01-05T08:39:04Z</time>
      </trkpt>
      <trkpt lat="42.91152" lon="0.11911">
        <ele>1752</ele>
        <time>2013-01-05T08:39:07Z</time>
      </trkpt>
      <trkpt lat="42.91154" lon="0.11912">
        <ele>1752</ele>
        <time>2013-01-05T08:39:11Z</time>
      </trkpt>
      <trkpt lat="42.91155" lon="0.11912">
        <ele>1753</ele>
        <time>2013-01-05T08:39:13Z</time>
      </trkpt>
      <trkpt lat="42.91156" lon="0.11913">
        <ele>1753</ele>
        <time>2013-01-05T08:39:16Z</time>
      </trkpt>
      <trkpt lat="42.91157" lon="0.11913">
        <ele>1754</ele>
        <time>2013-01-05T08:39:19Z</time>
      </trkpt>
      <trkpt lat="42.91159" lon="0.11914">
        <ele>1755</ele>
        <time>2013-01-05T08:39:22Z</time>
      </trkpt>
      <trkpt lat="42.9116" lon="0.11914">
        <ele>1755</ele>
        <time>2013-01-05T08:39:24Z</time>
      </trkpt>
      <trkpt lat="42.91161" lon="0.11915">
        <ele>1755</ele>
        <time>2013-01-05T08:39:27Z</time>
      </trkpt>
      <trkpt lat="42.91162" lon="0.11916">
        <ele>1756</ele>
        <time>2013-01-05T08:39:29Z</time>
      </trkpt>
      <trkpt lat="42.91164" lon="0.11917">
        <ele>1757</ele>
        <time>2013-01-05T08:39:33Z</time>
      </trkpt>
      <trkpt lat="42.91165" lon="0.11919">
        <ele>1757</ele>
        <time>2013-01-05T08:39:36Z</time>
      </trkpt>
      <trkpt lat="42.91166" lon="0.1192">
        <ele>1759</ele>
        <time>2013-01-05T08:39:41Z</time>
      </trkpt>
      <trkpt lat="42.91167" lon="0.1192">
        <ele>1760</ele>
        <time>2013-01-05T08:39:45Z</time>
      </trkpt>
      <trkpt lat="42.91169" lon="0.11922">
        <ele>1761</ele>
        <time>2013-01-05T08:39:52Z</time>
      </trkpt>
      <trkpt lat="42.9117" lon="0.11923">
        <ele>1762</ele>
        <time>2013-01-05T08:39:55Z</time>
      </trkpt>
      <trkpt lat="42.91171" lon="0.11923">
        <ele>1762</ele>
        <time>2013-01-05T08:40:01Z</time>
      </trkpt>
      <trkpt lat="42.91172" lon="0.11923">
        <ele>1763</ele>
        <time>2013-01-05T08:40:27Z</time>
      </trkpt>
      <trkpt lat="42.91172" lon="0.11924">
        <ele>1763</ele>
        <time>2013-01-05T08:40:36Z</time>
      </trkpt>
      <trkpt lat="42.91171" lon="0.11924">
        <ele>1763</ele>
        <time>2013-01-05T08:40:43Z</time>
      </trkpt>
      <trkpt lat="42.9117" lon="0.11925">
        <ele>1763</ele>
        <time>2013-01-05T08:40:50Z</time>
      </trkpt>
      <trkpt lat="42.91169" lon="0.11923">
        <ele>1764</ele>
        <time>2013-01-05T08:41:00Z</time>
      </trkpt>
      <trkpt lat="42.91171" lon="0.11923">
        <ele>1764</ele>
        <time>2013-01-05T08:41:15Z</time>
      </trkpt>
      <trkpt lat="42.91172" lon="0.11921">
        <ele>1764</ele>
        <time>2013-01-05T08:41:33Z</time>
      </trkpt>
      <trkpt lat="42.91172" lon="0.1192">
        <ele>1764</ele>
        <time>2013-01-05T08:41:34Z</time>
      </trkpt>
      <trkpt lat="42.91172" lon="0.11918">
        <ele>1764</ele>
        <time>2013-01-05T08:41:36Z</time>
      </trkpt>
      <trkpt lat="42.91173" lon="0.11916">
        <ele>1764</ele>
        <time>2013-01-05T08:41:39Z</time>
      </trkpt>
      <trkpt lat="42.91173" lon="0.11915">
        <ele>1764</ele>
        <time>2013-01-05T08:41:40Z</time>
      </trkpt>
      <trkpt lat="42.91174" lon="0.11913">
        <ele>1764</ele>
        <time>2013-01-05T08:41:44Z</time>
      </trkpt>
      <trkpt lat="42.91174" lon="0.11911">
        <ele>1764</ele>
        <time>2013-01-05T08:41:45Z</time>
      </trkpt>
      <trkpt lat="42.91174" lon="0.1191">
        <ele>1764</ele>
        <time>2013-01-05T08:41:47Z</time>
      </trkpt>
      <trkpt lat="42.91175" lon="0.11908">
        <ele>1764</ele>
        <time>2013-01-05T08:41:50Z</time>
      </trkpt>
      <trkpt lat="42.91175" lon="0.11907">
        <ele>1764</ele>
        <time>2013-01-05T08:41:52Z</time>
      </trkpt>
      <trkpt lat="42.91175" lon="0.11905">
        <ele>1764</ele>
        <time>2013-01-05T08:41:53Z</time>
      </trkpt>
      <trkpt lat="42.91176" lon="0.11904">
        <ele>1765</ele>
        <time>2013-01-05T08:41:56Z</time>
      </trkpt>
      <trkpt lat="42.91176" lon="0.11902">
        <ele>1765</ele>
        <time>2013-01-05T08:41:57Z</time>
      </trkpt>
      <trkpt lat="42.91176" lon="0.119">
        <ele>1765</ele>
        <time>2013-01-05T08:41:59Z</time>
      </trkpt>
      <trkpt lat="42.91176" lon="0.11898">
        <ele>1765</ele>
        <time>2013-01-05T08:42:02Z</time>
      </trkpt>
      <trkpt lat="42.91176" lon="0.11897">
        <ele>1766</ele>
        <time>2013-01-05T08:42:04Z</time>
      </trkpt>
      <trkpt lat="42.91177" lon="0.11895">
        <ele>1766</ele>
        <time>2013-01-05T08:42:06Z</time>
      </trkpt>
      <trkpt lat="42.91177" lon="0.11893">
        <ele>1767</ele>
        <time>2013-01-05T08:42:08Z</time>
      </trkpt>
      <trkpt lat="42.91177" lon="0.11891">
        <ele>1767</ele>
        <time>2013-01-05T08:42:09Z</time>
      </trkpt>
      <trkpt lat="42.91177" lon="0.1189">
        <ele>1768</ele>
        <time>2013-01-05T08:42:12Z</time>
      </trkpt>
      <trkpt lat="42.91177" lon="0.11888">
        <ele>1768</ele>
        <time>2013-01-05T08:42:14Z</time>
      </trkpt>
      <trkpt lat="42.91177" lon="0.11886">
        <ele>1769</ele>
        <time>2013-01-05T08:42:16Z</time>
      </trkpt>
      <trkpt lat="42.91177" lon="0.11885">
        <ele>1769</ele>
        <time>2013-01-05T08:42:17Z</time>
      </trkpt>
      <trkpt lat="42.91177" lon="0.11883">
        <ele>1770</ele>
        <time>2013-01-05T08:42:24Z</time>
      </trkpt>
      <trkpt lat="42.91177" lon="0.11881">
        <ele>1770</ele>
        <time>2013-01-05T08:42:26Z</time>
      </trkpt>
      <trkpt lat="42.91177" lon="0.1188">
        <ele>1770</ele>
        <time>2013-01-05T08:42:27Z</time>
      </trkpt>
      <trkpt lat="42.91177" lon="0.11878">
        <ele>1770</ele>
        <time>2013-01-05T08:42:30Z</time>
      </trkpt>
      <trkpt lat="42.91177" lon="0.11876">
        <ele>1771</ele>
        <time>2013-01-05T08:42:41Z</time>
      </trkpt>
      <trkpt lat="42.91177" lon="0.11874">
        <ele>1771</ele>
        <time>2013-01-05T08:42:43Z</time>
      </trkpt>
      <trkpt lat="42.91177" lon="0.11872">
        <ele>1771</ele>
        <time>2013-01-05T08:42:44Z</time>
      </trkpt>
      <trkpt lat="42.91178" lon="0.11871">
        <ele>1771</ele>
        <time>2013-01-05T08:42:47Z</time>
      </trkpt>
      <trkpt lat="42.91178" lon="0.11869">
        <ele>1771</ele>
        <time>2013-01-05T08:42:48Z</time>
      </trkpt>
      <trkpt lat="42.91178" lon="0.11867">
        <ele>1772</ele>
        <time>2013-01-05T08:42:50Z</time>
      </trkpt>
      <trkpt lat="42.91178" lon="0.11866">
        <ele>1772</ele>
        <time>2013-01-05T08:42:53Z</time>
      </trkpt>
      <trkpt lat="42.91177" lon="0.11864">
        <ele>1772</ele>
        <time>2013-01-05T08:42:55Z</time>
      </trkpt>
      <trkpt lat="42.91177" lon="0.11862">
        <ele>1772</ele>
        <time>2013-01-05T08:42:56Z</time>
      </trkpt>
      <trkpt lat="42.91177" lon="0.1186">
        <ele>1773</ele>
        <time>2013-01-05T08:42:59Z</time>
      </trkpt>
      <trkpt lat="42.91177" lon="0.11858">
        <ele>1773</ele>
        <time>2013-01-05T08:43:01Z</time>
      </trkpt>
      <trkpt lat="42.91177" lon="0.11857">
        <ele>1774</ele>
        <time>2013-01-05T08:43:03Z</time>
      </trkpt>
      <trkpt lat="42.91177" lon="0.11855">
        <ele>1774</ele>
        <time>2013-01-05T08:43:05Z</time>
      </trkpt>
      <trkpt lat="42.91177" lon="0.11853">
        <ele>1774</ele>
        <time>2013-01-05T08:43:06Z</time>
      </trkpt>
      <trkpt lat="42.91177" lon="0.11852">
        <ele>1775</ele>
        <time>2013-01-05T08:43:08Z</time>
      </trkpt>
      <trkpt lat="42.91176" lon="0.11851">
        <ele>1775</ele>
        <time>2013-01-05T08:43:11Z</time>
      </trkpt>
      <trkpt lat="42.91176" lon="0.11849">
        <ele>1775</ele>
        <time>2013-01-05T08:43:13Z</time>
      </trkpt>
      <trkpt lat="42.91176" lon="0.11847">
        <ele>1776</ele>
        <time>2013-01-05T08:43:16Z</time>
      </trkpt>
      <trkpt lat="42.91176" lon="0.11845">
        <ele>1777</ele>
        <time>2013-01-05T08:43:18Z</time>
      </trkpt>
      <trkpt lat="42.91176" lon="0.11844">
        <ele>1777</ele>
        <time>2013-01-05T08:43:21Z</time>
      </trkpt>
      <trkpt lat="42.91175" lon="0.11842">
        <ele>1777</ele>
        <time>2013-01-05T08:43:23Z</time>
      </trkpt>
      <trkpt lat="42.91175" lon="0.1184">
        <ele>1777</ele>
        <time>2013-01-05T08:43:24Z</time>
      </trkpt>
      <trkpt lat="42.91175" lon="0.11839">
        <ele>1778</ele>
        <time>2013-01-05T08:43:27Z</time>
      </trkpt>
      <trkpt lat="42.91175" lon="0.11838">
        <ele>1778</ele>
        <time>2013-01-05T08:43:29Z</time>
      </trkpt>
      <trkpt lat="42.91175" lon="0.11835">
        <ele>1778</ele>
        <time>2013-01-05T08:43:32Z</time>
      </trkpt>
      <trkpt lat="42.91175" lon="0.11834">
        <ele>1779</ele>
        <time>2013-01-05T08:43:35Z</time>
      </trkpt>
      <trkpt lat="42.91175" lon="0.11831">
        <ele>1779</ele>
        <time>2013-01-05T08:43:38Z</time>
      </trkpt>
      <trkpt lat="42.91175" lon="0.1183">
        <ele>1780</ele>
        <time>2013-01-05T08:43:39Z</time>
      </trkpt>
      <trkpt lat="42.91175" lon="0.11829">
        <ele>1780</ele>
        <time>2013-01-05T08:43:43Z</time>
      </trkpt>
      <trkpt lat="42.91175" lon="0.11827">
        <ele>1780</ele>
        <time>2013-01-05T08:43:44Z</time>
      </trkpt>
      <trkpt lat="42.91175" lon="0.11825">
        <ele>1781</ele>
        <time>2013-01-05T08:43:46Z</time>
      </trkpt>
      <trkpt lat="42.91175" lon="0.11824">
        <ele>1781</ele>
        <time>2013-01-05T08:43:49Z</time>
      </trkpt>
      <trkpt lat="42.91175" lon="0.11822">
        <ele>1781</ele>
        <time>2013-01-05T08:43:51Z</time>
      </trkpt>
      <trkpt lat="42.91175" lon="0.11821">
        <ele>1782</ele>
        <time>2013-01-05T08:43:54Z</time>
      </trkpt>
      <trkpt lat="42.91177" lon="0.11822">
        <ele>1782</ele>
        <time>2013-01-05T08:44:01Z</time>
      </trkpt>
      <trkpt lat="42.91178" lon="0.11823">
        <ele>1782</ele>
        <time>2013-01-05T08:44:04Z</time>
      </trkpt>
      <trkpt lat="42.9118" lon="0.11823">
        <ele>1783</ele>
        <time>2013-01-05T08:44:07Z</time>
      </trkpt>
      <trkpt lat="42.9118" lon="0.11825">
        <ele>1783</ele>
        <time>2013-01-05T08:44:09Z</time>
      </trkpt>
      <trkpt lat="42.91182" lon="0.11826">
        <ele>1783</ele>
        <time>2013-01-05T08:44:12Z</time>
      </trkpt>
      <trkpt lat="42.91183" lon="0.11827">
        <ele>1784</ele>
        <time>2013-01-05T08:44:14Z</time>
      </trkpt>
      <trkpt lat="42.91184" lon="0.11828">
        <ele>1785</ele>
        <time>2013-01-05T08:44:18Z</time>
      </trkpt>
      <trkpt lat="42.91185" lon="0.11829">
        <ele>1786</ele>
        <time>2013-01-05T08:44:20Z</time>
      </trkpt>
      <trkpt lat="42.91187" lon="0.11831">
        <ele>1786</ele>
        <time>2013-01-05T08:44:24Z</time>
      </trkpt>
      <trkpt lat="42.91188" lon="0.11832">
        <ele>1786</ele>
        <time>2013-01-05T08:44:26Z</time>
      </trkpt>
      <trkpt lat="42.9119" lon="0.11833">
        <ele>1786</ele>
        <time>2013-01-05T08:44:30Z</time>
      </trkpt>
      <trkpt lat="42.91191" lon="0.11834">
        <ele>1786</ele>
        <time>2013-01-05T08:44:32Z</time>
      </trkpt>
      <trkpt lat="42.91192" lon="0.11834">
        <ele>1786</ele>
        <time>2013-01-05T08:44:36Z</time>
      </trkpt>
      <trkpt lat="42.91194" lon="0.11835">
        <ele>1786</ele>
        <time>2013-01-05T08:44:38Z</time>
      </trkpt>
      <trkpt lat="42.91196" lon="0.11836">
        <ele>1786</ele>
        <time>2013-01-05T08:44:42Z</time>
      </trkpt>
      <trkpt lat="42.91197" lon="0.11837">
        <ele>1786</ele>
        <time>2013-01-05T08:44:44Z</time>
      </trkpt>
      <trkpt lat="42.91198" lon="0.11838">
        <ele>1786</ele>
        <time>2013-01-05T08:44:48Z</time>
      </trkpt>
      <trkpt lat="42.912" lon="0.1184">
        <ele>1786</ele>
        <time>2013-01-05T08:44:51Z</time>
      </trkpt>
      <trkpt lat="42.91201" lon="0.11841">
        <ele>1787</ele>
        <time>2013-01-05T08:44:54Z</time>
      </trkpt>
      <trkpt lat="42.91203" lon="0.11842">
        <ele>1787</ele>
        <time>2013-01-05T08:44:57Z</time>
      </trkpt>
      <trkpt lat="42.91204" lon="0.11843">
        <ele>1787</ele>
        <time>2013-01-05T08:45:00Z</time>
      </trkpt>
      <trkpt lat="42.91205" lon="0.11844">
        <ele>1787</ele>
        <time>2013-01-05T08:45:02Z</time>
      </trkpt>
      <trkpt lat="42.91206" lon="0.11845">
        <ele>1788</ele>
        <time>2013-01-05T08:45:06Z</time>
      </trkpt>
      <trkpt lat="42.91208" lon="0.11846">
        <ele>1788</ele>
        <time>2013-01-05T08:45:08Z</time>
      </trkpt>
      <trkpt lat="42.91209" lon="0.11847">
        <ele>1788</ele>
        <time>2013-01-05T08:45:12Z</time>
      </trkpt>
      <trkpt lat="42.9121" lon="0.11848">
        <ele>1788</ele>
        <time>2013-01-05T08:45:14Z</time>
      </trkpt>
      <trkpt lat="42.91211" lon="0.11849">
        <ele>1788</ele>
        <time>2013-01-05T08:45:18Z</time>
      </trkpt>
      <trkpt lat="42.91213" lon="0.1185">
        <ele>1789</ele>
        <time>2013-01-05T08:45:20Z</time>
      </trkpt>
      <trkpt lat="42.91214" lon="0.11851">
        <ele>1789</ele>
        <time>2013-01-05T08:45:25Z</time>
      </trkpt>
      <trkpt lat="42.91215" lon="0.11853">
        <ele>1790</ele>
        <time>2013-01-05T08:45:28Z</time>
      </trkpt>
      <trkpt lat="42.91216" lon="0.11854">
        <ele>1790</ele>
        <time>2013-01-05T08:45:31Z</time>
      </trkpt>
      <trkpt lat="42.91217" lon="0.11855">
        <ele>1791</ele>
        <time>2013-01-05T08:45:33Z</time>
      </trkpt>
      <trkpt lat="42.91219" lon="0.11856">
        <ele>1792</ele>
        <time>2013-01-05T08:45:36Z</time>
      </trkpt>
      <trkpt lat="42.9122" lon="0.11857">
        <ele>1792</ele>
        <time>2013-01-05T08:45:37Z</time>
      </trkpt>
      <trkpt lat="42.91221" lon="0.11859">
        <ele>1793</ele>
        <time>2013-01-05T08:45:40Z</time>
      </trkpt>
      <trkpt lat="42.91222" lon="0.1186">
        <ele>1793</ele>
        <time>2013-01-05T08:45:43Z</time>
      </trkpt>
      <trkpt lat="42.91223" lon="0.11862">
        <ele>1793</ele>
        <time>2013-01-05T08:45:44Z</time>
      </trkpt>
      <trkpt lat="42.91225" lon="0.11864">
        <ele>1794</ele>
        <time>2013-01-05T08:45:48Z</time>
      </trkpt>
      <trkpt lat="42.91226" lon="0.11866">
        <ele>1794</ele>
        <time>2013-01-05T08:45:51Z</time>
      </trkpt>
      <trkpt lat="42.91227" lon="0.11867">
        <ele>1795</ele>
        <time>2013-01-05T08:45:53Z</time>
      </trkpt>
      <trkpt lat="42.91229" lon="0.11868">
        <ele>1795</ele>
        <time>2013-01-05T08:45:56Z</time>
      </trkpt>
      <trkpt lat="42.9123" lon="0.11869">
        <ele>1795</ele>
        <time>2013-01-05T08:46:00Z</time>
      </trkpt>
      <trkpt lat="42.91231" lon="0.1187">
        <ele>1796</ele>
        <time>2013-01-05T08:46:03Z</time>
      </trkpt>
      <trkpt lat="42.91233" lon="0.1187">
        <ele>1796</ele>
        <time>2013-01-05T08:46:04Z</time>
      </trkpt>
      <trkpt lat="42.91234" lon="0.11871">
        <ele>1796</ele>
        <time>2013-01-05T08:46:07Z</time>
      </trkpt>
      <trkpt lat="42.91235" lon="0.11872">
        <ele>1796</ele>
        <time>2013-01-05T08:46:09Z</time>
      </trkpt>
      <trkpt lat="42.91236" lon="0.11873">
        <ele>1796</ele>
        <time>2013-01-05T08:46:12Z</time>
      </trkpt>
      <trkpt lat="42.91238" lon="0.11874">
        <ele>1797</ele>
        <time>2013-01-05T08:46:15Z</time>
      </trkpt>
      <trkpt lat="42.91239" lon="0.11875">
        <ele>1797</ele>
        <time>2013-01-05T08:46:18Z</time>
      </trkpt>
      <trkpt lat="42.9124" lon="0.11875">
        <ele>1797</ele>
        <time>2013-01-05T08:46:20Z</time>
      </trkpt>
      <trkpt lat="42.91241" lon="0.11876">
        <ele>1798</ele>
        <time>2013-01-05T08:46:23Z</time>
      </trkpt>
      <trkpt lat="42.91242" lon="0.11877">
        <ele>1798</ele>
        <time>2013-01-05T08:46:26Z</time>
      </trkpt>
      <trkpt lat="42.91243" lon="0.11878">
        <ele>1798</ele>
        <time>2013-01-05T08:46:28Z</time>
      </trkpt>
      <trkpt lat="42.91245" lon="0.11878">
        <ele>1798</ele>
        <time>2013-01-05T08:46:29Z</time>
      </trkpt>
      <trkpt lat="42.91246" lon="0.11879">
        <ele>1799</ele>
        <time>2013-01-05T08:46:32Z</time>
      </trkpt>
      <trkpt lat="42.91248" lon="0.1188">
        <ele>1799</ele>
        <time>2013-01-05T08:46:35Z</time>
      </trkpt>
      <trkpt lat="42.91249" lon="0.11881">
        <ele>1799</ele>
        <time>2013-01-05T08:46:36Z</time>
      </trkpt>
      <trkpt lat="42.9125" lon="0.11882">
        <ele>1800</ele>
        <time>2013-01-05T08:46:40Z</time>
      </trkpt>
      <trkpt lat="42.91252" lon="0.11883">
        <ele>1800</ele>
        <time>2013-01-05T08:46:41Z</time>
      </trkpt>
      <trkpt lat="42.91253" lon="0.11883">
        <ele>1801</ele>
        <time>2013-01-05T08:46:50Z</time>
      </trkpt>
      <trkpt lat="42.91252" lon="0.11883">
        <ele>1801</ele>
        <time>2013-01-05T08:47:12Z</time>
      </trkpt>
      <trkpt lat="42.91251" lon="0.11884">
        <ele>1801</ele>
        <time>2013-01-05T08:49:15Z</time>
      </trkpt>
      <trkpt lat="42.91251" lon="0.11885">
        <ele>1801</ele>
        <time>2013-01-05T08:49:28Z</time>
      </trkpt>
      <trkpt lat="42.9125" lon="0.11886">
        <ele>1802</ele>
        <time>2013-01-05T08:49:35Z</time>
      </trkpt>
      <trkpt lat="42.91249" lon="0.11886">
        <ele>1803</ele>
        <time>2013-01-05T08:49:36Z</time>
      </trkpt>
      <trkpt lat="42.91247" lon="0.11886">
        <ele>1804</ele>
        <time>2013-01-05T08:49:39Z</time>
      </trkpt>
      <trkpt lat="42.91246" lon="0.11886">
        <ele>1805</ele>
        <time>2013-01-05T08:49:43Z</time>
      </trkpt>
      <trkpt lat="42.91245" lon="0.11887">
        <ele>1806</ele>
        <time>2013-01-05T08:49:46Z</time>
      </trkpt>
      <trkpt lat="42.91246" lon="0.11885">
        <ele>1807</ele>
        <time>2013-01-05T08:49:53Z</time>
      </trkpt>
      <trkpt lat="42.91246" lon="0.11883">
        <ele>1807</ele>
        <time>2013-01-05T08:49:56Z</time>
      </trkpt>
      <trkpt lat="42.91247" lon="0.11882">
        <ele>1807</ele>
        <time>2013-01-05T08:50:04Z</time>
      </trkpt>
      <trkpt lat="42.91246" lon="0.11882">
        <ele>1807</ele>
        <time>2013-01-05T08:50:24Z</time>
      </trkpt>
      <trkpt lat="42.91244" lon="0.11884">
        <ele>1807</ele>
        <time>2013-01-05T08:50:33Z</time>
      </trkpt>
      <trkpt lat="42.91245" lon="0.11885">
        <ele>1807</ele>
        <time>2013-01-05T08:50:38Z</time>
      </trkpt>
      <trkpt lat="42.91246" lon="0.11886">
        <ele>1807</ele>
        <time>2013-01-05T08:50:53Z</time>
      </trkpt>
      <trkpt lat="42.91248" lon="0.11884">
        <ele>1807</ele>
        <time>2013-01-05T08:50:55Z</time>
      </trkpt>
      <trkpt lat="42.9125" lon="0.11883">
        <ele>1807</ele>
        <time>2013-01-05T08:50:56Z</time>
      </trkpt>
      <trkpt lat="42.91251" lon="0.11881">
        <ele>1807</ele>
        <time>2013-01-05T08:50:59Z</time>
      </trkpt>
      <trkpt lat="42.91251" lon="0.1188">
        <ele>1807</ele>
        <time>2013-01-05T08:51:00Z</time>
      </trkpt>
      <trkpt lat="42.91253" lon="0.1188">
        <ele>1807</ele>
        <time>2013-01-05T08:51:12Z</time>
      </trkpt>
      <trkpt lat="42.91254" lon="0.1188">
        <ele>1807</ele>
        <time>2013-01-05T08:51:20Z</time>
      </trkpt>
      <trkpt lat="42.91255" lon="0.1188">
        <ele>1807</ele>
        <time>2013-01-05T08:51:38Z</time>
      </trkpt>
      <trkpt lat="42.91255" lon="0.11879">
        <ele>1807</ele>
        <time>2013-01-05T08:52:47Z</time>
      </trkpt>
      <trkpt lat="42.91255" lon="0.11877">
        <ele>1807</ele>
        <time>2013-01-05T08:52:51Z</time>
      </trkpt>
      <trkpt lat="42.91255" lon="0.11875">
        <ele>1807</ele>
        <time>2013-01-05T08:52:52Z</time>
      </trkpt>
      <trkpt lat="42.91254" lon="0.11874">
        <ele>1807</ele>
        <time>2013-01-05T08:52:54Z</time>
      </trkpt>
      <trkpt lat="42.91254" lon="0.11872">
        <ele>1807</ele>
        <time>2013-01-05T08:52:56Z</time>
      </trkpt>
      <trkpt lat="42.91254" lon="0.1187">
        <ele>1807</ele>
        <time>2013-01-05T08:52:58Z</time>
      </trkpt>
      <trkpt lat="42.91254" lon="0.11868">
        <ele>1807</ele>
        <time>2013-01-05T08:53:00Z</time>
      </trkpt>
      <trkpt lat="42.91254" lon="0.11867">
        <ele>1807</ele>
        <time>2013-01-05T08:53:03Z</time>
      </trkpt>
      <trkpt lat="42.91254" lon="0.11865">
        <ele>1807</ele>
        <time>2013-01-05T08:53:04Z</time>
      </trkpt>
      <trkpt lat="42.91254" lon="0.11863">
        <ele>1807</ele>
        <time>2013-01-05T08:53:07Z</time>
      </trkpt>
      <trkpt lat="42.91254" lon="0.11862">
        <ele>1807</ele>
        <time>2013-01-05T08:53:08Z</time>
      </trkpt>
      <trkpt lat="42.91253" lon="0.1186">
        <ele>1807</ele>
        <time>2013-01-05T08:53:10Z</time>
      </trkpt>
      <trkpt lat="42.91253" lon="0.11858">
        <ele>1807</ele>
        <time>2013-01-05T08:53:12Z</time>
      </trkpt>
      <trkpt lat="42.91253" lon="0.11856">
        <ele>1807</ele>
        <time>2013-01-05T08:53:15Z</time>
      </trkpt>
      <trkpt lat="42.91253" lon="0.11855">
        <ele>1807</ele>
        <time>2013-01-05T08:53:16Z</time>
      </trkpt>
      <trkpt lat="42.91253" lon="0.11853">
        <ele>1807</ele>
        <time>2013-01-05T08:53:19Z</time>
      </trkpt>
      <trkpt lat="42.91253" lon="0.11852">
        <ele>1807</ele>
        <time>2013-01-05T08:53:20Z</time>
      </trkpt>
      <trkpt lat="42.91252" lon="0.1185">
        <ele>1807</ele>
        <time>2013-01-05T08:53:23Z</time>
      </trkpt>
      <trkpt lat="42.91252" lon="0.11848">
        <ele>1807</ele>
        <time>2013-01-05T08:53:24Z</time>
      </trkpt>
      <trkpt lat="42.91252" lon="0.11847">
        <ele>1807</ele>
        <time>2013-01-05T08:53:27Z</time>
      </trkpt>
      <trkpt lat="42.91252" lon="0.11845">
        <ele>1807</ele>
        <time>2013-01-05T08:53:28Z</time>
      </trkpt>
      <trkpt lat="42.91251" lon="0.11843">
        <ele>1808</ele>
        <time>2013-01-05T08:53:31Z</time>
      </trkpt>
      <trkpt lat="42.91251" lon="0.11841">
        <ele>1808</ele>
        <time>2013-01-05T08:53:32Z</time>
      </trkpt>
      <trkpt lat="42.91251" lon="0.1184">
        <ele>1809</ele>
        <time>2013-01-05T08:53:34Z</time>
      </trkpt>
      <trkpt lat="42.91251" lon="0.11838">
        <ele>1809</ele>
        <time>2013-01-05T08:53:37Z</time>
      </trkpt>
      <trkpt lat="42.91251" lon="0.11836">
        <ele>1809</ele>
        <time>2013-01-05T08:53:38Z</time>
      </trkpt>
      <trkpt lat="42.9125" lon="0.11834">
        <ele>1809</ele>
        <time>2013-01-05T08:53:40Z</time>
      </trkpt>
      <trkpt lat="42.91249" lon="0.11832">
        <ele>1809</ele>
        <time>2013-01-05T08:53:43Z</time>
      </trkpt>
      <trkpt lat="42.91249" lon="0.1183">
        <ele>1810</ele>
        <time>2013-01-05T08:53:44Z</time>
      </trkpt>
      <trkpt lat="42.91248" lon="0.11828">
        <ele>1810</ele>
        <time>2013-01-05T08:53:47Z</time>
      </trkpt>
      <trkpt lat="42.91248" lon="0.11826">
        <ele>1811</ele>
        <time>2013-01-05T08:53:48Z</time>
      </trkpt>
      <trkpt lat="42.91247" lon="0.11824">
        <ele>1811</ele>
        <time>2013-01-05T08:53:51Z</time>
      </trkpt>
      <trkpt lat="42.91246" lon="0.11823">
        <ele>1812</ele>
        <time>2013-01-05T08:53:52Z</time>
      </trkpt>
      <trkpt lat="42.91246" lon="0.11821">
        <ele>1812</ele>
        <time>2013-01-05T08:53:54Z</time>
      </trkpt>
      <trkpt lat="42.91246" lon="0.11819">
        <ele>1812</ele>
        <time>2013-01-05T08:53:56Z</time>
      </trkpt>
      <trkpt lat="42.91246" lon="0.11817">
        <ele>1813</ele>
        <time>2013-01-05T08:53:59Z</time>
      </trkpt>
      <trkpt lat="42.91245" lon="0.11816">
        <ele>1813</ele>
        <time>2013-01-05T08:54:00Z</time>
      </trkpt>
      <trkpt lat="42.91245" lon="0.11814">
        <ele>1813</ele>
        <time>2013-01-05T08:54:03Z</time>
      </trkpt>
      <trkpt lat="42.91245" lon="0.11812">
        <ele>1814</ele>
        <time>2013-01-05T08:54:05Z</time>
      </trkpt>
      <trkpt lat="42.91245" lon="0.11811">
        <ele>1814</ele>
        <time>2013-01-05T08:54:06Z</time>
      </trkpt>
      <trkpt lat="42.91245" lon="0.11809">
        <ele>1815</ele>
        <time>2013-01-05T08:54:09Z</time>
      </trkpt>
      <trkpt lat="42.91245" lon="0.11807">
        <ele>1815</ele>
        <time>2013-01-05T08:54:10Z</time>
      </trkpt>
      <trkpt lat="42.91245" lon="0.11806">
        <ele>1816</ele>
        <time>2013-01-05T08:54:13Z</time>
      </trkpt>
      <trkpt lat="42.91244" lon="0.11804">
        <ele>1816</ele>
        <time>2013-01-05T08:54:15Z</time>
      </trkpt>
      <trkpt lat="42.91244" lon="0.11802">
        <ele>1816</ele>
        <time>2013-01-05T08:54:16Z</time>
      </trkpt>
      <trkpt lat="42.91246" lon="0.11803">
        <ele>1817</ele>
        <time>2013-01-05T08:54:24Z</time>
      </trkpt>
      <trkpt lat="42.91247" lon="0.11804">
        <ele>1817</ele>
        <time>2013-01-05T08:54:27Z</time>
      </trkpt>
      <trkpt lat="42.91249" lon="0.11805">
        <ele>1817</ele>
        <time>2013-01-05T08:54:30Z</time>
      </trkpt>
      <trkpt lat="42.9125" lon="0.11806">
        <ele>1817</ele>
        <time>2013-01-05T08:54:32Z</time>
      </trkpt>
      <trkpt lat="42.91252" lon="0.11807">
        <ele>1817</ele>
        <time>2013-01-05T08:54:36Z</time>
      </trkpt>
      <trkpt lat="42.91253" lon="0.11807">
        <ele>1817</ele>
        <time>2013-01-05T08:54:39Z</time>
      </trkpt>
      <trkpt lat="42.91254" lon="0.11808">
        <ele>1817</ele>
        <time>2013-01-05T08:54:43Z</time>
      </trkpt>
      <trkpt lat="42.91256" lon="0.11809">
        <ele>1817</ele>
        <time>2013-01-05T08:54:46Z</time>
      </trkpt>
      <trkpt lat="42.91257" lon="0.1181">
        <ele>1817</ele>
        <time>2013-01-05T08:54:48Z</time>
      </trkpt>
      <trkpt lat="42.91259" lon="0.11811">
        <ele>1817</ele>
        <time>2013-01-05T08:54:52Z</time>
      </trkpt>
      <trkpt lat="42.91261" lon="0.11811">
        <ele>1817</ele>
        <time>2013-01-05T08:54:55Z</time>
      </trkpt>
      <trkpt lat="42.91262" lon="0.11812">
        <ele>1818</ele>
        <time>2013-01-05T08:54:58Z</time>
      </trkpt>
      <trkpt lat="42.91263" lon="0.11813">
        <ele>1818</ele>
        <time>2013-01-05T08:55:00Z</time>
      </trkpt>
      <trkpt lat="42.91264" lon="0.11814">
        <ele>1818</ele>
        <time>2013-01-05T08:55:02Z</time>
      </trkpt>
      <trkpt lat="42.91266" lon="0.11815">
        <ele>1818</ele>
        <time>2013-01-05T08:55:06Z</time>
      </trkpt>
      <trkpt lat="42.91266" lon="0.11813">
        <ele>1818</ele>
        <time>2013-01-05T08:55:08Z</time>
      </trkpt>
      <trkpt lat="42.91266" lon="0.11812">
        <ele>1818</ele>
        <time>2013-01-05T08:55:10Z</time>
      </trkpt>
      <trkpt lat="42.91265" lon="0.11809">
        <ele>1819</ele>
        <time>2013-01-05T08:55:13Z</time>
      </trkpt>
      <trkpt lat="42.91265" lon="0.11807">
        <ele>1819</ele>
        <time>2013-01-05T08:55:15Z</time>
      </trkpt>
      <trkpt lat="42.91264" lon="0.11806">
        <ele>1820</ele>
        <time>2013-01-05T08:55:18Z</time>
      </trkpt>
      <trkpt lat="42.91264" lon="0.11804">
        <ele>1820</ele>
        <time>2013-01-05T08:55:19Z</time>
      </trkpt>
      <trkpt lat="42.91264" lon="0.11803">
        <ele>1821</ele>
        <time>2013-01-05T08:55:21Z</time>
      </trkpt>
      <trkpt lat="42.91264" lon="0.11801">
        <ele>1821</ele>
        <time>2013-01-05T08:55:23Z</time>
      </trkpt>
      <trkpt lat="42.91264" lon="0.11799">
        <ele>1822</ele>
        <time>2013-01-05T08:55:26Z</time>
      </trkpt>
      <trkpt lat="42.91264" lon="0.11798">
        <ele>1822</ele>
        <time>2013-01-05T08:55:28Z</time>
      </trkpt>
      <trkpt lat="42.91264" lon="0.11796">
        <ele>1823</ele>
        <time>2013-01-05T08:55:30Z</time>
      </trkpt>
      <trkpt lat="42.91263" lon="0.11794">
        <ele>1824</ele>
        <time>2013-01-05T08:55:32Z</time>
      </trkpt>
      <trkpt lat="42.91263" lon="0.11793">
        <ele>1824</ele>
        <time>2013-01-05T08:55:33Z</time>
      </trkpt>
      <trkpt lat="42.91263" lon="0.11791">
        <ele>1825</ele>
        <time>2013-01-05T08:55:35Z</time>
      </trkpt>
      <trkpt lat="42.91262" lon="0.11789">
        <ele>1825</ele>
        <time>2013-01-05T08:55:37Z</time>
      </trkpt>
      <trkpt lat="42.91262" lon="0.11787">
        <ele>1826</ele>
        <time>2013-01-05T08:55:40Z</time>
      </trkpt>
      <trkpt lat="42.91262" lon="0.11785">
        <ele>1826</ele>
        <time>2013-01-05T08:55:42Z</time>
      </trkpt>
      <trkpt lat="42.91262" lon="0.11783">
        <ele>1827</ele>
        <time>2013-01-05T08:55:44Z</time>
      </trkpt>
      <trkpt lat="42.91261" lon="0.11782">
        <ele>1827</ele>
        <time>2013-01-05T08:55:45Z</time>
      </trkpt>
      <trkpt lat="42.91261" lon="0.11779">
        <ele>1828</ele>
        <time>2013-01-05T08:55:47Z</time>
      </trkpt>
      <trkpt lat="42.91261" lon="0.11778">
        <ele>1828</ele>
        <time>2013-01-05T08:55:49Z</time>
      </trkpt>
      <trkpt lat="42.91262" lon="0.11778">
        <ele>1829</ele>
        <time>2013-01-05T08:55:54Z</time>
      </trkpt>
      <trkpt lat="42.91263" lon="0.11779">
        <ele>1829</ele>
        <time>2013-01-05T08:55:56Z</time>
      </trkpt>
      <trkpt lat="42.91264" lon="0.1178">
        <ele>1829</ele>
        <time>2013-01-05T08:56:04Z</time>
      </trkpt>
      <trkpt lat="42.91265" lon="0.11781">
        <ele>1829</ele>
        <time>2013-01-05T08:56:05Z</time>
      </trkpt>
      <trkpt lat="42.91267" lon="0.11782">
        <ele>1829</ele>
        <time>2013-01-05T08:56:08Z</time>
      </trkpt>
      <trkpt lat="42.91268" lon="0.11783">
        <ele>1830</ele>
        <time>2013-01-05T08:56:11Z</time>
      </trkpt>
      <trkpt lat="42.9127" lon="0.11784">
        <ele>1830</ele>
        <time>2013-01-05T08:56:14Z</time>
      </trkpt>
      <trkpt lat="42.91271" lon="0.11786">
        <ele>1830</ele>
        <time>2013-01-05T08:56:16Z</time>
      </trkpt>
      <trkpt lat="42.91273" lon="0.11787">
        <ele>1830</ele>
        <time>2013-01-05T08:56:20Z</time>
      </trkpt>
      <trkpt lat="42.91274" lon="0.11789">
        <ele>1831</ele>
        <time>2013-01-05T08:56:23Z</time>
      </trkpt>
      <trkpt lat="42.91276" lon="0.1179">
        <ele>1831</ele>
        <time>2013-01-05T08:56:25Z</time>
      </trkpt>
      <trkpt lat="42.91277" lon="0.11791">
        <ele>1832</ele>
        <time>2013-01-05T08:56:27Z</time>
      </trkpt>
      <trkpt lat="42.91278" lon="0.11793">
        <ele>1832</ele>
        <time>2013-01-05T08:56:31Z</time>
      </trkpt>
      <trkpt lat="42.9128" lon="0.11795">
        <ele>1833</ele>
        <time>2013-01-05T08:56:34Z</time>
      </trkpt>
      <trkpt lat="42.91281" lon="0.11796">
        <ele>1833</ele>
        <time>2013-01-05T08:56:37Z</time>
      </trkpt>
      <trkpt lat="42.91283" lon="0.11798">
        <ele>1834</ele>
        <time>2013-01-05T08:56:40Z</time>
      </trkpt>
      <trkpt lat="42.91284" lon="0.11799">
        <ele>1834</ele>
        <time>2013-01-05T08:56:42Z</time>
      </trkpt>
      <trkpt lat="42.91285" lon="0.118">
        <ele>1834</ele>
        <time>2013-01-05T08:56:44Z</time>
      </trkpt>
      <trkpt lat="42.91287" lon="0.11801">
        <ele>1834</ele>
        <time>2013-01-05T08:56:48Z</time>
      </trkpt>
      <trkpt lat="42.91288" lon="0.11803">
        <ele>1834</ele>
        <time>2013-01-05T08:56:51Z</time>
      </trkpt>
      <trkpt lat="42.9129" lon="0.11804">
        <ele>1834</ele>
        <time>2013-01-05T08:56:54Z</time>
      </trkpt>
      <trkpt lat="42.91291" lon="0.11806">
        <ele>1834</ele>
        <time>2013-01-05T08:56:56Z</time>
      </trkpt>
      <trkpt lat="42.91292" lon="0.11807">
        <ele>1835</ele>
        <time>2013-01-05T08:56:59Z</time>
      </trkpt>
      <trkpt lat="42.91294" lon="0.11809">
        <ele>1835</ele>
        <time>2013-01-05T08:57:01Z</time>
      </trkpt>
      <trkpt lat="42.91295" lon="0.11809">
        <ele>1835</ele>
        <time>2013-01-05T08:57:03Z</time>
      </trkpt>
      <trkpt lat="42.91296" lon="0.11809">
        <ele>1835</ele>
        <time>2013-01-05T08:57:06Z</time>
      </trkpt>
      <trkpt lat="42.91297" lon="0.1181">
        <ele>1835</ele>
        <time>2013-01-05T08:57:07Z</time>
      </trkpt>
      <trkpt lat="42.91299" lon="0.1181">
        <ele>1835</ele>
        <time>2013-01-05T08:57:10Z</time>
      </trkpt>
      <trkpt lat="42.913" lon="0.11811">
        <ele>1835</ele>
        <time>2013-01-05T08:57:12Z</time>
      </trkpt>
      <trkpt lat="42.91302" lon="0.11811">
        <ele>1835</ele>
        <time>2013-01-05T08:57:14Z</time>
      </trkpt>
      <trkpt lat="42.91303" lon="0.11812">
        <ele>1835</ele>
        <time>2013-01-05T08:57:15Z</time>
      </trkpt>
      <trkpt lat="42.91304" lon="0.11812">
        <ele>1835</ele>
        <time>2013-01-05T08:57:17Z</time>
      </trkpt>
      <trkpt lat="42.91306" lon="0.11812">
        <ele>1835</ele>
        <time>2013-01-05T08:57:19Z</time>
      </trkpt>
      <trkpt lat="42.91307" lon="0.11813">
        <ele>1835</ele>
        <time>2013-01-05T08:57:22Z</time>
      </trkpt>
      <trkpt lat="42.91308" lon="0.11814">
        <ele>1835</ele>
        <time>2013-01-05T08:57:24Z</time>
      </trkpt>
      <trkpt lat="42.91309" lon="0.11814">
        <ele>1835</ele>
        <time>2013-01-05T08:57:26Z</time>
      </trkpt>
      <trkpt lat="42.91311" lon="0.11815">
        <ele>1835</ele>
        <time>2013-01-05T08:57:27Z</time>
      </trkpt>
      <trkpt lat="42.91312" lon="0.11816">
        <ele>1835</ele>
        <time>2013-01-05T08:57:30Z</time>
      </trkpt>
      <trkpt lat="42.91313" lon="0.11816">
        <ele>1835</ele>
        <time>2013-01-05T08:57:31Z</time>
      </trkpt>
      <trkpt lat="42.91314" lon="0.11817">
        <ele>1836</ele>
        <time>2013-01-05T08:57:34Z</time>
      </trkpt>
      <trkpt lat="42.91316" lon="0.11818">
        <ele>1836</ele>
        <time>2013-01-05T08:57:36Z</time>
      </trkpt>
      <trkpt lat="42.91317" lon="0.11818">
        <ele>1837</ele>
        <time>2013-01-05T08:57:40Z</time>
      </trkpt>
      <trkpt lat="42.91319" lon="0.11819">
        <ele>1837</ele>
        <time>2013-01-05T08:57:41Z</time>
      </trkpt>
      <trkpt lat="42.9132" lon="0.1182">
        <ele>1837</ele>
        <time>2013-01-05T08:57:43Z</time>
      </trkpt>
      <trkpt lat="42.91321" lon="0.1182">
        <ele>1837</ele>
        <time>2013-01-05T08:57:45Z</time>
      </trkpt>
      <trkpt lat="42.91323" lon="0.1182">
        <ele>1837</ele>
        <time>2013-01-05T08:57:48Z</time>
      </trkpt>
      <trkpt lat="42.91324" lon="0.11821">
        <ele>1837</ele>
        <time>2013-01-05T08:57:50Z</time>
      </trkpt>
      <trkpt lat="42.91325" lon="0.11821">
        <ele>1837</ele>
        <time>2013-01-05T08:57:51Z</time>
      </trkpt>
      <trkpt lat="42.91326" lon="0.11822">
        <ele>1837</ele>
        <time>2013-01-05T08:57:53Z</time>
      </trkpt>
      <trkpt lat="42.91328" lon="0.11823">
        <ele>1838</ele>
        <time>2013-01-05T08:57:56Z</time>
      </trkpt>
      <trkpt lat="42.91329" lon="0.11823">
        <ele>1838</ele>
        <time>2013-01-05T08:57:59Z</time>
      </trkpt>
      <trkpt lat="42.9133" lon="0.11824">
        <ele>1839</ele>
        <time>2013-01-05T08:58:00Z</time>
      </trkpt>
      <trkpt lat="42.91331" lon="0.11824">
        <ele>1839</ele>
        <time>2013-01-05T08:58:03Z</time>
      </trkpt>
      <trkpt lat="42.91333" lon="0.11825">
        <ele>1839</ele>
        <time>2013-01-05T08:58:04Z</time>
      </trkpt>
      <trkpt lat="42.91334" lon="0.11825">
        <ele>1839</ele>
        <time>2013-01-05T08:58:09Z</time>
      </trkpt>
      <trkpt lat="42.91336" lon="0.11825">
        <ele>1839</ele>
        <time>2013-01-05T08:58:12Z</time>
      </trkpt>
      <trkpt lat="42.91337" lon="0.11825">
        <ele>1839</ele>
        <time>2013-01-05T08:58:13Z</time>
      </trkpt>
      <trkpt lat="42.91339" lon="0.11825">
        <ele>1839</ele>
        <time>2013-01-05T08:58:16Z</time>
      </trkpt>
      <trkpt lat="42.91341" lon="0.11825">
        <ele>1839</ele>
        <time>2013-01-05T08:58:17Z</time>
      </trkpt>
      <trkpt lat="42.91342" lon="0.11825">
        <ele>1839</ele>
        <time>2013-01-05T08:58:20Z</time>
      </trkpt>
      <trkpt lat="42.91344" lon="0.11825">
        <ele>1839</ele>
        <time>2013-01-05T08:58:21Z</time>
      </trkpt>
      <trkpt lat="42.91345" lon="0.11825">
        <ele>1839</ele>
        <time>2013-01-05T08:58:24Z</time>
      </trkpt>
      <trkpt lat="42.91346" lon="0.11825">
        <ele>1839</ele>
        <time>2013-01-05T08:58:25Z</time>
      </trkpt>
      <trkpt lat="42.91348" lon="0.11825">
        <ele>1839</ele>
        <time>2013-01-05T08:58:27Z</time>
      </trkpt>
      <trkpt lat="42.91349" lon="0.11825">
        <ele>1839</ele>
        <time>2013-01-05T08:58:29Z</time>
      </trkpt>
      <trkpt lat="42.91351" lon="0.11825">
        <ele>1839</ele>
        <time>2013-01-05T08:58:32Z</time>
      </trkpt>
      <trkpt lat="42.91352" lon="0.11825">
        <ele>1839</ele>
        <time>2013-01-05T08:58:34Z</time>
      </trkpt>
      <trkpt lat="42.91353" lon="0.11826">
        <ele>1839</ele>
        <time>2013-01-05T08:58:35Z</time>
      </trkpt>
      <trkpt lat="42.91354" lon="0.11826">
        <ele>1840</ele>
        <time>2013-01-05T08:58:37Z</time>
      </trkpt>
      <trkpt lat="42.91356" lon="0.11826">
        <ele>1840</ele>
        <time>2013-01-05T08:58:41Z</time>
      </trkpt>
      <trkpt lat="42.91357" lon="0.11826">
        <ele>1841</ele>
        <time>2013-01-05T08:58:44Z</time>
      </trkpt>
      <trkpt lat="42.91359" lon="0.11826">
        <ele>1842</ele>
        <time>2013-01-05T08:58:45Z</time>
      </trkpt>
      <trkpt lat="42.9136" lon="0.11826">
        <ele>1842</ele>
        <time>2013-01-05T08:58:48Z</time>
      </trkpt>
      <trkpt lat="42.91361" lon="0.11826">
        <ele>1842</ele>
        <time>2013-01-05T08:58:49Z</time>
      </trkpt>
      <trkpt lat="42.91362" lon="0.11826">
        <ele>1843</ele>
        <time>2013-01-05T08:58:51Z</time>
      </trkpt>
      <trkpt lat="42.91364" lon="0.11826">
        <ele>1843</ele>
        <time>2013-01-05T08:58:53Z</time>
      </trkpt>
      <trkpt lat="42.91365" lon="0.11826">
        <ele>1843</ele>
        <time>2013-01-05T08:58:56Z</time>
      </trkpt>
      <trkpt lat="42.91366" lon="0.11826">
        <ele>1844</ele>
        <time>2013-01-05T08:58:58Z</time>
      </trkpt>
      <trkpt lat="42.91367" lon="0.11826">
        <ele>1844</ele>
        <time>2013-01-05T08:58:59Z</time>
      </trkpt>
      <trkpt lat="42.91368" lon="0.11826">
        <ele>1845</ele>
        <time>2013-01-05T08:59:01Z</time>
      </trkpt>
      <trkpt lat="42.9137" lon="0.11826">
        <ele>1846</ele>
        <time>2013-01-05T08:59:07Z</time>
      </trkpt>
      <trkpt lat="42.91371" lon="0.11826">
        <ele>1846</ele>
        <time>2013-01-05T08:59:13Z</time>
      </trkpt>
      <trkpt lat="42.91373" lon="0.11826">
        <ele>1846</ele>
        <time>2013-01-05T08:59:15Z</time>
      </trkpt>
      <trkpt lat="42.91374" lon="0.11825">
        <ele>1846</ele>
        <time>2013-01-05T08:59:17Z</time>
      </trkpt>
      <trkpt lat="42.91375" lon="0.11825">
        <ele>1846</ele>
        <time>2013-01-05T08:59:19Z</time>
      </trkpt>
      <trkpt lat="42.91376" lon="0.11825">
        <ele>1847</ele>
        <time>2013-01-05T08:59:22Z</time>
      </trkpt>
      <trkpt lat="42.91378" lon="0.11825">
        <ele>1847</ele>
        <time>2013-01-05T08:59:23Z</time>
      </trkpt>
      <trkpt lat="42.91379" lon="0.11824">
        <ele>1847</ele>
        <time>2013-01-05T08:59:26Z</time>
      </trkpt>
      <trkpt lat="42.91381" lon="0.11825">
        <ele>1847</ele>
        <time>2013-01-05T08:59:28Z</time>
      </trkpt>
      <trkpt lat="42.91383" lon="0.11825">
        <ele>1847</ele>
        <time>2013-01-05T08:59:31Z</time>
      </trkpt>
      <trkpt lat="42.91384" lon="0.11825">
        <ele>1848</ele>
        <time>2013-01-05T08:59:32Z</time>
      </trkpt>
      <trkpt lat="42.91385" lon="0.11825">
        <ele>1848</ele>
        <time>2013-01-05T08:59:35Z</time>
      </trkpt>
      <trkpt lat="42.91386" lon="0.11825">
        <ele>1849</ele>
        <time>2013-01-05T08:59:36Z</time>
      </trkpt>
      <trkpt lat="42.91388" lon="0.11825">
        <ele>1849</ele>
        <time>2013-01-05T08:59:39Z</time>
      </trkpt>
      <trkpt lat="42.91389" lon="0.11825">
        <ele>1850</ele>
        <time>2013-01-05T08:59:40Z</time>
      </trkpt>
      <trkpt lat="42.91391" lon="0.11825">
        <ele>1850</ele>
        <time>2013-01-05T08:59:43Z</time>
      </trkpt>
      <trkpt lat="42.91392" lon="0.11824">
        <ele>1850</ele>
        <time>2013-01-05T08:59:44Z</time>
      </trkpt>
      <trkpt lat="42.91393" lon="0.11823">
        <ele>1851</ele>
        <time>2013-01-05T08:59:47Z</time>
      </trkpt>
      <trkpt lat="42.91394" lon="0.11823">
        <ele>1851</ele>
        <time>2013-01-05T08:59:55Z</time>
      </trkpt>
      <trkpt lat="42.91395" lon="0.11824">
        <ele>1852</ele>
        <time>2013-01-05T09:00:09Z</time>
      </trkpt>
      <trkpt lat="42.91396" lon="0.11824">
        <ele>1852</ele>
        <time>2013-01-05T09:00:16Z</time>
      </trkpt>
      <trkpt lat="42.91396" lon="0.11826">
        <ele>1853</ele>
        <time>2013-01-05T09:00:44Z</time>
      </trkpt>
      <trkpt lat="42.91397" lon="0.11825">
        <ele>1853</ele>
        <time>2013-01-05T09:00:48Z</time>
      </trkpt>
      <trkpt lat="42.91398" lon="0.11823">
        <ele>1853</ele>
        <time>2013-01-05T09:00:51Z</time>
      </trkpt>
      <trkpt lat="42.91397" lon="0.11823">
        <ele>1853</ele>
        <time>2013-01-05T09:01:31Z</time>
      </trkpt>
      <trkpt lat="42.91397" lon="0.11824">
        <ele>1853</ele>
        <time>2013-01-05T09:02:02Z</time>
      </trkpt>
      <trkpt lat="42.91398" lon="0.11823">
        <ele>1853</ele>
        <time>2013-01-05T09:02:34Z</time>
      </trkpt>
      <trkpt lat="42.91399" lon="0.11823">
        <ele>1853</ele>
        <time>2013-01-05T09:02:39Z</time>
      </trkpt>
      <trkpt lat="42.91398" lon="0.11821">
        <ele>1853</ele>
        <time>2013-01-05T09:02:53Z</time>
      </trkpt>
      <trkpt lat="42.91397" lon="0.11821">
        <ele>1853</ele>
        <time>2013-01-05T09:02:57Z</time>
      </trkpt>
      <trkpt lat="42.91396" lon="0.11822">
        <ele>1853</ele>
        <time>2013-01-05T09:03:04Z</time>
      </trkpt>
      <trkpt lat="42.91395" lon="0.11823">
        <ele>1854</ele>
        <time>2013-01-05T09:03:30Z</time>
      </trkpt>
      <trkpt lat="42.91394" lon="0.11825">
        <ele>1854</ele>
        <time>2013-01-05T09:03:34Z</time>
      </trkpt>
      <trkpt lat="42.91395" lon="0.11825">
        <ele>1854</ele>
        <time>2013-01-05T09:03:56Z</time>
      </trkpt>
      <trkpt lat="42.91395" lon="0.11823">
        <ele>1854</ele>
        <time>2013-01-05T09:04:02Z</time>
      </trkpt>
      <trkpt lat="42.91394" lon="0.11824">
        <ele>1854</ele>
        <time>2013-01-05T09:05:03Z</time>
      </trkpt>
      <trkpt lat="42.91393" lon="0.11822">
        <ele>1854</ele>
        <time>2013-01-05T09:05:15Z</time>
      </trkpt>
      <trkpt lat="42.91392" lon="0.11823">
        <ele>1854</ele>
        <time>2013-01-05T09:05:31Z</time>
      </trkpt>
      <trkpt lat="42.91393" lon="0.11822">
        <ele>1854</ele>
        <time>2013-01-05T09:06:00Z</time>
      </trkpt>
      <trkpt lat="42.91393" lon="0.11823">
        <ele>1854</ele>
        <time>2013-01-05T09:06:27Z</time>
      </trkpt>
      <trkpt lat="42.91392" lon="0.11824">
        <ele>1854</ele>
        <time>2013-01-05T09:06:37Z</time>
      </trkpt>
      <trkpt lat="42.91393" lon="0.11822">
        <ele>1854</ele>
        <time>2013-01-05T09:06:43Z</time>
      </trkpt>
      <trkpt lat="42.91394" lon="0.11823">
        <ele>1854</ele>
        <time>2013-01-05T09:06:59Z</time>
      </trkpt>
      <trkpt lat="42.91394" lon="0.11826">
        <ele>1854</ele>
        <time>2013-01-05T09:07:00Z</time>
      </trkpt>
      <trkpt lat="42.91395" lon="0.11824">
        <ele>1854</ele>
        <time>2013-01-05T09:07:20Z</time>
      </trkpt>
      <trkpt lat="42.91396" lon="0.11824">
        <ele>1854</ele>
        <time>2013-01-05T09:07:32Z</time>
      </trkpt>
      <trkpt lat="42.91397" lon="0.11826">
        <ele>1854</ele>
        <time>2013-01-05T09:08:07Z</time>
      </trkpt>
      <trkpt lat="42.91397" lon="0.11827">
        <ele>1854</ele>
        <time>2013-01-05T09:08:18Z</time>
      </trkpt>
      <trkpt lat="42.91398" lon="0.11829">
        <ele>1855</ele>
        <time>2013-01-05T09:08:28Z</time>
      </trkpt>
      <trkpt lat="42.91399" lon="0.11829">
        <ele>1857</ele>
        <time>2013-01-05T09:08:45Z</time>
      </trkpt>
      <trkpt lat="42.914" lon="0.11829">
        <ele>1857</ele>
        <time>2013-01-05T09:08:54Z</time>
      </trkpt>
      <trkpt lat="42.91401" lon="0.11831">
        <ele>1857</ele>
        <time>2013-01-05T09:08:58Z</time>
      </trkpt>
      <trkpt lat="42.91402" lon="0.11833">
        <ele>1857</ele>
        <time>2013-01-05T09:08:59Z</time>
      </trkpt>
      <trkpt lat="42.91404" lon="0.11833">
        <ele>1858</ele>
        <time>2013-01-05T09:09:03Z</time>
      </trkpt>
      <trkpt lat="42.91405" lon="0.11834">
        <ele>1858</ele>
        <time>2013-01-05T09:09:05Z</time>
      </trkpt>
      <trkpt lat="42.91406" lon="0.11836">
        <ele>1859</ele>
        <time>2013-01-05T09:09:09Z</time>
      </trkpt>
      <trkpt lat="42.91407" lon="0.11838">
        <ele>1859</ele>
        <time>2013-01-05T09:09:12Z</time>
      </trkpt>
      <trkpt lat="42.91409" lon="0.11838">
        <ele>1860</ele>
        <time>2013-01-05T09:09:15Z</time>
      </trkpt>
      <trkpt lat="42.9141" lon="0.1184">
        <ele>1860</ele>
        <time>2013-01-05T09:09:19Z</time>
      </trkpt>
      <trkpt lat="42.9141" lon="0.11841">
        <ele>1860</ele>
        <time>2013-01-05T09:09:22Z</time>
      </trkpt>
      <trkpt lat="42.91411" lon="0.11843">
        <ele>1861</ele>
        <time>2013-01-05T09:09:24Z</time>
      </trkpt>
      <trkpt lat="42.91412" lon="0.11845">
        <ele>1861</ele>
        <time>2013-01-05T09:09:28Z</time>
      </trkpt>
      <trkpt lat="42.91413" lon="0.11846">
        <ele>1862</ele>
        <time>2013-01-05T09:09:30Z</time>
      </trkpt>
      <trkpt lat="42.91414" lon="0.11848">
        <ele>1862</ele>
        <time>2013-01-05T09:09:33Z</time>
      </trkpt>
      <trkpt lat="42.91415" lon="0.1185">
        <ele>1862</ele>
        <time>2013-01-05T09:09:35Z</time>
      </trkpt>
      <trkpt lat="42.91415" lon="0.11851">
        <ele>1863</ele>
        <time>2013-01-05T09:09:37Z</time>
      </trkpt>
      <trkpt lat="42.91416" lon="0.11853">
        <ele>1863</ele>
        <time>2013-01-05T09:09:39Z</time>
      </trkpt>
      <trkpt lat="42.91417" lon="0.11855">
        <ele>1863</ele>
        <time>2013-01-05T09:09:41Z</time>
      </trkpt>
      <trkpt lat="42.91417" lon="0.11857">
        <ele>1864</ele>
        <time>2013-01-05T09:09:43Z</time>
      </trkpt>
      <trkpt lat="42.91417" lon="0.11858">
        <ele>1864</ele>
        <time>2013-01-05T09:09:45Z</time>
      </trkpt>
      <trkpt lat="42.91418" lon="0.11861">
        <ele>1865</ele>
        <time>2013-01-05T09:09:46Z</time>
      </trkpt>
      <trkpt lat="42.91418" lon="0.11862">
        <ele>1866</ele>
        <time>2013-01-05T09:09:49Z</time>
      </trkpt>
      <trkpt lat="42.9142" lon="0.11864">
        <ele>1867</ele>
        <time>2013-01-05T09:09:52Z</time>
      </trkpt>
      <trkpt lat="42.9142" lon="0.11866">
        <ele>1867</ele>
        <time>2013-01-05T09:09:54Z</time>
      </trkpt>
      <trkpt lat="42.91421" lon="0.11867">
        <ele>1868</ele>
        <time>2013-01-05T09:09:55Z</time>
      </trkpt>
      <trkpt lat="42.91422" lon="0.11869">
        <ele>1868</ele>
        <time>2013-01-05T09:09:58Z</time>
      </trkpt>
      <trkpt lat="42.91423" lon="0.1187">
        <ele>1869</ele>
        <time>2013-01-05T09:10:01Z</time>
      </trkpt>
      <trkpt lat="42.91423" lon="0.11872">
        <ele>1870</ele>
        <time>2013-01-05T09:10:02Z</time>
      </trkpt>
      <trkpt lat="42.91424" lon="0.11874">
        <ele>1870</ele>
        <time>2013-01-05T09:10:05Z</time>
      </trkpt>
      <trkpt lat="42.91425" lon="0.11875">
        <ele>1870</ele>
        <time>2013-01-05T09:10:07Z</time>
      </trkpt>
      <trkpt lat="42.91425" lon="0.11877">
        <ele>1871</ele>
        <time>2013-01-05T09:10:09Z</time>
      </trkpt>
      <trkpt lat="42.91426" lon="0.11878">
        <ele>1872</ele>
        <time>2013-01-05T09:10:11Z</time>
      </trkpt>
      <trkpt lat="42.91426" lon="0.1188">
        <ele>1872</ele>
        <time>2013-01-05T09:10:13Z</time>
      </trkpt>
      <trkpt lat="42.91427" lon="0.11882">
        <ele>1873</ele>
        <time>2013-01-05T09:10:15Z</time>
      </trkpt>
      <trkpt lat="42.91428" lon="0.11884">
        <ele>1873</ele>
        <time>2013-01-05T09:10:16Z</time>
      </trkpt>
      <trkpt lat="42.91428" lon="0.11885">
        <ele>1873</ele>
        <time>2013-01-05T09:10:19Z</time>
      </trkpt>
      <trkpt lat="42.91429" lon="0.11887">
        <ele>1874</ele>
        <time>2013-01-05T09:10:20Z</time>
      </trkpt>
      <trkpt lat="42.91429" lon="0.11889">
        <ele>1874</ele>
        <time>2013-01-05T09:10:23Z</time>
      </trkpt>
      <trkpt lat="42.9143" lon="0.1189">
        <ele>1874</ele>
        <time>2013-01-05T09:10:25Z</time>
      </trkpt>
      <trkpt lat="42.9143" lon="0.11892">
        <ele>1875</ele>
        <time>2013-01-05T09:10:27Z</time>
      </trkpt>
      <trkpt lat="42.91431" lon="0.11894">
        <ele>1875</ele>
        <time>2013-01-05T09:10:29Z</time>
      </trkpt>
      <trkpt lat="42.91432" lon="0.11896">
        <ele>1876</ele>
        <time>2013-01-05T09:10:32Z</time>
      </trkpt>
      <trkpt lat="42.91432" lon="0.11898">
        <ele>1876</ele>
        <time>2013-01-05T09:10:33Z</time>
      </trkpt>
      <trkpt lat="42.91433" lon="0.11899">
        <ele>1876</ele>
        <time>2013-01-05T09:10:36Z</time>
      </trkpt>
      <trkpt lat="42.91434" lon="0.11901">
        <ele>1876</ele>
        <time>2013-01-05T09:10:39Z</time>
      </trkpt>
      <trkpt lat="42.91435" lon="0.11903">
        <ele>1876</ele>
        <time>2013-01-05T09:10:42Z</time>
      </trkpt>
      <trkpt lat="42.91436" lon="0.11905">
        <ele>1877</ele>
        <time>2013-01-05T09:10:45Z</time>
      </trkpt>
      <trkpt lat="42.91436" lon="0.11906">
        <ele>1877</ele>
        <time>2013-01-05T09:10:47Z</time>
      </trkpt>
      <trkpt lat="42.91437" lon="0.11908">
        <ele>1878</ele>
        <time>2013-01-05T09:10:49Z</time>
      </trkpt>
      <trkpt lat="42.91438" lon="0.11909">
        <ele>1878</ele>
        <time>2013-01-05T09:10:51Z</time>
      </trkpt>
      <trkpt lat="42.91439" lon="0.11911">
        <ele>1878</ele>
        <time>2013-01-05T09:10:52Z</time>
      </trkpt>
      <trkpt lat="42.91439" lon="0.11913">
        <ele>1878</ele>
        <time>2013-01-05T09:10:54Z</time>
      </trkpt>
      <trkpt lat="42.9144" lon="0.11914">
        <ele>1878</ele>
        <time>2013-01-05T09:10:56Z</time>
      </trkpt>
      <trkpt lat="42.91441" lon="0.11916">
        <ele>1879</ele>
        <time>2013-01-05T09:11:00Z</time>
      </trkpt>
      <trkpt lat="42.91441" lon="0.11918">
        <ele>1879</ele>
        <time>2013-01-05T09:11:01Z</time>
      </trkpt>
      <trkpt lat="42.91441" lon="0.11919">
        <ele>1880</ele>
        <time>2013-01-05T09:11:04Z</time>
      </trkpt>
      <trkpt lat="42.91442" lon="0.11921">
        <ele>1880</ele>
        <time>2013-01-05T09:11:05Z</time>
      </trkpt>
      <trkpt lat="42.91443" lon="0.11923">
        <ele>1881</ele>
        <time>2013-01-05T09:11:09Z</time>
      </trkpt>
      <trkpt lat="42.91444" lon="0.11925">
        <ele>1881</ele>
        <time>2013-01-05T09:11:11Z</time>
      </trkpt>
      <trkpt lat="42.91444" lon="0.11927">
        <ele>1881</ele>
        <time>2013-01-05T09:11:13Z</time>
      </trkpt>
      <trkpt lat="42.91445" lon="0.11929">
        <ele>1882</ele>
        <time>2013-01-05T09:11:16Z</time>
      </trkpt>
      <trkpt lat="42.91446" lon="0.11931">
        <ele>1882</ele>
        <time>2013-01-05T09:11:19Z</time>
      </trkpt>
      <trkpt lat="42.91447" lon="0.11933">
        <ele>1882</ele>
        <time>2013-01-05T09:11:22Z</time>
      </trkpt>
      <trkpt lat="42.91447" lon="0.11934">
        <ele>1883</ele>
        <time>2013-01-05T09:11:24Z</time>
      </trkpt>
      <trkpt lat="42.91449" lon="0.11936">
        <ele>1883</ele>
        <time>2013-01-05T09:11:27Z</time>
      </trkpt>
      <trkpt lat="42.9145" lon="0.11935">
        <ele>1883</ele>
        <time>2013-01-05T09:11:29Z</time>
      </trkpt>
      <trkpt lat="42.91452" lon="0.11932">
        <ele>1883</ele>
        <time>2013-01-05T09:11:31Z</time>
      </trkpt>
      <trkpt lat="42.91452" lon="0.1193">
        <ele>1883</ele>
        <time>2013-01-05T09:11:31Z</time>
      </trkpt>
      <trkpt lat="42.91453" lon="0.11928">
        <ele>1883</ele>
        <time>2013-01-05T09:11:33Z</time>
      </trkpt>
      <trkpt lat="42.91454" lon="0.11926">
        <ele>1883</ele>
        <time>2013-01-05T09:11:35Z</time>
      </trkpt>
      <trkpt lat="42.91454" lon="0.11924">
        <ele>1883</ele>
        <time>2013-01-05T09:11:38Z</time>
      </trkpt>
      <trkpt lat="42.91455" lon="0.11922">
        <ele>1883</ele>
        <time>2013-01-05T09:11:40Z</time>
      </trkpt>
      <trkpt lat="42.91456" lon="0.1192">
        <ele>1883</ele>
        <time>2013-01-05T09:11:41Z</time>
      </trkpt>
      <trkpt lat="42.91457" lon="0.11919">
        <ele>1883</ele>
        <time>2013-01-05T09:11:44Z</time>
      </trkpt>
      <trkpt lat="42.91458" lon="0.11917">
        <ele>1883</ele>
        <time>2013-01-05T09:11:46Z</time>
      </trkpt>
      <trkpt lat="42.91459" lon="0.11916">
        <ele>1883</ele>
        <time>2013-01-05T09:11:48Z</time>
      </trkpt>
      <trkpt lat="42.91459" lon="0.11914">
        <ele>1883</ele>
        <time>2013-01-05T09:11:50Z</time>
      </trkpt>
      <trkpt lat="42.9146" lon="0.11912">
        <ele>1883</ele>
        <time>2013-01-05T09:11:55Z</time>
      </trkpt>
      <trkpt lat="42.91461" lon="0.11911">
        <ele>1883</ele>
        <time>2013-01-05T09:11:58Z</time>
      </trkpt>
      <trkpt lat="42.91462" lon="0.11909">
        <ele>1883</ele>
        <time>2013-01-05T09:12:01Z</time>
      </trkpt>
      <trkpt lat="42.91463" lon="0.11907">
        <ele>1883</ele>
        <time>2013-01-05T09:12:04Z</time>
      </trkpt>
      <trkpt lat="42.91465" lon="0.11905">
        <ele>1883</ele>
        <time>2013-01-05T09:12:07Z</time>
      </trkpt>
      <trkpt lat="42.91466" lon="0.11903">
        <ele>1883</ele>
        <time>2013-01-05T09:12:10Z</time>
      </trkpt>
      <trkpt lat="42.91467" lon="0.11902">
        <ele>1883</ele>
        <time>2013-01-05T09:12:11Z</time>
      </trkpt>
      <trkpt lat="42.91469" lon="0.119">
        <ele>1883</ele>
        <time>2013-01-05T09:12:15Z</time>
      </trkpt>
      <trkpt lat="42.9147" lon="0.11898">
        <ele>1884</ele>
        <time>2013-01-05T09:12:17Z</time>
      </trkpt>
      <trkpt lat="42.91472" lon="0.11896">
        <ele>1884</ele>
        <time>2013-01-05T09:12:21Z</time>
      </trkpt>
      <trkpt lat="42.91473" lon="0.11895">
        <ele>1884</ele>
        <time>2013-01-05T09:12:23Z</time>
      </trkpt>
      <trkpt lat="42.91473" lon="0.11893">
        <ele>1884</ele>
        <time>2013-01-05T09:12:25Z</time>
      </trkpt>
      <trkpt lat="42.91474" lon="0.11891">
        <ele>1885</ele>
        <time>2013-01-05T09:12:28Z</time>
      </trkpt>
      <trkpt lat="42.91475" lon="0.11889">
        <ele>1885</ele>
        <time>2013-01-05T09:12:30Z</time>
      </trkpt>
      <trkpt lat="42.91476" lon="0.11888">
        <ele>1885</ele>
        <time>2013-01-05T09:12:31Z</time>
      </trkpt>
      <trkpt lat="42.91477" lon="0.11886">
        <ele>1885</ele>
        <time>2013-01-05T09:12:35Z</time>
      </trkpt>
      <trkpt lat="42.91478" lon="0.11885">
        <ele>1886</ele>
        <time>2013-01-05T09:12:42Z</time>
      </trkpt>
      <trkpt lat="42.91479" lon="0.11883">
        <ele>1886</ele>
        <time>2013-01-05T09:12:44Z</time>
      </trkpt>
      <trkpt lat="42.9148" lon="0.11881">
        <ele>1886</ele>
        <time>2013-01-05T09:12:46Z</time>
      </trkpt>
      <trkpt lat="42.9148" lon="0.1188">
        <ele>1887</ele>
        <time>2013-01-05T09:12:48Z</time>
      </trkpt>
      <trkpt lat="42.91481" lon="0.11878">
        <ele>1887</ele>
        <time>2013-01-05T09:12:49Z</time>
      </trkpt>
      <trkpt lat="42.91481" lon="0.11876">
        <ele>1887</ele>
        <time>2013-01-05T09:12:52Z</time>
      </trkpt>
      <trkpt lat="42.91482" lon="0.11874">
        <ele>1888</ele>
        <time>2013-01-05T09:12:54Z</time>
      </trkpt>
      <trkpt lat="42.91483" lon="0.11873">
        <ele>1888</ele>
        <time>2013-01-05T09:12:55Z</time>
      </trkpt>
      <trkpt lat="42.91484" lon="0.11871">
        <ele>1888</ele>
        <time>2013-01-05T09:12:57Z</time>
      </trkpt>
      <trkpt lat="42.91484" lon="0.1187">
        <ele>1888</ele>
        <time>2013-01-05T09:13:00Z</time>
      </trkpt>
      <trkpt lat="42.91485" lon="0.11868">
        <ele>1888</ele>
        <time>2013-01-05T09:13:01Z</time>
      </trkpt>
      <trkpt lat="42.91486" lon="0.11867">
        <ele>1889</ele>
        <time>2013-01-05T09:13:03Z</time>
      </trkpt>
      <trkpt lat="42.91486" lon="0.11865">
        <ele>1889</ele>
        <time>2013-01-05T09:13:06Z</time>
      </trkpt>
      <trkpt lat="42.91487" lon="0.11863">
        <ele>1889</ele>
        <time>2013-01-05T09:13:07Z</time>
      </trkpt>
      <trkpt lat="42.91488" lon="0.11865">
        <ele>1890</ele>
        <time>2013-01-05T09:13:16Z</time>
      </trkpt>
      <trkpt lat="42.91488" lon="0.11867">
        <ele>1890</ele>
        <time>2013-01-05T09:13:17Z</time>
      </trkpt>
      <trkpt lat="42.91489" lon="0.11868">
        <ele>1890</ele>
        <time>2013-01-05T09:13:19Z</time>
      </trkpt>
      <trkpt lat="42.91489" lon="0.1187">
        <ele>1891</ele>
        <time>2013-01-05T09:13:21Z</time>
      </trkpt>
      <trkpt lat="42.9149" lon="0.11872">
        <ele>1891</ele>
        <time>2013-01-05T09:13:25Z</time>
      </trkpt>
      <trkpt lat="42.9149" lon="0.11874">
        <ele>1892</ele>
        <time>2013-01-05T09:13:27Z</time>
      </trkpt>
      <trkpt lat="42.91491" lon="0.11875">
        <ele>1892</ele>
        <time>2013-01-05T09:13:28Z</time>
      </trkpt>
      <trkpt lat="42.91491" lon="0.11877">
        <ele>1893</ele>
        <time>2013-01-05T09:13:31Z</time>
      </trkpt>
      <trkpt lat="42.91492" lon="0.11879">
        <ele>1893</ele>
        <time>2013-01-05T09:13:32Z</time>
      </trkpt>
      <trkpt lat="42.91493" lon="0.1188">
        <ele>1893</ele>
        <time>2013-01-05T09:13:35Z</time>
      </trkpt>
      <trkpt lat="42.91494" lon="0.11882">
        <ele>1894</ele>
        <time>2013-01-05T09:13:37Z</time>
      </trkpt>
      <trkpt lat="42.91494" lon="0.11884">
        <ele>1894</ele>
        <time>2013-01-05T09:13:38Z</time>
      </trkpt>
      <trkpt lat="42.91495" lon="0.11886">
        <ele>1895</ele>
        <time>2013-01-05T09:13:41Z</time>
      </trkpt>
      <trkpt lat="42.91496" lon="0.11887">
        <ele>1895</ele>
        <time>2013-01-05T09:13:42Z</time>
      </trkpt>
      <trkpt lat="42.91496" lon="0.11889">
        <ele>1895</ele>
        <time>2013-01-05T09:13:44Z</time>
      </trkpt>
      <trkpt lat="42.91497" lon="0.11891">
        <ele>1895</ele>
        <time>2013-01-05T09:13:47Z</time>
      </trkpt>
      <trkpt lat="42.91498" lon="0.11892">
        <ele>1896</ele>
        <time>2013-01-05T09:13:49Z</time>
      </trkpt>
      <trkpt lat="42.91498" lon="0.11895">
        <ele>1896</ele>
        <time>2013-01-05T09:13:51Z</time>
      </trkpt>
      <trkpt lat="42.91499" lon="0.11896">
        <ele>1897</ele>
        <time>2013-01-05T09:13:53Z</time>
      </trkpt>
      <trkpt lat="42.91499" lon="0.11898">
        <ele>1897</ele>
        <time>2013-01-05T09:13:55Z</time>
      </trkpt>
      <trkpt lat="42.915" lon="0.11901">
        <ele>1897</ele>
        <time>2013-01-05T09:13:56Z</time>
      </trkpt>
      <trkpt lat="42.915" lon="0.11903">
        <ele>1898</ele>
        <time>2013-01-05T09:13:59Z</time>
      </trkpt>
      <trkpt lat="42.91501" lon="0.11905">
        <ele>1898</ele>
        <time>2013-01-05T09:14:00Z</time>
      </trkpt>
      <trkpt lat="42.91501" lon="0.11907">
        <ele>1899</ele>
        <time>2013-01-05T09:14:03Z</time>
      </trkpt>
      <trkpt lat="42.91502" lon="0.11908">
        <ele>1899</ele>
        <time>2013-01-05T09:14:05Z</time>
      </trkpt>
      <trkpt lat="42.91503" lon="0.1191">
        <ele>1899</ele>
        <time>2013-01-05T09:14:07Z</time>
      </trkpt>
      <trkpt lat="42.91503" lon="0.11912">
        <ele>1900</ele>
        <time>2013-01-05T09:14:09Z</time>
      </trkpt>
      <trkpt lat="42.91504" lon="0.11913">
        <ele>1900</ele>
        <time>2013-01-05T09:14:10Z</time>
      </trkpt>
      <trkpt lat="42.91505" lon="0.11915">
        <ele>1900</ele>
        <time>2013-01-05T09:14:13Z</time>
      </trkpt>
      <trkpt lat="42.91506" lon="0.11917">
        <ele>1900</ele>
        <time>2013-01-05T09:14:14Z</time>
      </trkpt>
      <trkpt lat="42.91506" lon="0.11919">
        <ele>1901</ele>
        <time>2013-01-05T09:14:17Z</time>
      </trkpt>
      <trkpt lat="42.91507" lon="0.11921">
        <ele>1901</ele>
        <time>2013-01-05T09:14:19Z</time>
      </trkpt>
      <trkpt lat="42.91508" lon="0.11923">
        <ele>1901</ele>
        <time>2013-01-05T09:14:21Z</time>
      </trkpt>
      <trkpt lat="42.9151" lon="0.11923">
        <ele>1902</ele>
        <time>2013-01-05T09:14:23Z</time>
      </trkpt>
      <trkpt lat="42.9151" lon="0.1192">
        <ele>1902</ele>
        <time>2013-01-05T09:14:24Z</time>
      </trkpt>
      <trkpt lat="42.91512" lon="0.11918">
        <ele>1902</ele>
        <time>2013-01-05T09:14:27Z</time>
      </trkpt>
      <trkpt lat="42.91513" lon="0.11916">
        <ele>1902</ele>
        <time>2013-01-05T09:14:28Z</time>
      </trkpt>
      <trkpt lat="42.91514" lon="0.11914">
        <ele>1902</ele>
        <time>2013-01-05T09:14:30Z</time>
      </trkpt>
      <trkpt lat="42.91515" lon="0.11913">
        <ele>1902</ele>
        <time>2013-01-05T09:14:32Z</time>
      </trkpt>
      <trkpt lat="42.91515" lon="0.1191">
        <ele>1902</ele>
        <time>2013-01-05T09:14:35Z</time>
      </trkpt>
      <trkpt lat="42.91516" lon="0.11909">
        <ele>1902</ele>
        <time>2013-01-05T09:14:36Z</time>
      </trkpt>
      <trkpt lat="42.91517" lon="0.11907">
        <ele>1902</ele>
        <time>2013-01-05T09:14:39Z</time>
      </trkpt>
      <trkpt lat="42.91518" lon="0.11905">
        <ele>1902</ele>
        <time>2013-01-05T09:14:40Z</time>
      </trkpt>
      <trkpt lat="42.91518" lon="0.11903">
        <ele>1902</ele>
        <time>2013-01-05T09:14:43Z</time>
      </trkpt>
      <trkpt lat="42.91519" lon="0.11901">
        <ele>1903</ele>
        <time>2013-01-05T09:14:45Z</time>
      </trkpt>
      <trkpt lat="42.91519" lon="0.11899">
        <ele>1903</ele>
        <time>2013-01-05T09:14:47Z</time>
      </trkpt>
      <trkpt lat="42.9152" lon="0.11897">
        <ele>1903</ele>
        <time>2013-01-05T09:14:49Z</time>
      </trkpt>
      <trkpt lat="42.9152" lon="0.11895">
        <ele>1903</ele>
        <time>2013-01-05T09:14:51Z</time>
      </trkpt>
      <trkpt lat="42.9152" lon="0.11893">
        <ele>1903</ele>
        <time>2013-01-05T09:14:53Z</time>
      </trkpt>
      <trkpt lat="42.9152" lon="0.11891">
        <ele>1904</ele>
        <time>2013-01-05T09:14:54Z</time>
      </trkpt>
      <trkpt lat="42.91521" lon="0.1189">
        <ele>1904</ele>
        <time>2013-01-05T09:14:56Z</time>
      </trkpt>
      <trkpt lat="42.91522" lon="0.11887">
        <ele>1904</ele>
        <time>2013-01-05T09:14:59Z</time>
      </trkpt>
      <trkpt lat="42.91523" lon="0.11885">
        <ele>1905</ele>
        <time>2013-01-05T09:15:02Z</time>
      </trkpt>
      <trkpt lat="42.91523" lon="0.11884">
        <ele>1905</ele>
        <time>2013-01-05T09:15:03Z</time>
      </trkpt>
      <trkpt lat="42.91525" lon="0.11882">
        <ele>1905</ele>
        <time>2013-01-05T09:15:06Z</time>
      </trkpt>
      <trkpt lat="42.91526" lon="0.11881">
        <ele>1905</ele>
        <time>2013-01-05T09:15:09Z</time>
      </trkpt>
      <trkpt lat="42.91527" lon="0.11881">
        <ele>1905</ele>
        <time>2013-01-05T09:15:11Z</time>
      </trkpt>
      <trkpt lat="42.91529" lon="0.1188">
        <ele>1906</ele>
        <time>2013-01-05T09:15:14Z</time>
      </trkpt>
      <trkpt lat="42.91531" lon="0.11882">
        <ele>1906</ele>
        <time>2013-01-05T09:15:18Z</time>
      </trkpt>
      <trkpt lat="42.91532" lon="0.11883">
        <ele>1906</ele>
        <time>2013-01-05T09:15:21Z</time>
      </trkpt>
      <trkpt lat="42.91533" lon="0.11885">
        <ele>1906</ele>
        <time>2013-01-05T09:15:24Z</time>
      </trkpt>
      <trkpt lat="42.91535" lon="0.11886">
        <ele>1907</ele>
        <time>2013-01-05T09:15:27Z</time>
      </trkpt>
      <trkpt lat="42.91535" lon="0.11888">
        <ele>1907</ele>
        <time>2013-01-05T09:15:29Z</time>
      </trkpt>
      <trkpt lat="42.91537" lon="0.1189">
        <ele>1908</ele>
        <time>2013-01-05T09:15:32Z</time>
      </trkpt>
      <trkpt lat="42.91538" lon="0.1189">
        <ele>1908</ele>
        <time>2013-01-05T09:15:34Z</time>
      </trkpt>
      <trkpt lat="42.91539" lon="0.11891">
        <ele>1908</ele>
        <time>2013-01-05T09:15:38Z</time>
      </trkpt>
      <trkpt lat="42.91541" lon="0.11892">
        <ele>1909</ele>
        <time>2013-01-05T09:15:39Z</time>
      </trkpt>
      <trkpt lat="42.91542" lon="0.11893">
        <ele>1909</ele>
        <time>2013-01-05T09:15:43Z</time>
      </trkpt>
      <trkpt lat="42.91544" lon="0.11895">
        <ele>1909</ele>
        <time>2013-01-05T09:15:45Z</time>
      </trkpt>
      <trkpt lat="42.91545" lon="0.11895">
        <ele>1910</ele>
        <time>2013-01-05T09:15:48Z</time>
      </trkpt>
      <trkpt lat="42.91547" lon="0.11896">
        <ele>1910</ele>
        <time>2013-01-05T09:15:50Z</time>
      </trkpt>
      <trkpt lat="42.91548" lon="0.11898">
        <ele>1911</ele>
        <time>2013-01-05T09:15:53Z</time>
      </trkpt>
      <trkpt lat="42.9155" lon="0.11899">
        <ele>1911</ele>
        <time>2013-01-05T09:15:57Z</time>
      </trkpt>
      <trkpt lat="42.91551" lon="0.119">
        <ele>1912</ele>
        <time>2013-01-05T09:16:00Z</time>
      </trkpt>
      <trkpt lat="42.91552" lon="0.11901">
        <ele>1913</ele>
        <time>2013-01-05T09:16:04Z</time>
      </trkpt>
      <trkpt lat="42.91554" lon="0.11901">
        <ele>1913</ele>
        <time>2013-01-05T09:16:06Z</time>
      </trkpt>
      <trkpt lat="42.91555" lon="0.11902">
        <ele>1913</ele>
        <time>2013-01-05T09:16:08Z</time>
      </trkpt>
      <trkpt lat="42.91556" lon="0.11902">
        <ele>1914</ele>
        <time>2013-01-05T09:16:12Z</time>
      </trkpt>
      <trkpt lat="42.91558" lon="0.11902">
        <ele>1914</ele>
        <time>2013-01-05T09:16:14Z</time>
      </trkpt>
      <trkpt lat="42.91559" lon="0.11903">
        <ele>1914</ele>
        <time>2013-01-05T09:16:18Z</time>
      </trkpt>
      <trkpt lat="42.9156" lon="0.11905">
        <ele>1914</ele>
        <time>2013-01-05T09:16:21Z</time>
      </trkpt>
      <trkpt lat="42.91561" lon="0.11906">
        <ele>1915</ele>
        <time>2013-01-05T09:16:23Z</time>
      </trkpt>
      <trkpt lat="42.91562" lon="0.11907">
        <ele>1916</ele>
        <time>2013-01-05T09:16:27Z</time>
      </trkpt>
      <trkpt lat="42.91564" lon="0.11907">
        <ele>1916</ele>
        <time>2013-01-05T09:16:29Z</time>
      </trkpt>
      <trkpt lat="42.91565" lon="0.11907">
        <ele>1916</ele>
        <time>2013-01-05T09:16:32Z</time>
      </trkpt>
      <trkpt lat="42.91566" lon="0.11907">
        <ele>1916</ele>
        <time>2013-01-05T09:16:35Z</time>
      </trkpt>
      <trkpt lat="42.91568" lon="0.11907">
        <ele>1917</ele>
        <time>2013-01-05T09:16:37Z</time>
      </trkpt>
      <trkpt lat="42.91569" lon="0.11907">
        <ele>1917</ele>
        <time>2013-01-05T09:16:39Z</time>
      </trkpt>
      <trkpt lat="42.9157" lon="0.11907">
        <ele>1917</ele>
        <time>2013-01-05T09:16:42Z</time>
      </trkpt>
      <trkpt lat="42.91572" lon="0.11908">
        <ele>1918</ele>
        <time>2013-01-05T09:16:45Z</time>
      </trkpt>
      <trkpt lat="42.91573" lon="0.11908">
        <ele>1918</ele>
        <time>2013-01-05T09:16:48Z</time>
      </trkpt>
      <trkpt lat="42.91574" lon="0.11908">
        <ele>1918</ele>
        <time>2013-01-05T09:16:51Z</time>
      </trkpt>
      <trkpt lat="42.91576" lon="0.11908">
        <ele>1918</ele>
        <time>2013-01-05T09:16:53Z</time>
      </trkpt>
      <trkpt lat="42.91577" lon="0.11908">
        <ele>1919</ele>
        <time>2013-01-05T09:16:57Z</time>
      </trkpt>
      <trkpt lat="42.91579" lon="0.11908">
        <ele>1919</ele>
        <time>2013-01-05T09:16:59Z</time>
      </trkpt>
      <trkpt lat="42.9158" lon="0.11908">
        <ele>1919</ele>
        <time>2013-01-05T09:17:02Z</time>
      </trkpt>
      <trkpt lat="42.91581" lon="0.11909">
        <ele>1920</ele>
        <time>2013-01-05T09:17:04Z</time>
      </trkpt>
      <trkpt lat="42.91582" lon="0.11909">
        <ele>1920</ele>
        <time>2013-01-05T09:17:08Z</time>
      </trkpt>
      <trkpt lat="42.91584" lon="0.11909">
        <ele>1921</ele>
        <time>2013-01-05T09:17:10Z</time>
      </trkpt>
      <trkpt lat="42.91585" lon="0.11909">
        <ele>1921</ele>
        <time>2013-01-05T09:17:13Z</time>
      </trkpt>
      <trkpt lat="42.91587" lon="0.11909">
        <ele>1921</ele>
        <time>2013-01-05T09:17:15Z</time>
      </trkpt>
      <trkpt lat="42.91588" lon="0.11909">
        <ele>1922</ele>
        <time>2013-01-05T09:17:18Z</time>
      </trkpt>
      <trkpt lat="42.91589" lon="0.11909">
        <ele>1922</ele>
        <time>2013-01-05T09:17:20Z</time>
      </trkpt>
      <trkpt lat="42.91591" lon="0.11909">
        <ele>1923</ele>
        <time>2013-01-05T09:17:23Z</time>
      </trkpt>
      <trkpt lat="42.91592" lon="0.11908">
        <ele>1923</ele>
        <time>2013-01-05T09:17:27Z</time>
      </trkpt>
      <trkpt lat="42.91594" lon="0.11908">
        <ele>1923</ele>
        <time>2013-01-05T09:17:30Z</time>
      </trkpt>
      <trkpt lat="42.91595" lon="0.11907">
        <ele>1923</ele>
        <time>2013-01-05T09:17:48Z</time>
      </trkpt>
      <trkpt lat="42.91597" lon="0.11907">
        <ele>1923</ele>
        <time>2013-01-05T09:17:50Z</time>
      </trkpt>
      <trkpt lat="42.91598" lon="0.11906">
        <ele>1923</ele>
        <time>2013-01-05T09:17:51Z</time>
      </trkpt>
      <trkpt lat="42.91599" lon="0.11905">
        <ele>1923</ele>
        <time>2013-01-05T09:17:53Z</time>
      </trkpt>
      <trkpt lat="42.916" lon="0.11904">
        <ele>1923</ele>
        <time>2013-01-05T09:17:57Z</time>
      </trkpt>
      <trkpt lat="42.91602" lon="0.11904">
        <ele>1923</ele>
        <time>2013-01-05T09:17:59Z</time>
      </trkpt>
      <trkpt lat="42.91603" lon="0.11903">
        <ele>1924</ele>
        <time>2013-01-05T09:18:02Z</time>
      </trkpt>
      <trkpt lat="42.91604" lon="0.11903">
        <ele>1924</ele>
        <time>2013-01-05T09:18:03Z</time>
      </trkpt>
      <trkpt lat="42.91605" lon="0.11902">
        <ele>1924</ele>
        <time>2013-01-05T09:18:05Z</time>
      </trkpt>
      <trkpt lat="42.91607" lon="0.11901">
        <ele>1925</ele>
        <time>2013-01-05T09:18:08Z</time>
      </trkpt>
      <trkpt lat="42.91608" lon="0.11898">
        <ele>1925</ele>
        <time>2013-01-05T09:18:11Z</time>
      </trkpt>
      <trkpt lat="42.91608" lon="0.11897">
        <ele>1926</ele>
        <time>2013-01-05T09:18:14Z</time>
      </trkpt>
      <trkpt lat="42.91608" lon="0.11895">
        <ele>1927</ele>
        <time>2013-01-05T09:18:18Z</time>
      </trkpt>
      <trkpt lat="42.91609" lon="0.11893">
        <ele>1928</ele>
        <time>2013-01-05T09:18:30Z</time>
      </trkpt>
      <trkpt lat="42.9161" lon="0.11892">
        <ele>1929</ele>
        <time>2013-01-05T09:18:33Z</time>
      </trkpt>
      <trkpt lat="42.91611" lon="0.1189">
        <ele>1930</ele>
        <time>2013-01-05T09:18:36Z</time>
      </trkpt>
      <trkpt lat="42.91612" lon="0.11889">
        <ele>1930</ele>
        <time>2013-01-05T09:18:39Z</time>
      </trkpt>
      <trkpt lat="42.91614" lon="0.11887">
        <ele>1931</ele>
        <time>2013-01-05T09:18:44Z</time>
      </trkpt>
      <trkpt lat="42.91615" lon="0.11886">
        <ele>1932</ele>
        <time>2013-01-05T09:18:47Z</time>
      </trkpt>
      <trkpt lat="42.91616" lon="0.11885">
        <ele>1933</ele>
        <time>2013-01-05T09:18:50Z</time>
      </trkpt>
      <trkpt lat="42.91618" lon="0.11884">
        <ele>1933</ele>
        <time>2013-01-05T09:18:52Z</time>
      </trkpt>
      <trkpt lat="42.91619" lon="0.11884">
        <ele>1934</ele>
        <time>2013-01-05T09:18:55Z</time>
      </trkpt>
      <trkpt lat="42.9162" lon="0.11884">
        <ele>1934</ele>
        <time>2013-01-05T09:18:58Z</time>
      </trkpt>
      <trkpt lat="42.91622" lon="0.11884">
        <ele>1935</ele>
        <time>2013-01-05T09:19:01Z</time>
      </trkpt>
      <trkpt lat="42.91623" lon="0.11883">
        <ele>1935</ele>
        <time>2013-01-05T09:19:03Z</time>
      </trkpt>
      <trkpt lat="42.91624" lon="0.11883">
        <ele>1936</ele>
        <time>2013-01-05T09:19:07Z</time>
      </trkpt>
      <trkpt lat="42.91626" lon="0.11883">
        <ele>1936</ele>
        <time>2013-01-05T09:19:10Z</time>
      </trkpt>
      <trkpt lat="42.91627" lon="0.11883">
        <ele>1937</ele>
        <time>2013-01-05T09:19:12Z</time>
      </trkpt>
      <trkpt lat="42.91629" lon="0.11882">
        <ele>1938</ele>
        <time>2013-01-05T09:19:16Z</time>
      </trkpt>
      <trkpt lat="42.9163" lon="0.11882">
        <ele>1938</ele>
        <time>2013-01-05T09:19:19Z</time>
      </trkpt>
      <trkpt lat="42.91632" lon="0.11882">
        <ele>1939</ele>
        <time>2013-01-05T09:19:21Z</time>
      </trkpt>
      <trkpt lat="42.91633" lon="0.11882">
        <ele>1940</ele>
        <time>2013-01-05T09:19:25Z</time>
      </trkpt>
      <trkpt lat="42.91634" lon="0.11882">
        <ele>1940</ele>
        <time>2013-01-05T09:19:28Z</time>
      </trkpt>
      <trkpt lat="42.91636" lon="0.11883">
        <ele>1941</ele>
        <time>2013-01-05T09:19:31Z</time>
      </trkpt>
      <trkpt lat="42.91637" lon="0.11883">
        <ele>1942</ele>
        <time>2013-01-05T09:19:33Z</time>
      </trkpt>
      <trkpt lat="42.91639" lon="0.11883">
        <ele>1942</ele>
        <time>2013-01-05T09:19:37Z</time>
      </trkpt>
      <trkpt lat="42.9164" lon="0.11882">
        <ele>1943</ele>
        <time>2013-01-05T09:19:48Z</time>
      </trkpt>
      <trkpt lat="42.91642" lon="0.11881">
        <ele>1943</ele>
        <time>2013-01-05T09:19:50Z</time>
      </trkpt>
      <trkpt lat="42.91643" lon="0.1188">
        <ele>1943</ele>
        <time>2013-01-05T09:19:53Z</time>
      </trkpt>
      <trkpt lat="42.91644" lon="0.11879">
        <ele>1943</ele>
        <time>2013-01-05T09:19:55Z</time>
      </trkpt>
      <trkpt lat="42.91645" lon="0.11878">
        <ele>1943</ele>
        <time>2013-01-05T09:19:56Z</time>
      </trkpt>
      <trkpt lat="42.91647" lon="0.11876">
        <ele>1944</ele>
        <time>2013-01-05T09:20:00Z</time>
      </trkpt>
      <trkpt lat="42.91648" lon="0.11874">
        <ele>1944</ele>
        <time>2013-01-05T09:20:02Z</time>
      </trkpt>
      <trkpt lat="42.9165" lon="0.11873">
        <ele>1945</ele>
        <time>2013-01-05T09:20:05Z</time>
      </trkpt>
      <trkpt lat="42.91651" lon="0.11871">
        <ele>1945</ele>
        <time>2013-01-05T09:20:09Z</time>
      </trkpt>
      <trkpt lat="42.91652" lon="0.11869">
        <ele>1946</ele>
        <time>2013-01-05T09:20:11Z</time>
      </trkpt>
      <trkpt lat="42.91654" lon="0.11868">
        <ele>1947</ele>
        <time>2013-01-05T09:20:15Z</time>
      </trkpt>
      <trkpt lat="42.91655" lon="0.11867">
        <ele>1947</ele>
        <time>2013-01-05T09:20:18Z</time>
      </trkpt>
      <trkpt lat="42.91656" lon="0.11867">
        <ele>1948</ele>
        <time>2013-01-05T09:20:20Z</time>
      </trkpt>
      <trkpt lat="42.91657" lon="0.11869">
        <ele>1948</ele>
        <time>2013-01-05T09:20:24Z</time>
      </trkpt>
      <trkpt lat="42.91658" lon="0.1187">
        <ele>1949</ele>
        <time>2013-01-05T09:20:25Z</time>
      </trkpt>
      <trkpt lat="42.91658" lon="0.11872">
        <ele>1950</ele>
        <time>2013-01-05T09:20:31Z</time>
      </trkpt>
      <trkpt lat="42.91658" lon="0.11874">
        <ele>1950</ele>
        <time>2013-01-05T09:20:37Z</time>
      </trkpt>
      <trkpt lat="42.91659" lon="0.11876">
        <ele>1950</ele>
        <time>2013-01-05T09:20:39Z</time>
      </trkpt>
      <trkpt lat="42.91659" lon="0.11878">
        <ele>1950</ele>
        <time>2013-01-05T09:20:42Z</time>
      </trkpt>
      <trkpt lat="42.9166" lon="0.1188">
        <ele>1950</ele>
        <time>2013-01-05T09:20:44Z</time>
      </trkpt>
      <trkpt lat="42.9166" lon="0.11881">
        <ele>1950</ele>
        <time>2013-01-05T09:20:46Z</time>
      </trkpt>
      <trkpt lat="42.9166" lon="0.11883">
        <ele>1951</ele>
        <time>2013-01-05T09:20:47Z</time>
      </trkpt>
      <trkpt lat="42.91661" lon="0.11885">
        <ele>1951</ele>
        <time>2013-01-05T09:20:49Z</time>
      </trkpt>
      <trkpt lat="42.91661" lon="0.11886">
        <ele>1951</ele>
        <time>2013-01-05T09:20:52Z</time>
      </trkpt>
      <trkpt lat="42.91661" lon="0.11888">
        <ele>1952</ele>
        <time>2013-01-05T09:20:53Z</time>
      </trkpt>
      <trkpt lat="42.91661" lon="0.1189">
        <ele>1952</ele>
        <time>2013-01-05T09:20:56Z</time>
      </trkpt>
      <trkpt lat="42.91662" lon="0.11892">
        <ele>1953</ele>
        <time>2013-01-05T09:20:58Z</time>
      </trkpt>
      <trkpt lat="42.91662" lon="0.11894">
        <ele>1953</ele>
        <time>2013-01-05T09:20:59Z</time>
      </trkpt>
      <trkpt lat="42.91662" lon="0.11895">
        <ele>1954</ele>
        <time>2013-01-05T09:21:02Z</time>
      </trkpt>
      <trkpt lat="42.91663" lon="0.11897">
        <ele>1954</ele>
        <time>2013-01-05T09:21:04Z</time>
      </trkpt>
      <trkpt lat="42.91663" lon="0.11899">
        <ele>1954</ele>
        <time>2013-01-05T09:21:05Z</time>
      </trkpt>
      <trkpt lat="42.91664" lon="0.11901">
        <ele>1955</ele>
        <time>2013-01-05T09:21:07Z</time>
      </trkpt>
      <trkpt lat="42.91665" lon="0.11902">
        <ele>1955</ele>
        <time>2013-01-05T09:21:10Z</time>
      </trkpt>
      <trkpt lat="42.91665" lon="0.11904">
        <ele>1955</ele>
        <time>2013-01-05T09:21:12Z</time>
      </trkpt>
      <trkpt lat="42.91666" lon="0.11906">
        <ele>1955</ele>
        <time>2013-01-05T09:21:13Z</time>
      </trkpt>
      <trkpt lat="42.91666" lon="0.11908">
        <ele>1955</ele>
        <time>2013-01-05T09:21:16Z</time>
      </trkpt>
      <trkpt lat="42.91667" lon="0.1191">
        <ele>1955</ele>
        <time>2013-01-05T09:21:18Z</time>
      </trkpt>
      <trkpt lat="42.91668" lon="0.11911">
        <ele>1955</ele>
        <time>2013-01-05T09:21:21Z</time>
      </trkpt>
      <trkpt lat="42.9167" lon="0.11909">
        <ele>1955</ele>
        <time>2013-01-05T09:21:22Z</time>
      </trkpt>
      <trkpt lat="42.91672" lon="0.11908">
        <ele>1955</ele>
        <time>2013-01-05T09:21:25Z</time>
      </trkpt>
      <trkpt lat="42.91673" lon="0.11906">
        <ele>1955</ele>
        <time>2013-01-05T09:21:27Z</time>
      </trkpt>
      <trkpt lat="42.91674" lon="0.11904">
        <ele>1955</ele>
        <time>2013-01-05T09:21:29Z</time>
      </trkpt>
      <trkpt lat="42.91675" lon="0.11902">
        <ele>1955</ele>
        <time>2013-01-05T09:21:30Z</time>
      </trkpt>
      <trkpt lat="42.91676" lon="0.119">
        <ele>1955</ele>
        <time>2013-01-05T09:21:32Z</time>
      </trkpt>
      <trkpt lat="42.91677" lon="0.11899">
        <ele>1955</ele>
        <time>2013-01-05T09:21:34Z</time>
      </trkpt>
      <trkpt lat="42.91678" lon="0.11897">
        <ele>1955</ele>
        <time>2013-01-05T09:21:36Z</time>
      </trkpt>
      <trkpt lat="42.91679" lon="0.11896">
        <ele>1955</ele>
        <time>2013-01-05T09:21:39Z</time>
      </trkpt>
      <trkpt lat="42.91681" lon="0.11894">
        <ele>1955</ele>
        <time>2013-01-05T09:21:41Z</time>
      </trkpt>
      <trkpt lat="42.91682" lon="0.11892">
        <ele>1955</ele>
        <time>2013-01-05T09:21:44Z</time>
      </trkpt>
      <trkpt lat="42.91683" lon="0.11891">
        <ele>1955</ele>
        <time>2013-01-05T09:21:45Z</time>
      </trkpt>
      <trkpt lat="42.91682" lon="0.11889">
        <ele>1955</ele>
        <time>2013-01-05T09:21:46Z</time>
      </trkpt>
      <trkpt lat="42.91682" lon="0.11888">
        <ele>1955</ele>
        <time>2013-01-05T09:21:48Z</time>
      </trkpt>
      <trkpt lat="42.91682" lon="0.11886">
        <ele>1955</ele>
        <time>2013-01-05T09:21:49Z</time>
      </trkpt>
      <trkpt lat="42.91682" lon="0.11884">
        <ele>1957</ele>
        <time>2013-01-05T09:21:51Z</time>
      </trkpt>
      <trkpt lat="42.91683" lon="0.11882">
        <ele>1958</ele>
        <time>2013-01-05T09:21:54Z</time>
      </trkpt>
      <trkpt lat="42.91683" lon="0.1188">
        <ele>1959</ele>
        <time>2013-01-05T09:21:56Z</time>
      </trkpt>
      <trkpt lat="42.91684" lon="0.11879">
        <ele>1960</ele>
        <time>2013-01-05T09:21:57Z</time>
      </trkpt>
      <trkpt lat="42.91685" lon="0.11877">
        <ele>1960</ele>
        <time>2013-01-05T09:21:59Z</time>
      </trkpt>
      <trkpt lat="42.91686" lon="0.11875">
        <ele>1961</ele>
        <time>2013-01-05T09:22:02Z</time>
      </trkpt>
      <trkpt lat="42.91686" lon="0.11874">
        <ele>1961</ele>
        <time>2013-01-05T09:22:03Z</time>
      </trkpt>
      <trkpt lat="42.91687" lon="0.11873">
        <ele>1962</ele>
        <time>2013-01-05T09:22:05Z</time>
      </trkpt>
      <trkpt lat="42.91687" lon="0.11871">
        <ele>1962</ele>
        <time>2013-01-05T09:22:08Z</time>
      </trkpt>
      <trkpt lat="42.91688" lon="0.11869">
        <ele>1963</ele>
        <time>2013-01-05T09:22:10Z</time>
      </trkpt>
      <trkpt lat="42.91689" lon="0.11868">
        <ele>1963</ele>
        <time>2013-01-05T09:22:11Z</time>
      </trkpt>
      <trkpt lat="42.9169" lon="0.11866">
        <ele>1963</ele>
        <time>2013-01-05T09:22:14Z</time>
      </trkpt>
      <trkpt lat="42.91691" lon="0.11864">
        <ele>1964</ele>
        <time>2013-01-05T09:22:16Z</time>
      </trkpt>
      <trkpt lat="42.91692" lon="0.11863">
        <ele>1964</ele>
        <time>2013-01-05T09:22:17Z</time>
      </trkpt>
      <trkpt lat="42.91692" lon="0.11861">
        <ele>1964</ele>
        <time>2013-01-05T09:22:19Z</time>
      </trkpt>
      <trkpt lat="42.91694" lon="0.11861">
        <ele>1965</ele>
        <time>2013-01-05T09:22:23Z</time>
      </trkpt>
      <trkpt lat="42.91694" lon="0.11863">
        <ele>1965</ele>
        <time>2013-01-05T09:22:25Z</time>
      </trkpt>
      <trkpt lat="42.91695" lon="0.11865">
        <ele>1965</ele>
        <time>2013-01-05T09:22:27Z</time>
      </trkpt>
      <trkpt lat="42.91695" lon="0.11868">
        <ele>1965</ele>
        <time>2013-01-05T09:22:29Z</time>
      </trkpt>
      <trkpt lat="42.91695" lon="0.1187">
        <ele>1965</ele>
        <time>2013-01-05T09:22:31Z</time>
      </trkpt>
      <trkpt lat="42.91695" lon="0.11872">
        <ele>1966</ele>
        <time>2013-01-05T09:22:33Z</time>
      </trkpt>
      <trkpt lat="42.91695" lon="0.11874">
        <ele>1966</ele>
        <time>2013-01-05T09:22:35Z</time>
      </trkpt>
      <trkpt lat="42.91696" lon="0.11876">
        <ele>1966</ele>
        <time>2013-01-05T09:22:37Z</time>
      </trkpt>
      <trkpt lat="42.91696" lon="0.11877">
        <ele>1966</ele>
        <time>2013-01-05T09:22:43Z</time>
      </trkpt>
      <trkpt lat="42.91697" lon="0.11879">
        <ele>1966</ele>
        <time>2013-01-05T09:22:45Z</time>
      </trkpt>
      <trkpt lat="42.91697" lon="0.11881">
        <ele>1967</ele>
        <time>2013-01-05T09:22:48Z</time>
      </trkpt>
      <trkpt lat="42.91697" lon="0.11883">
        <ele>1967</ele>
        <time>2013-01-05T09:22:50Z</time>
      </trkpt>
      <trkpt lat="42.91698" lon="0.11885">
        <ele>1967</ele>
        <time>2013-01-05T09:22:51Z</time>
      </trkpt>
      <trkpt lat="42.91698" lon="0.11887">
        <ele>1967</ele>
        <time>2013-01-05T09:22:53Z</time>
      </trkpt>
      <trkpt lat="42.91698" lon="0.11889">
        <ele>1967</ele>
        <time>2013-01-05T09:22:56Z</time>
      </trkpt>
      <trkpt lat="42.91699" lon="0.11891">
        <ele>1967</ele>
        <time>2013-01-05T09:22:58Z</time>
      </trkpt>
      <trkpt lat="42.91699" lon="0.11894">
        <ele>1967</ele>
        <time>2013-01-05T09:22:59Z</time>
      </trkpt>
      <trkpt lat="42.917" lon="0.11896">
        <ele>1968</ele>
        <time>2013-01-05T09:23:01Z</time>
      </trkpt>
      <trkpt lat="42.917" lon="0.11898">
        <ele>1968</ele>
        <time>2013-01-05T09:23:03Z</time>
      </trkpt>
      <trkpt lat="42.917" lon="0.119">
        <ele>1968</ele>
        <time>2013-01-05T09:23:06Z</time>
      </trkpt>
      <trkpt lat="42.91701" lon="0.11902">
        <ele>1968</ele>
        <time>2013-01-05T09:23:08Z</time>
      </trkpt>
      <trkpt lat="42.91702" lon="0.11904">
        <ele>1969</ele>
        <time>2013-01-05T09:23:10Z</time>
      </trkpt>
      <trkpt lat="42.91702" lon="0.11906">
        <ele>1969</ele>
        <time>2013-01-05T09:23:11Z</time>
      </trkpt>
      <trkpt lat="42.91703" lon="0.11908">
        <ele>1969</ele>
        <time>2013-01-05T09:23:13Z</time>
      </trkpt>
      <trkpt lat="42.91703" lon="0.1191">
        <ele>1969</ele>
        <time>2013-01-05T09:23:15Z</time>
      </trkpt>
      <trkpt lat="42.91703" lon="0.11911">
        <ele>1969</ele>
        <time>2013-01-05T09:23:18Z</time>
      </trkpt>
      <trkpt lat="42.91705" lon="0.11912">
        <ele>1969</ele>
        <time>2013-01-05T09:23:19Z</time>
      </trkpt>
      <trkpt lat="42.91706" lon="0.11911">
        <ele>1969</ele>
        <time>2013-01-05T09:23:25Z</time>
      </trkpt>
      <trkpt lat="42.91708" lon="0.11909">
        <ele>1969</ele>
        <time>2013-01-05T09:23:26Z</time>
      </trkpt>
      <trkpt lat="42.9171" lon="0.11908">
        <ele>1969</ele>
        <time>2013-01-05T09:23:29Z</time>
      </trkpt>
      <trkpt lat="42.91711" lon="0.11907">
        <ele>1969</ele>
        <time>2013-01-05T09:23:30Z</time>
      </trkpt>
      <trkpt lat="42.91712" lon="0.11906">
        <ele>1969</ele>
        <time>2013-01-05T09:23:32Z</time>
      </trkpt>
      <trkpt lat="42.91713" lon="0.11904">
        <ele>1969</ele>
        <time>2013-01-05T09:23:34Z</time>
      </trkpt>
      <trkpt lat="42.91715" lon="0.11903">
        <ele>1969</ele>
        <time>2013-01-05T09:23:36Z</time>
      </trkpt>
      <trkpt lat="42.91716" lon="0.11902">
        <ele>1969</ele>
        <time>2013-01-05T09:23:38Z</time>
      </trkpt>
      <trkpt lat="42.91718" lon="0.11901">
        <ele>1969</ele>
        <time>2013-01-05T09:23:40Z</time>
      </trkpt>
      <trkpt lat="42.91719" lon="0.11899">
        <ele>1969</ele>
        <time>2013-01-05T09:23:43Z</time>
      </trkpt>
      <trkpt lat="42.9172" lon="0.11898">
        <ele>1969</ele>
        <time>2013-01-05T09:23:45Z</time>
      </trkpt>
      <trkpt lat="42.91722" lon="0.11897">
        <ele>1969</ele>
        <time>2013-01-05T09:23:46Z</time>
      </trkpt>
      <trkpt lat="42.91722" lon="0.11896">
        <ele>1969</ele>
        <time>2013-01-05T09:23:49Z</time>
      </trkpt>
      <trkpt lat="42.91724" lon="0.11894">
        <ele>1969</ele>
        <time>2013-01-05T09:23:50Z</time>
      </trkpt>
      <trkpt lat="42.91723" lon="0.11892">
        <ele>1969</ele>
        <time>2013-01-05T09:23:52Z</time>
      </trkpt>
      <trkpt lat="42.91724" lon="0.11891">
        <ele>1969</ele>
        <time>2013-01-05T09:23:53Z</time>
      </trkpt>
      <trkpt lat="42.91725" lon="0.1189">
        <ele>1969</ele>
        <time>2013-01-05T09:23:56Z</time>
      </trkpt>
      <trkpt lat="42.91726" lon="0.11888">
        <ele>1969</ele>
        <time>2013-01-05T09:23:58Z</time>
      </trkpt>
      <trkpt lat="42.91727" lon="0.11888">
        <ele>1969</ele>
        <time>2013-01-05T09:24:00Z</time>
      </trkpt>
      <trkpt lat="42.91728" lon="0.1189">
        <ele>1969</ele>
        <time>2013-01-05T09:24:06Z</time>
      </trkpt>
      <trkpt lat="42.91729" lon="0.11892">
        <ele>1969</ele>
        <time>2013-01-05T09:24:08Z</time>
      </trkpt>
      <trkpt lat="42.91729" lon="0.11894">
        <ele>1969</ele>
        <time>2013-01-05T09:24:10Z</time>
      </trkpt>
      <trkpt lat="42.91729" lon="0.11896">
        <ele>1969</ele>
        <time>2013-01-05T09:24:12Z</time>
      </trkpt>
      <trkpt lat="42.91729" lon="0.11898">
        <ele>1969</ele>
        <time>2013-01-05T09:24:13Z</time>
      </trkpt>
      <trkpt lat="42.91729" lon="0.119">
        <ele>1969</ele>
        <time>2013-01-05T09:24:16Z</time>
      </trkpt>
      <trkpt lat="42.9173" lon="0.11902">
        <ele>1969</ele>
        <time>2013-01-05T09:24:20Z</time>
      </trkpt>
      <trkpt lat="42.9173" lon="0.11904">
        <ele>1969</ele>
        <time>2013-01-05T09:24:23Z</time>
      </trkpt>
      <trkpt lat="42.9173" lon="0.11906">
        <ele>1969</ele>
        <time>2013-01-05T09:24:25Z</time>
      </trkpt>
      <trkpt lat="42.9173" lon="0.11908">
        <ele>1969</ele>
        <time>2013-01-05T09:24:27Z</time>
      </trkpt>
      <trkpt lat="42.91729" lon="0.11909">
        <ele>1969</ele>
        <time>2013-01-05T09:24:29Z</time>
      </trkpt>
      <trkpt lat="42.91729" lon="0.11911">
        <ele>1969</ele>
        <time>2013-01-05T09:24:31Z</time>
      </trkpt>
      <trkpt lat="42.91729" lon="0.11913">
        <ele>1969</ele>
        <time>2013-01-05T09:24:33Z</time>
      </trkpt>
      <trkpt lat="42.91729" lon="0.11915">
        <ele>1969</ele>
        <time>2013-01-05T09:24:35Z</time>
      </trkpt>
      <trkpt lat="42.91728" lon="0.11917">
        <ele>1969</ele>
        <time>2013-01-05T09:24:36Z</time>
      </trkpt>
      <trkpt lat="42.91728" lon="0.11919">
        <ele>1969</ele>
        <time>2013-01-05T09:24:38Z</time>
      </trkpt>
      <trkpt lat="42.91728" lon="0.1192">
        <ele>1969</ele>
        <time>2013-01-05T09:24:40Z</time>
      </trkpt>
      <trkpt lat="42.91728" lon="0.11922">
        <ele>1969</ele>
        <time>2013-01-05T09:24:43Z</time>
      </trkpt>
      <trkpt lat="42.91727" lon="0.11924">
        <ele>1969</ele>
        <time>2013-01-05T09:24:44Z</time>
      </trkpt>
      <trkpt lat="42.91727" lon="0.11926">
        <ele>1969</ele>
        <time>2013-01-05T09:24:47Z</time>
      </trkpt>
      <trkpt lat="42.91727" lon="0.11928">
        <ele>1969</ele>
        <time>2013-01-05T09:24:48Z</time>
      </trkpt>
      <trkpt lat="42.91727" lon="0.1193">
        <ele>1969</ele>
        <time>2013-01-05T09:24:51Z</time>
      </trkpt>
      <trkpt lat="42.91726" lon="0.11931">
        <ele>1969</ele>
        <time>2013-01-05T09:24:52Z</time>
      </trkpt>
      <trkpt lat="42.91726" lon="0.11933">
        <ele>1969</ele>
        <time>2013-01-05T09:24:54Z</time>
      </trkpt>
      <trkpt lat="42.91726" lon="0.11935">
        <ele>1969</ele>
        <time>2013-01-05T09:24:56Z</time>
      </trkpt>
      <trkpt lat="42.91725" lon="0.11937">
        <ele>1969</ele>
        <time>2013-01-05T09:24:59Z</time>
      </trkpt>
      <trkpt lat="42.91724" lon="0.11939">
        <ele>1969</ele>
        <time>2013-01-05T09:25:00Z</time>
      </trkpt>
      <trkpt lat="42.91726" lon="0.1194">
        <ele>1970</ele>
        <time>2013-01-05T09:25:04Z</time>
      </trkpt>
      <trkpt lat="42.91727" lon="0.11939">
        <ele>1970</ele>
        <time>2013-01-05T09:25:08Z</time>
      </trkpt>
      <trkpt lat="42.91729" lon="0.11937">
        <ele>1970</ele>
        <time>2013-01-05T09:25:10Z</time>
      </trkpt>
      <trkpt lat="42.9173" lon="0.11935">
        <ele>1970</ele>
        <time>2013-01-05T09:25:13Z</time>
      </trkpt>
      <trkpt lat="42.91731" lon="0.11934">
        <ele>1970</ele>
        <time>2013-01-05T09:25:19Z</time>
      </trkpt>
      <trkpt lat="42.91732" lon="0.11932">
        <ele>1970</ele>
        <time>2013-01-05T09:25:21Z</time>
      </trkpt>
      <trkpt lat="42.91734" lon="0.11931">
        <ele>1970</ele>
        <time>2013-01-05T09:25:23Z</time>
      </trkpt>
      <trkpt lat="42.91734" lon="0.1193">
        <ele>1970</ele>
        <time>2013-01-05T09:25:26Z</time>
      </trkpt>
      <trkpt lat="42.91735" lon="0.11928">
        <ele>1970</ele>
        <time>2013-01-05T09:25:27Z</time>
      </trkpt>
      <trkpt lat="42.91737" lon="0.11927">
        <ele>1971</ele>
        <time>2013-01-05T09:25:29Z</time>
      </trkpt>
      <trkpt lat="42.91738" lon="0.11925">
        <ele>1972</ele>
        <time>2013-01-05T09:25:32Z</time>
      </trkpt>
      <trkpt lat="42.91739" lon="0.11924">
        <ele>1972</ele>
        <time>2013-01-05T09:25:34Z</time>
      </trkpt>
      <trkpt lat="42.9174" lon="0.11922">
        <ele>1972</ele>
        <time>2013-01-05T09:25:36Z</time>
      </trkpt>
      <trkpt lat="42.91741" lon="0.11921">
        <ele>1973</ele>
        <time>2013-01-05T09:25:39Z</time>
      </trkpt>
      <trkpt lat="42.91742" lon="0.1192">
        <ele>1973</ele>
        <time>2013-01-05T09:25:40Z</time>
      </trkpt>
      <trkpt lat="42.91744" lon="0.11919">
        <ele>1974</ele>
        <time>2013-01-05T09:25:42Z</time>
      </trkpt>
      <trkpt lat="42.91745" lon="0.11917">
        <ele>1974</ele>
        <time>2013-01-05T09:25:45Z</time>
      </trkpt>
      <trkpt lat="42.91746" lon="0.11915">
        <ele>1974</ele>
        <time>2013-01-05T09:25:47Z</time>
      </trkpt>
      <trkpt lat="42.91747" lon="0.11913">
        <ele>1975</ele>
        <time>2013-01-05T09:25:49Z</time>
      </trkpt>
      <trkpt lat="42.91748" lon="0.11912">
        <ele>1976</ele>
        <time>2013-01-05T09:25:52Z</time>
      </trkpt>
      <trkpt lat="42.91749" lon="0.1191">
        <ele>1976</ele>
        <time>2013-01-05T09:25:53Z</time>
      </trkpt>
      <trkpt lat="42.9175" lon="0.11909">
        <ele>1977</ele>
        <time>2013-01-05T09:25:55Z</time>
      </trkpt>
      <trkpt lat="42.91751" lon="0.11908">
        <ele>1977</ele>
        <time>2013-01-05T09:25:58Z</time>
      </trkpt>
      <trkpt lat="42.91753" lon="0.11908">
        <ele>1978</ele>
        <time>2013-01-05T09:25:59Z</time>
      </trkpt>
      <trkpt lat="42.91754" lon="0.11906">
        <ele>1978</ele>
        <time>2013-01-05T09:26:03Z</time>
      </trkpt>
      <trkpt lat="42.91755" lon="0.11905">
        <ele>1978</ele>
        <time>2013-01-05T09:26:04Z</time>
      </trkpt>
      <trkpt lat="42.91756" lon="0.11904">
        <ele>1978</ele>
        <time>2013-01-05T09:26:06Z</time>
      </trkpt>
      <trkpt lat="42.91758" lon="0.11903">
        <ele>1979</ele>
        <time>2013-01-05T09:26:09Z</time>
      </trkpt>
      <trkpt lat="42.91759" lon="0.11902">
        <ele>1979</ele>
        <time>2013-01-05T09:26:10Z</time>
      </trkpt>
      <trkpt lat="42.9176" lon="0.119">
        <ele>1980</ele>
        <time>2013-01-05T09:26:12Z</time>
      </trkpt>
      <trkpt lat="42.91761" lon="0.11898">
        <ele>1981</ele>
        <time>2013-01-05T09:26:15Z</time>
      </trkpt>
      <trkpt lat="42.91762" lon="0.11896">
        <ele>1982</ele>
        <time>2013-01-05T09:26:17Z</time>
      </trkpt>
      <trkpt lat="42.91763" lon="0.11895">
        <ele>1983</ele>
        <time>2013-01-05T09:26:19Z</time>
      </trkpt>
      <trkpt lat="42.91764" lon="0.11893">
        <ele>1983</ele>
        <time>2013-01-05T09:26:21Z</time>
      </trkpt>
      <trkpt lat="42.91765" lon="0.11892">
        <ele>1984</ele>
        <time>2013-01-05T09:26:23Z</time>
      </trkpt>
      <trkpt lat="42.91766" lon="0.11891">
        <ele>1984</ele>
        <time>2013-01-05T09:26:25Z</time>
      </trkpt>
      <trkpt lat="42.91767" lon="0.1189">
        <ele>1985</ele>
        <time>2013-01-05T09:26:27Z</time>
      </trkpt>
      <trkpt lat="42.91768" lon="0.11888">
        <ele>1985</ele>
        <time>2013-01-05T09:26:29Z</time>
      </trkpt>
      <trkpt lat="42.91769" lon="0.11886">
        <ele>1985</ele>
        <time>2013-01-05T09:26:31Z</time>
      </trkpt>
      <trkpt lat="42.91771" lon="0.11886">
        <ele>1985</ele>
        <time>2013-01-05T09:26:33Z</time>
      </trkpt>
      <trkpt lat="42.91772" lon="0.11886">
        <ele>1985</ele>
        <time>2013-01-05T09:26:34Z</time>
      </trkpt>
      <trkpt lat="42.91774" lon="0.11885">
        <ele>1986</ele>
        <time>2013-01-05T09:26:36Z</time>
      </trkpt>
      <trkpt lat="42.91776" lon="0.11885">
        <ele>1986</ele>
        <time>2013-01-05T09:26:39Z</time>
      </trkpt>
      <trkpt lat="42.91777" lon="0.11884">
        <ele>1986</ele>
        <time>2013-01-05T09:26:40Z</time>
      </trkpt>
      <trkpt lat="42.91778" lon="0.11883">
        <ele>1986</ele>
        <time>2013-01-05T09:26:42Z</time>
      </trkpt>
      <trkpt lat="42.91779" lon="0.11881">
        <ele>1986</ele>
        <time>2013-01-05T09:26:46Z</time>
      </trkpt>
      <trkpt lat="42.91781" lon="0.1188">
        <ele>1986</ele>
        <time>2013-01-05T09:26:47Z</time>
      </trkpt>
      <trkpt lat="42.91782" lon="0.11879">
        <ele>1986</ele>
        <time>2013-01-05T09:26:49Z</time>
      </trkpt>
      <trkpt lat="42.91783" lon="0.11877">
        <ele>1987</ele>
        <time>2013-01-05T09:26:52Z</time>
      </trkpt>
      <trkpt lat="42.91785" lon="0.11876">
        <ele>1987</ele>
        <time>2013-01-05T09:26:54Z</time>
      </trkpt>
      <trkpt lat="42.91786" lon="0.11876">
        <ele>1987</ele>
        <time>2013-01-05T09:26:56Z</time>
      </trkpt>
      <trkpt lat="42.91787" lon="0.11876">
        <ele>1988</ele>
        <time>2013-01-05T09:27:27Z</time>
      </trkpt>
      <trkpt lat="42.91789" lon="0.11875">
        <ele>1988</ele>
        <time>2013-01-05T09:27:30Z</time>
      </trkpt>
      <trkpt lat="42.91791" lon="0.11875">
        <ele>1988</ele>
        <time>2013-01-05T09:27:32Z</time>
      </trkpt>
      <trkpt lat="42.91793" lon="0.11874">
        <ele>1988</ele>
        <time>2013-01-05T09:27:34Z</time>
      </trkpt>
      <trkpt lat="42.91794" lon="0.11874">
        <ele>1988</ele>
        <time>2013-01-05T09:27:36Z</time>
      </trkpt>
      <trkpt lat="42.91796" lon="0.11873">
        <ele>1988</ele>
        <time>2013-01-05T09:27:38Z</time>
      </trkpt>
      <trkpt lat="42.91798" lon="0.11873">
        <ele>1988</ele>
        <time>2013-01-05T09:27:40Z</time>
      </trkpt>
      <trkpt lat="42.91799" lon="0.11872">
        <ele>1988</ele>
        <time>2013-01-05T09:27:42Z</time>
      </trkpt>
      <trkpt lat="42.91801" lon="0.11871">
        <ele>1988</ele>
        <time>2013-01-05T09:27:44Z</time>
      </trkpt>
      <trkpt lat="42.91802" lon="0.1187">
        <ele>1988</ele>
        <time>2013-01-05T09:27:46Z</time>
      </trkpt>
      <trkpt lat="42.91803" lon="0.11869">
        <ele>1988</ele>
        <time>2013-01-05T09:27:48Z</time>
      </trkpt>
      <trkpt lat="42.91803" lon="0.11867">
        <ele>1988</ele>
        <time>2013-01-05T09:27:50Z</time>
      </trkpt>
      <trkpt lat="42.91804" lon="0.11866">
        <ele>1989</ele>
        <time>2013-01-05T09:27:52Z</time>
      </trkpt>
      <trkpt lat="42.91805" lon="0.11864">
        <ele>1991</ele>
        <time>2013-01-05T09:27:55Z</time>
      </trkpt>
      <trkpt lat="42.91807" lon="0.11863">
        <ele>1992</ele>
        <time>2013-01-05T09:27:58Z</time>
      </trkpt>
      <trkpt lat="42.91808" lon="0.11861">
        <ele>1993</ele>
        <time>2013-01-05T09:28:01Z</time>
      </trkpt>
      <trkpt lat="42.91809" lon="0.1186">
        <ele>1994</ele>
        <time>2013-01-05T09:28:03Z</time>
      </trkpt>
      <trkpt lat="42.9181" lon="0.11859">
        <ele>1994</ele>
        <time>2013-01-05T09:28:05Z</time>
      </trkpt>
      <trkpt lat="42.91811" lon="0.11858">
        <ele>1995</ele>
        <time>2013-01-05T09:28:07Z</time>
      </trkpt>
      <trkpt lat="42.91812" lon="0.11857">
        <ele>1995</ele>
        <time>2013-01-05T09:28:09Z</time>
      </trkpt>
      <trkpt lat="42.91813" lon="0.11857">
        <ele>1996</ele>
        <time>2013-01-05T09:28:11Z</time>
      </trkpt>
      <trkpt lat="42.91815" lon="0.11857">
        <ele>1996</ele>
        <time>2013-01-05T09:28:13Z</time>
      </trkpt>
      <trkpt lat="42.91816" lon="0.11856">
        <ele>1996</ele>
        <time>2013-01-05T09:28:15Z</time>
      </trkpt>
      <trkpt lat="42.91817" lon="0.11856">
        <ele>1997</ele>
        <time>2013-01-05T09:28:17Z</time>
      </trkpt>
      <trkpt lat="42.91819" lon="0.11856">
        <ele>1997</ele>
        <time>2013-01-05T09:28:19Z</time>
      </trkpt>
      <trkpt lat="42.9182" lon="0.11855">
        <ele>1997</ele>
        <time>2013-01-05T09:28:22Z</time>
      </trkpt>
      <trkpt lat="42.91822" lon="0.11855">
        <ele>1998</ele>
        <time>2013-01-05T09:28:25Z</time>
      </trkpt>
      <trkpt lat="42.91823" lon="0.11854">
        <ele>1998</ele>
        <time>2013-01-05T09:28:29Z</time>
      </trkpt>
      <trkpt lat="42.91824" lon="0.11852">
        <ele>1999</ele>
        <time>2013-01-05T09:28:32Z</time>
      </trkpt>
      <trkpt lat="42.91825" lon="0.11851">
        <ele>2000</ele>
        <time>2013-01-05T09:28:35Z</time>
      </trkpt>
      <trkpt lat="42.91827" lon="0.1185">
        <ele>2000</ele>
        <time>2013-01-05T09:28:37Z</time>
      </trkpt>
      <trkpt lat="42.91828" lon="0.11849">
        <ele>2001</ele>
        <time>2013-01-05T09:28:40Z</time>
      </trkpt>
      <trkpt lat="42.9183" lon="0.11848">
        <ele>2002</ele>
        <time>2013-01-05T09:28:42Z</time>
      </trkpt>
      <trkpt lat="42.91831" lon="0.11848">
        <ele>2002</ele>
        <time>2013-01-05T09:28:43Z</time>
      </trkpt>
      <trkpt lat="42.91831" lon="0.11846">
        <ele>2002</ele>
        <time>2013-01-05T09:28:45Z</time>
      </trkpt>
      <trkpt lat="42.91832" lon="0.11844">
        <ele>2002</ele>
        <time>2013-01-05T09:28:47Z</time>
      </trkpt>
      <trkpt lat="42.91832" lon="0.11842">
        <ele>2002</ele>
        <time>2013-01-05T09:28:50Z</time>
      </trkpt>
      <trkpt lat="42.91833" lon="0.11841">
        <ele>2002</ele>
        <time>2013-01-05T09:28:53Z</time>
      </trkpt>
      <trkpt lat="42.91833" lon="0.11839">
        <ele>2002</ele>
        <time>2013-01-05T09:28:56Z</time>
      </trkpt>
      <trkpt lat="42.91834" lon="0.11837">
        <ele>2002</ele>
        <time>2013-01-05T09:28:59Z</time>
      </trkpt>
      <trkpt lat="42.91834" lon="0.11835">
        <ele>2003</ele>
        <time>2013-01-05T09:29:01Z</time>
      </trkpt>
      <trkpt lat="42.91833" lon="0.11834">
        <ele>2004</ele>
        <time>2013-01-05T09:29:02Z</time>
      </trkpt>
      <trkpt lat="42.91832" lon="0.11833">
        <ele>2009</ele>
        <time>2013-01-05T09:29:13Z</time>
      </trkpt>
      <trkpt lat="42.91832" lon="0.11831">
        <ele>2011</ele>
        <time>2013-01-05T09:29:29Z</time>
      </trkpt>
      <trkpt lat="42.91832" lon="0.1183">
        <ele>2011</ele>
        <time>2013-01-05T09:29:51Z</time>
      </trkpt>
      <trkpt lat="42.91833" lon="0.11828">
        <ele>2011</ele>
        <time>2013-01-05T09:29:53Z</time>
      </trkpt>
      <trkpt lat="42.91834" lon="0.11826">
        <ele>2012</ele>
        <time>2013-01-05T09:29:55Z</time>
      </trkpt>
      <trkpt lat="42.91834" lon="0.11824">
        <ele>2012</ele>
        <time>2013-01-05T09:29:57Z</time>
      </trkpt>
      <trkpt lat="42.91834" lon="0.11823">
        <ele>2013</ele>
        <time>2013-01-05T09:29:59Z</time>
      </trkpt>
      <trkpt lat="42.91835" lon="0.11821">
        <ele>2013</ele>
        <time>2013-01-05T09:30:01Z</time>
      </trkpt>
      <trkpt lat="42.91835" lon="0.11818">
        <ele>2013</ele>
        <time>2013-01-05T09:30:03Z</time>
      </trkpt>
      <trkpt lat="42.91835" lon="0.11817">
        <ele>2013</ele>
        <time>2013-01-05T09:30:05Z</time>
      </trkpt>
      <trkpt lat="42.91836" lon="0.11815">
        <ele>2014</ele>
        <time>2013-01-05T09:30:07Z</time>
      </trkpt>
      <trkpt lat="42.91836" lon="0.11814">
        <ele>2014</ele>
        <time>2013-01-05T09:30:09Z</time>
      </trkpt>
      <trkpt lat="42.91836" lon="0.11812">
        <ele>2014</ele>
        <time>2013-01-05T09:30:11Z</time>
      </trkpt>
      <trkpt lat="42.91837" lon="0.1181">
        <ele>2014</ele>
        <time>2013-01-05T09:30:13Z</time>
      </trkpt>
      <trkpt lat="42.91837" lon="0.11809">
        <ele>2015</ele>
        <time>2013-01-05T09:30:15Z</time>
      </trkpt>
      <trkpt lat="42.91837" lon="0.11807">
        <ele>2015</ele>
        <time>2013-01-05T09:30:17Z</time>
      </trkpt>
      <trkpt lat="42.91838" lon="0.11805">
        <ele>2016</ele>
        <time>2013-01-05T09:30:19Z</time>
      </trkpt>
      <trkpt lat="42.91839" lon="0.11804">
        <ele>2016</ele>
        <time>2013-01-05T09:30:21Z</time>
      </trkpt>
      <trkpt lat="42.9184" lon="0.11802">
        <ele>2016</ele>
        <time>2013-01-05T09:30:23Z</time>
      </trkpt>
      <trkpt lat="42.91841" lon="0.118">
        <ele>2016</ele>
        <time>2013-01-05T09:30:25Z</time>
      </trkpt>
      <trkpt lat="42.91841" lon="0.11798">
        <ele>2017</ele>
        <time>2013-01-05T09:30:27Z</time>
      </trkpt>
      <trkpt lat="42.9184" lon="0.11796">
        <ele>2017</ele>
        <time>2013-01-05T09:30:29Z</time>
      </trkpt>
      <trkpt lat="42.9184" lon="0.11794">
        <ele>2017</ele>
        <time>2013-01-05T09:30:31Z</time>
      </trkpt>
      <trkpt lat="42.9184" lon="0.11793">
        <ele>2018</ele>
        <time>2013-01-05T09:30:33Z</time>
      </trkpt>
      <trkpt lat="42.9184" lon="0.11791">
        <ele>2018</ele>
        <time>2013-01-05T09:30:35Z</time>
      </trkpt>
      <trkpt lat="42.9184" lon="0.11789">
        <ele>2018</ele>
        <time>2013-01-05T09:30:37Z</time>
      </trkpt>
      <trkpt lat="42.9184" lon="0.11787">
        <ele>2018</ele>
        <time>2013-01-05T09:30:39Z</time>
      </trkpt>
      <trkpt lat="42.9184" lon="0.11785">
        <ele>2019</ele>
        <time>2013-01-05T09:30:41Z</time>
      </trkpt>
      <trkpt lat="42.9184" lon="0.11783">
        <ele>2019</ele>
        <time>2013-01-05T09:30:43Z</time>
      </trkpt>
      <trkpt lat="42.91841" lon="0.11781">
        <ele>2019</ele>
        <time>2013-01-05T09:30:45Z</time>
      </trkpt>
      <trkpt lat="42.91841" lon="0.11779">
        <ele>2019</ele>
        <time>2013-01-05T09:30:47Z</time>
      </trkpt>
      <trkpt lat="42.91841" lon="0.11777">
        <ele>2019</ele>
        <time>2013-01-05T09:30:49Z</time>
      </trkpt>
      <trkpt lat="42.91841" lon="0.11775">
        <ele>2020</ele>
        <time>2013-01-05T09:30:51Z</time>
      </trkpt>
      <trkpt lat="42.91842" lon="0.11775">
        <ele>2020</ele>
        <time>2013-01-05T09:30:54Z</time>
      </trkpt>
      <trkpt lat="42.91844" lon="0.11776">
        <ele>2021</ele>
        <time>2013-01-05T09:30:57Z</time>
      </trkpt>
      <trkpt lat="42.91845" lon="0.11778">
        <ele>2021</ele>
        <time>2013-01-05T09:31:00Z</time>
      </trkpt>
      <trkpt lat="42.91846" lon="0.11779">
        <ele>2022</ele>
        <time>2013-01-05T09:31:02Z</time>
      </trkpt>
      <trkpt lat="42.91848" lon="0.11779">
        <ele>2022</ele>
        <time>2013-01-05T09:31:04Z</time>
      </trkpt>
      <trkpt lat="42.91849" lon="0.11779">
        <ele>2022</ele>
        <time>2013-01-05T09:31:06Z</time>
      </trkpt>
      <trkpt lat="42.91851" lon="0.11777">
        <ele>2022</ele>
        <time>2013-01-05T09:31:08Z</time>
      </trkpt>
      <trkpt lat="42.91851" lon="0.11774">
        <ele>2022</ele>
        <time>2013-01-05T09:31:10Z</time>
      </trkpt>
      <trkpt lat="42.91851" lon="0.11772">
        <ele>2022</ele>
        <time>2013-01-05T09:31:12Z</time>
      </trkpt>
      <trkpt lat="42.91852" lon="0.1177">
        <ele>2023</ele>
        <time>2013-01-05T09:31:14Z</time>
      </trkpt>
      <trkpt lat="42.91852" lon="0.11769">
        <ele>2024</ele>
        <time>2013-01-05T09:31:39Z</time>
      </trkpt>
      <trkpt lat="42.91852" lon="0.11767">
        <ele>2025</ele>
        <time>2013-01-05T09:31:41Z</time>
      </trkpt>
      <trkpt lat="42.91853" lon="0.11765">
        <ele>2025</ele>
        <time>2013-01-05T09:31:43Z</time>
      </trkpt>
      <trkpt lat="42.91853" lon="0.11763">
        <ele>2025</ele>
        <time>2013-01-05T09:31:45Z</time>
      </trkpt>
      <trkpt lat="42.91853" lon="0.11761">
        <ele>2025</ele>
        <time>2013-01-05T09:31:47Z</time>
      </trkpt>
      <trkpt lat="42.91854" lon="0.11759">
        <ele>2025</ele>
        <time>2013-01-05T09:31:49Z</time>
      </trkpt>
      <trkpt lat="42.91854" lon="0.11757">
        <ele>2026</ele>
        <time>2013-01-05T09:31:51Z</time>
      </trkpt>
      <trkpt lat="42.91854" lon="0.11755">
        <ele>2026</ele>
        <time>2013-01-05T09:31:53Z</time>
      </trkpt>
      <trkpt lat="42.91855" lon="0.11753">
        <ele>2027</ele>
        <time>2013-01-05T09:31:55Z</time>
      </trkpt>
      <trkpt lat="42.91855" lon="0.11751">
        <ele>2027</ele>
        <time>2013-01-05T09:31:57Z</time>
      </trkpt>
      <trkpt lat="42.91856" lon="0.11749">
        <ele>2027</ele>
        <time>2013-01-05T09:31:59Z</time>
      </trkpt>
      <trkpt lat="42.91856" lon="0.11747">
        <ele>2028</ele>
        <time>2013-01-05T09:32:01Z</time>
      </trkpt>
      <trkpt lat="42.91858" lon="0.11746">
        <ele>2028</ele>
        <time>2013-01-05T09:32:04Z</time>
      </trkpt>
      <trkpt lat="42.91859" lon="0.11746">
        <ele>2028</ele>
        <time>2013-01-05T09:32:06Z</time>
      </trkpt>
      <trkpt lat="42.9186" lon="0.11747">
        <ele>2029</ele>
        <time>2013-01-05T09:32:08Z</time>
      </trkpt>
      <trkpt lat="42.91861" lon="0.11749">
        <ele>2029</ele>
        <time>2013-01-05T09:32:10Z</time>
      </trkpt>
      <trkpt lat="42.91862" lon="0.1175">
        <ele>2030</ele>
        <time>2013-01-05T09:32:12Z</time>
      </trkpt>
      <trkpt lat="42.91864" lon="0.1175">
        <ele>2030</ele>
        <time>2013-01-05T09:32:14Z</time>
      </trkpt>
      <trkpt lat="42.91866" lon="0.11751">
        <ele>2030</ele>
        <time>2013-01-05T09:32:16Z</time>
      </trkpt>
      <trkpt lat="42.91867" lon="0.11752">
        <ele>2030</ele>
        <time>2013-01-05T09:32:18Z</time>
      </trkpt>
      <trkpt lat="42.91869" lon="0.11753">
        <ele>2030</ele>
        <time>2013-01-05T09:32:20Z</time>
      </trkpt>
      <trkpt lat="42.9187" lon="0.11754">
        <ele>2030</ele>
        <time>2013-01-05T09:32:22Z</time>
      </trkpt>
      <trkpt lat="42.91872" lon="0.11754">
        <ele>2030</ele>
        <time>2013-01-05T09:32:24Z</time>
      </trkpt>
      <trkpt lat="42.91874" lon="0.11755">
        <ele>2031</ele>
        <time>2013-01-05T09:32:26Z</time>
      </trkpt>
      <trkpt lat="42.91875" lon="0.11756">
        <ele>2031</ele>
        <time>2013-01-05T09:32:28Z</time>
      </trkpt>
      <trkpt lat="42.91877" lon="0.11756">
        <ele>2031</ele>
        <time>2013-01-05T09:32:30Z</time>
      </trkpt>
      <trkpt lat="42.91878" lon="0.11756">
        <ele>2031</ele>
        <time>2013-01-05T09:32:32Z</time>
      </trkpt>
      <trkpt lat="42.91879" lon="0.11757">
        <ele>2031</ele>
        <time>2013-01-05T09:32:34Z</time>
      </trkpt>
      <trkpt lat="42.9188" lon="0.11757">
        <ele>2032</ele>
        <time>2013-01-05T09:32:39Z</time>
      </trkpt>
      <trkpt lat="42.91881" lon="0.11756">
        <ele>2032</ele>
        <time>2013-01-05T09:32:41Z</time>
      </trkpt>
      <trkpt lat="42.91881" lon="0.11754">
        <ele>2032</ele>
        <time>2013-01-05T09:32:43Z</time>
      </trkpt>
      <trkpt lat="42.91881" lon="0.11752">
        <ele>2032</ele>
        <time>2013-01-05T09:32:44Z</time>
      </trkpt>
      <trkpt lat="42.91881" lon="0.1175">
        <ele>2033</ele>
        <time>2013-01-05T09:32:46Z</time>
      </trkpt>
      <trkpt lat="42.91881" lon="0.11748">
        <ele>2033</ele>
        <time>2013-01-05T09:32:48Z</time>
      </trkpt>
      <trkpt lat="42.91881" lon="0.11746">
        <ele>2033</ele>
        <time>2013-01-05T09:32:50Z</time>
      </trkpt>
      <trkpt lat="42.91881" lon="0.11744">
        <ele>2034</ele>
        <time>2013-01-05T09:32:52Z</time>
      </trkpt>
      <trkpt lat="42.91881" lon="0.11743">
        <ele>2034</ele>
        <time>2013-01-05T09:32:55Z</time>
      </trkpt>
      <trkpt lat="42.91883" lon="0.11741">
        <ele>2035</ele>
        <time>2013-01-05T09:32:58Z</time>
      </trkpt>
      <trkpt lat="42.91884" lon="0.11741">
        <ele>2035</ele>
        <time>2013-01-05T09:33:00Z</time>
      </trkpt>
      <trkpt lat="42.91885" lon="0.11742">
        <ele>2036</ele>
        <time>2013-01-05T09:33:02Z</time>
      </trkpt>
      <trkpt lat="42.91887" lon="0.11742">
        <ele>2036</ele>
        <time>2013-01-05T09:33:04Z</time>
      </trkpt>
      <trkpt lat="42.91888" lon="0.11742">
        <ele>2036</ele>
        <time>2013-01-05T09:33:19Z</time>
      </trkpt>
      <trkpt lat="42.91889" lon="0.11742">
        <ele>2036</ele>
        <time>2013-01-05T09:33:21Z</time>
      </trkpt>
      <trkpt lat="42.9189" lon="0.11742">
        <ele>2036</ele>
        <time>2013-01-05T09:33:23Z</time>
      </trkpt>
      <trkpt lat="42.91891" lon="0.11742">
        <ele>2036</ele>
        <time>2013-01-05T09:33:25Z</time>
      </trkpt>
      <trkpt lat="42.91893" lon="0.11743">
        <ele>2036</ele>
        <time>2013-01-05T09:33:27Z</time>
      </trkpt>
      <trkpt lat="42.91894" lon="0.11743">
        <ele>2036</ele>
        <time>2013-01-05T09:33:29Z</time>
      </trkpt>
      <trkpt lat="42.91895" lon="0.11744">
        <ele>2037</ele>
        <time>2013-01-05T09:33:31Z</time>
      </trkpt>
      <trkpt lat="42.91897" lon="0.11744">
        <ele>2037</ele>
        <time>2013-01-05T09:33:33Z</time>
      </trkpt>
      <trkpt lat="42.91899" lon="0.11744">
        <ele>2037</ele>
        <time>2013-01-05T09:33:35Z</time>
      </trkpt>
      <trkpt lat="42.919" lon="0.11743">
        <ele>2038</ele>
        <time>2013-01-05T09:33:38Z</time>
      </trkpt>
      <trkpt lat="42.91901" lon="0.11743">
        <ele>2038</ele>
        <time>2013-01-05T09:34:13Z</time>
      </trkpt>
      <trkpt lat="42.91903" lon="0.11743">
        <ele>2038</ele>
        <time>2013-01-05T09:34:24Z</time>
      </trkpt>
      <trkpt lat="42.91904" lon="0.11744">
        <ele>2038</ele>
        <time>2013-01-05T09:35:10Z</time>
      </trkpt>
      <trkpt lat="42.91903" lon="0.11744">
        <ele>2038</ele>
        <time>2013-01-05T09:35:47Z</time>
      </trkpt>
      <trkpt lat="42.91902" lon="0.11744">
        <ele>2039</ele>
        <time>2013-01-05T09:36:05Z</time>
      </trkpt>
      <trkpt lat="42.91902" lon="0.11743">
        <ele>2039</ele>
        <time>2013-01-05T09:36:14Z</time>
      </trkpt>
      <trkpt lat="42.91902" lon="0.11744">
        <ele>2039</ele>
        <time>2013-01-05T09:37:13Z</time>
      </trkpt>
      <trkpt lat="42.91901" lon="0.11743">
        <ele>2039</ele>
        <time>2013-01-05T09:37:17Z</time>
      </trkpt>
      <trkpt lat="42.91901" lon="0.11744">
        <ele>2039</ele>
        <time>2013-01-05T09:37:31Z</time>
      </trkpt>
      <trkpt lat="42.91901" lon="0.11746">
        <ele>2039</ele>
        <time>2013-01-05T09:37:48Z</time>
      </trkpt>
      <trkpt lat="42.91901" lon="0.11744">
        <ele>2039</ele>
        <time>2013-01-05T09:38:15Z</time>
      </trkpt>
      <trkpt lat="42.91901" lon="0.11746">
        <ele>2039</ele>
        <time>2013-01-05T09:38:32Z</time>
      </trkpt>
      <trkpt lat="42.91902" lon="0.11744">
        <ele>2039</ele>
        <time>2013-01-05T09:38:37Z</time>
      </trkpt>
      <trkpt lat="42.91901" lon="0.11743">
        <ele>2039</ele>
        <time>2013-01-05T09:38:41Z</time>
      </trkpt>
      <trkpt lat="42.91903" lon="0.11743">
        <ele>2039</ele>
        <time>2013-01-05T09:39:58Z</time>
      </trkpt>
      <trkpt lat="42.91904" lon="0.11743">
        <ele>2039</ele>
        <time>2013-01-05T09:40:07Z</time>
      </trkpt>
      <trkpt lat="42.91905" lon="0.11743">
        <ele>2039</ele>
        <time>2013-01-05T09:40:09Z</time>
      </trkpt>
      <trkpt lat="42.91907" lon="0.11743">
        <ele>2039</ele>
        <time>2013-01-05T09:40:11Z</time>
      </trkpt>
      <trkpt lat="42.91908" lon="0.11743">
        <ele>2039</ele>
        <time>2013-01-05T09:40:13Z</time>
      </trkpt>
      <trkpt lat="42.9191" lon="0.11743">
        <ele>2039</ele>
        <time>2013-01-05T09:40:15Z</time>
      </trkpt>
      <trkpt lat="42.91911" lon="0.11742">
        <ele>2039</ele>
        <time>2013-01-05T09:40:17Z</time>
      </trkpt>
      <trkpt lat="42.91913" lon="0.11742">
        <ele>2039</ele>
        <time>2013-01-05T09:40:19Z</time>
      </trkpt>
      <trkpt lat="42.91914" lon="0.11742">
        <ele>2039</ele>
        <time>2013-01-05T09:40:21Z</time>
      </trkpt>
      <trkpt lat="42.91916" lon="0.11741">
        <ele>2039</ele>
        <time>2013-01-05T09:40:23Z</time>
      </trkpt>
      <trkpt lat="42.91917" lon="0.11741">
        <ele>2039</ele>
        <time>2013-01-05T09:40:25Z</time>
      </trkpt>
      <trkpt lat="42.91919" lon="0.11741">
        <ele>2039</ele>
        <time>2013-01-05T09:40:27Z</time>
      </trkpt>
      <trkpt lat="42.91921" lon="0.1174">
        <ele>2039</ele>
        <time>2013-01-05T09:40:29Z</time>
      </trkpt>
      <trkpt lat="42.91922" lon="0.1174">
        <ele>2039</ele>
        <time>2013-01-05T09:40:31Z</time>
      </trkpt>
      <trkpt lat="42.91924" lon="0.11739">
        <ele>2040</ele>
        <time>2013-01-05T09:40:33Z</time>
      </trkpt>
      <trkpt lat="42.91925" lon="0.11738">
        <ele>2040</ele>
        <time>2013-01-05T09:40:35Z</time>
      </trkpt>
      <trkpt lat="42.91927" lon="0.11738">
        <ele>2040</ele>
        <time>2013-01-05T09:40:37Z</time>
      </trkpt>
      <trkpt lat="42.91928" lon="0.11737">
        <ele>2041</ele>
        <time>2013-01-05T09:40:39Z</time>
      </trkpt>
      <trkpt lat="42.9193" lon="0.11736">
        <ele>2041</ele>
        <time>2013-01-05T09:40:41Z</time>
      </trkpt>
      <trkpt lat="42.91931" lon="0.11736">
        <ele>2042</ele>
        <time>2013-01-05T09:40:43Z</time>
      </trkpt>
      <trkpt lat="42.91933" lon="0.11735">
        <ele>2042</ele>
        <time>2013-01-05T09:40:45Z</time>
      </trkpt>
      <trkpt lat="42.91934" lon="0.11735">
        <ele>2042</ele>
        <time>2013-01-05T09:40:47Z</time>
      </trkpt>
      <trkpt lat="42.91935" lon="0.11737">
        <ele>2042</ele>
        <time>2013-01-05T09:40:50Z</time>
      </trkpt>
      <trkpt lat="42.91936" lon="0.11738">
        <ele>2043</ele>
        <time>2013-01-05T09:40:53Z</time>
      </trkpt>
      <trkpt lat="42.91938" lon="0.1174">
        <ele>2043</ele>
        <time>2013-01-05T09:40:56Z</time>
      </trkpt>
      <trkpt lat="42.91939" lon="0.11742">
        <ele>2044</ele>
        <time>2013-01-05T09:40:59Z</time>
      </trkpt>
      <trkpt lat="42.9194" lon="0.11744">
        <ele>2044</ele>
        <time>2013-01-05T09:41:02Z</time>
      </trkpt>
      <trkpt lat="42.91942" lon="0.11746">
        <ele>2045</ele>
        <time>2013-01-05T09:41:05Z</time>
      </trkpt>
      <trkpt lat="42.91943" lon="0.11748">
        <ele>2046</ele>
        <time>2013-01-05T09:41:08Z</time>
      </trkpt>
      <trkpt lat="42.91944" lon="0.1175">
        <ele>2046</ele>
        <time>2013-01-05T09:41:11Z</time>
      </trkpt>
      <trkpt lat="42.91944" lon="0.11751">
        <ele>2047</ele>
        <time>2013-01-05T09:41:13Z</time>
      </trkpt>
      <trkpt lat="42.91945" lon="0.11753">
        <ele>2047</ele>
        <time>2013-01-05T09:41:15Z</time>
      </trkpt>
      <trkpt lat="42.91945" lon="0.11755">
        <ele>2047</ele>
        <time>2013-01-05T09:41:17Z</time>
      </trkpt>
      <trkpt lat="42.91946" lon="0.11757">
        <ele>2048</ele>
        <time>2013-01-05T09:41:19Z</time>
      </trkpt>
      <trkpt lat="42.91946" lon="0.11759">
        <ele>2048</ele>
        <time>2013-01-05T09:41:21Z</time>
      </trkpt>
      <trkpt lat="42.91946" lon="0.11761">
        <ele>2048</ele>
        <time>2013-01-05T09:41:23Z</time>
      </trkpt>
      <trkpt lat="42.91947" lon="0.11762">
        <ele>2049</ele>
        <time>2013-01-05T09:41:25Z</time>
      </trkpt>
      <trkpt lat="42.91947" lon="0.11764">
        <ele>2049</ele>
        <time>2013-01-05T09:41:27Z</time>
      </trkpt>
      <trkpt lat="42.91948" lon="0.11766">
        <ele>2049</ele>
        <time>2013-01-05T09:41:29Z</time>
      </trkpt>
      <trkpt lat="42.91949" lon="0.11768">
        <ele>2049</ele>
        <time>2013-01-05T09:41:31Z</time>
      </trkpt>
      <trkpt lat="42.9195" lon="0.11769">
        <ele>2050</ele>
        <time>2013-01-05T09:41:33Z</time>
      </trkpt>
      <trkpt lat="42.91951" lon="0.11771">
        <ele>2050</ele>
        <time>2013-01-05T09:41:35Z</time>
      </trkpt>
      <trkpt lat="42.91953" lon="0.11772">
        <ele>2050</ele>
        <time>2013-01-05T09:41:37Z</time>
      </trkpt>
      <trkpt lat="42.91954" lon="0.11773">
        <ele>2050</ele>
        <time>2013-01-05T09:41:39Z</time>
      </trkpt>
      <trkpt lat="42.91956" lon="0.11774">
        <ele>2050</ele>
        <time>2013-01-05T09:41:41Z</time>
      </trkpt>
      <trkpt lat="42.91957" lon="0.11775">
        <ele>2050</ele>
        <time>2013-01-05T09:41:43Z</time>
      </trkpt>
      <trkpt lat="42.91958" lon="0.11776">
        <ele>2050</ele>
        <time>2013-01-05T09:41:45Z</time>
      </trkpt>
      <trkpt lat="42.91959" lon="0.11777">
        <ele>2051</ele>
        <time>2013-01-05T09:41:47Z</time>
      </trkpt>
      <trkpt lat="42.91961" lon="0.11777">
        <ele>2051</ele>
        <time>2013-01-05T09:41:49Z</time>
      </trkpt>
      <trkpt lat="42.91962" lon="0.11778">
        <ele>2051</ele>
        <time>2013-01-05T09:41:51Z</time>
      </trkpt>
      <trkpt lat="42.91964" lon="0.11779">
        <ele>2051</ele>
        <time>2013-01-05T09:41:54Z</time>
      </trkpt>
      <trkpt lat="42.91965" lon="0.1178">
        <ele>2052</ele>
        <time>2013-01-05T09:41:56Z</time>
      </trkpt>
      <trkpt lat="42.91966" lon="0.1178">
        <ele>2052</ele>
        <time>2013-01-05T09:41:58Z</time>
      </trkpt>
      <trkpt lat="42.91967" lon="0.11781">
        <ele>2052</ele>
        <time>2013-01-05T09:42:01Z</time>
      </trkpt>
      <trkpt lat="42.91969" lon="0.11782">
        <ele>2052</ele>
        <time>2013-01-05T09:42:04Z</time>
      </trkpt>
      <trkpt lat="42.9197" lon="0.11782">
        <ele>2053</ele>
        <time>2013-01-05T09:42:07Z</time>
      </trkpt>
      <trkpt lat="42.91972" lon="0.11783">
        <ele>2053</ele>
        <time>2013-01-05T09:42:10Z</time>
      </trkpt>
      <trkpt lat="42.91973" lon="0.11783">
        <ele>2053</ele>
        <time>2013-01-05T09:42:13Z</time>
      </trkpt>
      <trkpt lat="42.91975" lon="0.11785">
        <ele>2054</ele>
        <time>2013-01-05T09:42:16Z</time>
      </trkpt>
      <trkpt lat="42.91976" lon="0.11786">
        <ele>2054</ele>
        <time>2013-01-05T09:42:19Z</time>
      </trkpt>
      <trkpt lat="42.91978" lon="0.11788">
        <ele>2055</ele>
        <time>2013-01-05T09:42:22Z</time>
      </trkpt>
      <trkpt lat="42.91979" lon="0.11789">
        <ele>2055</ele>
        <time>2013-01-05T09:42:24Z</time>
      </trkpt>
      <trkpt lat="42.9198" lon="0.1179">
        <ele>2056</ele>
        <time>2013-01-05T09:42:27Z</time>
      </trkpt>
      <trkpt lat="42.91982" lon="0.1179">
        <ele>2056</ele>
        <time>2013-01-05T09:42:29Z</time>
      </trkpt>
      <trkpt lat="42.91983" lon="0.11791">
        <ele>2056</ele>
        <time>2013-01-05T09:42:31Z</time>
      </trkpt>
      <trkpt lat="42.91985" lon="0.11792">
        <ele>2057</ele>
        <time>2013-01-05T09:42:33Z</time>
      </trkpt>
      <trkpt lat="42.91986" lon="0.11792">
        <ele>2057</ele>
        <time>2013-01-05T09:42:35Z</time>
      </trkpt>
      <trkpt lat="42.91988" lon="0.11793">
        <ele>2057</ele>
        <time>2013-01-05T09:42:37Z</time>
      </trkpt>
      <trkpt lat="42.91989" lon="0.11793">
        <ele>2057</ele>
        <time>2013-01-05T09:42:39Z</time>
      </trkpt>
      <trkpt lat="42.91991" lon="0.11793">
        <ele>2057</ele>
        <time>2013-01-05T09:42:41Z</time>
      </trkpt>
      <trkpt lat="42.91992" lon="0.11794">
        <ele>2057</ele>
        <time>2013-01-05T09:42:43Z</time>
      </trkpt>
      <trkpt lat="42.91993" lon="0.11794">
        <ele>2057</ele>
        <time>2013-01-05T09:42:45Z</time>
      </trkpt>
      <trkpt lat="42.91995" lon="0.11795">
        <ele>2057</ele>
        <time>2013-01-05T09:42:47Z</time>
      </trkpt>
      <trkpt lat="42.91996" lon="0.11795">
        <ele>2058</ele>
        <time>2013-01-05T09:42:49Z</time>
      </trkpt>
      <trkpt lat="42.91997" lon="0.11796">
        <ele>2058</ele>
        <time>2013-01-05T09:42:51Z</time>
      </trkpt>
      <trkpt lat="42.91998" lon="0.11797">
        <ele>2059</ele>
        <time>2013-01-05T09:42:53Z</time>
      </trkpt>
      <trkpt lat="42.92" lon="0.11798">
        <ele>2059</ele>
        <time>2013-01-05T09:42:55Z</time>
      </trkpt>
      <trkpt lat="42.92001" lon="0.11799">
        <ele>2059</ele>
        <time>2013-01-05T09:42:57Z</time>
      </trkpt>
      <trkpt lat="42.92002" lon="0.11799">
        <ele>2060</ele>
        <time>2013-01-05T09:42:59Z</time>
      </trkpt>
      <trkpt lat="42.92004" lon="0.118">
        <ele>2060</ele>
        <time>2013-01-05T09:43:01Z</time>
      </trkpt>
      <trkpt lat="42.92005" lon="0.11802">
        <ele>2060</ele>
        <time>2013-01-05T09:43:04Z</time>
      </trkpt>
      <trkpt lat="42.92006" lon="0.11803">
        <ele>2061</ele>
        <time>2013-01-05T09:43:06Z</time>
      </trkpt>
      <trkpt lat="42.92007" lon="0.11805">
        <ele>2061</ele>
        <time>2013-01-05T09:43:08Z</time>
      </trkpt>
      <trkpt lat="42.92008" lon="0.11806">
        <ele>2061</ele>
        <time>2013-01-05T09:43:10Z</time>
      </trkpt>
      <trkpt lat="42.92009" lon="0.11808">
        <ele>2061</ele>
        <time>2013-01-05T09:43:12Z</time>
      </trkpt>
      <trkpt lat="42.9201" lon="0.11809">
        <ele>2061</ele>
        <time>2013-01-05T09:43:14Z</time>
      </trkpt>
      <trkpt lat="42.92012" lon="0.11811">
        <ele>2061</ele>
        <time>2013-01-05T09:43:17Z</time>
      </trkpt>
      <trkpt lat="42.92013" lon="0.11812">
        <ele>2062</ele>
        <time>2013-01-05T09:43:19Z</time>
      </trkpt>
      <trkpt lat="42.92014" lon="0.11813">
        <ele>2062</ele>
        <time>2013-01-05T09:43:21Z</time>
      </trkpt>
      <trkpt lat="42.92015" lon="0.11814">
        <ele>2062</ele>
        <time>2013-01-05T09:43:23Z</time>
      </trkpt>
      <trkpt lat="42.92016" lon="0.11815">
        <ele>2062</ele>
        <time>2013-01-05T09:43:25Z</time>
      </trkpt>
      <trkpt lat="42.92018" lon="0.11816">
        <ele>2063</ele>
        <time>2013-01-05T09:43:27Z</time>
      </trkpt>
      <trkpt lat="42.92019" lon="0.11816">
        <ele>2063</ele>
        <time>2013-01-05T09:43:29Z</time>
      </trkpt>
      <trkpt lat="42.9202" lon="0.11816">
        <ele>2063</ele>
        <time>2013-01-05T09:43:31Z</time>
      </trkpt>
      <trkpt lat="42.92022" lon="0.11816">
        <ele>2063</ele>
        <time>2013-01-05T09:43:33Z</time>
      </trkpt>
      <trkpt lat="42.92023" lon="0.11816">
        <ele>2063</ele>
        <time>2013-01-05T09:43:35Z</time>
      </trkpt>
      <trkpt lat="42.92024" lon="0.11816">
        <ele>2063</ele>
        <time>2013-01-05T09:43:37Z</time>
      </trkpt>
      <trkpt lat="42.92026" lon="0.11817">
        <ele>2063</ele>
        <time>2013-01-05T09:43:39Z</time>
      </trkpt>
      <trkpt lat="42.92027" lon="0.11817">
        <ele>2063</ele>
        <time>2013-01-05T09:43:41Z</time>
      </trkpt>
      <trkpt lat="42.92028" lon="0.11817">
        <ele>2064</ele>
        <time>2013-01-05T09:43:44Z</time>
      </trkpt>
      <trkpt lat="42.9203" lon="0.11817">
        <ele>2064</ele>
        <time>2013-01-05T09:43:47Z</time>
      </trkpt>
      <trkpt lat="42.92031" lon="0.11817">
        <ele>2064</ele>
        <time>2013-01-05T09:43:49Z</time>
      </trkpt>
      <trkpt lat="42.92033" lon="0.11816">
        <ele>2065</ele>
        <time>2013-01-05T09:43:51Z</time>
      </trkpt>
      <trkpt lat="42.92034" lon="0.11814">
        <ele>2065</ele>
        <time>2013-01-05T09:43:54Z</time>
      </trkpt>
      <trkpt lat="42.92036" lon="0.11813">
        <ele>2066</ele>
        <time>2013-01-05T09:43:56Z</time>
      </trkpt>
      <trkpt lat="42.92037" lon="0.11813">
        <ele>2066</ele>
        <time>2013-01-05T09:43:58Z</time>
      </trkpt>
      <trkpt lat="42.92038" lon="0.11812">
        <ele>2066</ele>
        <time>2013-01-05T09:44:00Z</time>
      </trkpt>
      <trkpt lat="42.9204" lon="0.11812">
        <ele>2066</ele>
        <time>2013-01-05T09:44:02Z</time>
      </trkpt>
      <trkpt lat="42.92041" lon="0.11811">
        <ele>2067</ele>
        <time>2013-01-05T09:44:04Z</time>
      </trkpt>
      <trkpt lat="42.92042" lon="0.11812">
        <ele>2067</ele>
        <time>2013-01-05T09:44:06Z</time>
      </trkpt>
      <trkpt lat="42.92043" lon="0.11813">
        <ele>2067</ele>
        <time>2013-01-05T09:44:09Z</time>
      </trkpt>
      <trkpt lat="42.92043" lon="0.11815">
        <ele>2068</ele>
        <time>2013-01-05T09:44:11Z</time>
      </trkpt>
      <trkpt lat="42.92042" lon="0.11817">
        <ele>2068</ele>
        <time>2013-01-05T09:44:13Z</time>
      </trkpt>
      <trkpt lat="42.92042" lon="0.11818">
        <ele>2069</ele>
        <time>2013-01-05T09:44:15Z</time>
      </trkpt>
      <trkpt lat="42.92042" lon="0.1182">
        <ele>2069</ele>
        <time>2013-01-05T09:44:17Z</time>
      </trkpt>
      <trkpt lat="42.92041" lon="0.11822">
        <ele>2069</ele>
        <time>2013-01-05T09:44:19Z</time>
      </trkpt>
      <trkpt lat="42.92041" lon="0.11824">
        <ele>2070</ele>
        <time>2013-01-05T09:44:21Z</time>
      </trkpt>
      <trkpt lat="42.92041" lon="0.11826">
        <ele>2070</ele>
        <time>2013-01-05T09:44:23Z</time>
      </trkpt>
      <trkpt lat="42.92041" lon="0.11827">
        <ele>2071</ele>
        <time>2013-01-05T09:44:25Z</time>
      </trkpt>
      <trkpt lat="42.92041" lon="0.11829">
        <ele>2071</ele>
        <time>2013-01-05T09:44:27Z</time>
      </trkpt>
      <trkpt lat="42.92041" lon="0.11831">
        <ele>2071</ele>
        <time>2013-01-05T09:44:29Z</time>
      </trkpt>
      <trkpt lat="42.92041" lon="0.11832">
        <ele>2071</ele>
        <time>2013-01-05T09:44:31Z</time>
      </trkpt>
      <trkpt lat="42.92042" lon="0.11832">
        <ele>2072</ele>
        <time>2013-01-05T09:44:39Z</time>
      </trkpt>
      <trkpt lat="42.92043" lon="0.1183">
        <ele>2072</ele>
        <time>2013-01-05T09:44:42Z</time>
      </trkpt>
      <trkpt lat="42.92044" lon="0.11829">
        <ele>2072</ele>
        <time>2013-01-05T09:44:44Z</time>
      </trkpt>
      <trkpt lat="42.92046" lon="0.11828">
        <ele>2073</ele>
        <time>2013-01-05T09:44:47Z</time>
      </trkpt>
      <trkpt lat="42.92048" lon="0.11828">
        <ele>2073</ele>
        <time>2013-01-05T09:44:49Z</time>
      </trkpt>
      <trkpt lat="42.92049" lon="0.11828">
        <ele>2073</ele>
        <time>2013-01-05T09:44:51Z</time>
      </trkpt>
      <trkpt lat="42.9205" lon="0.11828">
        <ele>2074</ele>
        <time>2013-01-05T09:44:53Z</time>
      </trkpt>
      <trkpt lat="42.92051" lon="0.11828">
        <ele>2074</ele>
        <time>2013-01-05T09:44:55Z</time>
      </trkpt>
      <trkpt lat="42.92053" lon="0.11828">
        <ele>2074</ele>
        <time>2013-01-05T09:44:57Z</time>
      </trkpt>
      <trkpt lat="42.92054" lon="0.11828">
        <ele>2075</ele>
        <time>2013-01-05T09:44:59Z</time>
      </trkpt>
      <trkpt lat="42.92056" lon="0.11828">
        <ele>2075</ele>
        <time>2013-01-05T09:45:01Z</time>
      </trkpt>
      <trkpt lat="42.92057" lon="0.11828">
        <ele>2075</ele>
        <time>2013-01-05T09:45:03Z</time>
      </trkpt>
      <trkpt lat="42.92059" lon="0.11829">
        <ele>2076</ele>
        <time>2013-01-05T09:45:05Z</time>
      </trkpt>
      <trkpt lat="42.9206" lon="0.11829">
        <ele>2076</ele>
        <time>2013-01-05T09:45:07Z</time>
      </trkpt>
      <trkpt lat="42.92062" lon="0.11829">
        <ele>2076</ele>
        <time>2013-01-05T09:45:09Z</time>
      </trkpt>
      <trkpt lat="42.92063" lon="0.11829">
        <ele>2077</ele>
        <time>2013-01-05T09:45:11Z</time>
      </trkpt>
      <trkpt lat="42.92065" lon="0.11829">
        <ele>2077</ele>
        <time>2013-01-05T09:45:13Z</time>
      </trkpt>
      <trkpt lat="42.92066" lon="0.11828">
        <ele>2077</ele>
        <time>2013-01-05T09:45:15Z</time>
      </trkpt>
      <trkpt lat="42.92067" lon="0.11828">
        <ele>2077</ele>
        <time>2013-01-05T09:45:17Z</time>
      </trkpt>
      <trkpt lat="42.92069" lon="0.11828">
        <ele>2077</ele>
        <time>2013-01-05T09:45:19Z</time>
      </trkpt>
      <trkpt lat="42.9207" lon="0.11827">
        <ele>2078</ele>
        <time>2013-01-05T09:45:21Z</time>
      </trkpt>
      <trkpt lat="42.92071" lon="0.11828">
        <ele>2079</ele>
        <time>2013-01-05T09:45:40Z</time>
      </trkpt>
      <trkpt lat="42.92073" lon="0.11827">
        <ele>2079</ele>
        <time>2013-01-05T09:45:42Z</time>
      </trkpt>
      <trkpt lat="42.92074" lon="0.11827">
        <ele>2079</ele>
        <time>2013-01-05T09:45:44Z</time>
      </trkpt>
      <trkpt lat="42.92075" lon="0.11827">
        <ele>2079</ele>
        <time>2013-01-05T09:45:46Z</time>
      </trkpt>
      <trkpt lat="42.92077" lon="0.11827">
        <ele>2079</ele>
        <time>2013-01-05T09:45:48Z</time>
      </trkpt>
      <trkpt lat="42.92078" lon="0.11827">
        <ele>2079</ele>
        <time>2013-01-05T09:45:50Z</time>
      </trkpt>
      <trkpt lat="42.9208" lon="0.11826">
        <ele>2080</ele>
        <time>2013-01-05T09:45:52Z</time>
      </trkpt>
      <trkpt lat="42.92081" lon="0.11826">
        <ele>2080</ele>
        <time>2013-01-05T09:45:54Z</time>
      </trkpt>
      <trkpt lat="42.92083" lon="0.11826">
        <ele>2080</ele>
        <time>2013-01-05T09:45:56Z</time>
      </trkpt>
      <trkpt lat="42.92084" lon="0.11826">
        <ele>2080</ele>
        <time>2013-01-05T09:45:58Z</time>
      </trkpt>
      <trkpt lat="42.92086" lon="0.11826">
        <ele>2081</ele>
        <time>2013-01-05T09:46:00Z</time>
      </trkpt>
      <trkpt lat="42.92087" lon="0.11826">
        <ele>2081</ele>
        <time>2013-01-05T09:46:02Z</time>
      </trkpt>
      <trkpt lat="42.92089" lon="0.11826">
        <ele>2081</ele>
        <time>2013-01-05T09:46:04Z</time>
      </trkpt>
      <trkpt lat="42.9209" lon="0.11827">
        <ele>2081</ele>
        <time>2013-01-05T09:46:06Z</time>
      </trkpt>
      <trkpt lat="42.92092" lon="0.11827">
        <ele>2082</ele>
        <time>2013-01-05T09:46:08Z</time>
      </trkpt>
      <trkpt lat="42.92093" lon="0.11829">
        <ele>2082</ele>
        <time>2013-01-05T09:46:11Z</time>
      </trkpt>
      <trkpt lat="42.92093" lon="0.11831">
        <ele>2082</ele>
        <time>2013-01-05T09:46:13Z</time>
      </trkpt>
      <trkpt lat="42.92093" lon="0.11833">
        <ele>2083</ele>
        <time>2013-01-05T09:46:15Z</time>
      </trkpt>
      <trkpt lat="42.92092" lon="0.11835">
        <ele>2083</ele>
        <time>2013-01-05T09:46:17Z</time>
      </trkpt>
      <trkpt lat="42.92092" lon="0.11838">
        <ele>2083</ele>
        <time>2013-01-05T09:46:19Z</time>
      </trkpt>
      <trkpt lat="42.92092" lon="0.1184">
        <ele>2083</ele>
        <time>2013-01-05T09:46:21Z</time>
      </trkpt>
      <trkpt lat="42.92092" lon="0.11842">
        <ele>2083</ele>
        <time>2013-01-05T09:46:23Z</time>
      </trkpt>
      <trkpt lat="42.92093" lon="0.11844">
        <ele>2083</ele>
        <time>2013-01-05T09:46:25Z</time>
      </trkpt>
      <trkpt lat="42.92093" lon="0.11846">
        <ele>2084</ele>
        <time>2013-01-05T09:46:27Z</time>
      </trkpt>
      <trkpt lat="42.92094" lon="0.11847">
        <ele>2084</ele>
        <time>2013-01-05T09:46:29Z</time>
      </trkpt>
      <trkpt lat="42.92095" lon="0.11849">
        <ele>2084</ele>
        <time>2013-01-05T09:46:31Z</time>
      </trkpt>
      <trkpt lat="42.92096" lon="0.11851">
        <ele>2085</ele>
        <time>2013-01-05T09:46:33Z</time>
      </trkpt>
      <trkpt lat="42.92097" lon="0.11852">
        <ele>2085</ele>
        <time>2013-01-05T09:46:35Z</time>
      </trkpt>
      <trkpt lat="42.92098" lon="0.11854">
        <ele>2085</ele>
        <time>2013-01-05T09:46:37Z</time>
      </trkpt>
      <trkpt lat="42.92099" lon="0.11855">
        <ele>2085</ele>
        <time>2013-01-05T09:46:39Z</time>
      </trkpt>
      <trkpt lat="42.92101" lon="0.11856">
        <ele>2085</ele>
        <time>2013-01-05T09:46:41Z</time>
      </trkpt>
      <trkpt lat="42.92102" lon="0.11857">
        <ele>2086</ele>
        <time>2013-01-05T09:46:43Z</time>
      </trkpt>
      <trkpt lat="42.92103" lon="0.11859">
        <ele>2086</ele>
        <time>2013-01-05T09:46:45Z</time>
      </trkpt>
      <trkpt lat="42.92104" lon="0.11861">
        <ele>2086</ele>
        <time>2013-01-05T09:46:47Z</time>
      </trkpt>
      <trkpt lat="42.92104" lon="0.11862">
        <ele>2086</ele>
        <time>2013-01-05T09:46:49Z</time>
      </trkpt>
      <trkpt lat="42.92105" lon="0.11864">
        <ele>2086</ele>
        <time>2013-01-05T09:46:51Z</time>
      </trkpt>
      <trkpt lat="42.92107" lon="0.11865">
        <ele>2086</ele>
        <time>2013-01-05T09:46:53Z</time>
      </trkpt>
      <trkpt lat="42.92108" lon="0.11865">
        <ele>2087</ele>
        <time>2013-01-05T09:46:55Z</time>
      </trkpt>
      <trkpt lat="42.9211" lon="0.11865">
        <ele>2088</ele>
        <time>2013-01-05T09:47:05Z</time>
      </trkpt>
      <trkpt lat="42.92111" lon="0.11864">
        <ele>2088</ele>
        <time>2013-01-05T09:47:07Z</time>
      </trkpt>
      <trkpt lat="42.92112" lon="0.11864">
        <ele>2088</ele>
        <time>2013-01-05T09:47:09Z</time>
      </trkpt>
      <trkpt lat="42.92114" lon="0.11864">
        <ele>2088</ele>
        <time>2013-01-05T09:47:11Z</time>
      </trkpt>
      <trkpt lat="42.92115" lon="0.11864">
        <ele>2088</ele>
        <time>2013-01-05T09:47:13Z</time>
      </trkpt>
      <trkpt lat="42.92117" lon="0.11864">
        <ele>2088</ele>
        <time>2013-01-05T09:47:15Z</time>
      </trkpt>
      <trkpt lat="42.92118" lon="0.11865">
        <ele>2088</ele>
        <time>2013-01-05T09:47:17Z</time>
      </trkpt>
      <trkpt lat="42.9212" lon="0.11865">
        <ele>2089</ele>
        <time>2013-01-05T09:47:19Z</time>
      </trkpt>
      <trkpt lat="42.92121" lon="0.11866">
        <ele>2089</ele>
        <time>2013-01-05T09:47:21Z</time>
      </trkpt>
      <trkpt lat="42.92122" lon="0.11867">
        <ele>2089</ele>
        <time>2013-01-05T09:47:23Z</time>
      </trkpt>
      <trkpt lat="42.92123" lon="0.11868">
        <ele>2090</ele>
        <time>2013-01-05T09:47:25Z</time>
      </trkpt>
      <trkpt lat="42.92125" lon="0.11868">
        <ele>2090</ele>
        <time>2013-01-05T09:47:27Z</time>
      </trkpt>
      <trkpt lat="42.92126" lon="0.11869">
        <ele>2090</ele>
        <time>2013-01-05T09:47:29Z</time>
      </trkpt>
      <trkpt lat="42.92127" lon="0.1187">
        <ele>2090</ele>
        <time>2013-01-05T09:47:31Z</time>
      </trkpt>
      <trkpt lat="42.92128" lon="0.11871">
        <ele>2091</ele>
        <time>2013-01-05T09:47:33Z</time>
      </trkpt>
      <trkpt lat="42.9213" lon="0.11873">
        <ele>2091</ele>
        <time>2013-01-05T09:47:36Z</time>
      </trkpt>
      <trkpt lat="42.92131" lon="0.11875">
        <ele>2092</ele>
        <time>2013-01-05T09:47:39Z</time>
      </trkpt>
      <trkpt lat="42.92133" lon="0.11876">
        <ele>2093</ele>
        <time>2013-01-05T09:48:07Z</time>
      </trkpt>
      <trkpt lat="42.92133" lon="0.11878">
        <ele>2093</ele>
        <time>2013-01-05T09:48:09Z</time>
      </trkpt>
      <trkpt lat="42.92135" lon="0.11879">
        <ele>2093</ele>
        <time>2013-01-05T09:48:12Z</time>
      </trkpt>
      <trkpt lat="42.92136" lon="0.11881">
        <ele>2093</ele>
        <time>2013-01-05T09:48:15Z</time>
      </trkpt>
      <trkpt lat="42.92137" lon="0.11883">
        <ele>2093</ele>
        <time>2013-01-05T09:48:18Z</time>
      </trkpt>
      <trkpt lat="42.92138" lon="0.11885">
        <ele>2094</ele>
        <time>2013-01-05T09:48:21Z</time>
      </trkpt>
      <trkpt lat="42.92139" lon="0.11887">
        <ele>2094</ele>
        <time>2013-01-05T09:48:23Z</time>
      </trkpt>
      <trkpt lat="42.92141" lon="0.11889">
        <ele>2095</ele>
        <time>2013-01-05T09:48:26Z</time>
      </trkpt>
      <trkpt lat="42.92142" lon="0.1189">
        <ele>2095</ele>
        <time>2013-01-05T09:48:29Z</time>
      </trkpt>
      <trkpt lat="42.92144" lon="0.11892">
        <ele>2095</ele>
        <time>2013-01-05T09:48:32Z</time>
      </trkpt>
      <trkpt lat="42.92145" lon="0.11893">
        <ele>2095</ele>
        <time>2013-01-05T09:48:34Z</time>
      </trkpt>
      <trkpt lat="42.92146" lon="0.11895">
        <ele>2095</ele>
        <time>2013-01-05T09:48:37Z</time>
      </trkpt>
      <trkpt lat="42.92147" lon="0.11896">
        <ele>2096</ele>
        <time>2013-01-05T09:48:40Z</time>
      </trkpt>
      <trkpt lat="42.92149" lon="0.11898">
        <ele>2096</ele>
        <time>2013-01-05T09:48:43Z</time>
      </trkpt>
      <trkpt lat="42.9215" lon="0.11899">
        <ele>2096</ele>
        <time>2013-01-05T09:48:46Z</time>
      </trkpt>
      <trkpt lat="42.92151" lon="0.11901">
        <ele>2097</ele>
        <time>2013-01-05T09:48:49Z</time>
      </trkpt>
      <trkpt lat="42.92152" lon="0.11902">
        <ele>2097</ele>
        <time>2013-01-05T09:48:52Z</time>
      </trkpt>
      <trkpt lat="42.92154" lon="0.11903">
        <ele>2098</ele>
        <time>2013-01-05T09:48:55Z</time>
      </trkpt>
      <trkpt lat="42.92155" lon="0.11905">
        <ele>2098</ele>
        <time>2013-01-05T09:48:58Z</time>
      </trkpt>
      <trkpt lat="42.92157" lon="0.11906">
        <ele>2099</ele>
        <time>2013-01-05T09:49:01Z</time>
      </trkpt>
      <trkpt lat="42.92158" lon="0.11908">
        <ele>2100</ele>
        <time>2013-01-05T09:49:05Z</time>
      </trkpt>
      <trkpt lat="42.9216" lon="0.1191">
        <ele>2100</ele>
        <time>2013-01-05T09:49:08Z</time>
      </trkpt>
      <trkpt lat="42.9216" lon="0.11911">
        <ele>2100</ele>
        <time>2013-01-05T09:49:11Z</time>
      </trkpt>
      <trkpt lat="42.92162" lon="0.11912">
        <ele>2101</ele>
        <time>2013-01-05T09:49:14Z</time>
      </trkpt>
      <trkpt lat="42.92163" lon="0.11914">
        <ele>2101</ele>
        <time>2013-01-05T09:49:18Z</time>
      </trkpt>
      <trkpt lat="42.92163" lon="0.11916">
        <ele>2101</ele>
        <time>2013-01-05T09:49:21Z</time>
      </trkpt>
      <trkpt lat="42.92163" lon="0.11917">
        <ele>2102</ele>
        <time>2013-01-05T09:49:23Z</time>
      </trkpt>
      <trkpt lat="42.92163" lon="0.11919">
        <ele>2102</ele>
        <time>2013-01-05T09:49:25Z</time>
      </trkpt>
      <trkpt lat="42.92164" lon="0.1192">
        <ele>2103</ele>
        <time>2013-01-05T09:49:27Z</time>
      </trkpt>
      <trkpt lat="42.92164" lon="0.11922">
        <ele>2103</ele>
        <time>2013-01-05T09:49:29Z</time>
      </trkpt>
      <trkpt lat="42.92164" lon="0.11924">
        <ele>2103</ele>
        <time>2013-01-05T09:49:31Z</time>
      </trkpt>
      <trkpt lat="42.92165" lon="0.11925">
        <ele>2104</ele>
        <time>2013-01-05T09:49:33Z</time>
      </trkpt>
      <trkpt lat="42.92165" lon="0.11927">
        <ele>2104</ele>
        <time>2013-01-05T09:49:35Z</time>
      </trkpt>
      <trkpt lat="42.92165" lon="0.11928">
        <ele>2104</ele>
        <time>2013-01-05T09:49:37Z</time>
      </trkpt>
      <trkpt lat="42.92166" lon="0.1193">
        <ele>2104</ele>
        <time>2013-01-05T09:49:39Z</time>
      </trkpt>
      <trkpt lat="42.92166" lon="0.11931">
        <ele>2104</ele>
        <time>2013-01-05T09:49:41Z</time>
      </trkpt>
      <trkpt lat="42.92168" lon="0.11932">
        <ele>2104</ele>
        <time>2013-01-05T09:49:44Z</time>
      </trkpt>
      <trkpt lat="42.92169" lon="0.11931">
        <ele>2104</ele>
        <time>2013-01-05T09:49:46Z</time>
      </trkpt>
      <trkpt lat="42.92171" lon="0.1193">
        <ele>2105</ele>
        <time>2013-01-05T09:49:48Z</time>
      </trkpt>
      <trkpt lat="42.92172" lon="0.1193">
        <ele>2105</ele>
        <time>2013-01-05T09:49:50Z</time>
      </trkpt>
      <trkpt lat="42.92173" lon="0.1193">
        <ele>2105</ele>
        <time>2013-01-05T09:49:52Z</time>
      </trkpt>
      <trkpt lat="42.92175" lon="0.1193">
        <ele>2106</ele>
        <time>2013-01-05T09:49:54Z</time>
      </trkpt>
      <trkpt lat="42.92176" lon="0.11929">
        <ele>2106</ele>
        <time>2013-01-05T09:50:14Z</time>
      </trkpt>
      <trkpt lat="42.92178" lon="0.1193">
        <ele>2107</ele>
        <time>2013-01-05T09:50:17Z</time>
      </trkpt>
      <trkpt lat="42.92179" lon="0.11931">
        <ele>2107</ele>
        <time>2013-01-05T09:50:20Z</time>
      </trkpt>
      <trkpt lat="42.9218" lon="0.11932">
        <ele>2107</ele>
        <time>2013-01-05T09:50:23Z</time>
      </trkpt>
      <trkpt lat="42.92181" lon="0.11933">
        <ele>2108</ele>
        <time>2013-01-05T09:50:26Z</time>
      </trkpt>
      <trkpt lat="42.92182" lon="0.11934">
        <ele>2108</ele>
        <time>2013-01-05T09:50:31Z</time>
      </trkpt>
      <trkpt lat="42.92184" lon="0.11935">
        <ele>2109</ele>
        <time>2013-01-05T09:50:35Z</time>
      </trkpt>
      <trkpt lat="42.92185" lon="0.11935">
        <ele>2109</ele>
        <time>2013-01-05T09:50:38Z</time>
      </trkpt>
      <trkpt lat="42.92186" lon="0.11936">
        <ele>2109</ele>
        <time>2013-01-05T09:50:42Z</time>
      </trkpt>
      <trkpt lat="42.92187" lon="0.11936">
        <ele>2110</ele>
        <time>2013-01-05T09:50:45Z</time>
      </trkpt>
      <trkpt lat="42.92189" lon="0.11937">
        <ele>2110</ele>
        <time>2013-01-05T09:50:48Z</time>
      </trkpt>
      <trkpt lat="42.92189" lon="0.11938">
        <ele>2111</ele>
        <time>2013-01-05T09:50:52Z</time>
      </trkpt>
      <trkpt lat="42.92189" lon="0.1194">
        <ele>2111</ele>
        <time>2013-01-05T09:50:54Z</time>
      </trkpt>
      <trkpt lat="42.92189" lon="0.11942">
        <ele>2112</ele>
        <time>2013-01-05T09:50:56Z</time>
      </trkpt>
      <trkpt lat="42.9219" lon="0.11943">
        <ele>2112</ele>
        <time>2013-01-05T09:50:58Z</time>
      </trkpt>
      <trkpt lat="42.9219" lon="0.11945">
        <ele>2113</ele>
        <time>2013-01-05T09:51:00Z</time>
      </trkpt>
      <trkpt lat="42.9219" lon="0.11947">
        <ele>2113</ele>
        <time>2013-01-05T09:51:02Z</time>
      </trkpt>
      <trkpt lat="42.9219" lon="0.11949">
        <ele>2113</ele>
        <time>2013-01-05T09:51:04Z</time>
      </trkpt>
      <trkpt lat="42.92191" lon="0.11951">
        <ele>2114</ele>
        <time>2013-01-05T09:51:06Z</time>
      </trkpt>
      <trkpt lat="42.92191" lon="0.11952">
        <ele>2114</ele>
        <time>2013-01-05T09:51:08Z</time>
      </trkpt>
      <trkpt lat="42.92192" lon="0.11954">
        <ele>2115</ele>
        <time>2013-01-05T09:51:10Z</time>
      </trkpt>
      <trkpt lat="42.92194" lon="0.11954">
        <ele>2115</ele>
        <time>2013-01-05T09:51:12Z</time>
      </trkpt>
      <trkpt lat="42.92195" lon="0.11954">
        <ele>2115</ele>
        <time>2013-01-05T09:51:14Z</time>
      </trkpt>
      <trkpt lat="42.92197" lon="0.11954">
        <ele>2116</ele>
        <time>2013-01-05T09:51:17Z</time>
      </trkpt>
      <trkpt lat="42.92198" lon="0.11955">
        <ele>2116</ele>
        <time>2013-01-05T09:51:19Z</time>
      </trkpt>
      <trkpt lat="42.92199" lon="0.11956">
        <ele>2117</ele>
        <time>2013-01-05T09:51:21Z</time>
      </trkpt>
      <trkpt lat="42.92201" lon="0.11956">
        <ele>2117</ele>
        <time>2013-01-05T09:51:25Z</time>
      </trkpt>
      <trkpt lat="42.92202" lon="0.11957">
        <ele>2118</ele>
        <time>2013-01-05T09:51:27Z</time>
      </trkpt>
      <trkpt lat="42.92203" lon="0.11957">
        <ele>2118</ele>
        <time>2013-01-05T09:51:29Z</time>
      </trkpt>
      <trkpt lat="42.92205" lon="0.11958">
        <ele>2119</ele>
        <time>2013-01-05T09:51:31Z</time>
      </trkpt>
      <trkpt lat="42.92206" lon="0.11958">
        <ele>2119</ele>
        <time>2013-01-05T09:51:33Z</time>
      </trkpt>
      <trkpt lat="42.92207" lon="0.11959">
        <ele>2120</ele>
        <time>2013-01-05T09:51:36Z</time>
      </trkpt>
      <trkpt lat="42.92209" lon="0.1196">
        <ele>2120</ele>
        <time>2013-01-05T09:51:38Z</time>
      </trkpt>
      <trkpt lat="42.9221" lon="0.11961">
        <ele>2120</ele>
        <time>2013-01-05T09:51:40Z</time>
      </trkpt>
      <trkpt lat="42.92211" lon="0.11962">
        <ele>2120</ele>
        <time>2013-01-05T09:51:42Z</time>
      </trkpt>
      <trkpt lat="42.92213" lon="0.11963">
        <ele>2121</ele>
        <time>2013-01-05T09:51:45Z</time>
      </trkpt>
      <trkpt lat="42.92214" lon="0.11964">
        <ele>2121</ele>
        <time>2013-01-05T09:51:47Z</time>
      </trkpt>
      <trkpt lat="42.92215" lon="0.11965">
        <ele>2122</ele>
        <time>2013-01-05T09:51:49Z</time>
      </trkpt>
      <trkpt lat="42.92216" lon="0.11965">
        <ele>2122</ele>
        <time>2013-01-05T09:51:51Z</time>
      </trkpt>
      <trkpt lat="42.92218" lon="0.11966">
        <ele>2122</ele>
        <time>2013-01-05T09:51:53Z</time>
      </trkpt>
      <trkpt lat="42.92219" lon="0.11968">
        <ele>2122</ele>
        <time>2013-01-05T09:51:55Z</time>
      </trkpt>
      <trkpt lat="42.9222" lon="0.11968">
        <ele>2122</ele>
        <time>2013-01-05T09:51:57Z</time>
      </trkpt>
      <trkpt lat="42.92221" lon="0.11969">
        <ele>2122</ele>
        <time>2013-01-05T09:51:59Z</time>
      </trkpt>
      <trkpt lat="42.92223" lon="0.1197">
        <ele>2123</ele>
        <time>2013-01-05T09:52:01Z</time>
      </trkpt>
      <trkpt lat="42.92224" lon="0.11971">
        <ele>2123</ele>
        <time>2013-01-05T09:52:03Z</time>
      </trkpt>
      <trkpt lat="42.92225" lon="0.11972">
        <ele>2123</ele>
        <time>2013-01-05T09:52:05Z</time>
      </trkpt>
      <trkpt lat="42.92226" lon="0.11974">
        <ele>2124</ele>
        <time>2013-01-05T09:52:48Z</time>
      </trkpt>
      <trkpt lat="42.92226" lon="0.11975">
        <ele>2124</ele>
        <time>2013-01-05T09:52:50Z</time>
      </trkpt>
      <trkpt lat="42.92228" lon="0.11976">
        <ele>2124</ele>
        <time>2013-01-05T09:53:17Z</time>
      </trkpt>
      <trkpt lat="42.92229" lon="0.11977">
        <ele>2124</ele>
        <time>2013-01-05T09:53:20Z</time>
      </trkpt>
      <trkpt lat="42.92231" lon="0.11979">
        <ele>2124</ele>
        <time>2013-01-05T09:53:23Z</time>
      </trkpt>
      <trkpt lat="42.92232" lon="0.1198">
        <ele>2124</ele>
        <time>2013-01-05T09:53:25Z</time>
      </trkpt>
      <trkpt lat="42.92234" lon="0.11982">
        <ele>2125</ele>
        <time>2013-01-05T09:53:28Z</time>
      </trkpt>
      <trkpt lat="42.92235" lon="0.11983">
        <ele>2125</ele>
        <time>2013-01-05T09:53:30Z</time>
      </trkpt>
      <trkpt lat="42.92236" lon="0.11983">
        <ele>2125</ele>
        <time>2013-01-05T09:53:32Z</time>
      </trkpt>
      <trkpt lat="42.92237" lon="0.11984">
        <ele>2125</ele>
        <time>2013-01-05T09:53:34Z</time>
      </trkpt>
      <trkpt lat="42.92239" lon="0.11985">
        <ele>2126</ele>
        <time>2013-01-05T09:53:36Z</time>
      </trkpt>
      <trkpt lat="42.9224" lon="0.11986">
        <ele>2126</ele>
        <time>2013-01-05T09:53:38Z</time>
      </trkpt>
      <trkpt lat="42.92241" lon="0.11987">
        <ele>2126</ele>
        <time>2013-01-05T09:53:40Z</time>
      </trkpt>
      <trkpt lat="42.92242" lon="0.11988">
        <ele>2127</ele>
        <time>2013-01-05T09:53:42Z</time>
      </trkpt>
      <trkpt lat="42.92244" lon="0.11988">
        <ele>2128</ele>
        <time>2013-01-05T09:53:44Z</time>
      </trkpt>
      <trkpt lat="42.92245" lon="0.11989">
        <ele>2128</ele>
        <time>2013-01-05T09:53:46Z</time>
      </trkpt>
      <trkpt lat="42.92247" lon="0.11991">
        <ele>2128</ele>
        <time>2013-01-05T09:53:49Z</time>
      </trkpt>
      <trkpt lat="42.92248" lon="0.11992">
        <ele>2128</ele>
        <time>2013-01-05T09:53:51Z</time>
      </trkpt>
      <trkpt lat="42.92249" lon="0.11994">
        <ele>2129</ele>
        <time>2013-01-05T09:53:53Z</time>
      </trkpt>
      <trkpt lat="42.9225" lon="0.11995">
        <ele>2129</ele>
        <time>2013-01-05T09:53:55Z</time>
      </trkpt>
      <trkpt lat="42.92251" lon="0.11997">
        <ele>2130</ele>
        <time>2013-01-05T09:53:57Z</time>
      </trkpt>
      <trkpt lat="42.92252" lon="0.11998">
        <ele>2130</ele>
        <time>2013-01-05T09:53:59Z</time>
      </trkpt>
      <trkpt lat="42.92254" lon="0.11999">
        <ele>2130</ele>
        <time>2013-01-05T09:54:01Z</time>
      </trkpt>
      <trkpt lat="42.92255" lon="0.12">
        <ele>2130</ele>
        <time>2013-01-05T09:54:03Z</time>
      </trkpt>
      <trkpt lat="42.92256" lon="0.12002">
        <ele>2130</ele>
        <time>2013-01-05T09:54:05Z</time>
      </trkpt>
      <trkpt lat="42.92256" lon="0.12004">
        <ele>2131</ele>
        <time>2013-01-05T09:54:07Z</time>
      </trkpt>
      <trkpt lat="42.92256" lon="0.12005">
        <ele>2131</ele>
        <time>2013-01-05T09:54:09Z</time>
      </trkpt>
      <trkpt lat="42.92256" lon="0.12007">
        <ele>2131</ele>
        <time>2013-01-05T09:54:11Z</time>
      </trkpt>
      <trkpt lat="42.92255" lon="0.12008">
        <ele>2132</ele>
        <time>2013-01-05T09:54:13Z</time>
      </trkpt>
      <trkpt lat="42.92254" lon="0.1201">
        <ele>2133</ele>
        <time>2013-01-05T09:54:16Z</time>
      </trkpt>
      <trkpt lat="42.92253" lon="0.12012">
        <ele>2133</ele>
        <time>2013-01-05T09:54:19Z</time>
      </trkpt>
      <trkpt lat="42.92252" lon="0.12014">
        <ele>2134</ele>
        <time>2013-01-05T09:54:22Z</time>
      </trkpt>
      <trkpt lat="42.92252" lon="0.12015">
        <ele>2134</ele>
        <time>2013-01-05T09:54:25Z</time>
      </trkpt>
      <trkpt lat="42.92251" lon="0.12017">
        <ele>2135</ele>
        <time>2013-01-05T09:54:27Z</time>
      </trkpt>
      <trkpt lat="42.92251" lon="0.12019">
        <ele>2135</ele>
        <time>2013-01-05T09:54:29Z</time>
      </trkpt>
      <trkpt lat="42.92251" lon="0.12021">
        <ele>2135</ele>
        <time>2013-01-05T09:54:31Z</time>
      </trkpt>
      <trkpt lat="42.92252" lon="0.12022">
        <ele>2136</ele>
        <time>2013-01-05T09:54:33Z</time>
      </trkpt>
      <trkpt lat="42.92253" lon="0.12024">
        <ele>2137</ele>
        <time>2013-01-05T09:54:36Z</time>
      </trkpt>
      <trkpt lat="42.92255" lon="0.12026">
        <ele>2137</ele>
        <time>2013-01-05T09:54:39Z</time>
      </trkpt>
      <trkpt lat="42.92256" lon="0.12027">
        <ele>2138</ele>
        <time>2013-01-05T09:54:41Z</time>
      </trkpt>
      <trkpt lat="42.92257" lon="0.12027">
        <ele>2139</ele>
        <time>2013-01-05T09:54:50Z</time>
      </trkpt>
      <trkpt lat="42.92258" lon="0.12027">
        <ele>2139</ele>
        <time>2013-01-05T09:55:06Z</time>
      </trkpt>
      <trkpt lat="42.9226" lon="0.12029">
        <ele>2139</ele>
        <time>2013-01-05T09:55:09Z</time>
      </trkpt>
      <trkpt lat="42.92261" lon="0.1203">
        <ele>2139</ele>
        <time>2013-01-05T09:55:11Z</time>
      </trkpt>
      <trkpt lat="42.92262" lon="0.12031">
        <ele>2139</ele>
        <time>2013-01-05T09:55:14Z</time>
      </trkpt>
      <trkpt lat="42.92263" lon="0.12032">
        <ele>2140</ele>
        <time>2013-01-05T09:55:34Z</time>
      </trkpt>
      <trkpt lat="42.92265" lon="0.12033">
        <ele>2140</ele>
        <time>2013-01-05T09:55:37Z</time>
      </trkpt>
      <trkpt lat="42.92266" lon="0.12034">
        <ele>2140</ele>
        <time>2013-01-05T09:55:39Z</time>
      </trkpt>
      <trkpt lat="42.92267" lon="0.12035">
        <ele>2140</ele>
        <time>2013-01-05T09:55:41Z</time>
      </trkpt>
      <trkpt lat="42.92269" lon="0.12036">
        <ele>2141</ele>
        <time>2013-01-05T09:55:44Z</time>
      </trkpt>
      <trkpt lat="42.9227" lon="0.12037">
        <ele>2142</ele>
        <time>2013-01-05T09:55:47Z</time>
      </trkpt>
      <trkpt lat="42.92271" lon="0.12037">
        <ele>2143</ele>
        <time>2013-01-05T09:55:49Z</time>
      </trkpt>
      <trkpt lat="42.92272" lon="0.12037">
        <ele>2144</ele>
        <time>2013-01-05T09:55:51Z</time>
      </trkpt>
      <trkpt lat="42.92273" lon="0.12038">
        <ele>2144</ele>
        <time>2013-01-05T09:55:53Z</time>
      </trkpt>
      <trkpt lat="42.92275" lon="0.12039">
        <ele>2145</ele>
        <time>2013-01-05T09:55:55Z</time>
      </trkpt>
      <trkpt lat="42.92276" lon="0.1204">
        <ele>2145</ele>
        <time>2013-01-05T09:55:58Z</time>
      </trkpt>
      <trkpt lat="42.92278" lon="0.12041">
        <ele>2146</ele>
        <time>2013-01-05T09:56:01Z</time>
      </trkpt>
      <trkpt lat="42.92279" lon="0.12042">
        <ele>2146</ele>
        <time>2013-01-05T09:56:04Z</time>
      </trkpt>
      <trkpt lat="42.9228" lon="0.12044">
        <ele>2147</ele>
        <time>2013-01-05T09:56:07Z</time>
      </trkpt>
      <trkpt lat="42.92281" lon="0.12045">
        <ele>2147</ele>
        <time>2013-01-05T09:56:10Z</time>
      </trkpt>
      <trkpt lat="42.92283" lon="0.12046">
        <ele>2147</ele>
        <time>2013-01-05T09:56:12Z</time>
      </trkpt>
      <trkpt lat="42.92284" lon="0.12047">
        <ele>2147</ele>
        <time>2013-01-05T09:56:15Z</time>
      </trkpt>
      <trkpt lat="42.92286" lon="0.12048">
        <ele>2147</ele>
        <time>2013-01-05T09:56:18Z</time>
      </trkpt>
      <trkpt lat="42.92287" lon="0.12049">
        <ele>2147</ele>
        <time>2013-01-05T09:56:20Z</time>
      </trkpt>
      <trkpt lat="42.92289" lon="0.1205">
        <ele>2147</ele>
        <time>2013-01-05T09:56:22Z</time>
      </trkpt>
      <trkpt lat="42.9229" lon="0.12051">
        <ele>2147</ele>
        <time>2013-01-05T09:56:25Z</time>
      </trkpt>
      <trkpt lat="42.92291" lon="0.12052">
        <ele>2147</ele>
        <time>2013-01-05T09:56:27Z</time>
      </trkpt>
      <trkpt lat="42.92292" lon="0.12053">
        <ele>2148</ele>
        <time>2013-01-05T09:56:29Z</time>
      </trkpt>
      <trkpt lat="42.92294" lon="0.12053">
        <ele>2148</ele>
        <time>2013-01-05T09:56:31Z</time>
      </trkpt>
      <trkpt lat="42.92295" lon="0.12054">
        <ele>2148</ele>
        <time>2013-01-05T09:56:33Z</time>
      </trkpt>
      <trkpt lat="42.92296" lon="0.12055">
        <ele>2148</ele>
        <time>2013-01-05T09:56:36Z</time>
      </trkpt>
      <trkpt lat="42.92298" lon="0.12056">
        <ele>2148</ele>
        <time>2013-01-05T09:56:40Z</time>
      </trkpt>
      <trkpt lat="42.92299" lon="0.12057">
        <ele>2149</ele>
        <time>2013-01-05T09:56:43Z</time>
      </trkpt>
      <trkpt lat="42.923" lon="0.12058">
        <ele>2149</ele>
        <time>2013-01-05T09:56:46Z</time>
      </trkpt>
      <trkpt lat="42.92302" lon="0.12058">
        <ele>2149</ele>
        <time>2013-01-05T09:56:49Z</time>
      </trkpt>
      <trkpt lat="42.92303" lon="0.12059">
        <ele>2150</ele>
        <time>2013-01-05T09:56:52Z</time>
      </trkpt>
      <trkpt lat="42.92305" lon="0.12059">
        <ele>2150</ele>
        <time>2013-01-05T09:56:55Z</time>
      </trkpt>
      <trkpt lat="42.92306" lon="0.1206">
        <ele>2150</ele>
        <time>2013-01-05T09:56:58Z</time>
      </trkpt>
      <trkpt lat="42.92308" lon="0.1206">
        <ele>2151</ele>
        <time>2013-01-05T09:57:01Z</time>
      </trkpt>
      <trkpt lat="42.92309" lon="0.1206">
        <ele>2151</ele>
        <time>2013-01-05T09:57:05Z</time>
      </trkpt>
      <trkpt lat="42.92311" lon="0.1206">
        <ele>2152</ele>
        <time>2013-01-05T09:57:08Z</time>
      </trkpt>
      <trkpt lat="42.92312" lon="0.1206">
        <ele>2152</ele>
        <time>2013-01-05T09:57:11Z</time>
      </trkpt>
      <trkpt lat="42.92313" lon="0.1206">
        <ele>2153</ele>
        <time>2013-01-05T09:57:14Z</time>
      </trkpt>
      <trkpt lat="42.92315" lon="0.12061">
        <ele>2153</ele>
        <time>2013-01-05T09:57:17Z</time>
      </trkpt>
      <trkpt lat="42.92316" lon="0.12061">
        <ele>2154</ele>
        <time>2013-01-05T09:57:20Z</time>
      </trkpt>
      <trkpt lat="42.92317" lon="0.12061">
        <ele>2155</ele>
        <time>2013-01-05T09:57:23Z</time>
      </trkpt>
      <trkpt lat="42.92319" lon="0.12061">
        <ele>2155</ele>
        <time>2013-01-05T09:57:27Z</time>
      </trkpt>
      <trkpt lat="42.9232" lon="0.12062">
        <ele>2156</ele>
        <time>2013-01-05T09:57:30Z</time>
      </trkpt>
      <trkpt lat="42.92322" lon="0.12062">
        <ele>2156</ele>
        <time>2013-01-05T09:57:33Z</time>
      </trkpt>
      <trkpt lat="42.92323" lon="0.12062">
        <ele>2157</ele>
        <time>2013-01-05T09:57:36Z</time>
      </trkpt>
      <trkpt lat="42.92324" lon="0.12062">
        <ele>2157</ele>
        <time>2013-01-05T09:57:38Z</time>
      </trkpt>
      <trkpt lat="42.92326" lon="0.12063">
        <ele>2157</ele>
        <time>2013-01-05T09:57:40Z</time>
      </trkpt>
      <trkpt lat="42.92327" lon="0.12063">
        <ele>2158</ele>
        <time>2013-01-05T09:57:43Z</time>
      </trkpt>
      <trkpt lat="42.92328" lon="0.12063">
        <ele>2158</ele>
        <time>2013-01-05T09:57:45Z</time>
      </trkpt>
      <trkpt lat="42.92329" lon="0.12063">
        <ele>2158</ele>
        <time>2013-01-05T09:57:48Z</time>
      </trkpt>
      <trkpt lat="42.92331" lon="0.12064">
        <ele>2159</ele>
        <time>2013-01-05T09:57:50Z</time>
      </trkpt>
      <trkpt lat="42.92332" lon="0.12064">
        <ele>2159</ele>
        <time>2013-01-05T09:57:52Z</time>
      </trkpt>
      <trkpt lat="42.92333" lon="0.12063">
        <ele>2159</ele>
        <time>2013-01-05T09:57:55Z</time>
      </trkpt>
      <trkpt lat="42.92335" lon="0.12063">
        <ele>2160</ele>
        <time>2013-01-05T09:57:58Z</time>
      </trkpt>
      <trkpt lat="42.92336" lon="0.12063">
        <ele>2160</ele>
        <time>2013-01-05T09:58:01Z</time>
      </trkpt>
      <trkpt lat="42.92337" lon="0.12062">
        <ele>2160</ele>
        <time>2013-01-05T09:58:04Z</time>
      </trkpt>
      <trkpt lat="42.92339" lon="0.12062">
        <ele>2160</ele>
        <time>2013-01-05T09:58:07Z</time>
      </trkpt>
      <trkpt lat="42.9234" lon="0.12061">
        <ele>2161</ele>
        <time>2013-01-05T09:58:13Z</time>
      </trkpt>
      <trkpt lat="42.92341" lon="0.12061">
        <ele>2161</ele>
        <time>2013-01-05T09:58:15Z</time>
      </trkpt>
      <trkpt lat="42.92342" lon="0.1206">
        <ele>2161</ele>
        <time>2013-01-05T09:58:18Z</time>
      </trkpt>
      <trkpt lat="42.92344" lon="0.12059">
        <ele>2161</ele>
        <time>2013-01-05T09:58:20Z</time>
      </trkpt>
      <trkpt lat="42.92345" lon="0.12059">
        <ele>2162</ele>
        <time>2013-01-05T09:58:22Z</time>
      </trkpt>
      <trkpt lat="42.92346" lon="0.12058">
        <ele>2162</ele>
        <time>2013-01-05T09:58:24Z</time>
      </trkpt>
      <trkpt lat="42.92347" lon="0.12058">
        <ele>2162</ele>
        <time>2013-01-05T09:58:26Z</time>
      </trkpt>
      <trkpt lat="42.92348" lon="0.12056">
        <ele>2163</ele>
        <time>2013-01-05T09:58:29Z</time>
      </trkpt>
      <trkpt lat="42.9235" lon="0.12054">
        <ele>2163</ele>
        <time>2013-01-05T09:58:32Z</time>
      </trkpt>
      <trkpt lat="42.92351" lon="0.12054">
        <ele>2164</ele>
        <time>2013-01-05T09:58:35Z</time>
      </trkpt>
      <trkpt lat="42.92353" lon="0.12052">
        <ele>2164</ele>
        <time>2013-01-05T09:58:38Z</time>
      </trkpt>
      <trkpt lat="42.92353" lon="0.1205">
        <ele>2165</ele>
        <time>2013-01-05T09:58:41Z</time>
      </trkpt>
      <trkpt lat="42.92355" lon="0.12049">
        <ele>2165</ele>
        <time>2013-01-05T09:58:44Z</time>
      </trkpt>
      <trkpt lat="42.92356" lon="0.12049">
        <ele>2166</ele>
        <time>2013-01-05T09:58:48Z</time>
      </trkpt>
      <trkpt lat="42.92357" lon="0.12048">
        <ele>2167</ele>
        <time>2013-01-05T09:58:50Z</time>
      </trkpt>
      <trkpt lat="42.92358" lon="0.12047">
        <ele>2167</ele>
        <time>2013-01-05T09:58:52Z</time>
      </trkpt>
      <trkpt lat="42.9236" lon="0.12047">
        <ele>2167</ele>
        <time>2013-01-05T09:58:55Z</time>
      </trkpt>
      <trkpt lat="42.92361" lon="0.12047">
        <ele>2167</ele>
        <time>2013-01-05T09:58:57Z</time>
      </trkpt>
      <trkpt lat="42.92363" lon="0.12048">
        <ele>2167</ele>
        <time>2013-01-05T09:58:59Z</time>
      </trkpt>
      <trkpt lat="42.92364" lon="0.12048">
        <ele>2167</ele>
        <time>2013-01-05T09:59:01Z</time>
      </trkpt>
      <trkpt lat="42.92365" lon="0.12046">
        <ele>2170</ele>
        <time>2013-01-05T09:59:19Z</time>
      </trkpt>
      <trkpt lat="42.92366" lon="0.12047">
        <ele>2170</ele>
        <time>2013-01-05T09:59:21Z</time>
      </trkpt>
      <trkpt lat="42.92368" lon="0.12047">
        <ele>2171</ele>
        <time>2013-01-05T09:59:23Z</time>
      </trkpt>
      <trkpt lat="42.92369" lon="0.12047">
        <ele>2171</ele>
        <time>2013-01-05T09:59:25Z</time>
      </trkpt>
      <trkpt lat="42.92371" lon="0.12048">
        <ele>2171</ele>
        <time>2013-01-05T09:59:27Z</time>
      </trkpt>
      <trkpt lat="42.92372" lon="0.12048">
        <ele>2172</ele>
        <time>2013-01-05T09:59:30Z</time>
      </trkpt>
      <trkpt lat="42.92374" lon="0.12047">
        <ele>2172</ele>
        <time>2013-01-05T09:59:33Z</time>
      </trkpt>
      <trkpt lat="42.92375" lon="0.12047">
        <ele>2173</ele>
        <time>2013-01-05T09:59:35Z</time>
      </trkpt>
      <trkpt lat="42.92376" lon="0.12046">
        <ele>2173</ele>
        <time>2013-01-05T09:59:37Z</time>
      </trkpt>
      <trkpt lat="42.92377" lon="0.12044">
        <ele>2173</ele>
        <time>2013-01-05T09:59:39Z</time>
      </trkpt>
      <trkpt lat="42.92377" lon="0.12042">
        <ele>2173</ele>
        <time>2013-01-05T09:59:41Z</time>
      </trkpt>
      <trkpt lat="42.92378" lon="0.12039">
        <ele>2173</ele>
        <time>2013-01-05T09:59:43Z</time>
      </trkpt>
      <trkpt lat="42.92378" lon="0.12037">
        <ele>2173</ele>
        <time>2013-01-05T09:59:45Z</time>
      </trkpt>
      <trkpt lat="42.92379" lon="0.12035">
        <ele>2173</ele>
        <time>2013-01-05T09:59:47Z</time>
      </trkpt>
      <trkpt lat="42.92381" lon="0.12034">
        <ele>2173</ele>
        <time>2013-01-05T09:59:49Z</time>
      </trkpt>
      <trkpt lat="42.92383" lon="0.12033">
        <ele>2173</ele>
        <time>2013-01-05T09:59:51Z</time>
      </trkpt>
      <trkpt lat="42.92384" lon="0.12033">
        <ele>2173</ele>
        <time>2013-01-05T09:59:53Z</time>
      </trkpt>
      <trkpt lat="42.92385" lon="0.12033">
        <ele>2173</ele>
        <time>2013-01-05T09:59:55Z</time>
      </trkpt>
      <trkpt lat="42.92387" lon="0.12032">
        <ele>2173</ele>
        <time>2013-01-05T09:59:57Z</time>
      </trkpt>
      <trkpt lat="42.92389" lon="0.12032">
        <ele>2173</ele>
        <time>2013-01-05T09:59:59Z</time>
      </trkpt>
      <trkpt lat="42.9239" lon="0.12032">
        <ele>2173</ele>
        <time>2013-01-05T10:00:01Z</time>
      </trkpt>
      <trkpt lat="42.92391" lon="0.12032">
        <ele>2174</ele>
        <time>2013-01-05T10:00:03Z</time>
      </trkpt>
      <trkpt lat="42.92392" lon="0.12032">
        <ele>2174</ele>
        <time>2013-01-05T10:00:05Z</time>
      </trkpt>
      <trkpt lat="42.92394" lon="0.12031">
        <ele>2174</ele>
        <time>2013-01-05T10:00:08Z</time>
      </trkpt>
      <trkpt lat="42.92395" lon="0.12031">
        <ele>2174</ele>
        <time>2013-01-05T10:00:10Z</time>
      </trkpt>
      <trkpt lat="42.92397" lon="0.1203">
        <ele>2174</ele>
        <time>2013-01-05T10:00:12Z</time>
      </trkpt>
      <trkpt lat="42.92399" lon="0.1203">
        <ele>2175</ele>
        <time>2013-01-05T10:00:14Z</time>
      </trkpt>
      <trkpt lat="42.924" lon="0.1203">
        <ele>2176</ele>
        <time>2013-01-05T10:00:16Z</time>
      </trkpt>
      <trkpt lat="42.92402" lon="0.1203">
        <ele>2178</ele>
        <time>2013-01-05T10:00:30Z</time>
      </trkpt>
      <trkpt lat="42.92401" lon="0.12028">
        <ele>2178</ele>
        <time>2013-01-05T10:00:44Z</time>
      </trkpt>
      <trkpt lat="42.92403" lon="0.12029">
        <ele>2178</ele>
        <time>2013-01-05T10:00:56Z</time>
      </trkpt>
      <trkpt lat="42.92403" lon="0.1203">
        <ele>2178</ele>
        <time>2013-01-05T10:01:36Z</time>
      </trkpt>
      <trkpt lat="42.92402" lon="0.12031">
        <ele>2178</ele>
        <time>2013-01-05T10:02:02Z</time>
      </trkpt>
      <trkpt lat="42.92403" lon="0.1203">
        <ele>2178</ele>
        <time>2013-01-05T10:02:20Z</time>
      </trkpt>
      <trkpt lat="42.92404" lon="0.1203">
        <ele>2178</ele>
        <time>2013-01-05T10:02:22Z</time>
      </trkpt>
      <trkpt lat="42.92403" lon="0.12028">
        <ele>2178</ele>
        <time>2013-01-05T10:02:44Z</time>
      </trkpt>
      <trkpt lat="42.92405" lon="0.12027">
        <ele>2178</ele>
        <time>2013-01-05T10:03:08Z</time>
      </trkpt>
      <trkpt lat="42.92407" lon="0.12027">
        <ele>2178</ele>
        <time>2013-01-05T10:03:10Z</time>
      </trkpt>
      <trkpt lat="42.92408" lon="0.12026">
        <ele>2178</ele>
        <time>2013-01-05T10:03:12Z</time>
      </trkpt>
      <trkpt lat="42.92411" lon="0.12025">
        <ele>2178</ele>
        <time>2013-01-05T10:03:14Z</time>
      </trkpt>
      <trkpt lat="42.92412" lon="0.12025">
        <ele>2178</ele>
        <time>2013-01-05T10:03:16Z</time>
      </trkpt>
      <trkpt lat="42.92414" lon="0.12024">
        <ele>2178</ele>
        <time>2013-01-05T10:03:18Z</time>
      </trkpt>
      <trkpt lat="42.92415" lon="0.12024">
        <ele>2178</ele>
        <time>2013-01-05T10:03:20Z</time>
      </trkpt>
      <trkpt lat="42.92417" lon="0.12023">
        <ele>2178</ele>
        <time>2013-01-05T10:03:22Z</time>
      </trkpt>
      <trkpt lat="42.92418" lon="0.12023">
        <ele>2178</ele>
        <time>2013-01-05T10:03:24Z</time>
      </trkpt>
      <trkpt lat="42.9242" lon="0.12022">
        <ele>2178</ele>
        <time>2013-01-05T10:03:26Z</time>
      </trkpt>
      <trkpt lat="42.92421" lon="0.12022">
        <ele>2178</ele>
        <time>2013-01-05T10:03:28Z</time>
      </trkpt>
      <trkpt lat="42.92422" lon="0.12022">
        <ele>2178</ele>
        <time>2013-01-05T10:03:30Z</time>
      </trkpt>
      <trkpt lat="42.92424" lon="0.12021">
        <ele>2178</ele>
        <time>2013-01-05T10:03:32Z</time>
      </trkpt>
      <trkpt lat="42.92425" lon="0.12021">
        <ele>2179</ele>
        <time>2013-01-05T10:03:34Z</time>
      </trkpt>
      <trkpt lat="42.92427" lon="0.12021">
        <ele>2179</ele>
        <time>2013-01-05T10:03:36Z</time>
      </trkpt>
      <trkpt lat="42.92428" lon="0.1202">
        <ele>2179</ele>
        <time>2013-01-05T10:03:38Z</time>
      </trkpt>
      <trkpt lat="42.9243" lon="0.1202">
        <ele>2179</ele>
        <time>2013-01-05T10:03:40Z</time>
      </trkpt>
      <trkpt lat="42.92431" lon="0.1202">
        <ele>2180</ele>
        <time>2013-01-05T10:03:42Z</time>
      </trkpt>
      <trkpt lat="42.92433" lon="0.12019">
        <ele>2180</ele>
        <time>2013-01-05T10:03:44Z</time>
      </trkpt>
      <trkpt lat="42.92434" lon="0.12019">
        <ele>2180</ele>
        <time>2013-01-05T10:03:46Z</time>
      </trkpt>
      <trkpt lat="42.92436" lon="0.12019">
        <ele>2180</ele>
        <time>2013-01-05T10:03:48Z</time>
      </trkpt>
      <trkpt lat="42.92437" lon="0.12019">
        <ele>2180</ele>
        <time>2013-01-05T10:03:50Z</time>
      </trkpt>
      <trkpt lat="42.92439" lon="0.12019">
        <ele>2181</ele>
        <time>2013-01-05T10:03:52Z</time>
      </trkpt>
      <trkpt lat="42.92441" lon="0.12019">
        <ele>2181</ele>
        <time>2013-01-05T10:03:54Z</time>
      </trkpt>
      <trkpt lat="42.92442" lon="0.12019">
        <ele>2181</ele>
        <time>2013-01-05T10:03:56Z</time>
      </trkpt>
      <trkpt lat="42.92444" lon="0.12018">
        <ele>2181</ele>
        <time>2013-01-05T10:03:58Z</time>
      </trkpt>
      <trkpt lat="42.92445" lon="0.12018">
        <ele>2181</ele>
        <time>2013-01-05T10:04:00Z</time>
      </trkpt>
      <trkpt lat="42.92446" lon="0.12018">
        <ele>2181</ele>
        <time>2013-01-05T10:04:02Z</time>
      </trkpt>
      <trkpt lat="42.92448" lon="0.12018">
        <ele>2182</ele>
        <time>2013-01-05T10:04:04Z</time>
      </trkpt>
      <trkpt lat="42.92449" lon="0.12018">
        <ele>2182</ele>
        <time>2013-01-05T10:04:06Z</time>
      </trkpt>
      <trkpt lat="42.9245" lon="0.12018">
        <ele>2182</ele>
        <time>2013-01-05T10:04:08Z</time>
      </trkpt>
      <trkpt lat="42.92452" lon="0.12019">
        <ele>2182</ele>
        <time>2013-01-05T10:04:10Z</time>
      </trkpt>
      <trkpt lat="42.92453" lon="0.12019">
        <ele>2183</ele>
        <time>2013-01-05T10:04:12Z</time>
      </trkpt>
      <trkpt lat="42.92455" lon="0.12019">
        <ele>2183</ele>
        <time>2013-01-05T10:04:14Z</time>
      </trkpt>
      <trkpt lat="42.92456" lon="0.12019">
        <ele>2183</ele>
        <time>2013-01-05T10:04:16Z</time>
      </trkpt>
      <trkpt lat="42.92458" lon="0.12019">
        <ele>2183</ele>
        <time>2013-01-05T10:04:18Z</time>
      </trkpt>
      <trkpt lat="42.92459" lon="0.12019">
        <ele>2184</ele>
        <time>2013-01-05T10:04:20Z</time>
      </trkpt>
      <trkpt lat="42.92461" lon="0.12019">
        <ele>2184</ele>
        <time>2013-01-05T10:04:22Z</time>
      </trkpt>
      <trkpt lat="42.92462" lon="0.12019">
        <ele>2184</ele>
        <time>2013-01-05T10:04:24Z</time>
      </trkpt>
      <trkpt lat="42.92463" lon="0.12019">
        <ele>2184</ele>
        <time>2013-01-05T10:04:26Z</time>
      </trkpt>
      <trkpt lat="42.92465" lon="0.12019">
        <ele>2184</ele>
        <time>2013-01-05T10:04:28Z</time>
      </trkpt>
      <trkpt lat="42.92466" lon="0.12018">
        <ele>2184</ele>
        <time>2013-01-05T10:04:30Z</time>
      </trkpt>
      <trkpt lat="42.92468" lon="0.12017">
        <ele>2184</ele>
        <time>2013-01-05T10:04:32Z</time>
      </trkpt>
      <trkpt lat="42.92469" lon="0.12016">
        <ele>2185</ele>
        <time>2013-01-05T10:04:34Z</time>
      </trkpt>
      <trkpt lat="42.92471" lon="0.12016">
        <ele>2185</ele>
        <time>2013-01-05T10:04:36Z</time>
      </trkpt>
      <trkpt lat="42.92471" lon="0.12014">
        <ele>2185</ele>
        <time>2013-01-05T10:04:38Z</time>
      </trkpt>
      <trkpt lat="42.92472" lon="0.12012">
        <ele>2185</ele>
        <time>2013-01-05T10:04:40Z</time>
      </trkpt>
      <trkpt lat="42.92472" lon="0.1201">
        <ele>2185</ele>
        <time>2013-01-05T10:04:42Z</time>
      </trkpt>
      <trkpt lat="42.92472" lon="0.12008">
        <ele>2186</ele>
        <time>2013-01-05T10:04:44Z</time>
      </trkpt>
      <trkpt lat="42.92473" lon="0.12007">
        <ele>2186</ele>
        <time>2013-01-05T10:04:46Z</time>
      </trkpt>
      <trkpt lat="42.92474" lon="0.12005">
        <ele>2186</ele>
        <time>2013-01-05T10:04:48Z</time>
      </trkpt>
      <trkpt lat="42.92475" lon="0.12003">
        <ele>2187</ele>
        <time>2013-01-05T10:04:51Z</time>
      </trkpt>
      <trkpt lat="42.92476" lon="0.12001">
        <ele>2187</ele>
        <time>2013-01-05T10:04:53Z</time>
      </trkpt>
      <trkpt lat="42.92477" lon="0.12">
        <ele>2187</ele>
        <time>2013-01-05T10:04:56Z</time>
      </trkpt>
      <trkpt lat="42.92478" lon="0.11998">
        <ele>2188</ele>
        <time>2013-01-05T10:05:14Z</time>
      </trkpt>
      <trkpt lat="42.92479" lon="0.11997">
        <ele>2188</ele>
        <time>2013-01-05T10:05:16Z</time>
      </trkpt>
      <trkpt lat="42.92481" lon="0.11995">
        <ele>2188</ele>
        <time>2013-01-05T10:05:18Z</time>
      </trkpt>
      <trkpt lat="42.92482" lon="0.11994">
        <ele>2188</ele>
        <time>2013-01-05T10:05:20Z</time>
      </trkpt>
      <trkpt lat="42.92483" lon="0.11992">
        <ele>2188</ele>
        <time>2013-01-05T10:05:22Z</time>
      </trkpt>
      <trkpt lat="42.92484" lon="0.1199">
        <ele>2188</ele>
        <time>2013-01-05T10:05:24Z</time>
      </trkpt>
      <trkpt lat="42.92486" lon="0.11988">
        <ele>2188</ele>
        <time>2013-01-05T10:05:27Z</time>
      </trkpt>
      <trkpt lat="42.92487" lon="0.11988">
        <ele>2189</ele>
        <time>2013-01-05T10:05:29Z</time>
      </trkpt>
      <trkpt lat="42.92488" lon="0.11988">
        <ele>2189</ele>
        <time>2013-01-05T10:05:31Z</time>
      </trkpt>
      <trkpt lat="42.9249" lon="0.11988">
        <ele>2189</ele>
        <time>2013-01-05T10:05:33Z</time>
      </trkpt>
      <trkpt lat="42.92491" lon="0.11988">
        <ele>2190</ele>
        <time>2013-01-05T10:05:35Z</time>
      </trkpt>
      <trkpt lat="42.92493" lon="0.11988">
        <ele>2190</ele>
        <time>2013-01-05T10:05:37Z</time>
      </trkpt>
      <trkpt lat="42.92494" lon="0.11987">
        <ele>2191</ele>
        <time>2013-01-05T10:05:39Z</time>
      </trkpt>
      <trkpt lat="42.92495" lon="0.11988">
        <ele>2191</ele>
        <time>2013-01-05T10:05:41Z</time>
      </trkpt>
      <trkpt lat="42.92497" lon="0.11988">
        <ele>2192</ele>
        <time>2013-01-05T10:05:43Z</time>
      </trkpt>
      <trkpt lat="42.92498" lon="0.11988">
        <ele>2192</ele>
        <time>2013-01-05T10:05:45Z</time>
      </trkpt>
      <trkpt lat="42.92499" lon="0.11988">
        <ele>2192</ele>
        <time>2013-01-05T10:05:47Z</time>
      </trkpt>
      <trkpt lat="42.92501" lon="0.11989">
        <ele>2192</ele>
        <time>2013-01-05T10:05:49Z</time>
      </trkpt>
      <trkpt lat="42.92502" lon="0.11988">
        <ele>2193</ele>
        <time>2013-01-05T10:05:51Z</time>
      </trkpt>
      <trkpt lat="42.92503" lon="0.11986">
        <ele>2193</ele>
        <time>2013-01-05T10:05:53Z</time>
      </trkpt>
      <trkpt lat="42.92502" lon="0.11984">
        <ele>2194</ele>
        <time>2013-01-05T10:05:55Z</time>
      </trkpt>
      <trkpt lat="42.92502" lon="0.11982">
        <ele>2194</ele>
        <time>2013-01-05T10:05:57Z</time>
      </trkpt>
      <trkpt lat="42.92502" lon="0.1198">
        <ele>2194</ele>
        <time>2013-01-05T10:05:59Z</time>
      </trkpt>
      <trkpt lat="42.92503" lon="0.11978">
        <ele>2194</ele>
        <time>2013-01-05T10:06:01Z</time>
      </trkpt>
      <trkpt lat="42.92503" lon="0.11976">
        <ele>2195</ele>
        <time>2013-01-05T10:06:03Z</time>
      </trkpt>
      <trkpt lat="42.92503" lon="0.11974">
        <ele>2195</ele>
        <time>2013-01-05T10:06:05Z</time>
      </trkpt>
      <trkpt lat="42.92503" lon="0.11972">
        <ele>2195</ele>
        <time>2013-01-05T10:06:07Z</time>
      </trkpt>
      <trkpt lat="42.92504" lon="0.1197">
        <ele>2196</ele>
        <time>2013-01-05T10:06:09Z</time>
      </trkpt>
      <trkpt lat="42.92504" lon="0.11968">
        <ele>2196</ele>
        <time>2013-01-05T10:06:11Z</time>
      </trkpt>
      <trkpt lat="42.92505" lon="0.11966">
        <ele>2197</ele>
        <time>2013-01-05T10:06:13Z</time>
      </trkpt>
      <trkpt lat="42.92505" lon="0.11964">
        <ele>2197</ele>
        <time>2013-01-05T10:06:15Z</time>
      </trkpt>
      <trkpt lat="42.92506" lon="0.11962">
        <ele>2197</ele>
        <time>2013-01-05T10:06:17Z</time>
      </trkpt>
      <trkpt lat="42.92507" lon="0.11962">
        <ele>2198</ele>
        <time>2013-01-05T10:06:21Z</time>
      </trkpt>
      <trkpt lat="42.92508" lon="0.11963">
        <ele>2198</ele>
        <time>2013-01-05T10:06:24Z</time>
      </trkpt>
      <trkpt lat="42.9251" lon="0.11963">
        <ele>2198</ele>
        <time>2013-01-05T10:06:51Z</time>
      </trkpt>
      <trkpt lat="42.92511" lon="0.11964">
        <ele>2198</ele>
        <time>2013-01-05T10:06:53Z</time>
      </trkpt>
      <trkpt lat="42.92513" lon="0.11965">
        <ele>2198</ele>
        <time>2013-01-05T10:06:55Z</time>
      </trkpt>
      <trkpt lat="42.92514" lon="0.11966">
        <ele>2198</ele>
        <time>2013-01-05T10:06:57Z</time>
      </trkpt>
      <trkpt lat="42.92516" lon="0.11967">
        <ele>2198</ele>
        <time>2013-01-05T10:06:59Z</time>
      </trkpt>
      <trkpt lat="42.92517" lon="0.11968">
        <ele>2198</ele>
        <time>2013-01-05T10:07:01Z</time>
      </trkpt>
      <trkpt lat="42.92519" lon="0.11969">
        <ele>2198</ele>
        <time>2013-01-05T10:07:03Z</time>
      </trkpt>
      <trkpt lat="42.9252" lon="0.1197">
        <ele>2198</ele>
        <time>2013-01-05T10:07:05Z</time>
      </trkpt>
      <trkpt lat="42.92521" lon="0.1197">
        <ele>2199</ele>
        <time>2013-01-05T10:07:07Z</time>
      </trkpt>
      <trkpt lat="42.92523" lon="0.11971">
        <ele>2199</ele>
        <time>2013-01-05T10:07:09Z</time>
      </trkpt>
      <trkpt lat="42.92524" lon="0.11971">
        <ele>2199</ele>
        <time>2013-01-05T10:07:11Z</time>
      </trkpt>
      <trkpt lat="42.92526" lon="0.11971">
        <ele>2200</ele>
        <time>2013-01-05T10:07:13Z</time>
      </trkpt>
      <trkpt lat="42.92527" lon="0.11971">
        <ele>2200</ele>
        <time>2013-01-05T10:07:15Z</time>
      </trkpt>
      <trkpt lat="42.92529" lon="0.11971">
        <ele>2200</ele>
        <time>2013-01-05T10:07:17Z</time>
      </trkpt>
      <trkpt lat="42.9253" lon="0.11971">
        <ele>2200</ele>
        <time>2013-01-05T10:07:19Z</time>
      </trkpt>
      <trkpt lat="42.92532" lon="0.11971">
        <ele>2201</ele>
        <time>2013-01-05T10:07:21Z</time>
      </trkpt>
      <trkpt lat="42.92533" lon="0.11971">
        <ele>2201</ele>
        <time>2013-01-05T10:07:23Z</time>
      </trkpt>
      <trkpt lat="42.92534" lon="0.11971">
        <ele>2201</ele>
        <time>2013-01-05T10:07:25Z</time>
      </trkpt>
      <trkpt lat="42.92535" lon="0.11971">
        <ele>2202</ele>
        <time>2013-01-05T10:07:27Z</time>
      </trkpt>
      <trkpt lat="42.92537" lon="0.1197">
        <ele>2202</ele>
        <time>2013-01-05T10:07:29Z</time>
      </trkpt>
      <trkpt lat="42.92538" lon="0.1197">
        <ele>2203</ele>
        <time>2013-01-05T10:07:31Z</time>
      </trkpt>
      <trkpt lat="42.92539" lon="0.1197">
        <ele>2203</ele>
        <time>2013-01-05T10:07:33Z</time>
      </trkpt>
      <trkpt lat="42.9254" lon="0.11969">
        <ele>2204</ele>
        <time>2013-01-05T10:07:35Z</time>
      </trkpt>
      <trkpt lat="42.92542" lon="0.11969">
        <ele>2204</ele>
        <time>2013-01-05T10:07:37Z</time>
      </trkpt>
      <trkpt lat="42.92543" lon="0.11968">
        <ele>2205</ele>
        <time>2013-01-05T10:07:39Z</time>
      </trkpt>
      <trkpt lat="42.92544" lon="0.11968">
        <ele>2205</ele>
        <time>2013-01-05T10:07:41Z</time>
      </trkpt>
      <trkpt lat="42.92545" lon="0.11968">
        <ele>2205</ele>
        <time>2013-01-05T10:07:43Z</time>
      </trkpt>
      <trkpt lat="42.92547" lon="0.11968">
        <ele>2205</ele>
        <time>2013-01-05T10:07:45Z</time>
      </trkpt>
      <trkpt lat="42.92548" lon="0.11968">
        <ele>2206</ele>
        <time>2013-01-05T10:07:47Z</time>
      </trkpt>
      <trkpt lat="42.92549" lon="0.11967">
        <ele>2206</ele>
        <time>2013-01-05T10:07:49Z</time>
      </trkpt>
      <trkpt lat="42.92551" lon="0.11967">
        <ele>2206</ele>
        <time>2013-01-05T10:07:51Z</time>
      </trkpt>
      <trkpt lat="42.92552" lon="0.11966">
        <ele>2207</ele>
        <time>2013-01-05T10:08:29Z</time>
      </trkpt>
      <trkpt lat="42.92553" lon="0.11966">
        <ele>2207</ele>
        <time>2013-01-05T10:08:31Z</time>
      </trkpt>
      <trkpt lat="42.92555" lon="0.11966">
        <ele>2207</ele>
        <time>2013-01-05T10:08:33Z</time>
      </trkpt>
      <trkpt lat="42.92556" lon="0.11966">
        <ele>2207</ele>
        <time>2013-01-05T10:08:35Z</time>
      </trkpt>
      <trkpt lat="42.92558" lon="0.11965">
        <ele>2207</ele>
        <time>2013-01-05T10:08:37Z</time>
      </trkpt>
      <trkpt lat="42.92559" lon="0.11965">
        <ele>2207</ele>
        <time>2013-01-05T10:08:39Z</time>
      </trkpt>
      <trkpt lat="42.9256" lon="0.11965">
        <ele>2207</ele>
        <time>2013-01-05T10:08:41Z</time>
      </trkpt>
      <trkpt lat="42.92562" lon="0.11965">
        <ele>2208</ele>
        <time>2013-01-05T10:08:43Z</time>
      </trkpt>
      <trkpt lat="42.92563" lon="0.11964">
        <ele>2208</ele>
        <time>2013-01-05T10:08:45Z</time>
      </trkpt>
      <trkpt lat="42.92564" lon="0.11964">
        <ele>2209</ele>
        <time>2013-01-05T10:08:47Z</time>
      </trkpt>
      <trkpt lat="42.92566" lon="0.11964">
        <ele>2209</ele>
        <time>2013-01-05T10:08:49Z</time>
      </trkpt>
      <trkpt lat="42.92567" lon="0.11964">
        <ele>2209</ele>
        <time>2013-01-05T10:08:51Z</time>
      </trkpt>
      <trkpt lat="42.92568" lon="0.11964">
        <ele>2210</ele>
        <time>2013-01-05T10:08:53Z</time>
      </trkpt>
      <trkpt lat="42.9257" lon="0.11963">
        <ele>2210</ele>
        <time>2013-01-05T10:08:55Z</time>
      </trkpt>
      <trkpt lat="42.92571" lon="0.11963">
        <ele>2210</ele>
        <time>2013-01-05T10:08:57Z</time>
      </trkpt>
      <trkpt lat="42.92572" lon="0.11962">
        <ele>2211</ele>
        <time>2013-01-05T10:08:59Z</time>
      </trkpt>
      <trkpt lat="42.92574" lon="0.11962">
        <ele>2211</ele>
        <time>2013-01-05T10:09:01Z</time>
      </trkpt>
      <trkpt lat="42.92575" lon="0.11962">
        <ele>2211</ele>
        <time>2013-01-05T10:09:03Z</time>
      </trkpt>
      <trkpt lat="42.92577" lon="0.11962">
        <ele>2211</ele>
        <time>2013-01-05T10:09:05Z</time>
      </trkpt>
      <trkpt lat="42.92578" lon="0.11962">
        <ele>2212</ele>
        <time>2013-01-05T10:09:07Z</time>
      </trkpt>
      <trkpt lat="42.9258" lon="0.11962">
        <ele>2212</ele>
        <time>2013-01-05T10:09:09Z</time>
      </trkpt>
      <trkpt lat="42.92581" lon="0.11962">
        <ele>2213</ele>
        <time>2013-01-05T10:09:11Z</time>
      </trkpt>
      <trkpt lat="42.92583" lon="0.11962">
        <ele>2213</ele>
        <time>2013-01-05T10:09:13Z</time>
      </trkpt>
      <trkpt lat="42.92585" lon="0.11962">
        <ele>2213</ele>
        <time>2013-01-05T10:09:15Z</time>
      </trkpt>
      <trkpt lat="42.92586" lon="0.11962">
        <ele>2213</ele>
        <time>2013-01-05T10:09:17Z</time>
      </trkpt>
      <trkpt lat="42.92587" lon="0.11962">
        <ele>2214</ele>
        <time>2013-01-05T10:09:19Z</time>
      </trkpt>
      <trkpt lat="42.92589" lon="0.11962">
        <ele>2214</ele>
        <time>2013-01-05T10:09:21Z</time>
      </trkpt>
      <trkpt lat="42.9259" lon="0.11961">
        <ele>2215</ele>
        <time>2013-01-05T10:09:23Z</time>
      </trkpt>
      <trkpt lat="42.92591" lon="0.11961">
        <ele>2215</ele>
        <time>2013-01-05T10:09:25Z</time>
      </trkpt>
      <trkpt lat="42.92593" lon="0.11961">
        <ele>2215</ele>
        <time>2013-01-05T10:09:27Z</time>
      </trkpt>
      <trkpt lat="42.92595" lon="0.11961">
        <ele>2215</ele>
        <time>2013-01-05T10:09:29Z</time>
      </trkpt>
      <trkpt lat="42.92596" lon="0.1196">
        <ele>2216</ele>
        <time>2013-01-05T10:09:31Z</time>
      </trkpt>
      <trkpt lat="42.92598" lon="0.1196">
        <ele>2217</ele>
        <time>2013-01-05T10:10:05Z</time>
      </trkpt>
      <trkpt lat="42.92599" lon="0.11959">
        <ele>2217</ele>
        <time>2013-01-05T10:10:07Z</time>
      </trkpt>
      <trkpt lat="42.926" lon="0.11959">
        <ele>2217</ele>
        <time>2013-01-05T10:10:09Z</time>
      </trkpt>
      <trkpt lat="42.92602" lon="0.1196">
        <ele>2217</ele>
        <time>2013-01-05T10:10:11Z</time>
      </trkpt>
      <trkpt lat="42.92604" lon="0.1196">
        <ele>2218</ele>
        <time>2013-01-05T10:10:13Z</time>
      </trkpt>
      <trkpt lat="42.92605" lon="0.11959">
        <ele>2218</ele>
        <time>2013-01-05T10:10:15Z</time>
      </trkpt>
      <trkpt lat="42.92606" lon="0.1196">
        <ele>2218</ele>
        <time>2013-01-05T10:10:17Z</time>
      </trkpt>
      <trkpt lat="42.92607" lon="0.1196">
        <ele>2219</ele>
        <time>2013-01-05T10:10:19Z</time>
      </trkpt>
      <trkpt lat="42.92609" lon="0.1196">
        <ele>2219</ele>
        <time>2013-01-05T10:10:21Z</time>
      </trkpt>
      <trkpt lat="42.9261" lon="0.1196">
        <ele>2220</ele>
        <time>2013-01-05T10:10:23Z</time>
      </trkpt>
      <trkpt lat="42.92611" lon="0.1196">
        <ele>2220</ele>
        <time>2013-01-05T10:10:25Z</time>
      </trkpt>
      <trkpt lat="42.92613" lon="0.1196">
        <ele>2220</ele>
        <time>2013-01-05T10:10:27Z</time>
      </trkpt>
      <trkpt lat="42.92614" lon="0.1196">
        <ele>2221</ele>
        <time>2013-01-05T10:10:29Z</time>
      </trkpt>
      <trkpt lat="42.92616" lon="0.11961">
        <ele>2221</ele>
        <time>2013-01-05T10:10:31Z</time>
      </trkpt>
      <trkpt lat="42.92617" lon="0.11961">
        <ele>2221</ele>
        <time>2013-01-05T10:10:33Z</time>
      </trkpt>
      <trkpt lat="42.92619" lon="0.11962">
        <ele>2222</ele>
        <time>2013-01-05T10:10:35Z</time>
      </trkpt>
      <trkpt lat="42.9262" lon="0.11962">
        <ele>2222</ele>
        <time>2013-01-05T10:10:37Z</time>
      </trkpt>
      <trkpt lat="42.92622" lon="0.11962">
        <ele>2222</ele>
        <time>2013-01-05T10:10:39Z</time>
      </trkpt>
      <trkpt lat="42.92624" lon="0.11962">
        <ele>2223</ele>
        <time>2013-01-05T10:10:41Z</time>
      </trkpt>
      <trkpt lat="42.92625" lon="0.11962">
        <ele>2223</ele>
        <time>2013-01-05T10:10:43Z</time>
      </trkpt>
      <trkpt lat="42.92627" lon="0.11962">
        <ele>2224</ele>
        <time>2013-01-05T10:10:45Z</time>
      </trkpt>
      <trkpt lat="42.92628" lon="0.11963">
        <ele>2224</ele>
        <time>2013-01-05T10:10:47Z</time>
      </trkpt>
      <trkpt lat="42.9263" lon="0.11963">
        <ele>2225</ele>
        <time>2013-01-05T10:10:49Z</time>
      </trkpt>
      <trkpt lat="42.92631" lon="0.11963">
        <ele>2225</ele>
        <time>2013-01-05T10:10:51Z</time>
      </trkpt>
      <trkpt lat="42.92633" lon="0.11964">
        <ele>2225</ele>
        <time>2013-01-05T10:10:53Z</time>
      </trkpt>
      <trkpt lat="42.92635" lon="0.11964">
        <ele>2226</ele>
        <time>2013-01-05T10:10:55Z</time>
      </trkpt>
      <trkpt lat="42.92636" lon="0.11965">
        <ele>2226</ele>
        <time>2013-01-05T10:10:57Z</time>
      </trkpt>
      <trkpt lat="42.92638" lon="0.11966">
        <ele>2227</ele>
        <time>2013-01-05T10:11:12Z</time>
      </trkpt>
      <trkpt lat="42.92639" lon="0.11966">
        <ele>2227</ele>
        <time>2013-01-05T10:11:14Z</time>
      </trkpt>
      <trkpt lat="42.92641" lon="0.11967">
        <ele>2227</ele>
        <time>2013-01-05T10:11:16Z</time>
      </trkpt>
      <trkpt lat="42.92642" lon="0.11967">
        <ele>2227</ele>
        <time>2013-01-05T10:11:18Z</time>
      </trkpt>
      <trkpt lat="42.92644" lon="0.11968">
        <ele>2227</ele>
        <time>2013-01-05T10:11:20Z</time>
      </trkpt>
      <trkpt lat="42.92646" lon="0.11968">
        <ele>2227</ele>
        <time>2013-01-05T10:11:22Z</time>
      </trkpt>
      <trkpt lat="42.92647" lon="0.11968">
        <ele>2227</ele>
        <time>2013-01-05T10:11:24Z</time>
      </trkpt>
      <trkpt lat="42.92649" lon="0.11968">
        <ele>2227</ele>
        <time>2013-01-05T10:11:26Z</time>
      </trkpt>
      <trkpt lat="42.92651" lon="0.11968">
        <ele>2227</ele>
        <time>2013-01-05T10:11:28Z</time>
      </trkpt>
      <trkpt lat="42.92653" lon="0.11968">
        <ele>2227</ele>
        <time>2013-01-05T10:11:30Z</time>
      </trkpt>
      <trkpt lat="42.92654" lon="0.11967">
        <ele>2227</ele>
        <time>2013-01-05T10:11:32Z</time>
      </trkpt>
      <trkpt lat="42.92656" lon="0.11966">
        <ele>2227</ele>
        <time>2013-01-05T10:11:34Z</time>
      </trkpt>
      <trkpt lat="42.92658" lon="0.11966">
        <ele>2227</ele>
        <time>2013-01-05T10:11:36Z</time>
      </trkpt>
      <trkpt lat="42.92659" lon="0.11965">
        <ele>2227</ele>
        <time>2013-01-05T10:11:38Z</time>
      </trkpt>
      <trkpt lat="42.92661" lon="0.11964">
        <ele>2227</ele>
        <time>2013-01-05T10:11:40Z</time>
      </trkpt>
      <trkpt lat="42.92662" lon="0.11964">
        <ele>2227</ele>
        <time>2013-01-05T10:11:42Z</time>
      </trkpt>
      <trkpt lat="42.92664" lon="0.11963">
        <ele>2227</ele>
        <time>2013-01-05T10:11:44Z</time>
      </trkpt>
      <trkpt lat="42.92666" lon="0.11962">
        <ele>2227</ele>
        <time>2013-01-05T10:11:46Z</time>
      </trkpt>
      <trkpt lat="42.92667" lon="0.11962">
        <ele>2227</ele>
        <time>2013-01-05T10:11:48Z</time>
      </trkpt>
      <trkpt lat="42.92669" lon="0.11961">
        <ele>2227</ele>
        <time>2013-01-05T10:11:50Z</time>
      </trkpt>
      <trkpt lat="42.9267" lon="0.1196">
        <ele>2228</ele>
        <time>2013-01-05T10:11:52Z</time>
      </trkpt>
      <trkpt lat="42.92671" lon="0.11959">
        <ele>2228</ele>
        <time>2013-01-05T10:11:54Z</time>
      </trkpt>
      <trkpt lat="42.92673" lon="0.11958">
        <ele>2228</ele>
        <time>2013-01-05T10:11:56Z</time>
      </trkpt>
      <trkpt lat="42.92674" lon="0.11958">
        <ele>2229</ele>
        <time>2013-01-05T10:11:58Z</time>
      </trkpt>
      <trkpt lat="42.92675" lon="0.11956">
        <ele>2229</ele>
        <time>2013-01-05T10:12:00Z</time>
      </trkpt>
      <trkpt lat="42.92677" lon="0.11956">
        <ele>2229</ele>
        <time>2013-01-05T10:12:02Z</time>
      </trkpt>
      <trkpt lat="42.92678" lon="0.11955">
        <ele>2229</ele>
        <time>2013-01-05T10:12:04Z</time>
      </trkpt>
      <trkpt lat="42.92679" lon="0.11954">
        <ele>2229</ele>
        <time>2013-01-05T10:12:06Z</time>
      </trkpt>
      <trkpt lat="42.92681" lon="0.11953">
        <ele>2229</ele>
        <time>2013-01-05T10:12:08Z</time>
      </trkpt>
      <trkpt lat="42.92682" lon="0.11953">
        <ele>2229</ele>
        <time>2013-01-05T10:12:10Z</time>
      </trkpt>
      <trkpt lat="42.92683" lon="0.11952">
        <ele>2230</ele>
        <time>2013-01-05T10:12:12Z</time>
      </trkpt>
      <trkpt lat="42.92685" lon="0.11951">
        <ele>2230</ele>
        <time>2013-01-05T10:12:14Z</time>
      </trkpt>
      <trkpt lat="42.92686" lon="0.1195">
        <ele>2230</ele>
        <time>2013-01-05T10:12:16Z</time>
      </trkpt>
      <trkpt lat="42.92687" lon="0.11949">
        <ele>2230</ele>
        <time>2013-01-05T10:12:18Z</time>
      </trkpt>
      <trkpt lat="42.92689" lon="0.11948">
        <ele>2230</ele>
        <time>2013-01-05T10:12:20Z</time>
      </trkpt>
      <trkpt lat="42.9269" lon="0.11947">
        <ele>2230</ele>
        <time>2013-01-05T10:12:23Z</time>
      </trkpt>
      <trkpt lat="42.92691" lon="0.11946">
        <ele>2230</ele>
        <time>2013-01-05T10:12:25Z</time>
      </trkpt>
      <trkpt lat="42.92692" lon="0.11945">
        <ele>2230</ele>
        <time>2013-01-05T10:12:27Z</time>
      </trkpt>
      <trkpt lat="42.92693" lon="0.11945">
        <ele>2231</ele>
        <time>2013-01-05T10:12:29Z</time>
      </trkpt>
      <trkpt lat="42.92695" lon="0.11944">
        <ele>2231</ele>
        <time>2013-01-05T10:12:31Z</time>
      </trkpt>
      <trkpt lat="42.92696" lon="0.11943">
        <ele>2231</ele>
        <time>2013-01-05T10:12:33Z</time>
      </trkpt>
      <trkpt lat="42.92697" lon="0.11942">
        <ele>2231</ele>
        <time>2013-01-05T10:12:35Z</time>
      </trkpt>
      <trkpt lat="42.92699" lon="0.11942">
        <ele>2232</ele>
        <time>2013-01-05T10:12:37Z</time>
      </trkpt>
      <trkpt lat="42.927" lon="0.11941">
        <ele>2232</ele>
        <time>2013-01-05T10:12:40Z</time>
      </trkpt>
      <trkpt lat="42.92701" lon="0.1194">
        <ele>2232</ele>
        <time>2013-01-05T10:12:42Z</time>
      </trkpt>
      <trkpt lat="42.92702" lon="0.11939">
        <ele>2233</ele>
        <time>2013-01-05T10:12:44Z</time>
      </trkpt>
      <trkpt lat="42.92704" lon="0.11938">
        <ele>2233</ele>
        <time>2013-01-05T10:12:46Z</time>
      </trkpt>
      <trkpt lat="42.92705" lon="0.11938">
        <ele>2233</ele>
        <time>2013-01-05T10:12:48Z</time>
      </trkpt>
      <trkpt lat="42.92706" lon="0.11937">
        <ele>2233</ele>
        <time>2013-01-05T10:12:50Z</time>
      </trkpt>
      <trkpt lat="42.92708" lon="0.11936">
        <ele>2234</ele>
        <time>2013-01-05T10:12:53Z</time>
      </trkpt>
      <trkpt lat="42.92709" lon="0.11935">
        <ele>2234</ele>
        <time>2013-01-05T10:12:55Z</time>
      </trkpt>
      <trkpt lat="42.92711" lon="0.11934">
        <ele>2235</ele>
        <time>2013-01-05T10:12:58Z</time>
      </trkpt>
      <trkpt lat="42.92712" lon="0.11933">
        <ele>2235</ele>
        <time>2013-01-05T10:13:00Z</time>
      </trkpt>
      <trkpt lat="42.92713" lon="0.11932">
        <ele>2235</ele>
        <time>2013-01-05T10:13:02Z</time>
      </trkpt>
      <trkpt lat="42.92714" lon="0.11931">
        <ele>2236</ele>
        <time>2013-01-05T10:13:04Z</time>
      </trkpt>
      <trkpt lat="42.92714" lon="0.1193">
        <ele>2236</ele>
        <time>2013-01-05T10:13:10Z</time>
      </trkpt>
      <trkpt lat="42.92714" lon="0.11928">
        <ele>2236</ele>
        <time>2013-01-05T10:13:35Z</time>
      </trkpt>
      <trkpt lat="42.92716" lon="0.11928">
        <ele>2236</ele>
        <time>2013-01-05T10:13:37Z</time>
      </trkpt>
      <trkpt lat="42.92717" lon="0.11928">
        <ele>2236</ele>
        <time>2013-01-05T10:13:39Z</time>
      </trkpt>
      <trkpt lat="42.92719" lon="0.11928">
        <ele>2236</ele>
        <time>2013-01-05T10:13:41Z</time>
      </trkpt>
      <trkpt lat="42.9272" lon="0.11928">
        <ele>2237</ele>
        <time>2013-01-05T10:13:43Z</time>
      </trkpt>
      <trkpt lat="42.92722" lon="0.11928">
        <ele>2237</ele>
        <time>2013-01-05T10:13:45Z</time>
      </trkpt>
      <trkpt lat="42.92724" lon="0.11929">
        <ele>2237</ele>
        <time>2013-01-05T10:13:47Z</time>
      </trkpt>
      <trkpt lat="42.92725" lon="0.1193">
        <ele>2237</ele>
        <time>2013-01-05T10:13:49Z</time>
      </trkpt>
      <trkpt lat="42.92727" lon="0.11931">
        <ele>2237</ele>
        <time>2013-01-05T10:13:51Z</time>
      </trkpt>
      <trkpt lat="42.92729" lon="0.11932">
        <ele>2237</ele>
        <time>2013-01-05T10:13:53Z</time>
      </trkpt>
      <trkpt lat="42.92731" lon="0.11933">
        <ele>2237</ele>
        <time>2013-01-05T10:13:55Z</time>
      </trkpt>
      <trkpt lat="42.92733" lon="0.11934">
        <ele>2237</ele>
        <time>2013-01-05T10:13:57Z</time>
      </trkpt>
      <trkpt lat="42.92735" lon="0.11934">
        <ele>2237</ele>
        <time>2013-01-05T10:13:59Z</time>
      </trkpt>
      <trkpt lat="42.92736" lon="0.11934">
        <ele>2237</ele>
        <time>2013-01-05T10:14:01Z</time>
      </trkpt>
      <trkpt lat="42.92738" lon="0.11934">
        <ele>2237</ele>
        <time>2013-01-05T10:14:03Z</time>
      </trkpt>
      <trkpt lat="42.9274" lon="0.11933">
        <ele>2237</ele>
        <time>2013-01-05T10:14:05Z</time>
      </trkpt>
      <trkpt lat="42.92741" lon="0.11932">
        <ele>2237</ele>
        <time>2013-01-05T10:14:07Z</time>
      </trkpt>
      <trkpt lat="42.92743" lon="0.11932">
        <ele>2238</ele>
        <time>2013-01-05T10:14:09Z</time>
      </trkpt>
      <trkpt lat="42.92744" lon="0.11931">
        <ele>2238</ele>
        <time>2013-01-05T10:14:11Z</time>
      </trkpt>
      <trkpt lat="42.92746" lon="0.11931">
        <ele>2239</ele>
        <time>2013-01-05T10:14:13Z</time>
      </trkpt>
      <trkpt lat="42.92747" lon="0.1193">
        <ele>2239</ele>
        <time>2013-01-05T10:14:15Z</time>
      </trkpt>
      <trkpt lat="42.92748" lon="0.1193">
        <ele>2239</ele>
        <time>2013-01-05T10:14:17Z</time>
      </trkpt>
      <trkpt lat="42.92749" lon="0.1193">
        <ele>2239</ele>
        <time>2013-01-05T10:14:19Z</time>
      </trkpt>
      <trkpt lat="42.92751" lon="0.11929">
        <ele>2240</ele>
        <time>2013-01-05T10:14:21Z</time>
      </trkpt>
      <trkpt lat="42.92752" lon="0.11929">
        <ele>2240</ele>
        <time>2013-01-05T10:14:23Z</time>
      </trkpt>
      <trkpt lat="42.92753" lon="0.11928">
        <ele>2240</ele>
        <time>2013-01-05T10:14:25Z</time>
      </trkpt>
      <trkpt lat="42.92755" lon="0.11928">
        <ele>2241</ele>
        <time>2013-01-05T10:14:27Z</time>
      </trkpt>
      <trkpt lat="42.92757" lon="0.11929">
        <ele>2241</ele>
        <time>2013-01-05T10:14:31Z</time>
      </trkpt>
      <trkpt lat="42.92758" lon="0.11928">
        <ele>2241</ele>
        <time>2013-01-05T10:14:33Z</time>
      </trkpt>
      <trkpt lat="42.92759" lon="0.11928">
        <ele>2242</ele>
        <time>2013-01-05T10:14:35Z</time>
      </trkpt>
      <trkpt lat="42.92761" lon="0.11927">
        <ele>2242</ele>
        <time>2013-01-05T10:14:37Z</time>
      </trkpt>
      <trkpt lat="42.92762" lon="0.11927">
        <ele>2242</ele>
        <time>2013-01-05T10:14:39Z</time>
      </trkpt>
      <trkpt lat="42.92764" lon="0.11927">
        <ele>2242</ele>
        <time>2013-01-05T10:14:41Z</time>
      </trkpt>
      <trkpt lat="42.92765" lon="0.11926">
        <ele>2243</ele>
        <time>2013-01-05T10:14:43Z</time>
      </trkpt>
      <trkpt lat="42.92766" lon="0.11926">
        <ele>2243</ele>
        <time>2013-01-05T10:14:45Z</time>
      </trkpt>
      <trkpt lat="42.92768" lon="0.11925">
        <ele>2243</ele>
        <time>2013-01-05T10:14:47Z</time>
      </trkpt>
      <trkpt lat="42.92769" lon="0.11924">
        <ele>2244</ele>
        <time>2013-01-05T10:14:50Z</time>
      </trkpt>
      <trkpt lat="42.9277" lon="0.11924">
        <ele>2244</ele>
        <time>2013-01-05T10:14:52Z</time>
      </trkpt>
      <trkpt lat="42.92772" lon="0.11923">
        <ele>2244</ele>
        <time>2013-01-05T10:14:54Z</time>
      </trkpt>
      <trkpt lat="42.92773" lon="0.11923">
        <ele>2244</ele>
        <time>2013-01-05T10:14:56Z</time>
      </trkpt>
      <trkpt lat="42.92774" lon="0.11923">
        <ele>2245</ele>
        <time>2013-01-05T10:14:58Z</time>
      </trkpt>
      <trkpt lat="42.92775" lon="0.11923">
        <ele>2245</ele>
        <time>2013-01-05T10:15:00Z</time>
      </trkpt>
      <trkpt lat="42.92777" lon="0.11923">
        <ele>2245</ele>
        <time>2013-01-05T10:15:02Z</time>
      </trkpt>
      <trkpt lat="42.92778" lon="0.11923">
        <ele>2246</ele>
        <time>2013-01-05T10:15:04Z</time>
      </trkpt>
      <trkpt lat="42.92779" lon="0.11923">
        <ele>2246</ele>
        <time>2013-01-05T10:15:06Z</time>
      </trkpt>
      <trkpt lat="42.9278" lon="0.11922">
        <ele>2247</ele>
        <time>2013-01-05T10:15:19Z</time>
      </trkpt>
      <trkpt lat="42.92781" lon="0.11922">
        <ele>2247</ele>
        <time>2013-01-05T10:15:21Z</time>
      </trkpt>
      <trkpt lat="42.92783" lon="0.11921">
        <ele>2247</ele>
        <time>2013-01-05T10:15:23Z</time>
      </trkpt>
      <trkpt lat="42.92785" lon="0.1192">
        <ele>2247</ele>
        <time>2013-01-05T10:15:25Z</time>
      </trkpt>
      <trkpt lat="42.92786" lon="0.1192">
        <ele>2247</ele>
        <time>2013-01-05T10:15:27Z</time>
      </trkpt>
      <trkpt lat="42.92787" lon="0.11919">
        <ele>2247</ele>
        <time>2013-01-05T10:15:29Z</time>
      </trkpt>
      <trkpt lat="42.92789" lon="0.11918">
        <ele>2248</ele>
        <time>2013-01-05T10:15:31Z</time>
      </trkpt>
      <trkpt lat="42.9279" lon="0.11918">
        <ele>2248</ele>
        <time>2013-01-05T10:15:33Z</time>
      </trkpt>
      <trkpt lat="42.92792" lon="0.11917">
        <ele>2248</ele>
        <time>2013-01-05T10:15:35Z</time>
      </trkpt>
      <trkpt lat="42.92793" lon="0.11916">
        <ele>2248</ele>
        <time>2013-01-05T10:15:37Z</time>
      </trkpt>
      <trkpt lat="42.92794" lon="0.11916">
        <ele>2248</ele>
        <time>2013-01-05T10:15:39Z</time>
      </trkpt>
      <trkpt lat="42.92796" lon="0.11915">
        <ele>2248</ele>
        <time>2013-01-05T10:15:41Z</time>
      </trkpt>
      <trkpt lat="42.92797" lon="0.11915">
        <ele>2248</ele>
        <time>2013-01-05T10:15:43Z</time>
      </trkpt>
      <trkpt lat="42.92798" lon="0.11914">
        <ele>2249</ele>
        <time>2013-01-05T10:15:45Z</time>
      </trkpt>
      <trkpt lat="42.92799" lon="0.11914">
        <ele>2249</ele>
        <time>2013-01-05T10:15:47Z</time>
      </trkpt>
      <trkpt lat="42.92801" lon="0.11913">
        <ele>2249</ele>
        <time>2013-01-05T10:15:49Z</time>
      </trkpt>
      <trkpt lat="42.92802" lon="0.11913">
        <ele>2250</ele>
        <time>2013-01-05T10:15:51Z</time>
      </trkpt>
      <trkpt lat="42.92803" lon="0.11913">
        <ele>2250</ele>
        <time>2013-01-05T10:15:53Z</time>
      </trkpt>
      <trkpt lat="42.92804" lon="0.11913">
        <ele>2250</ele>
        <time>2013-01-05T10:15:55Z</time>
      </trkpt>
      <trkpt lat="42.92805" lon="0.11913">
        <ele>2251</ele>
        <time>2013-01-05T10:16:16Z</time>
      </trkpt>
      <trkpt lat="42.92807" lon="0.11913">
        <ele>2251</ele>
        <time>2013-01-05T10:16:19Z</time>
      </trkpt>
      <trkpt lat="42.92808" lon="0.11913">
        <ele>2251</ele>
        <time>2013-01-05T10:16:23Z</time>
      </trkpt>
      <trkpt lat="42.9281" lon="0.11912">
        <ele>2251</ele>
        <time>2013-01-05T10:16:25Z</time>
      </trkpt>
      <trkpt lat="42.92811" lon="0.11912">
        <ele>2251</ele>
        <time>2013-01-05T10:16:27Z</time>
      </trkpt>
      <trkpt lat="42.92812" lon="0.11912">
        <ele>2251</ele>
        <time>2013-01-05T10:16:29Z</time>
      </trkpt>
      <trkpt lat="42.92814" lon="0.11911">
        <ele>2251</ele>
        <time>2013-01-05T10:16:31Z</time>
      </trkpt>
      <trkpt lat="42.92815" lon="0.11911">
        <ele>2251</ele>
        <time>2013-01-05T10:16:33Z</time>
      </trkpt>
      <trkpt lat="42.92816" lon="0.1191">
        <ele>2251</ele>
        <time>2013-01-05T10:16:35Z</time>
      </trkpt>
      <trkpt lat="42.92818" lon="0.1191">
        <ele>2251</ele>
        <time>2013-01-05T10:16:37Z</time>
      </trkpt>
      <trkpt lat="42.92819" lon="0.11909">
        <ele>2252</ele>
        <time>2013-01-05T10:16:39Z</time>
      </trkpt>
      <trkpt lat="42.9282" lon="0.11909">
        <ele>2252</ele>
        <time>2013-01-05T10:16:41Z</time>
      </trkpt>
      <trkpt lat="42.92822" lon="0.11909">
        <ele>2252</ele>
        <time>2013-01-05T10:16:43Z</time>
      </trkpt>
      <trkpt lat="42.92823" lon="0.11908">
        <ele>2252</ele>
        <time>2013-01-05T10:16:45Z</time>
      </trkpt>
      <trkpt lat="42.92824" lon="0.11908">
        <ele>2252</ele>
        <time>2013-01-05T10:16:47Z</time>
      </trkpt>
      <trkpt lat="42.92826" lon="0.11908">
        <ele>2253</ele>
        <time>2013-01-05T10:16:49Z</time>
      </trkpt>
      <trkpt lat="42.92827" lon="0.11907">
        <ele>2253</ele>
        <time>2013-01-05T10:16:51Z</time>
      </trkpt>
      <trkpt lat="42.92828" lon="0.11907">
        <ele>2253</ele>
        <time>2013-01-05T10:16:53Z</time>
      </trkpt>
      <trkpt lat="42.9283" lon="0.11907">
        <ele>2253</ele>
        <time>2013-01-05T10:16:55Z</time>
      </trkpt>
      <trkpt lat="42.92831" lon="0.11907">
        <ele>2253</ele>
        <time>2013-01-05T10:16:57Z</time>
      </trkpt>
      <trkpt lat="42.92832" lon="0.11907">
        <ele>2254</ele>
        <time>2013-01-05T10:16:59Z</time>
      </trkpt>
      <trkpt lat="42.92833" lon="0.11907">
        <ele>2254</ele>
        <time>2013-01-05T10:17:01Z</time>
      </trkpt>
      <trkpt lat="42.92835" lon="0.11906">
        <ele>2254</ele>
        <time>2013-01-05T10:17:03Z</time>
      </trkpt>
      <trkpt lat="42.92836" lon="0.11906">
        <ele>2254</ele>
        <time>2013-01-05T10:17:05Z</time>
      </trkpt>
      <trkpt lat="42.92837" lon="0.11906">
        <ele>2254</ele>
        <time>2013-01-05T10:17:07Z</time>
      </trkpt>
      <trkpt lat="42.92838" lon="0.11906">
        <ele>2255</ele>
        <time>2013-01-05T10:17:09Z</time>
      </trkpt>
      <trkpt lat="42.9284" lon="0.11905">
        <ele>2255</ele>
        <time>2013-01-05T10:17:11Z</time>
      </trkpt>
      <trkpt lat="42.92841" lon="0.11905">
        <ele>2255</ele>
        <time>2013-01-05T10:17:13Z</time>
      </trkpt>
      <trkpt lat="42.92842" lon="0.11905">
        <ele>2255</ele>
        <time>2013-01-05T10:17:15Z</time>
      </trkpt>
      <trkpt lat="42.92843" lon="0.11905">
        <ele>2255</ele>
        <time>2013-01-05T10:17:17Z</time>
      </trkpt>
      <trkpt lat="42.92844" lon="0.11905">
        <ele>2255</ele>
        <time>2013-01-05T10:17:19Z</time>
      </trkpt>
      <trkpt lat="42.92846" lon="0.11905">
        <ele>2256</ele>
        <time>2013-01-05T10:17:22Z</time>
      </trkpt>
      <trkpt lat="42.92847" lon="0.11904">
        <ele>2256</ele>
        <time>2013-01-05T10:17:24Z</time>
      </trkpt>
      <trkpt lat="42.92849" lon="0.11904">
        <ele>2256</ele>
        <time>2013-01-05T10:17:26Z</time>
      </trkpt>
      <trkpt lat="42.9285" lon="0.11904">
        <ele>2256</ele>
        <time>2013-01-05T10:17:28Z</time>
      </trkpt>
      <trkpt lat="42.92851" lon="0.11904">
        <ele>2257</ele>
        <time>2013-01-05T10:17:30Z</time>
      </trkpt>
      <trkpt lat="42.92852" lon="0.11903">
        <ele>2257</ele>
        <time>2013-01-05T10:17:32Z</time>
      </trkpt>
      <trkpt lat="42.92854" lon="0.11903">
        <ele>2257</ele>
        <time>2013-01-05T10:17:34Z</time>
      </trkpt>
      <trkpt lat="42.92855" lon="0.11903">
        <ele>2257</ele>
        <time>2013-01-05T10:17:36Z</time>
      </trkpt>
      <trkpt lat="42.92856" lon="0.11903">
        <ele>2258</ele>
        <time>2013-01-05T10:17:38Z</time>
      </trkpt>
      <trkpt lat="42.92857" lon="0.11903">
        <ele>2258</ele>
        <time>2013-01-05T10:17:40Z</time>
      </trkpt>
      <trkpt lat="42.92859" lon="0.11902">
        <ele>2258</ele>
        <time>2013-01-05T10:17:42Z</time>
      </trkpt>
      <trkpt lat="42.9286" lon="0.11902">
        <ele>2259</ele>
        <time>2013-01-05T10:17:45Z</time>
      </trkpt>
      <trkpt lat="42.92861" lon="0.11902">
        <ele>2259</ele>
        <time>2013-01-05T10:18:03Z</time>
      </trkpt>
      <trkpt lat="42.92862" lon="0.11902">
        <ele>2259</ele>
        <time>2013-01-05T10:18:05Z</time>
      </trkpt>
      <trkpt lat="42.92864" lon="0.11901">
        <ele>2259</ele>
        <time>2013-01-05T10:18:07Z</time>
      </trkpt>
      <trkpt lat="42.92865" lon="0.11901">
        <ele>2259</ele>
        <time>2013-01-05T10:18:09Z</time>
      </trkpt>
      <trkpt lat="42.92866" lon="0.11901">
        <ele>2259</ele>
        <time>2013-01-05T10:18:11Z</time>
      </trkpt>
      <trkpt lat="42.92868" lon="0.11901">
        <ele>2260</ele>
        <time>2013-01-05T10:18:13Z</time>
      </trkpt>
      <trkpt lat="42.92869" lon="0.11901">
        <ele>2260</ele>
        <time>2013-01-05T10:18:15Z</time>
      </trkpt>
      <trkpt lat="42.9287" lon="0.11901">
        <ele>2260</ele>
        <time>2013-01-05T10:18:17Z</time>
      </trkpt>
      <trkpt lat="42.92871" lon="0.11901">
        <ele>2260</ele>
        <time>2013-01-05T10:18:19Z</time>
      </trkpt>
      <trkpt lat="42.92872" lon="0.11901">
        <ele>2260</ele>
        <time>2013-01-05T10:18:21Z</time>
      </trkpt>
      <trkpt lat="42.92874" lon="0.11901">
        <ele>2261</ele>
        <time>2013-01-05T10:18:23Z</time>
      </trkpt>
      <trkpt lat="42.92875" lon="0.11901">
        <ele>2261</ele>
        <time>2013-01-05T10:18:25Z</time>
      </trkpt>
      <trkpt lat="42.92876" lon="0.11901">
        <ele>2261</ele>
        <time>2013-01-05T10:18:27Z</time>
      </trkpt>
      <trkpt lat="42.92878" lon="0.11901">
        <ele>2261</ele>
        <time>2013-01-05T10:18:29Z</time>
      </trkpt>
      <trkpt lat="42.92879" lon="0.11901">
        <ele>2262</ele>
        <time>2013-01-05T10:18:31Z</time>
      </trkpt>
      <trkpt lat="42.92881" lon="0.119">
        <ele>2262</ele>
        <time>2013-01-05T10:18:34Z</time>
      </trkpt>
      <trkpt lat="42.92882" lon="0.119">
        <ele>2262</ele>
        <time>2013-01-05T10:18:36Z</time>
      </trkpt>
      <trkpt lat="42.92884" lon="0.119">
        <ele>2262</ele>
        <time>2013-01-05T10:18:38Z</time>
      </trkpt>
      <trkpt lat="42.92885" lon="0.11899">
        <ele>2262</ele>
        <time>2013-01-05T10:18:40Z</time>
      </trkpt>
      <trkpt lat="42.92886" lon="0.11899">
        <ele>2262</ele>
        <time>2013-01-05T10:18:42Z</time>
      </trkpt>
      <trkpt lat="42.92888" lon="0.11899">
        <ele>2262</ele>
        <time>2013-01-05T10:18:44Z</time>
      </trkpt>
      <trkpt lat="42.92889" lon="0.11898">
        <ele>2262</ele>
        <time>2013-01-05T10:18:46Z</time>
      </trkpt>
      <trkpt lat="42.9289" lon="0.11898">
        <ele>2262</ele>
        <time>2013-01-05T10:18:48Z</time>
      </trkpt>
      <trkpt lat="42.92892" lon="0.11898">
        <ele>2263</ele>
        <time>2013-01-05T10:18:50Z</time>
      </trkpt>
      <trkpt lat="42.92893" lon="0.11898">
        <ele>2263</ele>
        <time>2013-01-05T10:18:52Z</time>
      </trkpt>
      <trkpt lat="42.92895" lon="0.11897">
        <ele>2263</ele>
        <time>2013-01-05T10:18:54Z</time>
      </trkpt>
      <trkpt lat="42.92896" lon="0.11897">
        <ele>2263</ele>
        <time>2013-01-05T10:18:56Z</time>
      </trkpt>
      <trkpt lat="42.92897" lon="0.11897">
        <ele>2263</ele>
        <time>2013-01-05T10:18:58Z</time>
      </trkpt>
      <trkpt lat="42.92899" lon="0.11897">
        <ele>2264</ele>
        <time>2013-01-05T10:19:00Z</time>
      </trkpt>
      <trkpt lat="42.929" lon="0.11897">
        <ele>2264</ele>
        <time>2013-01-05T10:19:02Z</time>
      </trkpt>
      <trkpt lat="42.92902" lon="0.11897">
        <ele>2264</ele>
        <time>2013-01-05T10:19:04Z</time>
      </trkpt>
      <trkpt lat="42.92903" lon="0.11897">
        <ele>2264</ele>
        <time>2013-01-05T10:19:06Z</time>
      </trkpt>
      <trkpt lat="42.92904" lon="0.11897">
        <ele>2265</ele>
        <time>2013-01-05T10:19:12Z</time>
      </trkpt>
      <trkpt lat="42.92905" lon="0.11897">
        <ele>2265</ele>
        <time>2013-01-05T10:19:32Z</time>
      </trkpt>
      <trkpt lat="42.92907" lon="0.11897">
        <ele>2265</ele>
        <time>2013-01-05T10:19:34Z</time>
      </trkpt>
      <trkpt lat="42.92908" lon="0.11897">
        <ele>2265</ele>
        <time>2013-01-05T10:19:36Z</time>
      </trkpt>
      <trkpt lat="42.9291" lon="0.11897">
        <ele>2265</ele>
        <time>2013-01-05T10:19:38Z</time>
      </trkpt>
      <trkpt lat="42.92911" lon="0.11897">
        <ele>2265</ele>
        <time>2013-01-05T10:19:40Z</time>
      </trkpt>
      <trkpt lat="42.92912" lon="0.11897">
        <ele>2265</ele>
        <time>2013-01-05T10:19:42Z</time>
      </trkpt>
      <trkpt lat="42.92913" lon="0.11896">
        <ele>2265</ele>
        <time>2013-01-05T10:19:44Z</time>
      </trkpt>
      <trkpt lat="42.92915" lon="0.11896">
        <ele>2265</ele>
        <time>2013-01-05T10:19:46Z</time>
      </trkpt>
      <trkpt lat="42.92916" lon="0.11896">
        <ele>2265</ele>
        <time>2013-01-05T10:19:48Z</time>
      </trkpt>
      <trkpt lat="42.92917" lon="0.11896">
        <ele>2265</ele>
        <time>2013-01-05T10:19:50Z</time>
      </trkpt>
      <trkpt lat="42.92918" lon="0.11895">
        <ele>2266</ele>
        <time>2013-01-05T10:19:52Z</time>
      </trkpt>
      <trkpt lat="42.9292" lon="0.11895">
        <ele>2266</ele>
        <time>2013-01-05T10:19:54Z</time>
      </trkpt>
      <trkpt lat="42.92921" lon="0.11895">
        <ele>2266</ele>
        <time>2013-01-05T10:19:56Z</time>
      </trkpt>
      <trkpt lat="42.92922" lon="0.11895">
        <ele>2266</ele>
        <time>2013-01-05T10:19:58Z</time>
      </trkpt>
      <trkpt lat="42.92923" lon="0.11895">
        <ele>2267</ele>
        <time>2013-01-05T10:20:00Z</time>
      </trkpt>
      <trkpt lat="42.92925" lon="0.11896">
        <ele>2267</ele>
        <time>2013-01-05T10:20:03Z</time>
      </trkpt>
      <trkpt lat="42.92926" lon="0.11896">
        <ele>2267</ele>
        <time>2013-01-05T10:20:05Z</time>
      </trkpt>
      <trkpt lat="42.92928" lon="0.11896">
        <ele>2268</ele>
        <time>2013-01-05T10:20:07Z</time>
      </trkpt>
      <trkpt lat="42.92929" lon="0.11896">
        <ele>2268</ele>
        <time>2013-01-05T10:20:10Z</time>
      </trkpt>
      <trkpt lat="42.9293" lon="0.11896">
        <ele>2269</ele>
        <time>2013-01-05T10:20:12Z</time>
      </trkpt>
      <trkpt lat="42.92931" lon="0.11896">
        <ele>2269</ele>
        <time>2013-01-05T10:20:14Z</time>
      </trkpt>
      <trkpt lat="42.92933" lon="0.11896">
        <ele>2269</ele>
        <time>2013-01-05T10:20:16Z</time>
      </trkpt>
      <trkpt lat="42.92934" lon="0.11897">
        <ele>2270</ele>
        <time>2013-01-05T10:20:19Z</time>
      </trkpt>
      <trkpt lat="42.92935" lon="0.11897">
        <ele>2270</ele>
        <time>2013-01-05T10:20:21Z</time>
      </trkpt>
      <trkpt lat="42.92936" lon="0.11897">
        <ele>2271</ele>
        <time>2013-01-05T10:20:23Z</time>
      </trkpt>
      <trkpt lat="42.92938" lon="0.11897">
        <ele>2272</ele>
        <time>2013-01-05T10:20:47Z</time>
      </trkpt>
      <trkpt lat="42.92939" lon="0.11897">
        <ele>2272</ele>
        <time>2013-01-05T10:21:04Z</time>
      </trkpt>
      <trkpt lat="42.92941" lon="0.11897">
        <ele>2272</ele>
        <time>2013-01-05T10:21:06Z</time>
      </trkpt>
      <trkpt lat="42.92942" lon="0.11898">
        <ele>2272</ele>
        <time>2013-01-05T10:21:08Z</time>
      </trkpt>
      <trkpt lat="42.92943" lon="0.11898">
        <ele>2272</ele>
        <time>2013-01-05T10:21:10Z</time>
      </trkpt>
      <trkpt lat="42.92945" lon="0.11899">
        <ele>2273</ele>
        <time>2013-01-05T10:21:12Z</time>
      </trkpt>
      <trkpt lat="42.92947" lon="0.11899">
        <ele>2273</ele>
        <time>2013-01-05T10:21:15Z</time>
      </trkpt>
      <trkpt lat="42.92948" lon="0.11899">
        <ele>2273</ele>
        <time>2013-01-05T10:21:17Z</time>
      </trkpt>
      <trkpt lat="42.92949" lon="0.11899">
        <ele>2273</ele>
        <time>2013-01-05T10:21:19Z</time>
      </trkpt>
      <trkpt lat="42.92951" lon="0.11899">
        <ele>2274</ele>
        <time>2013-01-05T10:21:22Z</time>
      </trkpt>
      <trkpt lat="42.92952" lon="0.11899">
        <ele>2274</ele>
        <time>2013-01-05T10:21:24Z</time>
      </trkpt>
      <trkpt lat="42.92953" lon="0.119">
        <ele>2274</ele>
        <time>2013-01-05T10:21:26Z</time>
      </trkpt>
      <trkpt lat="42.92955" lon="0.11901">
        <ele>2274</ele>
        <time>2013-01-05T10:21:28Z</time>
      </trkpt>
      <trkpt lat="42.92956" lon="0.11901">
        <ele>2275</ele>
        <time>2013-01-05T10:21:30Z</time>
      </trkpt>
      <trkpt lat="42.92958" lon="0.11902">
        <ele>2275</ele>
        <time>2013-01-05T10:21:32Z</time>
      </trkpt>
      <trkpt lat="42.92959" lon="0.11902">
        <ele>2276</ele>
        <time>2013-01-05T10:21:34Z</time>
      </trkpt>
      <trkpt lat="42.92961" lon="0.11902">
        <ele>2277</ele>
        <time>2013-01-05T10:21:37Z</time>
      </trkpt>
      <trkpt lat="42.92962" lon="0.11902">
        <ele>2277</ele>
        <time>2013-01-05T10:21:39Z</time>
      </trkpt>
      <trkpt lat="42.92963" lon="0.11903">
        <ele>2277</ele>
        <time>2013-01-05T10:21:42Z</time>
      </trkpt>
      <trkpt lat="42.92965" lon="0.11903">
        <ele>2278</ele>
        <time>2013-01-05T10:21:44Z</time>
      </trkpt>
      <trkpt lat="42.92966" lon="0.11903">
        <ele>2278</ele>
        <time>2013-01-05T10:21:47Z</time>
      </trkpt>
      <trkpt lat="42.92968" lon="0.11904">
        <ele>2278</ele>
        <time>2013-01-05T10:21:50Z</time>
      </trkpt>
      <trkpt lat="42.92969" lon="0.11905">
        <ele>2280</ele>
        <time>2013-01-05T10:22:18Z</time>
      </trkpt>
      <trkpt lat="42.92969" lon="0.11906">
        <ele>2280</ele>
        <time>2013-01-05T10:22:25Z</time>
      </trkpt>
      <trkpt lat="42.92969" lon="0.11908">
        <ele>2281</ele>
        <time>2013-01-05T10:22:30Z</time>
      </trkpt>
      <trkpt lat="42.9297" lon="0.11908">
        <ele>2282</ele>
        <time>2013-01-05T10:22:34Z</time>
      </trkpt>
      <trkpt lat="42.92972" lon="0.11908">
        <ele>2282</ele>
        <time>2013-01-05T10:22:37Z</time>
      </trkpt>
      <trkpt lat="42.92973" lon="0.11909">
        <ele>2282</ele>
        <time>2013-01-05T10:22:39Z</time>
      </trkpt>
      <trkpt lat="42.92974" lon="0.11909">
        <ele>2282</ele>
        <time>2013-01-05T10:22:41Z</time>
      </trkpt>
      <trkpt lat="42.92976" lon="0.11909">
        <ele>2282</ele>
        <time>2013-01-05T10:22:44Z</time>
      </trkpt>
      <trkpt lat="42.92977" lon="0.1191">
        <ele>2282</ele>
        <time>2013-01-05T10:22:48Z</time>
      </trkpt>
      <trkpt lat="42.92978" lon="0.1191">
        <ele>2282</ele>
        <time>2013-01-05T10:22:50Z</time>
      </trkpt>
      <trkpt lat="42.9298" lon="0.1191">
        <ele>2283</ele>
        <time>2013-01-05T10:22:52Z</time>
      </trkpt>
      <trkpt lat="42.92981" lon="0.11911">
        <ele>2283</ele>
        <time>2013-01-05T10:22:55Z</time>
      </trkpt>
      <trkpt lat="42.92982" lon="0.11911">
        <ele>2284</ele>
        <time>2013-01-05T10:22:58Z</time>
      </trkpt>
      <trkpt lat="42.92984" lon="0.11912">
        <ele>2284</ele>
        <time>2013-01-05T10:23:00Z</time>
      </trkpt>
      <trkpt lat="42.92985" lon="0.11912">
        <ele>2284</ele>
        <time>2013-01-05T10:23:02Z</time>
      </trkpt>
      <trkpt lat="42.92987" lon="0.11913">
        <ele>2284</ele>
        <time>2013-01-05T10:23:04Z</time>
      </trkpt>
      <trkpt lat="42.92988" lon="0.11913">
        <ele>2285</ele>
        <time>2013-01-05T10:23:06Z</time>
      </trkpt>
      <trkpt lat="42.92989" lon="0.11913">
        <ele>2285</ele>
        <time>2013-01-05T10:23:09Z</time>
      </trkpt>
      <trkpt lat="42.9299" lon="0.11914">
        <ele>2285</ele>
        <time>2013-01-05T10:23:11Z</time>
      </trkpt>
      <trkpt lat="42.92992" lon="0.11914">
        <ele>2286</ele>
        <time>2013-01-05T10:23:14Z</time>
      </trkpt>
      <trkpt lat="42.92993" lon="0.11914">
        <ele>2287</ele>
        <time>2013-01-05T10:23:30Z</time>
      </trkpt>
      <trkpt lat="42.92995" lon="0.11915">
        <ele>2287</ele>
        <time>2013-01-05T10:23:32Z</time>
      </trkpt>
      <trkpt lat="42.92996" lon="0.11915">
        <ele>2287</ele>
        <time>2013-01-05T10:23:34Z</time>
      </trkpt>
      <trkpt lat="42.92997" lon="0.11916">
        <ele>2287</ele>
        <time>2013-01-05T10:23:36Z</time>
      </trkpt>
      <trkpt lat="42.92998" lon="0.11917">
        <ele>2288</ele>
        <time>2013-01-05T10:23:38Z</time>
      </trkpt>
      <trkpt lat="42.93" lon="0.11917">
        <ele>2288</ele>
        <time>2013-01-05T10:23:41Z</time>
      </trkpt>
      <trkpt lat="42.93001" lon="0.11917">
        <ele>2288</ele>
        <time>2013-01-05T10:23:43Z</time>
      </trkpt>
      <trkpt lat="42.93002" lon="0.11918">
        <ele>2289</ele>
        <time>2013-01-05T10:23:46Z</time>
      </trkpt>
      <trkpt lat="42.93004" lon="0.11919">
        <ele>2290</ele>
        <time>2013-01-05T10:23:49Z</time>
      </trkpt>
      <trkpt lat="42.93005" lon="0.1192">
        <ele>2290</ele>
        <time>2013-01-05T10:23:51Z</time>
      </trkpt>
      <trkpt lat="42.93007" lon="0.11921">
        <ele>2291</ele>
        <time>2013-01-05T10:23:54Z</time>
      </trkpt>
      <trkpt lat="42.93008" lon="0.11923">
        <ele>2291</ele>
        <time>2013-01-05T10:23:56Z</time>
      </trkpt>
      <trkpt lat="42.9301" lon="0.11924">
        <ele>2292</ele>
        <time>2013-01-05T10:23:59Z</time>
      </trkpt>
      <trkpt lat="42.93011" lon="0.11924">
        <ele>2292</ele>
        <time>2013-01-05T10:24:29Z</time>
      </trkpt>
      <trkpt lat="42.93013" lon="0.11924">
        <ele>2292</ele>
        <time>2013-01-05T10:24:31Z</time>
      </trkpt>
      <trkpt lat="42.93014" lon="0.11924">
        <ele>2292</ele>
        <time>2013-01-05T10:24:33Z</time>
      </trkpt>
      <trkpt lat="42.93015" lon="0.11925">
        <ele>2292</ele>
        <time>2013-01-05T10:24:35Z</time>
      </trkpt>
      <trkpt lat="42.93017" lon="0.11925">
        <ele>2292</ele>
        <time>2013-01-05T10:24:37Z</time>
      </trkpt>
      <trkpt lat="42.93018" lon="0.11925">
        <ele>2292</ele>
        <time>2013-01-05T10:24:39Z</time>
      </trkpt>
      <trkpt lat="42.93019" lon="0.11925">
        <ele>2292</ele>
        <time>2013-01-05T10:24:41Z</time>
      </trkpt>
      <trkpt lat="42.93021" lon="0.11926">
        <ele>2292</ele>
        <time>2013-01-05T10:24:44Z</time>
      </trkpt>
      <trkpt lat="42.93022" lon="0.11926">
        <ele>2292</ele>
        <time>2013-01-05T10:24:46Z</time>
      </trkpt>
      <trkpt lat="42.93023" lon="0.11927">
        <ele>2292</ele>
        <time>2013-01-05T10:24:48Z</time>
      </trkpt>
      <trkpt lat="42.93024" lon="0.11928">
        <ele>2293</ele>
        <time>2013-01-05T10:24:50Z</time>
      </trkpt>
      <trkpt lat="42.93026" lon="0.11928">
        <ele>2293</ele>
        <time>2013-01-05T10:24:52Z</time>
      </trkpt>
      <trkpt lat="42.93027" lon="0.11928">
        <ele>2294</ele>
        <time>2013-01-05T10:24:55Z</time>
      </trkpt>
      <trkpt lat="42.93029" lon="0.11929">
        <ele>2294</ele>
        <time>2013-01-05T10:24:57Z</time>
      </trkpt>
      <trkpt lat="42.9303" lon="0.11929">
        <ele>2295</ele>
        <time>2013-01-05T10:24:59Z</time>
      </trkpt>
      <trkpt lat="42.93031" lon="0.11929">
        <ele>2295</ele>
        <time>2013-01-05T10:25:01Z</time>
      </trkpt>
      <trkpt lat="42.93032" lon="0.11929">
        <ele>2295</ele>
        <time>2013-01-05T10:25:03Z</time>
      </trkpt>
      <trkpt lat="42.93034" lon="0.11929">
        <ele>2296</ele>
        <time>2013-01-05T10:25:05Z</time>
      </trkpt>
      <trkpt lat="42.93035" lon="0.11929">
        <ele>2296</ele>
        <time>2013-01-05T10:25:07Z</time>
      </trkpt>
      <trkpt lat="42.93036" lon="0.11928">
        <ele>2296</ele>
        <time>2013-01-05T10:25:10Z</time>
      </trkpt>
      <trkpt lat="42.93037" lon="0.11929">
        <ele>2297</ele>
        <time>2013-01-05T10:25:16Z</time>
      </trkpt>
      <trkpt lat="42.93039" lon="0.11929">
        <ele>2297</ele>
        <time>2013-01-05T10:25:29Z</time>
      </trkpt>
      <trkpt lat="42.9304" lon="0.11929">
        <ele>2297</ele>
        <time>2013-01-05T10:25:31Z</time>
      </trkpt>
      <trkpt lat="42.93042" lon="0.11928">
        <ele>2297</ele>
        <time>2013-01-05T10:25:33Z</time>
      </trkpt>
      <trkpt lat="42.93043" lon="0.11927">
        <ele>2298</ele>
        <time>2013-01-05T10:25:35Z</time>
      </trkpt>
      <trkpt lat="42.93044" lon="0.11927">
        <ele>2298</ele>
        <time>2013-01-05T10:25:37Z</time>
      </trkpt>
      <trkpt lat="42.93046" lon="0.11927">
        <ele>2298</ele>
        <time>2013-01-05T10:25:39Z</time>
      </trkpt>
      <trkpt lat="42.93047" lon="0.11927">
        <ele>2299</ele>
        <time>2013-01-05T10:25:41Z</time>
      </trkpt>
      <trkpt lat="42.93048" lon="0.11927">
        <ele>2299</ele>
        <time>2013-01-05T10:25:43Z</time>
      </trkpt>
      <trkpt lat="42.93048" lon="0.11928">
        <ele>2300</ele>
        <time>2013-01-05T10:26:00Z</time>
      </trkpt>
      <trkpt lat="42.93047" lon="0.1193">
        <ele>2300</ele>
        <time>2013-01-05T10:26:03Z</time>
      </trkpt>
      <trkpt lat="42.93047" lon="0.11932">
        <ele>2300</ele>
        <time>2013-01-05T10:26:05Z</time>
      </trkpt>
      <trkpt lat="42.93046" lon="0.11933">
        <ele>2300</ele>
        <time>2013-01-05T10:26:07Z</time>
      </trkpt>
      <trkpt lat="42.93045" lon="0.11935">
        <ele>2300</ele>
        <time>2013-01-05T10:26:09Z</time>
      </trkpt>
      <trkpt lat="42.93044" lon="0.11937">
        <ele>2301</ele>
        <time>2013-01-05T10:26:12Z</time>
      </trkpt>
      <trkpt lat="42.93042" lon="0.11939">
        <ele>2301</ele>
        <time>2013-01-05T10:26:15Z</time>
      </trkpt>
      <trkpt lat="42.93042" lon="0.1194">
        <ele>2301</ele>
        <time>2013-01-05T10:26:17Z</time>
      </trkpt>
      <trkpt lat="42.9304" lon="0.11942">
        <ele>2302</ele>
        <time>2013-01-05T10:26:20Z</time>
      </trkpt>
      <trkpt lat="42.93039" lon="0.11944">
        <ele>2303</ele>
        <time>2013-01-05T10:26:23Z</time>
      </trkpt>
      <trkpt lat="42.93038" lon="0.11946">
        <ele>2303</ele>
        <time>2013-01-05T10:26:26Z</time>
      </trkpt>
      <trkpt lat="42.93037" lon="0.11947">
        <ele>2304</ele>
        <time>2013-01-05T10:26:38Z</time>
      </trkpt>
      <trkpt lat="42.93036" lon="0.11948">
        <ele>2305</ele>
        <time>2013-01-05T10:26:41Z</time>
      </trkpt>
      <trkpt lat="42.93035" lon="0.1195">
        <ele>2306</ele>
        <time>2013-01-05T10:26:45Z</time>
      </trkpt>
      <trkpt lat="42.93034" lon="0.11951">
        <ele>2306</ele>
        <time>2013-01-05T10:26:47Z</time>
      </trkpt>
      <trkpt lat="42.93032" lon="0.11952">
        <ele>2306</ele>
        <time>2013-01-05T10:26:49Z</time>
      </trkpt>
      <trkpt lat="42.93031" lon="0.11953">
        <ele>2306</ele>
        <time>2013-01-05T10:26:52Z</time>
      </trkpt>
      <trkpt lat="42.9303" lon="0.11954">
        <ele>2307</ele>
        <time>2013-01-05T10:26:55Z</time>
      </trkpt>
      <trkpt lat="42.93028" lon="0.11956">
        <ele>2307</ele>
        <time>2013-01-05T10:26:58Z</time>
      </trkpt>
      <trkpt lat="42.93027" lon="0.11957">
        <ele>2307</ele>
        <time>2013-01-05T10:27:01Z</time>
      </trkpt>
      <trkpt lat="42.93025" lon="0.11958">
        <ele>2307</ele>
        <time>2013-01-05T10:27:04Z</time>
      </trkpt>
      <trkpt lat="42.93024" lon="0.1196">
        <ele>2308</ele>
        <time>2013-01-05T10:27:07Z</time>
      </trkpt>
      <trkpt lat="42.93022" lon="0.11961">
        <ele>2308</ele>
        <time>2013-01-05T10:27:10Z</time>
      </trkpt>
      <trkpt lat="42.93021" lon="0.11963">
        <ele>2309</ele>
        <time>2013-01-05T10:27:13Z</time>
      </trkpt>
      <trkpt lat="42.93019" lon="0.11963">
        <ele>2309</ele>
        <time>2013-01-05T10:27:15Z</time>
      </trkpt>
      <trkpt lat="42.93018" lon="0.11964">
        <ele>2310</ele>
        <time>2013-01-05T10:27:18Z</time>
      </trkpt>
      <trkpt lat="42.93016" lon="0.11966">
        <ele>2311</ele>
        <time>2013-01-05T10:27:21Z</time>
      </trkpt>
      <trkpt lat="42.93015" lon="0.11967">
        <ele>2312</ele>
        <time>2013-01-05T10:27:24Z</time>
      </trkpt>
      <trkpt lat="42.93014" lon="0.11969">
        <ele>2313</ele>
        <time>2013-01-05T10:27:27Z</time>
      </trkpt>
      <trkpt lat="42.93012" lon="0.1197">
        <ele>2313</ele>
        <time>2013-01-05T10:27:30Z</time>
      </trkpt>
      <trkpt lat="42.93011" lon="0.11971">
        <ele>2314</ele>
        <time>2013-01-05T10:27:33Z</time>
      </trkpt>
      <trkpt lat="42.93009" lon="0.11973">
        <ele>2316</ele>
        <time>2013-01-05T10:27:37Z</time>
      </trkpt>
      <trkpt lat="42.93008" lon="0.11974">
        <ele>2316</ele>
        <time>2013-01-05T10:27:40Z</time>
      </trkpt>
      <trkpt lat="42.93007" lon="0.11973">
        <ele>2318</ele>
        <time>2013-01-05T10:28:04Z</time>
      </trkpt>
      <trkpt lat="42.93005" lon="0.11975">
        <ele>2318</ele>
        <time>2013-01-05T10:28:08Z</time>
      </trkpt>
      <trkpt lat="42.93004" lon="0.11975">
        <ele>2318</ele>
        <time>2013-01-05T10:28:11Z</time>
      </trkpt>
      <trkpt lat="42.93002" lon="0.11977">
        <ele>2318</ele>
        <time>2013-01-05T10:28:14Z</time>
      </trkpt>
      <trkpt lat="42.93001" lon="0.11977">
        <ele>2318</ele>
        <time>2013-01-05T10:28:16Z</time>
      </trkpt>
      <trkpt lat="42.93" lon="0.11979">
        <ele>2319</ele>
        <time>2013-01-05T10:28:19Z</time>
      </trkpt>
      <trkpt lat="42.92998" lon="0.1198">
        <ele>2320</ele>
        <time>2013-01-05T10:28:22Z</time>
      </trkpt>
      <trkpt lat="42.92997" lon="0.11981">
        <ele>2320</ele>
        <time>2013-01-05T10:28:25Z</time>
      </trkpt>
      <trkpt lat="42.92995" lon="0.11982">
        <ele>2321</ele>
        <time>2013-01-05T10:28:28Z</time>
      </trkpt>
      <trkpt lat="42.92994" lon="0.11983">
        <ele>2322</ele>
        <time>2013-01-05T10:28:31Z</time>
      </trkpt>
      <trkpt lat="42.92992" lon="0.11985">
        <ele>2323</ele>
        <time>2013-01-05T10:28:35Z</time>
      </trkpt>
      <trkpt lat="42.92991" lon="0.11986">
        <ele>2323</ele>
        <time>2013-01-05T10:28:38Z</time>
      </trkpt>
      <trkpt lat="42.9299" lon="0.11987">
        <ele>2324</ele>
        <time>2013-01-05T10:28:41Z</time>
      </trkpt>
      <trkpt lat="42.92989" lon="0.11988">
        <ele>2325</ele>
        <time>2013-01-05T10:28:44Z</time>
      </trkpt>
      <trkpt lat="42.92987" lon="0.11989">
        <ele>2325</ele>
        <time>2013-01-05T10:28:46Z</time>
      </trkpt>
      <trkpt lat="42.92986" lon="0.1199">
        <ele>2325</ele>
        <time>2013-01-05T10:28:48Z</time>
      </trkpt>
      <trkpt lat="42.92985" lon="0.11991">
        <ele>2326</ele>
        <time>2013-01-05T10:28:51Z</time>
      </trkpt>
      <trkpt lat="42.92984" lon="0.11992">
        <ele>2327</ele>
        <time>2013-01-05T10:28:53Z</time>
      </trkpt>
      <trkpt lat="42.92982" lon="0.11993">
        <ele>2327</ele>
        <time>2013-01-05T10:28:55Z</time>
      </trkpt>
      <trkpt lat="42.92981" lon="0.11994">
        <ele>2327</ele>
        <time>2013-01-05T10:28:58Z</time>
      </trkpt>
      <trkpt lat="42.9298" lon="0.11995">
        <ele>2328</ele>
        <time>2013-01-05T10:29:00Z</time>
      </trkpt>
      <trkpt lat="42.92978" lon="0.11996">
        <ele>2328</ele>
        <time>2013-01-05T10:29:03Z</time>
      </trkpt>
      <trkpt lat="42.92977" lon="0.11998">
        <ele>2328</ele>
        <time>2013-01-05T10:29:07Z</time>
      </trkpt>
      <trkpt lat="42.92975" lon="0.11999">
        <ele>2328</ele>
        <time>2013-01-05T10:29:10Z</time>
      </trkpt>
      <trkpt lat="42.92974" lon="0.11999">
        <ele>2330</ele>
        <time>2013-01-05T10:29:24Z</time>
      </trkpt>
      <trkpt lat="42.92973" lon="0.12">
        <ele>2330</ele>
        <time>2013-01-05T10:29:26Z</time>
      </trkpt>
      <trkpt lat="42.92972" lon="0.12002">
        <ele>2330</ele>
        <time>2013-01-05T10:29:29Z</time>
      </trkpt>
      <trkpt lat="42.92971" lon="0.12003">
        <ele>2331</ele>
        <time>2013-01-05T10:29:32Z</time>
      </trkpt>
      <trkpt lat="42.92969" lon="0.12004">
        <ele>2331</ele>
        <time>2013-01-05T10:29:34Z</time>
      </trkpt>
      <trkpt lat="42.92968" lon="0.12006">
        <ele>2331</ele>
        <time>2013-01-05T10:29:37Z</time>
      </trkpt>
      <trkpt lat="42.92967" lon="0.12007">
        <ele>2332</ele>
        <time>2013-01-05T10:29:40Z</time>
      </trkpt>
      <trkpt lat="42.92965" lon="0.12009">
        <ele>2333</ele>
        <time>2013-01-05T10:29:43Z</time>
      </trkpt>
      <trkpt lat="42.92964" lon="0.1201">
        <ele>2333</ele>
        <time>2013-01-05T10:29:46Z</time>
      </trkpt>
      <trkpt lat="42.92964" lon="0.12012">
        <ele>2334</ele>
        <time>2013-01-05T10:29:55Z</time>
      </trkpt>
      <trkpt lat="42.92966" lon="0.12012">
        <ele>2334</ele>
        <time>2013-01-05T10:29:58Z</time>
      </trkpt>
      <trkpt lat="42.92967" lon="0.12013">
        <ele>2334</ele>
        <time>2013-01-05T10:30:00Z</time>
      </trkpt>
      <trkpt lat="42.92968" lon="0.12014">
        <ele>2335</ele>
        <time>2013-01-05T10:30:02Z</time>
      </trkpt>
      <trkpt lat="42.9297" lon="0.12014">
        <ele>2335</ele>
        <time>2013-01-05T10:30:04Z</time>
      </trkpt>
      <trkpt lat="42.92971" lon="0.12015">
        <ele>2335</ele>
        <time>2013-01-05T10:30:06Z</time>
      </trkpt>
      <trkpt lat="42.92973" lon="0.12015">
        <ele>2335</ele>
        <time>2013-01-05T10:30:08Z</time>
      </trkpt>
      <trkpt lat="42.92974" lon="0.12015">
        <ele>2336</ele>
        <time>2013-01-05T10:30:10Z</time>
      </trkpt>
      <trkpt lat="42.92976" lon="0.12016">
        <ele>2336</ele>
        <time>2013-01-05T10:30:12Z</time>
      </trkpt>
      <trkpt lat="42.92977" lon="0.12016">
        <ele>2336</ele>
        <time>2013-01-05T10:30:14Z</time>
      </trkpt>
      <trkpt lat="42.92979" lon="0.12017">
        <ele>2336</ele>
        <time>2013-01-05T10:30:16Z</time>
      </trkpt>
      <trkpt lat="42.92979" lon="0.12018">
        <ele>2337</ele>
        <time>2013-01-05T10:30:25Z</time>
      </trkpt>
      <trkpt lat="42.92981" lon="0.12019">
        <ele>2337</ele>
        <time>2013-01-05T10:30:35Z</time>
      </trkpt>
      <trkpt lat="42.92982" lon="0.1202">
        <ele>2337</ele>
        <time>2013-01-05T10:30:44Z</time>
      </trkpt>
      <trkpt lat="42.92984" lon="0.1202">
        <ele>2337</ele>
        <time>2013-01-05T10:30:46Z</time>
      </trkpt>
      <trkpt lat="42.92985" lon="0.12021">
        <ele>2337</ele>
        <time>2013-01-05T10:30:48Z</time>
      </trkpt>
      <trkpt lat="42.92987" lon="0.12022">
        <ele>2337</ele>
        <time>2013-01-05T10:30:51Z</time>
      </trkpt>
      <trkpt lat="42.92988" lon="0.12023">
        <ele>2337</ele>
        <time>2013-01-05T10:30:54Z</time>
      </trkpt>
      <trkpt lat="42.9299" lon="0.12024">
        <ele>2337</ele>
        <time>2013-01-05T10:30:57Z</time>
      </trkpt>
      <trkpt lat="42.92991" lon="0.12025">
        <ele>2338</ele>
        <time>2013-01-05T10:31:00Z</time>
      </trkpt>
      <trkpt lat="42.92992" lon="0.12025">
        <ele>2338</ele>
        <time>2013-01-05T10:31:02Z</time>
      </trkpt>
      <trkpt lat="42.92994" lon="0.12026">
        <ele>2338</ele>
        <time>2013-01-05T10:31:04Z</time>
      </trkpt>
      <trkpt lat="42.92995" lon="0.12026">
        <ele>2339</ele>
        <time>2013-01-05T10:31:06Z</time>
      </trkpt>
      <trkpt lat="42.92994" lon="0.12028">
        <ele>2339</ele>
        <time>2013-01-05T10:31:15Z</time>
      </trkpt>
      <trkpt lat="42.92992" lon="0.12029">
        <ele>2339</ele>
        <time>2013-01-05T10:31:17Z</time>
      </trkpt>
      <trkpt lat="42.92991" lon="0.1203">
        <ele>2339</ele>
        <time>2013-01-05T10:31:20Z</time>
      </trkpt>
      <trkpt lat="42.92989" lon="0.12031">
        <ele>2339</ele>
        <time>2013-01-05T10:31:23Z</time>
      </trkpt>
      <trkpt lat="42.92988" lon="0.12031">
        <ele>2339</ele>
        <time>2013-01-05T10:31:25Z</time>
      </trkpt>
      <trkpt lat="42.92987" lon="0.12032">
        <ele>2339</ele>
        <time>2013-01-05T10:31:28Z</time>
      </trkpt>
      <trkpt lat="42.92985" lon="0.12033">
        <ele>2339</ele>
        <time>2013-01-05T10:31:31Z</time>
      </trkpt>
      <trkpt lat="42.92984" lon="0.12034">
        <ele>2339</ele>
        <time>2013-01-05T10:31:33Z</time>
      </trkpt>
      <trkpt lat="42.92983" lon="0.12035">
        <ele>2339</ele>
        <time>2013-01-05T10:31:35Z</time>
      </trkpt>
      <trkpt lat="42.92981" lon="0.12036">
        <ele>2339</ele>
        <time>2013-01-05T10:31:37Z</time>
      </trkpt>
      <trkpt lat="42.9298" lon="0.12036">
        <ele>2339</ele>
        <time>2013-01-05T10:31:39Z</time>
      </trkpt>
      <trkpt lat="42.92979" lon="0.12037">
        <ele>2339</ele>
        <time>2013-01-05T10:31:42Z</time>
      </trkpt>
      <trkpt lat="42.92977" lon="0.12038">
        <ele>2339</ele>
        <time>2013-01-05T10:31:45Z</time>
      </trkpt>
      <trkpt lat="42.92976" lon="0.12039">
        <ele>2339</ele>
        <time>2013-01-05T10:31:47Z</time>
      </trkpt>
      <trkpt lat="42.92975" lon="0.12041">
        <ele>2339</ele>
        <time>2013-01-05T10:32:17Z</time>
      </trkpt>
      <trkpt lat="42.92974" lon="0.12042">
        <ele>2339</ele>
        <time>2013-01-05T10:32:20Z</time>
      </trkpt>
      <trkpt lat="42.92973" lon="0.12043">
        <ele>2339</ele>
        <time>2013-01-05T10:32:22Z</time>
      </trkpt>
      <trkpt lat="42.92971" lon="0.12044">
        <ele>2339</ele>
        <time>2013-01-05T10:32:24Z</time>
      </trkpt>
      <trkpt lat="42.9297" lon="0.12046">
        <ele>2339</ele>
        <time>2013-01-05T10:32:27Z</time>
      </trkpt>
      <trkpt lat="42.92969" lon="0.12047">
        <ele>2339</ele>
        <time>2013-01-05T10:32:30Z</time>
      </trkpt>
      <trkpt lat="42.92968" lon="0.12048">
        <ele>2339</ele>
        <time>2013-01-05T10:32:32Z</time>
      </trkpt>
      <trkpt lat="42.92966" lon="0.12049">
        <ele>2340</ele>
        <time>2013-01-05T10:32:35Z</time>
      </trkpt>
      <trkpt lat="42.92964" lon="0.12051">
        <ele>2341</ele>
        <time>2013-01-05T10:32:38Z</time>
      </trkpt>
      <trkpt lat="42.92963" lon="0.12052">
        <ele>2341</ele>
        <time>2013-01-05T10:32:41Z</time>
      </trkpt>
      <trkpt lat="42.92962" lon="0.12053">
        <ele>2341</ele>
        <time>2013-01-05T10:32:43Z</time>
      </trkpt>
      <trkpt lat="42.9296" lon="0.12054">
        <ele>2341</ele>
        <time>2013-01-05T10:32:45Z</time>
      </trkpt>
      <trkpt lat="42.92959" lon="0.12055">
        <ele>2341</ele>
        <time>2013-01-05T10:32:47Z</time>
      </trkpt>
      <trkpt lat="42.92958" lon="0.12056">
        <ele>2342</ele>
        <time>2013-01-05T10:32:50Z</time>
      </trkpt>
      <trkpt lat="42.92957" lon="0.12057">
        <ele>2342</ele>
        <time>2013-01-05T10:32:52Z</time>
      </trkpt>
      <trkpt lat="42.92955" lon="0.12058">
        <ele>2342</ele>
        <time>2013-01-05T10:32:54Z</time>
      </trkpt>
      <trkpt lat="42.92954" lon="0.12059">
        <ele>2342</ele>
        <time>2013-01-05T10:32:56Z</time>
      </trkpt>
      <trkpt lat="42.92953" lon="0.1206">
        <ele>2342</ele>
        <time>2013-01-05T10:32:59Z</time>
      </trkpt>
      <trkpt lat="42.92952" lon="0.1206">
        <ele>2342</ele>
        <time>2013-01-05T10:33:01Z</time>
      </trkpt>
      <trkpt lat="42.9295" lon="0.12061">
        <ele>2343</ele>
        <time>2013-01-05T10:33:03Z</time>
      </trkpt>
      <trkpt lat="42.92949" lon="0.12062">
        <ele>2343</ele>
        <time>2013-01-05T10:33:06Z</time>
      </trkpt>
      <trkpt lat="42.92948" lon="0.12064">
        <ele>2344</ele>
        <time>2013-01-05T10:33:09Z</time>
      </trkpt>
      <trkpt lat="42.92946" lon="0.12065">
        <ele>2344</ele>
        <time>2013-01-05T10:33:12Z</time>
      </trkpt>
      <trkpt lat="42.92945" lon="0.12066">
        <ele>2344</ele>
        <time>2013-01-05T10:33:15Z</time>
      </trkpt>
      <trkpt lat="42.92944" lon="0.12066">
        <ele>2344</ele>
        <time>2013-01-05T10:33:17Z</time>
      </trkpt>
      <trkpt lat="42.92945" lon="0.12068">
        <ele>2345</ele>
        <time>2013-01-05T10:33:26Z</time>
      </trkpt>
      <trkpt lat="42.92946" lon="0.12068">
        <ele>2345</ele>
        <time>2013-01-05T10:33:28Z</time>
      </trkpt>
      <trkpt lat="42.92947" lon="0.12069">
        <ele>2345</ele>
        <time>2013-01-05T10:33:30Z</time>
      </trkpt>
      <trkpt lat="42.92949" lon="0.1207">
        <ele>2346</ele>
        <time>2013-01-05T10:33:33Z</time>
      </trkpt>
      <trkpt lat="42.9295" lon="0.12071">
        <ele>2347</ele>
        <time>2013-01-05T10:33:36Z</time>
      </trkpt>
      <trkpt lat="42.92952" lon="0.12071">
        <ele>2348</ele>
        <time>2013-01-05T10:33:39Z</time>
      </trkpt>
      <trkpt lat="42.92953" lon="0.12071">
        <ele>2348</ele>
        <time>2013-01-05T10:33:41Z</time>
      </trkpt>
      <trkpt lat="42.92954" lon="0.12072">
        <ele>2348</ele>
        <time>2013-01-05T10:33:43Z</time>
      </trkpt>
      <trkpt lat="42.92955" lon="0.12072">
        <ele>2348</ele>
        <time>2013-01-05T10:33:45Z</time>
      </trkpt>
      <trkpt lat="42.92957" lon="0.12073">
        <ele>2348</ele>
        <time>2013-01-05T10:33:47Z</time>
      </trkpt>
      <trkpt lat="42.92958" lon="0.12073">
        <ele>2349</ele>
        <time>2013-01-05T10:33:49Z</time>
      </trkpt>
      <trkpt lat="42.9296" lon="0.12074">
        <ele>2349</ele>
        <time>2013-01-05T10:33:51Z</time>
      </trkpt>
      <trkpt lat="42.92961" lon="0.12074">
        <ele>2349</ele>
        <time>2013-01-05T10:33:53Z</time>
      </trkpt>
      <trkpt lat="42.92962" lon="0.12075">
        <ele>2349</ele>
        <time>2013-01-05T10:33:56Z</time>
      </trkpt>
      <trkpt lat="42.92963" lon="0.12073">
        <ele>2349</ele>
        <time>2013-01-05T10:34:31Z</time>
      </trkpt>
      <trkpt lat="42.92964" lon="0.12073">
        <ele>2349</ele>
        <time>2013-01-05T10:34:40Z</time>
      </trkpt>
      <trkpt lat="42.92965" lon="0.12074">
        <ele>2349</ele>
        <time>2013-01-05T10:34:43Z</time>
      </trkpt>
      <trkpt lat="42.92967" lon="0.12075">
        <ele>2349</ele>
        <time>2013-01-05T10:34:46Z</time>
      </trkpt>
      <trkpt lat="42.92968" lon="0.12075">
        <ele>2349</ele>
        <time>2013-01-05T10:34:49Z</time>
      </trkpt>
      <trkpt lat="42.9297" lon="0.12076">
        <ele>2349</ele>
        <time>2013-01-05T10:34:52Z</time>
      </trkpt>
      <trkpt lat="42.92971" lon="0.12076">
        <ele>2349</ele>
        <time>2013-01-05T10:34:55Z</time>
      </trkpt>
      <trkpt lat="42.92973" lon="0.12078">
        <ele>2349</ele>
        <time>2013-01-05T10:34:58Z</time>
      </trkpt>
      <trkpt lat="42.92974" lon="0.12079">
        <ele>2349</ele>
        <time>2013-01-05T10:35:00Z</time>
      </trkpt>
      <trkpt lat="42.92975" lon="0.1208">
        <ele>2349</ele>
        <time>2013-01-05T10:35:02Z</time>
      </trkpt>
      <trkpt lat="42.92977" lon="0.1208">
        <ele>2349</ele>
        <time>2013-01-05T10:35:05Z</time>
      </trkpt>
      <trkpt lat="42.92978" lon="0.12081">
        <ele>2349</ele>
        <time>2013-01-05T10:35:07Z</time>
      </trkpt>
      <trkpt lat="42.92979" lon="0.12081">
        <ele>2349</ele>
        <time>2013-01-05T10:35:09Z</time>
      </trkpt>
      <trkpt lat="42.92981" lon="0.1208">
        <ele>2349</ele>
        <time>2013-01-05T10:35:12Z</time>
      </trkpt>
      <trkpt lat="42.92982" lon="0.1208">
        <ele>2349</ele>
        <time>2013-01-05T10:35:14Z</time>
      </trkpt>
      <trkpt lat="42.92983" lon="0.1208">
        <ele>2349</ele>
        <time>2013-01-05T10:35:16Z</time>
      </trkpt>
      <trkpt lat="42.92985" lon="0.1208">
        <ele>2349</ele>
        <time>2013-01-05T10:35:19Z</time>
      </trkpt>
      <trkpt lat="42.92986" lon="0.1208">
        <ele>2349</ele>
        <time>2013-01-05T10:35:21Z</time>
      </trkpt>
      <trkpt lat="42.92987" lon="0.1208">
        <ele>2349</ele>
        <time>2013-01-05T10:35:23Z</time>
      </trkpt>
      <trkpt lat="42.92989" lon="0.12081">
        <ele>2349</ele>
        <time>2013-01-05T10:35:25Z</time>
      </trkpt>
      <trkpt lat="42.9299" lon="0.12081">
        <ele>2350</ele>
        <time>2013-01-05T10:35:28Z</time>
      </trkpt>
      <trkpt lat="42.92992" lon="0.12081">
        <ele>2350</ele>
        <time>2013-01-05T10:35:30Z</time>
      </trkpt>
      <trkpt lat="42.92993" lon="0.12081">
        <ele>2351</ele>
        <time>2013-01-05T10:35:38Z</time>
      </trkpt>
      <trkpt lat="42.92994" lon="0.12081">
        <ele>2351</ele>
        <time>2013-01-05T10:35:45Z</time>
      </trkpt>
      <trkpt lat="42.92995" lon="0.12081">
        <ele>2352</ele>
        <time>2013-01-05T10:35:48Z</time>
      </trkpt>
      <trkpt lat="42.92997" lon="0.12082">
        <ele>2352</ele>
        <time>2013-01-05T10:35:50Z</time>
      </trkpt>
      <trkpt lat="42.92998" lon="0.12082">
        <ele>2352</ele>
        <time>2013-01-05T10:35:52Z</time>
      </trkpt>
      <trkpt lat="42.92999" lon="0.12082">
        <ele>2353</ele>
        <time>2013-01-05T10:35:54Z</time>
      </trkpt>
      <trkpt lat="42.93" lon="0.12082">
        <ele>2353</ele>
        <time>2013-01-05T10:35:56Z</time>
      </trkpt>
      <trkpt lat="42.93002" lon="0.12083">
        <ele>2353</ele>
        <time>2013-01-05T10:35:58Z</time>
      </trkpt>
      <trkpt lat="42.93003" lon="0.12083">
        <ele>2354</ele>
        <time>2013-01-05T10:36:00Z</time>
      </trkpt>
      <trkpt lat="42.93005" lon="0.12083">
        <ele>2354</ele>
        <time>2013-01-05T10:36:02Z</time>
      </trkpt>
      <trkpt lat="42.93006" lon="0.12083">
        <ele>2355</ele>
        <time>2013-01-05T10:36:04Z</time>
      </trkpt>
      <trkpt lat="42.93007" lon="0.12083">
        <ele>2356</ele>
        <time>2013-01-05T10:36:06Z</time>
      </trkpt>
      <trkpt lat="42.93008" lon="0.12083">
        <ele>2356</ele>
        <time>2013-01-05T10:36:08Z</time>
      </trkpt>
      <trkpt lat="42.93009" lon="0.12083">
        <ele>2356</ele>
        <time>2013-01-05T10:36:10Z</time>
      </trkpt>
      <trkpt lat="42.9301" lon="0.12083">
        <ele>2357</ele>
        <time>2013-01-05T10:36:12Z</time>
      </trkpt>
      <trkpt lat="42.93012" lon="0.12083">
        <ele>2357</ele>
        <time>2013-01-05T10:36:14Z</time>
      </trkpt>
      <trkpt lat="42.93013" lon="0.12083">
        <ele>2358</ele>
        <time>2013-01-05T10:36:16Z</time>
      </trkpt>
      <trkpt lat="42.93014" lon="0.12084">
        <ele>2358</ele>
        <time>2013-01-05T10:36:18Z</time>
      </trkpt>
      <trkpt lat="42.93016" lon="0.12084">
        <ele>2359</ele>
        <time>2013-01-05T10:36:21Z</time>
      </trkpt>
      <trkpt lat="42.93015" lon="0.12086">
        <ele>2360</ele>
        <time>2013-01-05T10:36:35Z</time>
      </trkpt>
      <trkpt lat="42.93013" lon="0.12087">
        <ele>2360</ele>
        <time>2013-01-05T10:36:38Z</time>
      </trkpt>
      <trkpt lat="42.93011" lon="0.12089">
        <ele>2360</ele>
        <time>2013-01-05T10:36:41Z</time>
      </trkpt>
      <trkpt lat="42.93009" lon="0.1209">
        <ele>2361</ele>
        <time>2013-01-05T10:36:44Z</time>
      </trkpt>
      <trkpt lat="42.93008" lon="0.12091">
        <ele>2361</ele>
        <time>2013-01-05T10:36:46Z</time>
      </trkpt>
      <trkpt lat="42.93007" lon="0.12093">
        <ele>2362</ele>
        <time>2013-01-05T10:36:49Z</time>
      </trkpt>
      <trkpt lat="42.93005" lon="0.12094">
        <ele>2363</ele>
        <time>2013-01-05T10:36:52Z</time>
      </trkpt>
      <trkpt lat="42.93004" lon="0.12096">
        <ele>2363</ele>
        <time>2013-01-05T10:36:55Z</time>
      </trkpt>
      <trkpt lat="42.93002" lon="0.12098">
        <ele>2363</ele>
        <time>2013-01-05T10:36:58Z</time>
      </trkpt>
      <trkpt lat="42.93002" lon="0.121">
        <ele>2364</ele>
        <time>2013-01-05T10:37:00Z</time>
      </trkpt>
      <trkpt lat="42.93001" lon="0.12101">
        <ele>2365</ele>
        <time>2013-01-05T10:37:03Z</time>
      </trkpt>
      <trkpt lat="42.93" lon="0.12103">
        <ele>2365</ele>
        <time>2013-01-05T10:37:28Z</time>
      </trkpt>
      <trkpt lat="42.93" lon="0.12105">
        <ele>2365</ele>
        <time>2013-01-05T10:37:33Z</time>
      </trkpt>
      <trkpt lat="42.93001" lon="0.12104">
        <ele>2365</ele>
        <time>2013-01-05T10:37:36Z</time>
      </trkpt>
      <trkpt lat="42.93003" lon="0.12104">
        <ele>2365</ele>
        <time>2013-01-05T10:37:38Z</time>
      </trkpt>
      <trkpt lat="42.93004" lon="0.12104">
        <ele>2365</ele>
        <time>2013-01-05T10:37:40Z</time>
      </trkpt>
      <trkpt lat="42.93005" lon="0.12104">
        <ele>2366</ele>
        <time>2013-01-05T10:37:49Z</time>
      </trkpt>
      <trkpt lat="42.93007" lon="0.12104">
        <ele>2366</ele>
        <time>2013-01-05T10:37:51Z</time>
      </trkpt>
      <trkpt lat="42.93008" lon="0.12104">
        <ele>2367</ele>
        <time>2013-01-05T10:37:53Z</time>
      </trkpt>
      <trkpt lat="42.9301" lon="0.12104">
        <ele>2367</ele>
        <time>2013-01-05T10:37:55Z</time>
      </trkpt>
      <trkpt lat="42.93011" lon="0.12104">
        <ele>2368</ele>
        <time>2013-01-05T10:37:57Z</time>
      </trkpt>
      <trkpt lat="42.93012" lon="0.12104">
        <ele>2368</ele>
        <time>2013-01-05T10:37:59Z</time>
      </trkpt>
      <trkpt lat="42.93013" lon="0.12104">
        <ele>2368</ele>
        <time>2013-01-05T10:38:01Z</time>
      </trkpt>
      <trkpt lat="42.93015" lon="0.12104">
        <ele>2368</ele>
        <time>2013-01-05T10:38:03Z</time>
      </trkpt>
      <trkpt lat="42.93016" lon="0.12104">
        <ele>2369</ele>
        <time>2013-01-05T10:38:05Z</time>
      </trkpt>
      <trkpt lat="42.93018" lon="0.12104">
        <ele>2369</ele>
        <time>2013-01-05T10:38:07Z</time>
      </trkpt>
      <trkpt lat="42.93019" lon="0.12104">
        <ele>2369</ele>
        <time>2013-01-05T10:38:09Z</time>
      </trkpt>
      <trkpt lat="42.93021" lon="0.12105">
        <ele>2369</ele>
        <time>2013-01-05T10:38:11Z</time>
      </trkpt>
      <trkpt lat="42.93022" lon="0.12105">
        <ele>2369</ele>
        <time>2013-01-05T10:38:13Z</time>
      </trkpt>
      <trkpt lat="42.93024" lon="0.12104">
        <ele>2370</ele>
        <time>2013-01-05T10:38:15Z</time>
      </trkpt>
      <trkpt lat="42.93025" lon="0.12105">
        <ele>2370</ele>
        <time>2013-01-05T10:38:17Z</time>
      </trkpt>
      <trkpt lat="42.93027" lon="0.12105">
        <ele>2370</ele>
        <time>2013-01-05T10:38:19Z</time>
      </trkpt>
      <trkpt lat="42.93028" lon="0.12105">
        <ele>2370</ele>
        <time>2013-01-05T10:38:21Z</time>
      </trkpt>
      <trkpt lat="42.93026" lon="0.12106">
        <ele>2371</ele>
        <time>2013-01-05T10:38:44Z</time>
      </trkpt>
      <trkpt lat="42.93026" lon="0.12108">
        <ele>2371</ele>
        <time>2013-01-05T10:38:46Z</time>
      </trkpt>
      <trkpt lat="42.93024" lon="0.1211">
        <ele>2371</ele>
        <time>2013-01-05T10:38:49Z</time>
      </trkpt>
      <trkpt lat="42.93023" lon="0.12111">
        <ele>2371</ele>
        <time>2013-01-05T10:38:51Z</time>
      </trkpt>
      <trkpt lat="42.93021" lon="0.12112">
        <ele>2371</ele>
        <time>2013-01-05T10:38:54Z</time>
      </trkpt>
      <trkpt lat="42.9302" lon="0.12113">
        <ele>2371</ele>
        <time>2013-01-05T10:38:56Z</time>
      </trkpt>
      <trkpt lat="42.93019" lon="0.12115">
        <ele>2371</ele>
        <time>2013-01-05T10:38:59Z</time>
      </trkpt>
      <trkpt lat="42.93017" lon="0.12117">
        <ele>2372</ele>
        <time>2013-01-05T10:39:02Z</time>
      </trkpt>
      <trkpt lat="42.93016" lon="0.12119">
        <ele>2373</ele>
        <time>2013-01-05T10:39:05Z</time>
      </trkpt>
      <trkpt lat="42.93015" lon="0.12121">
        <ele>2373</ele>
        <time>2013-01-05T10:39:08Z</time>
      </trkpt>
      <trkpt lat="42.93013" lon="0.12122">
        <ele>2374</ele>
        <time>2013-01-05T10:39:10Z</time>
      </trkpt>
      <trkpt lat="42.93013" lon="0.12123">
        <ele>2374</ele>
        <time>2013-01-05T10:39:12Z</time>
      </trkpt>
      <trkpt lat="42.93012" lon="0.12125">
        <ele>2374</ele>
        <time>2013-01-05T10:39:14Z</time>
      </trkpt>
      <trkpt lat="42.93011" lon="0.12127">
        <ele>2374</ele>
        <time>2013-01-05T10:39:17Z</time>
      </trkpt>
      <trkpt lat="42.9301" lon="0.12129">
        <ele>2375</ele>
        <time>2013-01-05T10:39:26Z</time>
      </trkpt>
      <trkpt lat="42.93009" lon="0.12131">
        <ele>2375</ele>
        <time>2013-01-05T10:39:28Z</time>
      </trkpt>
      <trkpt lat="42.93009" lon="0.12132">
        <ele>2375</ele>
        <time>2013-01-05T10:39:30Z</time>
      </trkpt>
      <trkpt lat="42.93008" lon="0.12134">
        <ele>2375</ele>
        <time>2013-01-05T10:39:32Z</time>
      </trkpt>
      <trkpt lat="42.93007" lon="0.12135">
        <ele>2375</ele>
        <time>2013-01-05T10:39:35Z</time>
      </trkpt>
      <trkpt lat="42.93006" lon="0.12137">
        <ele>2375</ele>
        <time>2013-01-05T10:39:37Z</time>
      </trkpt>
      <trkpt lat="42.93005" lon="0.12138">
        <ele>2376</ele>
        <time>2013-01-05T10:39:39Z</time>
      </trkpt>
      <trkpt lat="42.93004" lon="0.1214">
        <ele>2376</ele>
        <time>2013-01-05T10:39:41Z</time>
      </trkpt>
      <trkpt lat="42.93003" lon="0.12141">
        <ele>2377</ele>
        <time>2013-01-05T10:39:44Z</time>
      </trkpt>
      <trkpt lat="42.93002" lon="0.12144">
        <ele>2378</ele>
        <time>2013-01-05T10:39:47Z</time>
      </trkpt>
      <trkpt lat="42.93" lon="0.12145">
        <ele>2379</ele>
        <time>2013-01-05T10:39:50Z</time>
      </trkpt>
      <trkpt lat="42.92998" lon="0.12147">
        <ele>2379</ele>
        <time>2013-01-05T10:39:53Z</time>
      </trkpt>
      <trkpt lat="42.92997" lon="0.12148">
        <ele>2379</ele>
        <time>2013-01-05T10:39:56Z</time>
      </trkpt>
      <trkpt lat="42.92996" lon="0.1215">
        <ele>2380</ele>
        <time>2013-01-05T10:39:59Z</time>
      </trkpt>
      <trkpt lat="42.92994" lon="0.12151">
        <ele>2380</ele>
        <time>2013-01-05T10:40:02Z</time>
      </trkpt>
      <trkpt lat="42.92993" lon="0.12152">
        <ele>2380</ele>
        <time>2013-01-05T10:40:05Z</time>
      </trkpt>
      <trkpt lat="42.92992" lon="0.12152">
        <ele>2381</ele>
        <time>2013-01-05T10:40:08Z</time>
      </trkpt>
      <trkpt lat="42.92993" lon="0.12153">
        <ele>2382</ele>
        <time>2013-01-05T10:40:29Z</time>
      </trkpt>
      <trkpt lat="42.92994" lon="0.12154">
        <ele>2382</ele>
        <time>2013-01-05T10:40:31Z</time>
      </trkpt>
      <trkpt lat="42.92995" lon="0.12154">
        <ele>2383</ele>
        <time>2013-01-05T10:40:33Z</time>
      </trkpt>
      <trkpt lat="42.92997" lon="0.12155">
        <ele>2383</ele>
        <time>2013-01-05T10:40:36Z</time>
      </trkpt>
      <trkpt lat="42.92998" lon="0.12155">
        <ele>2383</ele>
        <time>2013-01-05T10:40:38Z</time>
      </trkpt>
      <trkpt lat="42.92999" lon="0.12155">
        <ele>2384</ele>
        <time>2013-01-05T10:40:40Z</time>
      </trkpt>
      <trkpt lat="42.93" lon="0.12155">
        <ele>2384</ele>
        <time>2013-01-05T10:40:42Z</time>
      </trkpt>
      <trkpt lat="42.93002" lon="0.12155">
        <ele>2384</ele>
        <time>2013-01-05T10:40:44Z</time>
      </trkpt>
      <trkpt lat="42.93003" lon="0.12156">
        <ele>2385</ele>
        <time>2013-01-05T10:40:46Z</time>
      </trkpt>
      <trkpt lat="42.93004" lon="0.12156">
        <ele>2386</ele>
        <time>2013-01-05T10:40:54Z</time>
      </trkpt>
      <trkpt lat="42.93005" lon="0.12156">
        <ele>2386</ele>
        <time>2013-01-05T10:40:56Z</time>
      </trkpt>
      <trkpt lat="42.93007" lon="0.12156">
        <ele>2386</ele>
        <time>2013-01-05T10:40:58Z</time>
      </trkpt>
      <trkpt lat="42.93008" lon="0.12156">
        <ele>2386</ele>
        <time>2013-01-05T10:41:00Z</time>
      </trkpt>
      <trkpt lat="42.93009" lon="0.12156">
        <ele>2387</ele>
        <time>2013-01-05T10:41:02Z</time>
      </trkpt>
      <trkpt lat="42.93011" lon="0.12156">
        <ele>2387</ele>
        <time>2013-01-05T10:41:05Z</time>
      </trkpt>
      <trkpt lat="42.93013" lon="0.12156">
        <ele>2389</ele>
        <time>2013-01-05T10:41:08Z</time>
      </trkpt>
      <trkpt lat="42.93014" lon="0.12156">
        <ele>2389</ele>
        <time>2013-01-05T10:41:11Z</time>
      </trkpt>
      <trkpt lat="42.93015" lon="0.12156">
        <ele>2390</ele>
        <time>2013-01-05T10:41:13Z</time>
      </trkpt>
      <trkpt lat="42.93016" lon="0.12156">
        <ele>2390</ele>
        <time>2013-01-05T10:41:15Z</time>
      </trkpt>
      <trkpt lat="42.93018" lon="0.12156">
        <ele>2391</ele>
        <time>2013-01-05T10:41:17Z</time>
      </trkpt>
      <trkpt lat="42.93019" lon="0.12156">
        <ele>2391</ele>
        <time>2013-01-05T10:41:19Z</time>
      </trkpt>
      <trkpt lat="42.9302" lon="0.12155">
        <ele>2392</ele>
        <time>2013-01-05T10:41:21Z</time>
      </trkpt>
      <trkpt lat="42.93021" lon="0.12155">
        <ele>2392</ele>
        <time>2013-01-05T10:41:23Z</time>
      </trkpt>
      <trkpt lat="42.93023" lon="0.12154">
        <ele>2393</ele>
        <time>2013-01-05T10:41:26Z</time>
      </trkpt>
      <trkpt lat="42.93024" lon="0.12154">
        <ele>2393</ele>
        <time>2013-01-05T10:41:29Z</time>
      </trkpt>
      <trkpt lat="42.93026" lon="0.12154">
        <ele>2394</ele>
        <time>2013-01-05T10:41:32Z</time>
      </trkpt>
      <trkpt lat="42.93024" lon="0.12155">
        <ele>2394</ele>
        <time>2013-01-05T10:41:43Z</time>
      </trkpt>
      <trkpt lat="42.93023" lon="0.12157">
        <ele>2394</ele>
        <time>2013-01-05T10:41:46Z</time>
      </trkpt>
      <trkpt lat="42.93023" lon="0.12158">
        <ele>2394</ele>
        <time>2013-01-05T10:41:55Z</time>
      </trkpt>
      <trkpt lat="42.93022" lon="0.1216">
        <ele>2394</ele>
        <time>2013-01-05T10:41:57Z</time>
      </trkpt>
      <trkpt lat="42.93021" lon="0.12162">
        <ele>2394</ele>
        <time>2013-01-05T10:42:00Z</time>
      </trkpt>
      <trkpt lat="42.9302" lon="0.12164">
        <ele>2394</ele>
        <time>2013-01-05T10:42:03Z</time>
      </trkpt>
      <trkpt lat="42.93019" lon="0.12165">
        <ele>2394</ele>
        <time>2013-01-05T10:42:09Z</time>
      </trkpt>
      <trkpt lat="42.93018" lon="0.12167">
        <ele>2394</ele>
        <time>2013-01-05T10:42:12Z</time>
      </trkpt>
      <trkpt lat="42.93017" lon="0.12169">
        <ele>2395</ele>
        <time>2013-01-05T10:42:15Z</time>
      </trkpt>
      <trkpt lat="42.93017" lon="0.1217">
        <ele>2395</ele>
        <time>2013-01-05T10:42:17Z</time>
      </trkpt>
      <trkpt lat="42.93016" lon="0.12172">
        <ele>2395</ele>
        <time>2013-01-05T10:42:21Z</time>
      </trkpt>
      <trkpt lat="42.93014" lon="0.12174">
        <ele>2396</ele>
        <time>2013-01-05T10:42:24Z</time>
      </trkpt>
      <trkpt lat="42.93013" lon="0.12175">
        <ele>2396</ele>
        <time>2013-01-05T10:42:26Z</time>
      </trkpt>
      <trkpt lat="42.93012" lon="0.12177">
        <ele>2397</ele>
        <time>2013-01-05T10:42:29Z</time>
      </trkpt>
      <trkpt lat="42.9301" lon="0.12178">
        <ele>2398</ele>
        <time>2013-01-05T10:42:31Z</time>
      </trkpt>
      <trkpt lat="42.9301" lon="0.12179">
        <ele>2398</ele>
        <time>2013-01-05T10:42:34Z</time>
      </trkpt>
      <trkpt lat="42.93008" lon="0.12181">
        <ele>2398</ele>
        <time>2013-01-05T10:42:37Z</time>
      </trkpt>
      <trkpt lat="42.93007" lon="0.12182">
        <ele>2398</ele>
        <time>2013-01-05T10:42:40Z</time>
      </trkpt>
      <trkpt lat="42.93005" lon="0.12183">
        <ele>2398</ele>
        <time>2013-01-05T10:42:43Z</time>
      </trkpt>
      <trkpt lat="42.93004" lon="0.12184">
        <ele>2398</ele>
        <time>2013-01-05T10:42:46Z</time>
      </trkpt>
      <trkpt lat="42.93005" lon="0.12184">
        <ele>2398</ele>
        <time>2013-01-05T10:43:21Z</time>
      </trkpt>
      <trkpt lat="42.93007" lon="0.12184">
        <ele>2398</ele>
        <time>2013-01-05T10:43:26Z</time>
      </trkpt>
      <trkpt lat="42.93008" lon="0.12185">
        <ele>2398</ele>
        <time>2013-01-05T10:43:28Z</time>
      </trkpt>
      <trkpt lat="42.93009" lon="0.12185">
        <ele>2398</ele>
        <time>2013-01-05T10:43:30Z</time>
      </trkpt>
      <trkpt lat="42.9301" lon="0.12186">
        <ele>2398</ele>
        <time>2013-01-05T10:43:33Z</time>
      </trkpt>
      <trkpt lat="42.93012" lon="0.12187">
        <ele>2399</ele>
        <time>2013-01-05T10:43:34Z</time>
      </trkpt>
      <trkpt lat="42.93013" lon="0.12187">
        <ele>2399</ele>
        <time>2013-01-05T10:43:36Z</time>
      </trkpt>
      <trkpt lat="42.93015" lon="0.12188">
        <ele>2400</ele>
        <time>2013-01-05T10:43:38Z</time>
      </trkpt>
      <trkpt lat="42.93016" lon="0.12188">
        <ele>2400</ele>
        <time>2013-01-05T10:43:40Z</time>
      </trkpt>
      <trkpt lat="42.93017" lon="0.12188">
        <ele>2400</ele>
        <time>2013-01-05T10:43:42Z</time>
      </trkpt>
      <trkpt lat="42.93018" lon="0.12189">
        <ele>2401</ele>
        <time>2013-01-05T10:43:44Z</time>
      </trkpt>
      <trkpt lat="42.93019" lon="0.12189">
        <ele>2401</ele>
        <time>2013-01-05T10:43:46Z</time>
      </trkpt>
      <trkpt lat="42.93021" lon="0.12189">
        <ele>2401</ele>
        <time>2013-01-05T10:43:48Z</time>
      </trkpt>
      <trkpt lat="42.93022" lon="0.12189">
        <ele>2402</ele>
        <time>2013-01-05T10:43:50Z</time>
      </trkpt>
      <trkpt lat="42.93023" lon="0.12189">
        <ele>2402</ele>
        <time>2013-01-05T10:43:52Z</time>
      </trkpt>
      <trkpt lat="42.93024" lon="0.12189">
        <ele>2402</ele>
        <time>2013-01-05T10:43:54Z</time>
      </trkpt>
      <trkpt lat="42.93026" lon="0.12189">
        <ele>2403</ele>
        <time>2013-01-05T10:43:56Z</time>
      </trkpt>
      <trkpt lat="42.93027" lon="0.12189">
        <ele>2403</ele>
        <time>2013-01-05T10:43:58Z</time>
      </trkpt>
      <trkpt lat="42.93027" lon="0.1219">
        <ele>2405</ele>
        <time>2013-01-05T10:44:09Z</time>
      </trkpt>
      <trkpt lat="42.93026" lon="0.12192">
        <ele>2405</ele>
        <time>2013-01-05T10:44:12Z</time>
      </trkpt>
      <trkpt lat="42.93025" lon="0.12194">
        <ele>2405</ele>
        <time>2013-01-05T10:44:15Z</time>
      </trkpt>
      <trkpt lat="42.93025" lon="0.12196">
        <ele>2406</ele>
        <time>2013-01-05T10:44:18Z</time>
      </trkpt>
      <trkpt lat="42.93024" lon="0.12197">
        <ele>2407</ele>
        <time>2013-01-05T10:44:20Z</time>
      </trkpt>
      <trkpt lat="42.93022" lon="0.122">
        <ele>2408</ele>
        <time>2013-01-05T10:44:24Z</time>
      </trkpt>
      <trkpt lat="42.93021" lon="0.12201">
        <ele>2409</ele>
        <time>2013-01-05T10:44:27Z</time>
      </trkpt>
      <trkpt lat="42.9302" lon="0.12203">
        <ele>2410</ele>
        <time>2013-01-05T10:44:30Z</time>
      </trkpt>
      <trkpt lat="42.93021" lon="0.12204">
        <ele>2410</ele>
        <time>2013-01-05T10:44:41Z</time>
      </trkpt>
      <trkpt lat="42.9302" lon="0.12205">
        <ele>2410</ele>
        <time>2013-01-05T10:44:53Z</time>
      </trkpt>
      <trkpt lat="42.93018" lon="0.12206">
        <ele>2410</ele>
        <time>2013-01-05T10:44:56Z</time>
      </trkpt>
      <trkpt lat="42.93017" lon="0.12207">
        <ele>2411</ele>
        <time>2013-01-05T10:44:59Z</time>
      </trkpt>
      <trkpt lat="42.93016" lon="0.12207">
        <ele>2412</ele>
        <time>2013-01-05T10:45:02Z</time>
      </trkpt>
      <trkpt lat="42.93014" lon="0.12208">
        <ele>2412</ele>
        <time>2013-01-05T10:45:04Z</time>
      </trkpt>
      <trkpt lat="42.93013" lon="0.12209">
        <ele>2412</ele>
        <time>2013-01-05T10:45:07Z</time>
      </trkpt>
      <trkpt lat="42.93012" lon="0.12209">
        <ele>2412</ele>
        <time>2013-01-05T10:45:09Z</time>
      </trkpt>
      <trkpt lat="42.93013" lon="0.12211">
        <ele>2413</ele>
        <time>2013-01-05T10:45:21Z</time>
      </trkpt>
      <trkpt lat="42.93014" lon="0.12212">
        <ele>2413</ele>
        <time>2013-01-05T10:45:25Z</time>
      </trkpt>
      <trkpt lat="42.93016" lon="0.12213">
        <ele>2413</ele>
        <time>2013-01-05T10:45:27Z</time>
      </trkpt>
      <trkpt lat="42.93017" lon="0.12214">
        <ele>2413</ele>
        <time>2013-01-05T10:45:30Z</time>
      </trkpt>
      <trkpt lat="42.93018" lon="0.12215">
        <ele>2414</ele>
        <time>2013-01-05T10:45:32Z</time>
      </trkpt>
      <trkpt lat="42.93019" lon="0.12215">
        <ele>2414</ele>
        <time>2013-01-05T10:45:34Z</time>
      </trkpt>
      <trkpt lat="42.93021" lon="0.12216">
        <ele>2415</ele>
        <time>2013-01-05T10:45:36Z</time>
      </trkpt>
      <trkpt lat="42.93022" lon="0.12217">
        <ele>2415</ele>
        <time>2013-01-05T10:45:38Z</time>
      </trkpt>
      <trkpt lat="42.93023" lon="0.12217">
        <ele>2415</ele>
        <time>2013-01-05T10:45:40Z</time>
      </trkpt>
      <trkpt lat="42.93025" lon="0.12218">
        <ele>2417</ele>
        <time>2013-01-05T10:45:44Z</time>
      </trkpt>
      <trkpt lat="42.93026" lon="0.12219">
        <ele>2418</ele>
        <time>2013-01-05T10:45:48Z</time>
      </trkpt>
      <trkpt lat="42.93027" lon="0.12218">
        <ele>2419</ele>
        <time>2013-01-05T10:46:17Z</time>
      </trkpt>
      <trkpt lat="42.93029" lon="0.12218">
        <ele>2419</ele>
        <time>2013-01-05T10:46:20Z</time>
      </trkpt>
      <trkpt lat="42.9303" lon="0.12218">
        <ele>2419</ele>
        <time>2013-01-05T10:46:23Z</time>
      </trkpt>
      <trkpt lat="42.93031" lon="0.12219">
        <ele>2419</ele>
        <time>2013-01-05T10:46:26Z</time>
      </trkpt>
      <trkpt lat="42.93033" lon="0.12219">
        <ele>2419</ele>
        <time>2013-01-05T10:46:29Z</time>
      </trkpt>
      <trkpt lat="42.93034" lon="0.12219">
        <ele>2419</ele>
        <time>2013-01-05T10:46:39Z</time>
      </trkpt>
      <trkpt lat="42.93036" lon="0.12219">
        <ele>2420</ele>
        <time>2013-01-05T10:46:42Z</time>
      </trkpt>
      <trkpt lat="42.93037" lon="0.1222">
        <ele>2421</ele>
        <time>2013-01-05T10:46:45Z</time>
      </trkpt>
      <trkpt lat="42.93036" lon="0.12221">
        <ele>2424</ele>
        <time>2013-01-05T10:46:52Z</time>
      </trkpt>
      <trkpt lat="42.93036" lon="0.12223">
        <ele>2424</ele>
        <time>2013-01-05T10:46:54Z</time>
      </trkpt>
      <trkpt lat="42.93035" lon="0.12224">
        <ele>2424</ele>
        <time>2013-01-05T10:46:56Z</time>
      </trkpt>
      <trkpt lat="42.93034" lon="0.12226">
        <ele>2424</ele>
        <time>2013-01-05T10:46:59Z</time>
      </trkpt>
      <trkpt lat="42.93034" lon="0.12228">
        <ele>2424</ele>
        <time>2013-01-05T10:47:02Z</time>
      </trkpt>
      <trkpt lat="42.93033" lon="0.12229">
        <ele>2424</ele>
        <time>2013-01-05T10:47:05Z</time>
      </trkpt>
      <trkpt lat="42.93031" lon="0.12231">
        <ele>2424</ele>
        <time>2013-01-05T10:47:09Z</time>
      </trkpt>
      <trkpt lat="42.9303" lon="0.12233">
        <ele>2424</ele>
        <time>2013-01-05T10:47:12Z</time>
      </trkpt>
      <trkpt lat="42.93029" lon="0.12234">
        <ele>2424</ele>
        <time>2013-01-05T10:47:15Z</time>
      </trkpt>
      <trkpt lat="42.93027" lon="0.12236">
        <ele>2424</ele>
        <time>2013-01-05T10:47:19Z</time>
      </trkpt>
      <trkpt lat="42.93029" lon="0.12237">
        <ele>2424</ele>
        <time>2013-01-05T10:47:34Z</time>
      </trkpt>
      <trkpt lat="42.9303" lon="0.12237">
        <ele>2425</ele>
        <time>2013-01-05T10:47:36Z</time>
      </trkpt>
      <trkpt lat="42.93031" lon="0.12238">
        <ele>2425</ele>
        <time>2013-01-05T10:47:38Z</time>
      </trkpt>
      <trkpt lat="42.93033" lon="0.12238">
        <ele>2425</ele>
        <time>2013-01-05T10:47:40Z</time>
      </trkpt>
      <trkpt lat="42.93034" lon="0.12238">
        <ele>2425</ele>
        <time>2013-01-05T10:47:42Z</time>
      </trkpt>
      <trkpt lat="42.93035" lon="0.12239">
        <ele>2425</ele>
        <time>2013-01-05T10:47:44Z</time>
      </trkpt>
      <trkpt lat="42.93037" lon="0.12239">
        <ele>2425</ele>
        <time>2013-01-05T10:47:46Z</time>
      </trkpt>
      <trkpt lat="42.93038" lon="0.12239">
        <ele>2425</ele>
        <time>2013-01-05T10:47:48Z</time>
      </trkpt>
      <trkpt lat="42.93039" lon="0.12239">
        <ele>2425</ele>
        <time>2013-01-05T10:47:50Z</time>
      </trkpt>
      <trkpt lat="42.93041" lon="0.12239">
        <ele>2426</ele>
        <time>2013-01-05T10:47:52Z</time>
      </trkpt>
      <trkpt lat="42.93042" lon="0.12239">
        <ele>2426</ele>
        <time>2013-01-05T10:47:54Z</time>
      </trkpt>
      <trkpt lat="42.93043" lon="0.12239">
        <ele>2426</ele>
        <time>2013-01-05T10:47:56Z</time>
      </trkpt>
      <trkpt lat="42.93045" lon="0.12239">
        <ele>2426</ele>
        <time>2013-01-05T10:47:58Z</time>
      </trkpt>
      <trkpt lat="42.93046" lon="0.12238">
        <ele>2427</ele>
        <time>2013-01-05T10:48:00Z</time>
      </trkpt>
      <trkpt lat="42.93047" lon="0.12238">
        <ele>2427</ele>
        <time>2013-01-05T10:48:02Z</time>
      </trkpt>
      <trkpt lat="42.93049" lon="0.12238">
        <ele>2427</ele>
        <time>2013-01-05T10:48:04Z</time>
      </trkpt>
      <trkpt lat="42.9305" lon="0.12238">
        <ele>2427</ele>
        <time>2013-01-05T10:48:06Z</time>
      </trkpt>
      <trkpt lat="42.93052" lon="0.12237">
        <ele>2427</ele>
        <time>2013-01-05T10:48:09Z</time>
      </trkpt>
      <trkpt lat="42.93053" lon="0.12237">
        <ele>2429</ele>
        <time>2013-01-05T10:48:38Z</time>
      </trkpt>
      <trkpt lat="42.93054" lon="0.12237">
        <ele>2429</ele>
        <time>2013-01-05T10:48:40Z</time>
      </trkpt>
      <trkpt lat="42.93055" lon="0.12237">
        <ele>2429</ele>
        <time>2013-01-05T10:48:42Z</time>
      </trkpt>
      <trkpt lat="42.93056" lon="0.12236">
        <ele>2429</ele>
        <time>2013-01-05T10:48:45Z</time>
      </trkpt>
      <trkpt lat="42.93055" lon="0.12238">
        <ele>2430</ele>
        <time>2013-01-05T10:48:58Z</time>
      </trkpt>
      <trkpt lat="42.93054" lon="0.12239">
        <ele>2430</ele>
        <time>2013-01-05T10:49:01Z</time>
      </trkpt>
      <trkpt lat="42.93053" lon="0.12241">
        <ele>2430</ele>
        <time>2013-01-05T10:49:03Z</time>
      </trkpt>
      <trkpt lat="42.93052" lon="0.12242">
        <ele>2430</ele>
        <time>2013-01-05T10:49:06Z</time>
      </trkpt>
      <trkpt lat="42.93051" lon="0.12244">
        <ele>2430</ele>
        <time>2013-01-05T10:49:09Z</time>
      </trkpt>
      <trkpt lat="42.9305" lon="0.12246">
        <ele>2430</ele>
        <time>2013-01-05T10:49:12Z</time>
      </trkpt>
      <trkpt lat="42.93048" lon="0.12247">
        <ele>2430</ele>
        <time>2013-01-05T10:49:14Z</time>
      </trkpt>
      <trkpt lat="42.93047" lon="0.12248">
        <ele>2431</ele>
        <time>2013-01-05T10:49:17Z</time>
      </trkpt>
      <trkpt lat="42.93045" lon="0.1225">
        <ele>2431</ele>
        <time>2013-01-05T10:49:20Z</time>
      </trkpt>
      <trkpt lat="42.93044" lon="0.12251">
        <ele>2432</ele>
        <time>2013-01-05T10:49:23Z</time>
      </trkpt>
      <trkpt lat="42.93042" lon="0.12252">
        <ele>2433</ele>
        <time>2013-01-05T10:49:26Z</time>
      </trkpt>
      <trkpt lat="42.93041" lon="0.12254">
        <ele>2433</ele>
        <time>2013-01-05T10:49:29Z</time>
      </trkpt>
      <trkpt lat="42.93039" lon="0.12256">
        <ele>2434</ele>
        <time>2013-01-05T10:49:32Z</time>
      </trkpt>
      <trkpt lat="42.93038" lon="0.12257">
        <ele>2434</ele>
        <time>2013-01-05T10:49:35Z</time>
      </trkpt>
      <trkpt lat="42.93037" lon="0.12257">
        <ele>2434</ele>
        <time>2013-01-05T10:49:37Z</time>
      </trkpt>
      <trkpt lat="42.93035" lon="0.12258">
        <ele>2434</ele>
        <time>2013-01-05T10:49:40Z</time>
      </trkpt>
      <trkpt lat="42.93035" lon="0.1226">
        <ele>2434</ele>
        <time>2013-01-05T10:49:59Z</time>
      </trkpt>
      <trkpt lat="42.93037" lon="0.1226">
        <ele>2434</ele>
        <time>2013-01-05T10:50:02Z</time>
      </trkpt>
      <trkpt lat="42.93038" lon="0.1226">
        <ele>2434</ele>
        <time>2013-01-05T10:50:05Z</time>
      </trkpt>
      <trkpt lat="42.9304" lon="0.12261">
        <ele>2435</ele>
        <time>2013-01-05T10:50:08Z</time>
      </trkpt>
      <trkpt lat="42.93041" lon="0.12261">
        <ele>2435</ele>
        <time>2013-01-05T10:50:10Z</time>
      </trkpt>
      <trkpt lat="42.93042" lon="0.12262">
        <ele>2435</ele>
        <time>2013-01-05T10:50:12Z</time>
      </trkpt>
      <trkpt lat="42.93043" lon="0.12262">
        <ele>2436</ele>
        <time>2013-01-05T10:50:14Z</time>
      </trkpt>
      <trkpt lat="42.93045" lon="0.12262">
        <ele>2436</ele>
        <time>2013-01-05T10:50:17Z</time>
      </trkpt>
      <trkpt lat="42.93046" lon="0.12262">
        <ele>2437</ele>
        <time>2013-01-05T10:50:19Z</time>
      </trkpt>
      <trkpt lat="42.93047" lon="0.12262">
        <ele>2437</ele>
        <time>2013-01-05T10:50:21Z</time>
      </trkpt>
      <trkpt lat="42.93048" lon="0.12263">
        <ele>2437</ele>
        <time>2013-01-05T10:50:23Z</time>
      </trkpt>
      <trkpt lat="42.9305" lon="0.12263">
        <ele>2438</ele>
        <time>2013-01-05T10:50:26Z</time>
      </trkpt>
      <trkpt lat="42.93052" lon="0.12263">
        <ele>2438</ele>
        <time>2013-01-05T10:50:29Z</time>
      </trkpt>
      <trkpt lat="42.93053" lon="0.12263">
        <ele>2439</ele>
        <time>2013-01-05T10:50:31Z</time>
      </trkpt>
      <trkpt lat="42.93054" lon="0.12263">
        <ele>2441</ele>
        <time>2013-01-05T10:51:15Z</time>
      </trkpt>
      <trkpt lat="42.93055" lon="0.12263">
        <ele>2441</ele>
        <time>2013-01-05T10:51:18Z</time>
      </trkpt>
      <trkpt lat="42.93057" lon="0.12263">
        <ele>2441</ele>
        <time>2013-01-05T10:51:21Z</time>
      </trkpt>
      <trkpt lat="42.93058" lon="0.12263">
        <ele>2441</ele>
        <time>2013-01-05T10:51:25Z</time>
      </trkpt>
      <trkpt lat="42.9306" lon="0.12262">
        <ele>2441</ele>
        <time>2013-01-05T10:51:27Z</time>
      </trkpt>
      <trkpt lat="42.93061" lon="0.12262">
        <ele>2441</ele>
        <time>2013-01-05T10:51:29Z</time>
      </trkpt>
      <trkpt lat="42.93062" lon="0.12262">
        <ele>2441</ele>
        <time>2013-01-05T10:51:31Z</time>
      </trkpt>
      <trkpt lat="42.93064" lon="0.12262">
        <ele>2442</ele>
        <time>2013-01-05T10:51:33Z</time>
      </trkpt>
      <trkpt lat="42.93065" lon="0.12262">
        <ele>2442</ele>
        <time>2013-01-05T10:51:35Z</time>
      </trkpt>
      <trkpt lat="42.93066" lon="0.12261">
        <ele>2442</ele>
        <time>2013-01-05T10:51:53Z</time>
      </trkpt>
      <trkpt lat="42.93068" lon="0.1226">
        <ele>2442</ele>
        <time>2013-01-05T10:51:55Z</time>
      </trkpt>
      <trkpt lat="42.93069" lon="0.1226">
        <ele>2442</ele>
        <time>2013-01-05T10:51:57Z</time>
      </trkpt>
      <trkpt lat="42.9307" lon="0.12259">
        <ele>2442</ele>
        <time>2013-01-05T10:51:59Z</time>
      </trkpt>
      <trkpt lat="42.93071" lon="0.12259">
        <ele>2442</ele>
        <time>2013-01-05T10:52:01Z</time>
      </trkpt>
      <trkpt lat="42.93073" lon="0.12258">
        <ele>2443</ele>
        <time>2013-01-05T10:52:03Z</time>
      </trkpt>
      <trkpt lat="42.93074" lon="0.12258">
        <ele>2443</ele>
        <time>2013-01-05T10:52:05Z</time>
      </trkpt>
      <trkpt lat="42.93076" lon="0.12257">
        <ele>2443</ele>
        <time>2013-01-05T10:52:08Z</time>
      </trkpt>
      <trkpt lat="42.93077" lon="0.12256">
        <ele>2444</ele>
        <time>2013-01-05T10:52:11Z</time>
      </trkpt>
      <trkpt lat="42.93076" lon="0.12256">
        <ele>2445</ele>
        <time>2013-01-05T10:52:22Z</time>
      </trkpt>
      <trkpt lat="42.93075" lon="0.12258">
        <ele>2445</ele>
        <time>2013-01-05T10:52:24Z</time>
      </trkpt>
      <trkpt lat="42.93075" lon="0.12259">
        <ele>2446</ele>
        <time>2013-01-05T10:52:30Z</time>
      </trkpt>
      <trkpt lat="42.93074" lon="0.12261">
        <ele>2446</ele>
        <time>2013-01-05T10:52:33Z</time>
      </trkpt>
      <trkpt lat="42.93073" lon="0.12263">
        <ele>2446</ele>
        <time>2013-01-05T10:52:35Z</time>
      </trkpt>
      <trkpt lat="42.93073" lon="0.12264">
        <ele>2446</ele>
        <time>2013-01-05T10:52:37Z</time>
      </trkpt>
      <trkpt lat="42.93072" lon="0.12266">
        <ele>2446</ele>
        <time>2013-01-05T10:52:40Z</time>
      </trkpt>
      <trkpt lat="42.9307" lon="0.12268">
        <ele>2446</ele>
        <time>2013-01-05T10:52:43Z</time>
      </trkpt>
      <trkpt lat="42.93069" lon="0.1227">
        <ele>2446</ele>
        <time>2013-01-05T10:52:46Z</time>
      </trkpt>
      <trkpt lat="42.93068" lon="0.12272">
        <ele>2447</ele>
        <time>2013-01-05T10:52:49Z</time>
      </trkpt>
      <trkpt lat="42.93066" lon="0.12274">
        <ele>2447</ele>
        <time>2013-01-05T10:52:52Z</time>
      </trkpt>
      <trkpt lat="42.93065" lon="0.12276">
        <ele>2448</ele>
        <time>2013-01-05T10:52:55Z</time>
      </trkpt>
      <trkpt lat="42.93064" lon="0.12277">
        <ele>2448</ele>
        <time>2013-01-05T10:52:57Z</time>
      </trkpt>
      <trkpt lat="42.93062" lon="0.12279">
        <ele>2449</ele>
        <time>2013-01-05T10:53:00Z</time>
      </trkpt>
      <trkpt lat="42.93061" lon="0.1228">
        <ele>2449</ele>
        <time>2013-01-05T10:53:02Z</time>
      </trkpt>
      <trkpt lat="42.93061" lon="0.12282">
        <ele>2449</ele>
        <time>2013-01-05T10:53:12Z</time>
      </trkpt>
      <trkpt lat="42.93059" lon="0.12283">
        <ele>2449</ele>
        <time>2013-01-05T10:53:15Z</time>
      </trkpt>
      <trkpt lat="42.93058" lon="0.12284">
        <ele>2449</ele>
        <time>2013-01-05T10:53:17Z</time>
      </trkpt>
      <trkpt lat="42.93056" lon="0.12286">
        <ele>2449</ele>
        <time>2013-01-05T10:53:19Z</time>
      </trkpt>
      <trkpt lat="42.93055" lon="0.12286">
        <ele>2450</ele>
        <time>2013-01-05T10:53:21Z</time>
      </trkpt>
      <trkpt lat="42.93053" lon="0.12288">
        <ele>2451</ele>
        <time>2013-01-05T10:53:24Z</time>
      </trkpt>
      <trkpt lat="42.93052" lon="0.12289">
        <ele>2451</ele>
        <time>2013-01-05T10:53:27Z</time>
      </trkpt>
      <trkpt lat="42.9305" lon="0.1229">
        <ele>2452</ele>
        <time>2013-01-05T10:53:29Z</time>
      </trkpt>
      <trkpt lat="42.93049" lon="0.1229">
        <ele>2452</ele>
        <time>2013-01-05T10:53:31Z</time>
      </trkpt>
      <trkpt lat="42.93049" lon="0.12292">
        <ele>2453</ele>
        <time>2013-01-05T10:53:57Z</time>
      </trkpt>
      <trkpt lat="42.93051" lon="0.12292">
        <ele>2453</ele>
        <time>2013-01-05T10:54:04Z</time>
      </trkpt>
      <trkpt lat="42.93052" lon="0.12293">
        <ele>2453</ele>
        <time>2013-01-05T10:54:06Z</time>
      </trkpt>
      <trkpt lat="42.93054" lon="0.12293">
        <ele>2453</ele>
        <time>2013-01-05T10:54:09Z</time>
      </trkpt>
      <trkpt lat="42.93055" lon="0.12293">
        <ele>2453</ele>
        <time>2013-01-05T10:54:11Z</time>
      </trkpt>
      <trkpt lat="42.93056" lon="0.12293">
        <ele>2454</ele>
        <time>2013-01-05T10:54:13Z</time>
      </trkpt>
      <trkpt lat="42.93058" lon="0.12293">
        <ele>2454</ele>
        <time>2013-01-05T10:54:15Z</time>
      </trkpt>
      <trkpt lat="42.93059" lon="0.12293">
        <ele>2454</ele>
        <time>2013-01-05T10:54:17Z</time>
      </trkpt>
      <trkpt lat="42.93061" lon="0.12293">
        <ele>2454</ele>
        <time>2013-01-05T10:54:19Z</time>
      </trkpt>
      <trkpt lat="42.93062" lon="0.12293">
        <ele>2455</ele>
        <time>2013-01-05T10:54:21Z</time>
      </trkpt>
      <trkpt lat="42.93064" lon="0.12293">
        <ele>2455</ele>
        <time>2013-01-05T10:54:23Z</time>
      </trkpt>
      <trkpt lat="42.93065" lon="0.12293">
        <ele>2455</ele>
        <time>2013-01-05T10:54:25Z</time>
      </trkpt>
      <trkpt lat="42.93067" lon="0.12292">
        <ele>2456</ele>
        <time>2013-01-05T10:54:27Z</time>
      </trkpt>
      <trkpt lat="42.93068" lon="0.12292">
        <ele>2456</ele>
        <time>2013-01-05T10:54:30Z</time>
      </trkpt>
      <trkpt lat="42.93069" lon="0.12292">
        <ele>2456</ele>
        <time>2013-01-05T10:54:33Z</time>
      </trkpt>
      <trkpt lat="42.93071" lon="0.12291">
        <ele>2456</ele>
        <time>2013-01-05T10:54:35Z</time>
      </trkpt>
      <trkpt lat="42.93072" lon="0.12291">
        <ele>2457</ele>
        <time>2013-01-05T10:54:37Z</time>
      </trkpt>
      <trkpt lat="42.93073" lon="0.1229">
        <ele>2458</ele>
        <time>2013-01-05T10:55:06Z</time>
      </trkpt>
      <trkpt lat="42.93074" lon="0.12289">
        <ele>2458</ele>
        <time>2013-01-05T10:55:08Z</time>
      </trkpt>
      <trkpt lat="42.93076" lon="0.12289">
        <ele>2458</ele>
        <time>2013-01-05T10:55:10Z</time>
      </trkpt>
      <trkpt lat="42.93077" lon="0.12288">
        <ele>2458</ele>
        <time>2013-01-05T10:55:12Z</time>
      </trkpt>
      <trkpt lat="42.93078" lon="0.12287">
        <ele>2458</ele>
        <time>2013-01-05T10:55:14Z</time>
      </trkpt>
      <trkpt lat="42.93079" lon="0.12287">
        <ele>2458</ele>
        <time>2013-01-05T10:55:16Z</time>
      </trkpt>
      <trkpt lat="42.93081" lon="0.12287">
        <ele>2458</ele>
        <time>2013-01-05T10:55:18Z</time>
      </trkpt>
      <trkpt lat="42.93082" lon="0.12286">
        <ele>2458</ele>
        <time>2013-01-05T10:55:20Z</time>
      </trkpt>
      <trkpt lat="42.93083" lon="0.12286">
        <ele>2458</ele>
        <time>2013-01-05T10:55:22Z</time>
      </trkpt>
      <trkpt lat="42.93085" lon="0.12286">
        <ele>2458</ele>
        <time>2013-01-05T10:55:24Z</time>
      </trkpt>
      <trkpt lat="42.93086" lon="0.12285">
        <ele>2458</ele>
        <time>2013-01-05T10:55:26Z</time>
      </trkpt>
      <trkpt lat="42.93087" lon="0.12285">
        <ele>2458</ele>
        <time>2013-01-05T10:55:28Z</time>
      </trkpt>
      <trkpt lat="42.93088" lon="0.12284">
        <ele>2458</ele>
        <time>2013-01-05T10:55:30Z</time>
      </trkpt>
      <trkpt lat="42.93089" lon="0.12283">
        <ele>2458</ele>
        <time>2013-01-05T10:55:32Z</time>
      </trkpt>
      <trkpt lat="42.93091" lon="0.12282">
        <ele>2458</ele>
        <time>2013-01-05T10:55:35Z</time>
      </trkpt>
      <trkpt lat="42.93092" lon="0.1228">
        <ele>2458</ele>
        <time>2013-01-05T10:55:38Z</time>
      </trkpt>
      <trkpt lat="42.93093" lon="0.12279">
        <ele>2458</ele>
        <time>2013-01-05T10:55:56Z</time>
      </trkpt>
      <trkpt lat="42.93091" lon="0.12278">
        <ele>2458</ele>
        <time>2013-01-05T10:55:58Z</time>
      </trkpt>
      <trkpt lat="42.93089" lon="0.12275">
        <ele>2458</ele>
        <time>2013-01-05T10:55:59Z</time>
      </trkpt>
      <trkpt lat="42.93087" lon="0.12273">
        <ele>2458</ele>
        <time>2013-01-05T10:56:00Z</time>
      </trkpt>
      <trkpt lat="42.93085" lon="0.12271">
        <ele>2458</ele>
        <time>2013-01-05T10:56:01Z</time>
      </trkpt>
      <trkpt lat="42.93083" lon="0.1227">
        <ele>2458</ele>
        <time>2013-01-05T10:56:02Z</time>
      </trkpt>
      <trkpt lat="42.93082" lon="0.12269">
        <ele>2458</ele>
        <time>2013-01-05T10:56:03Z</time>
      </trkpt>
      <trkpt lat="42.9308" lon="0.12269">
        <ele>2458</ele>
        <time>2013-01-05T10:56:04Z</time>
      </trkpt>
      <trkpt lat="42.93082" lon="0.12268">
        <ele>2457</ele>
        <time>2013-01-05T10:56:10Z</time>
      </trkpt>
      <trkpt lat="42.9308" lon="0.12267">
        <ele>2454</ele>
        <time>2013-01-05T10:56:37Z</time>
      </trkpt>
      <trkpt lat="42.93079" lon="0.12266">
        <ele>2454</ele>
        <time>2013-01-05T10:56:40Z</time>
      </trkpt>
      <trkpt lat="42.93077" lon="0.12266">
        <ele>2454</ele>
        <time>2013-01-05T10:56:44Z</time>
      </trkpt>
      <trkpt lat="42.93079" lon="0.12268">
        <ele>2454</ele>
        <time>2013-01-05T10:56:47Z</time>
      </trkpt>
      <trkpt lat="42.93078" lon="0.12269">
        <ele>2454</ele>
        <time>2013-01-05T10:56:57Z</time>
      </trkpt>
      <trkpt lat="42.93077" lon="0.12271">
        <ele>2454</ele>
        <time>2013-01-05T10:57:00Z</time>
      </trkpt>
      <trkpt lat="42.93077" lon="0.12272">
        <ele>2454</ele>
        <time>2013-01-05T10:57:03Z</time>
      </trkpt>
      <trkpt lat="42.93077" lon="0.12274">
        <ele>2454</ele>
        <time>2013-01-05T10:57:05Z</time>
      </trkpt>
      <trkpt lat="42.93077" lon="0.12275">
        <ele>2454</ele>
        <time>2013-01-05T10:57:07Z</time>
      </trkpt>
      <trkpt lat="42.93076" lon="0.12277">
        <ele>2454</ele>
        <time>2013-01-05T10:57:10Z</time>
      </trkpt>
      <trkpt lat="42.93075" lon="0.12279">
        <ele>2454</ele>
        <time>2013-01-05T10:57:13Z</time>
      </trkpt>
      <trkpt lat="42.93074" lon="0.12277">
        <ele>2454</ele>
        <time>2013-01-05T10:57:22Z</time>
      </trkpt>
      <trkpt lat="42.93076" lon="0.12276">
        <ele>2455</ele>
        <time>2013-01-05T10:57:27Z</time>
      </trkpt>
      <trkpt lat="42.93078" lon="0.12277">
        <ele>2455</ele>
        <time>2013-01-05T10:57:30Z</time>
      </trkpt>
      <trkpt lat="42.9308" lon="0.12279">
        <ele>2455</ele>
        <time>2013-01-05T10:57:32Z</time>
      </trkpt>
      <trkpt lat="42.93081" lon="0.12277">
        <ele>2455</ele>
        <time>2013-01-05T10:57:35Z</time>
      </trkpt>
      <trkpt lat="42.93083" lon="0.12276">
        <ele>2455</ele>
        <time>2013-01-05T10:57:38Z</time>
      </trkpt>
      <trkpt lat="42.93084" lon="0.12275">
        <ele>2455</ele>
        <time>2013-01-05T10:57:40Z</time>
      </trkpt>
      <trkpt lat="42.93085" lon="0.12276">
        <ele>2455</ele>
        <time>2013-01-05T10:57:42Z</time>
      </trkpt>
      <trkpt lat="42.93087" lon="0.12278">
        <ele>2455</ele>
        <time>2013-01-05T10:57:46Z</time>
      </trkpt>
      <trkpt lat="42.93085" lon="0.12275">
        <ele>2455</ele>
        <time>2013-01-05T10:57:53Z</time>
      </trkpt>
      <trkpt lat="42.93084" lon="0.12274">
        <ele>2455</ele>
        <time>2013-01-05T10:57:57Z</time>
      </trkpt>
      <trkpt lat="42.93086" lon="0.12276">
        <ele>2456</ele>
        <time>2013-01-05T10:58:09Z</time>
      </trkpt>
      <trkpt lat="42.93087" lon="0.12278">
        <ele>2456</ele>
        <time>2013-01-05T10:58:11Z</time>
      </trkpt>
      <trkpt lat="42.93088" lon="0.12278">
        <ele>2456</ele>
        <time>2013-01-05T10:58:22Z</time>
      </trkpt>
      <trkpt lat="42.9309" lon="0.12276">
        <ele>2456</ele>
        <time>2013-01-05T10:58:26Z</time>
      </trkpt>
      <trkpt lat="42.93091" lon="0.12276">
        <ele>2456</ele>
        <time>2013-01-05T10:58:28Z</time>
      </trkpt>
      <trkpt lat="42.93092" lon="0.12275">
        <ele>2456</ele>
        <time>2013-01-05T10:58:30Z</time>
      </trkpt>
      <trkpt lat="42.93094" lon="0.12275">
        <ele>2456</ele>
        <time>2013-01-05T10:58:32Z</time>
      </trkpt>
      <trkpt lat="42.93095" lon="0.12273">
        <ele>2456</ele>
        <time>2013-01-05T10:58:35Z</time>
      </trkpt>
      <trkpt lat="42.93096" lon="0.12271">
        <ele>2456</ele>
        <time>2013-01-05T10:58:38Z</time>
      </trkpt>
      <trkpt lat="42.93095" lon="0.1227">
        <ele>2456</ele>
        <time>2013-01-05T10:58:43Z</time>
      </trkpt>
      <trkpt lat="42.93093" lon="0.12272">
        <ele>2459</ele>
        <time>2013-01-05T10:58:51Z</time>
      </trkpt>
      <trkpt lat="42.93093" lon="0.12273">
        <ele>2460</ele>
        <time>2013-01-05T10:58:53Z</time>
      </trkpt>
      <trkpt lat="42.93092" lon="0.12275">
        <ele>2460</ele>
        <time>2013-01-05T10:58:55Z</time>
      </trkpt>
      <trkpt lat="42.9309" lon="0.12276">
        <ele>2462</ele>
        <time>2013-01-05T10:58:57Z</time>
      </trkpt>
      <trkpt lat="42.93089" lon="0.12278">
        <ele>2463</ele>
        <time>2013-01-05T10:58:59Z</time>
      </trkpt>
      <trkpt lat="42.93088" lon="0.1228">
        <ele>2465</ele>
        <time>2013-01-05T10:59:01Z</time>
      </trkpt>
      <trkpt lat="42.93086" lon="0.12281">
        <ele>2467</ele>
        <time>2013-01-05T10:59:03Z</time>
      </trkpt>
      <trkpt lat="42.93086" lon="0.12283">
        <ele>2469</ele>
        <time>2013-01-05T10:59:05Z</time>
      </trkpt>
      <trkpt lat="42.93086" lon="0.12285">
        <ele>2470</ele>
        <time>2013-01-05T10:59:07Z</time>
      </trkpt>
      <trkpt lat="42.93085" lon="0.12286">
        <ele>2470</ele>
        <time>2013-01-05T10:59:10Z</time>
      </trkpt>
      <trkpt lat="42.93085" lon="0.12288">
        <ele>2470</ele>
        <time>2013-01-05T10:59:13Z</time>
      </trkpt>
      <trkpt lat="42.93084" lon="0.12289">
        <ele>2470</ele>
        <time>2013-01-05T10:59:15Z</time>
      </trkpt>
      <trkpt lat="42.93081" lon="0.1229">
        <ele>2470</ele>
        <time>2013-01-05T10:59:17Z</time>
      </trkpt>
      <trkpt lat="42.9308" lon="0.12291">
        <ele>2471</ele>
        <time>2013-01-05T10:59:18Z</time>
      </trkpt>
      <trkpt lat="42.93079" lon="0.12293">
        <ele>2473</ele>
        <time>2013-01-05T10:59:20Z</time>
      </trkpt>
      <trkpt lat="42.93079" lon="0.12295">
        <ele>2476</ele>
        <time>2013-01-05T10:59:23Z</time>
      </trkpt>
      <trkpt lat="42.9308" lon="0.12296">
        <ele>2476</ele>
        <time>2013-01-05T10:59:28Z</time>
      </trkpt>
      <trkpt lat="42.93082" lon="0.12297">
        <ele>2476</ele>
        <time>2013-01-05T10:59:32Z</time>
      </trkpt>
      <trkpt lat="42.93084" lon="0.12297">
        <ele>2474</ele>
        <time>2013-01-05T10:59:34Z</time>
      </trkpt>
      <trkpt lat="42.93085" lon="0.12297">
        <ele>2472</ele>
        <time>2013-01-05T10:59:36Z</time>
      </trkpt>
      <trkpt lat="42.93087" lon="0.12297">
        <ele>2470</ele>
        <time>2013-01-05T10:59:38Z</time>
      </trkpt>
      <trkpt lat="42.93088" lon="0.12298">
        <ele>2467</ele>
        <time>2013-01-05T10:59:42Z</time>
      </trkpt>
      <trkpt lat="42.93088" lon="0.12299">
        <ele>2466</ele>
        <time>2013-01-05T10:59:45Z</time>
      </trkpt>
      <trkpt lat="42.93087" lon="0.12301">
        <ele>2466</ele>
        <time>2013-01-05T10:59:48Z</time>
      </trkpt>
      <trkpt lat="42.93086" lon="0.12303">
        <ele>2466</ele>
        <time>2013-01-05T10:59:51Z</time>
      </trkpt>
      <trkpt lat="42.93085" lon="0.12304">
        <ele>2466</ele>
        <time>2013-01-05T10:59:53Z</time>
      </trkpt>
      <trkpt lat="42.93084" lon="0.12305">
        <ele>2466</ele>
        <time>2013-01-05T10:59:55Z</time>
      </trkpt>
      <trkpt lat="42.93082" lon="0.12307">
        <ele>2466</ele>
        <time>2013-01-05T10:59:58Z</time>
      </trkpt>
      <trkpt lat="42.93081" lon="0.12308">
        <ele>2466</ele>
        <time>2013-01-05T11:00:01Z</time>
      </trkpt>
      <trkpt lat="42.9308" lon="0.12309">
        <ele>2466</ele>
        <time>2013-01-05T11:00:04Z</time>
      </trkpt>
      <trkpt lat="42.93079" lon="0.12311">
        <ele>2467</ele>
        <time>2013-01-05T11:00:07Z</time>
      </trkpt>
      <trkpt lat="42.93079" lon="0.12313">
        <ele>2468</ele>
        <time>2013-01-05T11:00:10Z</time>
      </trkpt>
      <trkpt lat="42.93078" lon="0.12314">
        <ele>2468</ele>
        <time>2013-01-05T11:00:13Z</time>
      </trkpt>
      <trkpt lat="42.93077" lon="0.12316">
        <ele>2468</ele>
        <time>2013-01-05T11:00:16Z</time>
      </trkpt>
      <trkpt lat="42.93076" lon="0.12318">
        <ele>2469</ele>
        <time>2013-01-05T11:00:19Z</time>
      </trkpt>
      <trkpt lat="42.93076" lon="0.1232">
        <ele>2470</ele>
        <time>2013-01-05T11:00:22Z</time>
      </trkpt>
      <trkpt lat="42.93077" lon="0.1232">
        <ele>2470</ele>
        <time>2013-01-05T11:00:33Z</time>
      </trkpt>
      <trkpt lat="42.93079" lon="0.1232">
        <ele>2469</ele>
        <time>2013-01-05T11:00:36Z</time>
      </trkpt>
      <trkpt lat="42.93077" lon="0.12321">
        <ele>2465</ele>
        <time>2013-01-05T11:00:44Z</time>
      </trkpt>
      <trkpt lat="42.93076" lon="0.12321">
        <ele>2465</ele>
        <time>2013-01-05T11:00:46Z</time>
      </trkpt>
      <trkpt lat="42.93074" lon="0.12321">
        <ele>2467</ele>
        <time>2013-01-05T11:00:48Z</time>
      </trkpt>
      <trkpt lat="42.93073" lon="0.12322">
        <ele>2469</ele>
        <time>2013-01-05T11:00:50Z</time>
      </trkpt>
      <trkpt lat="42.93072" lon="0.12322">
        <ele>2473</ele>
        <time>2013-01-05T11:00:54Z</time>
      </trkpt>
      <trkpt lat="42.93071" lon="0.12324">
        <ele>2480</ele>
        <time>2013-01-05T11:01:07Z</time>
      </trkpt>
      <trkpt lat="42.93071" lon="0.12326">
        <ele>2480</ele>
        <time>2013-01-05T11:01:10Z</time>
      </trkpt>
      <trkpt lat="42.9307" lon="0.12327">
        <ele>2480</ele>
        <time>2013-01-05T11:01:13Z</time>
      </trkpt>
      <trkpt lat="42.93069" lon="0.12329">
        <ele>2480</ele>
        <time>2013-01-05T11:01:16Z</time>
      </trkpt>
      <trkpt lat="42.93068" lon="0.12331">
        <ele>2480</ele>
        <time>2013-01-05T11:01:19Z</time>
      </trkpt>
      <trkpt lat="42.93067" lon="0.12332">
        <ele>2480</ele>
        <time>2013-01-05T11:01:21Z</time>
      </trkpt>
      <trkpt lat="42.93066" lon="0.12334">
        <ele>2480</ele>
        <time>2013-01-05T11:01:24Z</time>
      </trkpt>
      <trkpt lat="42.93065" lon="0.12335">
        <ele>2480</ele>
        <time>2013-01-05T11:01:27Z</time>
      </trkpt>
      <trkpt lat="42.93064" lon="0.12337">
        <ele>2480</ele>
        <time>2013-01-05T11:01:30Z</time>
      </trkpt>
      <trkpt lat="42.93063" lon="0.12338">
        <ele>2480</ele>
        <time>2013-01-05T11:01:35Z</time>
      </trkpt>
      <trkpt lat="42.93062" lon="0.1234">
        <ele>2480</ele>
        <time>2013-01-05T11:01:38Z</time>
      </trkpt>
      <trkpt lat="42.93061" lon="0.12342">
        <ele>2480</ele>
        <time>2013-01-05T11:01:41Z</time>
      </trkpt>
      <trkpt lat="42.9306" lon="0.12344">
        <ele>2480</ele>
        <time>2013-01-05T11:01:44Z</time>
      </trkpt>
      <trkpt lat="42.9306" lon="0.12345">
        <ele>2480</ele>
        <time>2013-01-05T11:01:47Z</time>
      </trkpt>
      <trkpt lat="42.93059" lon="0.12347">
        <ele>2480</ele>
        <time>2013-01-05T11:01:54Z</time>
      </trkpt>
      <trkpt lat="42.9306" lon="0.12345">
        <ele>2480</ele>
        <time>2013-01-05T11:02:03Z</time>
      </trkpt>
      <trkpt lat="42.93058" lon="0.12345">
        <ele>2480</ele>
        <time>2013-01-05T11:02:19Z</time>
      </trkpt>
      <trkpt lat="42.9306" lon="0.12344">
        <ele>2485</ele>
        <time>2013-01-05T11:02:45Z</time>
      </trkpt>
      <trkpt lat="42.93061" lon="0.12345">
        <ele>2488</ele>
        <time>2013-01-05T11:02:48Z</time>
      </trkpt>
      <trkpt lat="42.93062" lon="0.12345">
        <ele>2488</ele>
        <time>2013-01-05T11:02:50Z</time>
      </trkpt>
      <trkpt lat="42.93063" lon="0.12346">
        <ele>2490</ele>
        <time>2013-01-05T11:02:55Z</time>
      </trkpt>
      <trkpt lat="42.93063" lon="0.12348">
        <ele>2490</ele>
        <time>2013-01-05T11:02:57Z</time>
      </trkpt>
      <trkpt lat="42.93064" lon="0.12351">
        <ele>2491</ele>
        <time>2013-01-05T11:02:59Z</time>
      </trkpt>
      <trkpt lat="42.93064" lon="0.12353">
        <ele>2491</ele>
        <time>2013-01-05T11:03:00Z</time>
      </trkpt>
      <trkpt lat="42.93064" lon="0.12351">
        <ele>2491</ele>
        <time>2013-01-05T11:03:05Z</time>
      </trkpt>
      <trkpt lat="42.93064" lon="0.12349">
        <ele>2491</ele>
        <time>2013-01-05T11:03:09Z</time>
      </trkpt>
      <trkpt lat="42.93063" lon="0.12348">
        <ele>2491</ele>
        <time>2013-01-05T11:03:15Z</time>
      </trkpt>
      <trkpt lat="42.93064" lon="0.12348">
        <ele>2490</ele>
        <time>2013-01-05T11:03:21Z</time>
      </trkpt>
      <trkpt lat="42.93066" lon="0.12349">
        <ele>2490</ele>
        <time>2013-01-05T11:03:23Z</time>
      </trkpt>
      <trkpt lat="42.93067" lon="0.12349">
        <ele>2490</ele>
        <time>2013-01-05T11:03:25Z</time>
      </trkpt>
      <trkpt lat="42.93068" lon="0.12349">
        <ele>2490</ele>
        <time>2013-01-05T11:03:28Z</time>
      </trkpt>
      <trkpt lat="42.9307" lon="0.1235">
        <ele>2490</ele>
        <time>2013-01-05T11:03:30Z</time>
      </trkpt>
      <trkpt lat="42.93071" lon="0.12351">
        <ele>2490</ele>
        <time>2013-01-05T11:03:31Z</time>
      </trkpt>
      <trkpt lat="42.93072" lon="0.12352">
        <ele>2490</ele>
        <time>2013-01-05T11:03:33Z</time>
      </trkpt>
      <trkpt lat="42.93074" lon="0.12352">
        <ele>2490</ele>
        <time>2013-01-05T11:03:36Z</time>
      </trkpt>
      <trkpt lat="42.93075" lon="0.12352">
        <ele>2490</ele>
        <time>2013-01-05T11:03:40Z</time>
      </trkpt>
      <trkpt lat="42.93076" lon="0.1235">
        <ele>2490</ele>
        <time>2013-01-05T11:03:44Z</time>
      </trkpt>
      <trkpt lat="42.93076" lon="0.12349">
        <ele>2490</ele>
        <time>2013-01-05T11:03:49Z</time>
      </trkpt>
      <trkpt lat="42.93077" lon="0.12348">
        <ele>2490</ele>
        <time>2013-01-05T11:03:55Z</time>
      </trkpt>
      <trkpt lat="42.93078" lon="0.12348">
        <ele>2490</ele>
        <time>2013-01-05T11:03:57Z</time>
      </trkpt>
      <trkpt lat="42.9308" lon="0.12347">
        <ele>2490</ele>
        <time>2013-01-05T11:04:00Z</time>
      </trkpt>
      <trkpt lat="42.93081" lon="0.12347">
        <ele>2490</ele>
        <time>2013-01-05T11:04:02Z</time>
      </trkpt>
      <trkpt lat="42.93082" lon="0.12348">
        <ele>2490</ele>
        <time>2013-01-05T11:04:05Z</time>
      </trkpt>
      <trkpt lat="42.93083" lon="0.12349">
        <ele>2490</ele>
        <time>2013-01-05T11:04:07Z</time>
      </trkpt>
      <trkpt lat="42.93082" lon="0.12348">
        <ele>2490</ele>
        <time>2013-01-05T11:04:27Z</time>
      </trkpt>
      <trkpt lat="42.93084" lon="0.12347">
        <ele>2490</ele>
        <time>2013-01-05T11:04:36Z</time>
      </trkpt>
      <trkpt lat="42.93085" lon="0.12346">
        <ele>2490</ele>
        <time>2013-01-05T11:04:38Z</time>
      </trkpt>
      <trkpt lat="42.93086" lon="0.12345">
        <ele>2490</ele>
        <time>2013-01-05T11:04:41Z</time>
      </trkpt>
      <trkpt lat="42.93085" lon="0.12344">
        <ele>2490</ele>
        <time>2013-01-05T11:05:05Z</time>
      </trkpt>
      <trkpt lat="42.93087" lon="0.12343">
        <ele>2490</ele>
        <time>2013-01-05T11:05:10Z</time>
      </trkpt>
      <trkpt lat="42.93088" lon="0.12343">
        <ele>2490</ele>
        <time>2013-01-05T11:05:12Z</time>
      </trkpt>
      <trkpt lat="42.9309" lon="0.12342">
        <ele>2490</ele>
        <time>2013-01-05T11:05:14Z</time>
      </trkpt>
      <trkpt lat="42.93091" lon="0.12342">
        <ele>2490</ele>
        <time>2013-01-05T11:05:17Z</time>
      </trkpt>
      <trkpt lat="42.93092" lon="0.12342">
        <ele>2491</ele>
        <time>2013-01-05T11:05:31Z</time>
      </trkpt>
      <trkpt lat="42.93093" lon="0.12341">
        <ele>2491</ele>
        <time>2013-01-05T11:05:50Z</time>
      </trkpt>
      <trkpt lat="42.93092" lon="0.1234">
        <ele>2492</ele>
        <time>2013-01-05T11:06:00Z</time>
      </trkpt>
      <trkpt lat="42.93093" lon="0.12338">
        <ele>2493</ele>
        <time>2013-01-05T11:06:14Z</time>
      </trkpt>
      <trkpt lat="42.93094" lon="0.12337">
        <ele>2493</ele>
        <time>2013-01-05T11:06:16Z</time>
      </trkpt>
      <trkpt lat="42.93096" lon="0.12336">
        <ele>2493</ele>
        <time>2013-01-05T11:06:19Z</time>
      </trkpt>
      <trkpt lat="42.93097" lon="0.12335">
        <ele>2493</ele>
        <time>2013-01-05T11:06:21Z</time>
      </trkpt>
      <trkpt lat="42.93098" lon="0.12335">
        <ele>2493</ele>
        <time>2013-01-05T11:06:24Z</time>
      </trkpt>
      <trkpt lat="42.931" lon="0.12336">
        <ele>2494</ele>
        <time>2013-01-05T11:06:30Z</time>
      </trkpt>
      <trkpt lat="42.93101" lon="0.12337">
        <ele>2494</ele>
        <time>2013-01-05T11:06:33Z</time>
      </trkpt>
      <trkpt lat="42.93102" lon="0.12337">
        <ele>2494</ele>
        <time>2013-01-05T11:06:36Z</time>
      </trkpt>
      <trkpt lat="42.93103" lon="0.12337">
        <ele>2494</ele>
        <time>2013-01-05T11:06:39Z</time>
      </trkpt>
      <trkpt lat="42.93105" lon="0.12336">
        <ele>2494</ele>
        <time>2013-01-05T11:06:42Z</time>
      </trkpt>
      <trkpt lat="42.93106" lon="0.12335">
        <ele>2494</ele>
        <time>2013-01-05T11:06:44Z</time>
      </trkpt>
      <trkpt lat="42.93107" lon="0.12334">
        <ele>2494</ele>
        <time>2013-01-05T11:06:46Z</time>
      </trkpt>
      <trkpt lat="42.93108" lon="0.12333">
        <ele>2494</ele>
        <time>2013-01-05T11:06:48Z</time>
      </trkpt>
      <trkpt lat="42.9311" lon="0.12331">
        <ele>2494</ele>
        <time>2013-01-05T11:06:51Z</time>
      </trkpt>
      <trkpt lat="42.93111" lon="0.12331">
        <ele>2494</ele>
        <time>2013-01-05T11:06:54Z</time>
      </trkpt>
      <trkpt lat="42.93112" lon="0.12329">
        <ele>2494</ele>
        <time>2013-01-05T11:06:56Z</time>
      </trkpt>
      <trkpt lat="42.93113" lon="0.12328">
        <ele>2494</ele>
        <time>2013-01-05T11:07:01Z</time>
      </trkpt>
      <trkpt lat="42.93114" lon="0.12326">
        <ele>2494</ele>
        <time>2013-01-05T11:07:19Z</time>
      </trkpt>
      <trkpt lat="42.93115" lon="0.12328">
        <ele>2494</ele>
        <time>2013-01-05T11:07:37Z</time>
      </trkpt>
      <trkpt lat="42.93116" lon="0.12329">
        <ele>2494</ele>
        <time>2013-01-05T11:07:40Z</time>
      </trkpt>
      <trkpt lat="42.93116" lon="0.12328">
        <ele>2494</ele>
        <time>2013-01-05T11:07:50Z</time>
      </trkpt>
      <trkpt lat="42.93115" lon="0.12326">
        <ele>2494</ele>
        <time>2013-01-05T11:07:53Z</time>
      </trkpt>
      <trkpt lat="42.93114" lon="0.12325">
        <ele>2494</ele>
        <time>2013-01-05T11:07:56Z</time>
      </trkpt>
      <trkpt lat="42.93113" lon="0.12323">
        <ele>2494</ele>
        <time>2013-01-05T11:07:59Z</time>
      </trkpt>
      <trkpt lat="42.93113" lon="0.12321">
        <ele>2496</ele>
        <time>2013-01-05T11:08:08Z</time>
      </trkpt>
      <trkpt lat="42.93114" lon="0.12321">
        <ele>2497</ele>
        <time>2013-01-05T11:08:11Z</time>
      </trkpt>
      <trkpt lat="42.93116" lon="0.12322">
        <ele>2498</ele>
        <time>2013-01-05T11:08:21Z</time>
      </trkpt>
      <trkpt lat="42.93117" lon="0.12322">
        <ele>2498</ele>
        <time>2013-01-05T11:08:36Z</time>
      </trkpt>
      <trkpt lat="42.93118" lon="0.12324">
        <ele>2498</ele>
        <time>2013-01-05T11:08:53Z</time>
      </trkpt>
      <trkpt lat="42.93116" lon="0.12322">
        <ele>2496</ele>
        <time>2013-01-05T11:09:41Z</time>
      </trkpt>
      <trkpt lat="42.93116" lon="0.12324">
        <ele>2496</ele>
        <time>2013-01-05T11:09:46Z</time>
      </trkpt>
      <trkpt lat="42.93115" lon="0.12325">
        <ele>2496</ele>
        <time>2013-01-05T11:09:53Z</time>
      </trkpt>
      <trkpt lat="42.93116" lon="0.12327">
        <ele>2495</ele>
        <time>2013-01-05T11:10:24Z</time>
      </trkpt>
      <trkpt lat="42.93116" lon="0.12326">
        <ele>2495</ele>
        <time>2013-01-05T11:10:33Z</time>
      </trkpt>
      <trkpt lat="42.93118" lon="0.12325">
        <ele>2495</ele>
        <time>2013-01-05T11:10:39Z</time>
      </trkpt>
      <trkpt lat="42.93116" lon="0.12323">
        <ele>2493</ele>
        <time>2013-01-05T11:10:47Z</time>
      </trkpt>
      <trkpt lat="42.93117" lon="0.12325">
        <ele>2493</ele>
        <time>2013-01-05T11:10:51Z</time>
      </trkpt>
      <trkpt lat="42.93118" lon="0.12326">
        <ele>2493</ele>
        <time>2013-01-05T11:10:52Z</time>
      </trkpt>
      <trkpt lat="42.93119" lon="0.12328">
        <ele>2493</ele>
        <time>2013-01-05T11:10:55Z</time>
      </trkpt>
      <trkpt lat="42.93118" lon="0.12326">
        <ele>2493</ele>
        <time>2013-01-05T11:10:57Z</time>
      </trkpt>
      <trkpt lat="42.9312" lon="0.12327">
        <ele>2493</ele>
        <time>2013-01-05T11:11:03Z</time>
      </trkpt>
      <trkpt lat="42.93118" lon="0.12325">
        <ele>2490</ele>
        <time>2013-01-05T11:11:12Z</time>
      </trkpt>
      <trkpt lat="42.93118" lon="0.12327">
        <ele>2490</ele>
        <time>2013-01-05T11:11:17Z</time>
      </trkpt>
      <trkpt lat="42.93117" lon="0.12325">
        <ele>2490</ele>
        <time>2013-01-05T11:11:33Z</time>
      </trkpt>
      <trkpt lat="42.93116" lon="0.12324">
        <ele>2492</ele>
        <time>2013-01-05T11:11:40Z</time>
      </trkpt>
      <trkpt lat="42.93115" lon="0.12324">
        <ele>2494</ele>
        <time>2013-01-05T11:11:55Z</time>
      </trkpt>
      <trkpt lat="42.93114" lon="0.12323">
        <ele>2494</ele>
        <time>2013-01-05T11:11:58Z</time>
      </trkpt>
      <trkpt lat="42.93113" lon="0.12321">
        <ele>2496</ele>
        <time>2013-01-05T11:12:07Z</time>
      </trkpt>
      <trkpt lat="42.93112" lon="0.12321">
        <ele>2497</ele>
        <time>2013-01-05T11:12:14Z</time>
      </trkpt>
      <trkpt lat="42.93113" lon="0.12322">
        <ele>2497</ele>
        <time>2013-01-05T11:12:31Z</time>
      </trkpt>
      <trkpt lat="42.93113" lon="0.1232">
        <ele>2497</ele>
        <time>2013-01-05T11:12:42Z</time>
      </trkpt>
      <trkpt lat="42.93114" lon="0.1232">
        <ele>2497</ele>
        <time>2013-01-05T11:12:47Z</time>
      </trkpt>
      <trkpt lat="42.93116" lon="0.1232">
        <ele>2497</ele>
        <time>2013-01-05T11:12:50Z</time>
      </trkpt>
      <trkpt lat="42.93117" lon="0.1232">
        <ele>2497</ele>
        <time>2013-01-05T11:12:54Z</time>
      </trkpt>
      <trkpt lat="42.93118" lon="0.1232">
        <ele>2497</ele>
        <time>2013-01-05T11:12:58Z</time>
      </trkpt>
      <trkpt lat="42.93119" lon="0.12322">
        <ele>2498</ele>
        <time>2013-01-05T11:13:07Z</time>
      </trkpt>
      <trkpt lat="42.93118" lon="0.12324">
        <ele>2498</ele>
        <time>2013-01-05T11:13:09Z</time>
      </trkpt>
      <trkpt lat="42.93119" lon="0.12325">
        <ele>2498</ele>
        <time>2013-01-05T11:13:11Z</time>
      </trkpt>
      <trkpt lat="42.93119" lon="0.12327">
        <ele>2499</ele>
        <time>2013-01-05T11:13:13Z</time>
      </trkpt>
      <trkpt lat="42.93119" lon="0.12329">
        <ele>2499</ele>
        <time>2013-01-05T11:13:17Z</time>
      </trkpt>
      <trkpt lat="42.93118" lon="0.1233">
        <ele>2501</ele>
        <time>2013-01-05T11:13:35Z</time>
      </trkpt>
      <trkpt lat="42.93119" lon="0.12331">
        <ele>2501</ele>
        <time>2013-01-05T11:13:42Z</time>
      </trkpt>
      <trkpt lat="42.93121" lon="0.1233">
        <ele>2501</ele>
        <time>2013-01-05T11:13:46Z</time>
      </trkpt>
      <trkpt lat="42.93122" lon="0.1233">
        <ele>2501</ele>
        <time>2013-01-05T11:13:50Z</time>
      </trkpt>
      <trkpt lat="42.93122" lon="0.12328">
        <ele>2501</ele>
        <time>2013-01-05T11:13:52Z</time>
      </trkpt>
      <trkpt lat="42.93124" lon="0.12328">
        <ele>2501</ele>
        <time>2013-01-05T11:13:57Z</time>
      </trkpt>
      <trkpt lat="42.93125" lon="0.12328">
        <ele>2501</ele>
        <time>2013-01-05T11:14:01Z</time>
      </trkpt>
      <trkpt lat="42.93125" lon="0.12329">
        <ele>2501</ele>
        <time>2013-01-05T11:14:10Z</time>
      </trkpt>
      <trkpt lat="42.93124" lon="0.12331">
        <ele>2501</ele>
        <time>2013-01-05T11:14:19Z</time>
      </trkpt>
      <trkpt lat="42.93124" lon="0.12333">
        <ele>2501</ele>
        <time>2013-01-05T11:14:25Z</time>
      </trkpt>
      <trkpt lat="42.93123" lon="0.12335">
        <ele>2501</ele>
        <time>2013-01-05T11:14:27Z</time>
      </trkpt>
      <trkpt lat="42.93124" lon="0.12336">
        <ele>2502</ele>
        <time>2013-01-05T11:14:43Z</time>
      </trkpt>
      <trkpt lat="42.93126" lon="0.12336">
        <ele>2502</ele>
        <time>2013-01-05T11:15:11Z</time>
      </trkpt>
      <trkpt lat="42.93126" lon="0.12335">
        <ele>2502</ele>
        <time>2013-01-05T11:15:14Z</time>
      </trkpt>
      <trkpt lat="42.93125" lon="0.12336">
        <ele>2503</ele>
        <time>2013-01-05T11:15:20Z</time>
      </trkpt>
      <trkpt lat="42.93125" lon="0.12338">
        <ele>2504</ele>
        <time>2013-01-05T11:15:25Z</time>
      </trkpt>
      <trkpt lat="42.93126" lon="0.1234">
        <ele>2504</ele>
        <time>2013-01-05T11:15:29Z</time>
      </trkpt>
      <trkpt lat="42.93127" lon="0.12341">
        <ele>2505</ele>
        <time>2013-01-05T11:15:34Z</time>
      </trkpt>
      <trkpt lat="42.93127" lon="0.12342">
        <ele>2505</ele>
        <time>2013-01-05T11:15:41Z</time>
      </trkpt>
      <trkpt lat="42.93127" lon="0.12344">
        <ele>2505</ele>
        <time>2013-01-05T11:15:47Z</time>
      </trkpt>
      <trkpt lat="42.93126" lon="0.12344">
        <ele>2509</ele>
        <time>2013-01-05T11:16:06Z</time>
      </trkpt>
      <trkpt lat="42.93125" lon="0.12343">
        <ele>2510</ele>
        <time>2013-01-05T11:16:18Z</time>
      </trkpt>
      <trkpt lat="42.93123" lon="0.12342">
        <ele>2511</ele>
        <time>2013-01-05T11:16:22Z</time>
      </trkpt>
      <trkpt lat="42.93122" lon="0.12342">
        <ele>2513</ele>
        <time>2013-01-05T11:16:26Z</time>
      </trkpt>
      <trkpt lat="42.93121" lon="0.12341">
        <ele>2514</ele>
        <time>2013-01-05T11:16:29Z</time>
      </trkpt>
      <trkpt lat="42.93119" lon="0.12341">
        <ele>2516</ele>
        <time>2013-01-05T11:16:32Z</time>
      </trkpt>
      <trkpt lat="42.93121" lon="0.12342">
        <ele>2516</ele>
        <time>2013-01-05T11:16:33Z</time>
      </trkpt>
      <trkpt lat="42.93122" lon="0.12343">
        <ele>2516</ele>
        <time>2013-01-05T11:16:39Z</time>
      </trkpt>
      <trkpt lat="42.93124" lon="0.12343">
        <ele>2516</ele>
        <time>2013-01-05T11:16:41Z</time>
      </trkpt>
      <trkpt lat="42.93126" lon="0.12342">
        <ele>2516</ele>
        <time>2013-01-05T11:16:43Z</time>
      </trkpt>
      <trkpt lat="42.93128" lon="0.12343">
        <ele>2516</ele>
        <time>2013-01-05T11:16:45Z</time>
      </trkpt>
      <trkpt lat="42.93129" lon="0.12343">
        <ele>2516</ele>
        <time>2013-01-05T11:16:48Z</time>
      </trkpt>
      <trkpt lat="42.9313" lon="0.12344">
        <ele>2515</ele>
        <time>2013-01-05T11:16:51Z</time>
      </trkpt>
      <trkpt lat="42.93127" lon="0.12343">
        <ele>2514</ele>
        <time>2013-01-05T11:16:55Z</time>
      </trkpt>
      <trkpt lat="42.93127" lon="0.12345">
        <ele>2514</ele>
        <time>2013-01-05T11:17:04Z</time>
      </trkpt>
      <trkpt lat="42.93129" lon="0.12346">
        <ele>2514</ele>
        <time>2013-01-05T11:17:08Z</time>
      </trkpt>
      <trkpt lat="42.93129" lon="0.12348">
        <ele>2514</ele>
        <time>2013-01-05T11:17:15Z</time>
      </trkpt>
      <trkpt lat="42.9313" lon="0.12349">
        <ele>2514</ele>
        <time>2013-01-05T11:17:17Z</time>
      </trkpt>
      <trkpt lat="42.93129" lon="0.12351">
        <ele>2514</ele>
        <time>2013-01-05T11:17:27Z</time>
      </trkpt>
      <trkpt lat="42.93129" lon="0.12353">
        <ele>2514</ele>
        <time>2013-01-05T11:17:30Z</time>
      </trkpt>
      <trkpt lat="42.9313" lon="0.12353">
        <ele>2514</ele>
        <time>2013-01-05T11:17:34Z</time>
      </trkpt>
      <trkpt lat="42.93131" lon="0.12351">
        <ele>2514</ele>
        <time>2013-01-05T11:17:39Z</time>
      </trkpt>
      <trkpt lat="42.93132" lon="0.12352">
        <ele>2514</ele>
        <time>2013-01-05T11:17:48Z</time>
      </trkpt>
      <trkpt lat="42.93133" lon="0.12351">
        <ele>2514</ele>
        <time>2013-01-05T11:17:53Z</time>
      </trkpt>
      <trkpt lat="42.93134" lon="0.12349">
        <ele>2514</ele>
        <time>2013-01-05T11:18:00Z</time>
      </trkpt>
      <trkpt lat="42.93133" lon="0.12348">
        <ele>2515</ele>
        <time>2013-01-05T11:18:23Z</time>
      </trkpt>
      <trkpt lat="42.93132" lon="0.12347">
        <ele>2517</ele>
        <time>2013-01-05T11:18:51Z</time>
      </trkpt>
      <trkpt lat="42.93132" lon="0.12348">
        <ele>2517</ele>
        <time>2013-01-05T11:18:59Z</time>
      </trkpt>
      <trkpt lat="42.93132" lon="0.1235">
        <ele>2517</ele>
        <time>2013-01-05T11:19:02Z</time>
      </trkpt>
      <trkpt lat="42.93132" lon="0.12352">
        <ele>2517</ele>
        <time>2013-01-05T11:19:05Z</time>
      </trkpt>
      <trkpt lat="42.93132" lon="0.12353">
        <ele>2517</ele>
        <time>2013-01-05T11:19:07Z</time>
      </trkpt>
      <trkpt lat="42.93132" lon="0.12355">
        <ele>2517</ele>
        <time>2013-01-05T11:19:10Z</time>
      </trkpt>
      <trkpt lat="42.93132" lon="0.12356">
        <ele>2517</ele>
        <time>2013-01-05T11:19:12Z</time>
      </trkpt>
      <trkpt lat="42.93133" lon="0.12357">
        <ele>2517</ele>
        <time>2013-01-05T11:19:17Z</time>
      </trkpt>
      <trkpt lat="42.93134" lon="0.12358">
        <ele>2518</ele>
        <time>2013-01-05T11:19:22Z</time>
      </trkpt>
      <trkpt lat="42.93136" lon="0.12356">
        <ele>2519</ele>
        <time>2013-01-05T11:19:27Z</time>
      </trkpt>
      <trkpt lat="42.93135" lon="0.12358">
        <ele>2521</ele>
        <time>2013-01-05T11:19:37Z</time>
      </trkpt>
      <trkpt lat="42.93135" lon="0.12359">
        <ele>2521</ele>
        <time>2013-01-05T11:19:40Z</time>
      </trkpt>
      <trkpt lat="42.93136" lon="0.1236">
        <ele>2521</ele>
        <time>2013-01-05T11:19:42Z</time>
      </trkpt>
      <trkpt lat="42.93136" lon="0.12362">
        <ele>2521</ele>
        <time>2013-01-05T11:19:44Z</time>
      </trkpt>
      <trkpt lat="42.93135" lon="0.12364">
        <ele>2522</ele>
        <time>2013-01-05T11:19:48Z</time>
      </trkpt>
      <trkpt lat="42.93136" lon="0.12365">
        <ele>2522</ele>
        <time>2013-01-05T11:19:51Z</time>
      </trkpt>
      <trkpt lat="42.93137" lon="0.12364">
        <ele>2522</ele>
        <time>2013-01-05T11:20:18Z</time>
      </trkpt>
      <trkpt lat="42.93137" lon="0.12362">
        <ele>2522</ele>
        <time>2013-01-05T11:20:21Z</time>
      </trkpt>
      <trkpt lat="42.93138" lon="0.12361">
        <ele>2522</ele>
        <time>2013-01-05T11:20:26Z</time>
      </trkpt>
      <trkpt lat="42.93139" lon="0.12359">
        <ele>2523</ele>
        <time>2013-01-05T11:20:30Z</time>
      </trkpt>
      <trkpt lat="42.9314" lon="0.12361">
        <ele>2525</ele>
        <time>2013-01-05T11:20:37Z</time>
      </trkpt>
      <trkpt lat="42.93142" lon="0.12361">
        <ele>2526</ele>
        <time>2013-01-05T11:20:40Z</time>
      </trkpt>
      <trkpt lat="42.9314" lon="0.12362">
        <ele>2527</ele>
        <time>2013-01-05T11:20:45Z</time>
      </trkpt>
      <trkpt lat="42.9314" lon="0.12364">
        <ele>2527</ele>
        <time>2013-01-05T11:20:48Z</time>
      </trkpt>
      <trkpt lat="42.93141" lon="0.12365">
        <ele>2527</ele>
        <time>2013-01-05T11:21:02Z</time>
      </trkpt>
      <trkpt lat="42.93141" lon="0.12367">
        <ele>2527</ele>
        <time>2013-01-05T11:21:12Z</time>
      </trkpt>
      <trkpt lat="42.93142" lon="0.12368">
        <ele>2527</ele>
        <time>2013-01-05T11:21:20Z</time>
      </trkpt>
      <trkpt lat="42.93142" lon="0.1237">
        <ele>2527</ele>
        <time>2013-01-05T11:21:30Z</time>
      </trkpt>
      <trkpt lat="42.93143" lon="0.12372">
        <ele>2527</ele>
        <time>2013-01-05T11:21:42Z</time>
      </trkpt>
      <trkpt lat="42.93143" lon="0.12373">
        <ele>2527</ele>
        <time>2013-01-05T11:21:52Z</time>
      </trkpt>
      <trkpt lat="42.93142" lon="0.12375">
        <ele>2527</ele>
        <time>2013-01-05T11:22:01Z</time>
      </trkpt>
      <trkpt lat="42.93141" lon="0.12375">
        <ele>2527</ele>
        <time>2013-01-05T11:22:15Z</time>
      </trkpt>
      <trkpt lat="42.93142" lon="0.12375">
        <ele>2528</ele>
        <time>2013-01-05T11:22:23Z</time>
      </trkpt>
      <trkpt lat="42.93143" lon="0.12374">
        <ele>2528</ele>
        <time>2013-01-05T11:22:26Z</time>
      </trkpt>
      <trkpt lat="42.93145" lon="0.12374">
        <ele>2528</ele>
        <time>2013-01-05T11:22:31Z</time>
      </trkpt>
      <trkpt lat="42.93146" lon="0.12372">
        <ele>2528</ele>
        <time>2013-01-05T11:22:36Z</time>
      </trkpt>
      <trkpt lat="42.93147" lon="0.12372">
        <ele>2528</ele>
        <time>2013-01-05T11:22:40Z</time>
      </trkpt>
      <trkpt lat="42.93148" lon="0.12372">
        <ele>2528</ele>
        <time>2013-01-05T11:22:44Z</time>
      </trkpt>
      <trkpt lat="42.9315" lon="0.12372">
        <ele>2528</ele>
        <time>2013-01-05T11:22:50Z</time>
      </trkpt>
      <trkpt lat="42.93151" lon="0.12371">
        <ele>2528</ele>
        <time>2013-01-05T11:22:55Z</time>
      </trkpt>
      <trkpt lat="42.9315" lon="0.12369">
        <ele>2529</ele>
        <time>2013-01-05T11:23:03Z</time>
      </trkpt>
      <trkpt lat="42.9315" lon="0.12368">
        <ele>2530</ele>
        <time>2013-01-05T11:23:05Z</time>
      </trkpt>
      <trkpt lat="42.93149" lon="0.12369">
        <ele>2532</ele>
        <time>2013-01-05T11:23:32Z</time>
      </trkpt>
      <trkpt lat="42.93148" lon="0.12371">
        <ele>2532</ele>
        <time>2013-01-05T11:23:41Z</time>
      </trkpt>
      <trkpt lat="42.93148" lon="0.12372">
        <ele>2532</ele>
        <time>2013-01-05T11:23:45Z</time>
      </trkpt>
      <trkpt lat="42.93147" lon="0.12372">
        <ele>2532</ele>
        <time>2013-01-05T11:23:52Z</time>
      </trkpt>
      <trkpt lat="42.93145" lon="0.12372">
        <ele>2532</ele>
        <time>2013-01-05T11:24:00Z</time>
      </trkpt>
      <trkpt lat="42.93145" lon="0.12373">
        <ele>2532</ele>
        <time>2013-01-05T11:24:24Z</time>
      </trkpt>
      <trkpt lat="42.93146" lon="0.12375">
        <ele>2532</ele>
        <time>2013-01-05T11:24:26Z</time>
      </trkpt>
      <trkpt lat="42.93147" lon="0.12377">
        <ele>2532</ele>
        <time>2013-01-05T11:24:28Z</time>
      </trkpt>
      <trkpt lat="42.93147" lon="0.12376">
        <ele>2532</ele>
        <time>2013-01-05T11:24:32Z</time>
      </trkpt>
      <trkpt lat="42.93146" lon="0.12374">
        <ele>2532</ele>
        <time>2013-01-05T11:24:36Z</time>
      </trkpt>
      <trkpt lat="42.93145" lon="0.12373">
        <ele>2532</ele>
        <time>2013-01-05T11:24:41Z</time>
      </trkpt>
      <trkpt lat="42.93145" lon="0.12371">
        <ele>2532</ele>
        <time>2013-01-05T11:24:48Z</time>
      </trkpt>
      <trkpt lat="42.93144" lon="0.1237">
        <ele>2531</ele>
        <time>2013-01-05T11:25:09Z</time>
      </trkpt>
      <trkpt lat="42.93143" lon="0.12369">
        <ele>2530</ele>
        <time>2013-01-05T11:25:19Z</time>
      </trkpt>
      <trkpt lat="42.93143" lon="0.12367">
        <ele>2528</ele>
        <time>2013-01-05T11:25:26Z</time>
      </trkpt>
      <trkpt lat="42.93142" lon="0.12365">
        <ele>2527</ele>
        <time>2013-01-05T11:25:31Z</time>
      </trkpt>
      <trkpt lat="42.93141" lon="0.12363">
        <ele>2527</ele>
        <time>2013-01-05T11:25:38Z</time>
      </trkpt>
      <trkpt lat="42.9314" lon="0.12361">
        <ele>2526</ele>
        <time>2013-01-05T11:25:42Z</time>
      </trkpt>
      <trkpt lat="42.93138" lon="0.1236">
        <ele>2524</ele>
        <time>2013-01-05T11:25:53Z</time>
      </trkpt>
      <trkpt lat="42.93137" lon="0.12359">
        <ele>2524</ele>
        <time>2013-01-05T11:26:00Z</time>
      </trkpt>
      <trkpt lat="42.93137" lon="0.12358">
        <ele>2522</ele>
        <time>2013-01-05T11:26:12Z</time>
      </trkpt>
      <trkpt lat="42.93136" lon="0.12356">
        <ele>2522</ele>
        <time>2013-01-05T11:26:15Z</time>
      </trkpt>
      <trkpt lat="42.93136" lon="0.12355">
        <ele>2521</ele>
        <time>2013-01-05T11:26:18Z</time>
      </trkpt>
      <trkpt lat="42.93136" lon="0.12353">
        <ele>2521</ele>
        <time>2013-01-05T11:26:22Z</time>
      </trkpt>
      <trkpt lat="42.93134" lon="0.12353">
        <ele>2520</ele>
        <time>2013-01-05T11:26:24Z</time>
      </trkpt>
      <trkpt lat="42.93135" lon="0.12354">
        <ele>2520</ele>
        <time>2013-01-05T11:26:33Z</time>
      </trkpt>
      <trkpt lat="42.93135" lon="0.12356">
        <ele>2520</ele>
        <time>2013-01-05T11:26:44Z</time>
      </trkpt>
      <trkpt lat="42.93137" lon="0.12358">
        <ele>2520</ele>
        <time>2013-01-05T11:26:57Z</time>
      </trkpt>
      <trkpt lat="42.93135" lon="0.12356">
        <ele>2520</ele>
        <time>2013-01-05T11:27:25Z</time>
      </trkpt>
      <trkpt lat="42.93134" lon="0.12355">
        <ele>2519</ele>
        <time>2013-01-05T11:27:30Z</time>
      </trkpt>
      <trkpt lat="42.93133" lon="0.12353">
        <ele>2519</ele>
        <time>2013-01-05T11:27:37Z</time>
      </trkpt>
      <trkpt lat="42.93132" lon="0.12352">
        <ele>2519</ele>
        <time>2013-01-05T11:27:40Z</time>
      </trkpt>
      <trkpt lat="42.93132" lon="0.1235">
        <ele>2518</ele>
        <time>2013-01-05T11:27:43Z</time>
      </trkpt>
      <trkpt lat="42.93131" lon="0.12348">
        <ele>2518</ele>
        <time>2013-01-05T11:27:46Z</time>
      </trkpt>
      <trkpt lat="42.93131" lon="0.12347">
        <ele>2517</ele>
        <time>2013-01-05T11:27:49Z</time>
      </trkpt>
      <trkpt lat="42.9313" lon="0.12345">
        <ele>2516</ele>
        <time>2013-01-05T11:27:56Z</time>
      </trkpt>
      <trkpt lat="42.9313" lon="0.12344">
        <ele>2516</ele>
        <time>2013-01-05T11:27:58Z</time>
      </trkpt>
      <trkpt lat="42.93129" lon="0.12342">
        <ele>2515</ele>
        <time>2013-01-05T11:28:04Z</time>
      </trkpt>
      <trkpt lat="42.93128" lon="0.12341">
        <ele>2515</ele>
        <time>2013-01-05T11:28:09Z</time>
      </trkpt>
      <trkpt lat="42.93127" lon="0.12339">
        <ele>2514</ele>
        <time>2013-01-05T11:28:15Z</time>
      </trkpt>
      <trkpt lat="42.93127" lon="0.12338">
        <ele>2514</ele>
        <time>2013-01-05T11:28:18Z</time>
      </trkpt>
      <trkpt lat="42.93126" lon="0.12336">
        <ele>2514</ele>
        <time>2013-01-05T11:28:24Z</time>
      </trkpt>
      <trkpt lat="42.93126" lon="0.12335">
        <ele>2513</ele>
        <time>2013-01-05T11:28:28Z</time>
      </trkpt>
      <trkpt lat="42.93126" lon="0.12333">
        <ele>2513</ele>
        <time>2013-01-05T11:28:35Z</time>
      </trkpt>
      <trkpt lat="42.93126" lon="0.12332">
        <ele>2512</ele>
        <time>2013-01-05T11:28:39Z</time>
      </trkpt>
      <trkpt lat="42.93125" lon="0.1233">
        <ele>2510</ele>
        <time>2013-01-05T11:28:52Z</time>
      </trkpt>
      <trkpt lat="42.93124" lon="0.12329">
        <ele>2509</ele>
        <time>2013-01-05T11:28:57Z</time>
      </trkpt>
      <trkpt lat="42.93124" lon="0.12327">
        <ele>2505</ele>
        <time>2013-01-05T11:29:16Z</time>
      </trkpt>
      <trkpt lat="42.93123" lon="0.12325">
        <ele>2504</ele>
        <time>2013-01-05T11:29:23Z</time>
      </trkpt>
      <trkpt lat="42.93123" lon="0.12324">
        <ele>2504</ele>
        <time>2013-01-05T11:29:29Z</time>
      </trkpt>
      <trkpt lat="42.93122" lon="0.12325">
        <ele>2504</ele>
        <time>2013-01-05T11:29:35Z</time>
      </trkpt>
      <trkpt lat="42.93122" lon="0.12327">
        <ele>2504</ele>
        <time>2013-01-05T11:29:45Z</time>
      </trkpt>
      <trkpt lat="42.93122" lon="0.12329">
        <ele>2504</ele>
        <time>2013-01-05T11:30:02Z</time>
      </trkpt>
      <trkpt lat="42.93124" lon="0.12328">
        <ele>2503</ele>
        <time>2013-01-05T11:30:26Z</time>
      </trkpt>
      <trkpt lat="42.93123" lon="0.12326">
        <ele>2502</ele>
        <time>2013-01-05T11:30:31Z</time>
      </trkpt>
      <trkpt lat="42.93121" lon="0.12326">
        <ele>2500</ele>
        <time>2013-01-05T11:30:40Z</time>
      </trkpt>
      <trkpt lat="42.9312" lon="0.12326">
        <ele>2499</ele>
        <time>2013-01-05T11:30:47Z</time>
      </trkpt>
      <trkpt lat="42.93119" lon="0.12325">
        <ele>2498</ele>
        <time>2013-01-05T11:30:51Z</time>
      </trkpt>
      <trkpt lat="42.93119" lon="0.12323">
        <ele>2498</ele>
        <time>2013-01-05T11:30:54Z</time>
      </trkpt>
      <trkpt lat="42.93118" lon="0.12322">
        <ele>2498</ele>
        <time>2013-01-05T11:30:57Z</time>
      </trkpt>
      <trkpt lat="42.93117" lon="0.12321">
        <ele>2497</ele>
        <time>2013-01-05T11:31:00Z</time>
      </trkpt>
      <trkpt lat="42.93116" lon="0.12321">
        <ele>2497</ele>
        <time>2013-01-05T11:31:04Z</time>
      </trkpt>
      <trkpt lat="42.93115" lon="0.12324">
        <ele>2495</ele>
        <time>2013-01-05T11:31:21Z</time>
      </trkpt>
      <trkpt lat="42.93114" lon="0.12323">
        <ele>2495</ele>
        <time>2013-01-05T11:31:36Z</time>
      </trkpt>
      <trkpt lat="42.93113" lon="0.12321">
        <ele>2495</ele>
        <time>2013-01-05T11:31:39Z</time>
      </trkpt>
      <trkpt lat="42.93114" lon="0.12323">
        <ele>2495</ele>
        <time>2013-01-05T11:31:48Z</time>
      </trkpt>
      <trkpt lat="42.93115" lon="0.12324">
        <ele>2495</ele>
        <time>2013-01-05T11:31:52Z</time>
      </trkpt>
      <trkpt lat="42.93116" lon="0.12324">
        <ele>2494</ele>
        <time>2013-01-05T11:32:03Z</time>
      </trkpt>
      <trkpt lat="42.93117" lon="0.12325">
        <ele>2493</ele>
        <time>2013-01-05T11:32:07Z</time>
      </trkpt>
      <trkpt lat="42.93116" lon="0.12327">
        <ele>2492</ele>
        <time>2013-01-05T11:32:22Z</time>
      </trkpt>
      <trkpt lat="42.93115" lon="0.12326">
        <ele>2492</ele>
        <time>2013-01-05T11:32:44Z</time>
      </trkpt>
      <trkpt lat="42.93115" lon="0.12325">
        <ele>2492</ele>
        <time>2013-01-05T11:32:49Z</time>
      </trkpt>
      <trkpt lat="42.93114" lon="0.12323">
        <ele>2492</ele>
        <time>2013-01-05T11:33:01Z</time>
      </trkpt>
      <trkpt lat="42.93115" lon="0.12325">
        <ele>2493</ele>
        <time>2013-01-05T11:33:06Z</time>
      </trkpt>
      <trkpt lat="42.93116" lon="0.12326">
        <ele>2493</ele>
        <time>2013-01-05T11:33:10Z</time>
      </trkpt>
      <trkpt lat="42.93117" lon="0.12327">
        <ele>2493</ele>
        <time>2013-01-05T11:33:32Z</time>
      </trkpt>
      <trkpt lat="42.93116" lon="0.12328">
        <ele>2491</ele>
        <time>2013-01-05T11:33:53Z</time>
      </trkpt>
      <trkpt lat="42.93115" lon="0.1233">
        <ele>2491</ele>
        <time>2013-01-05T11:33:57Z</time>
      </trkpt>
      <trkpt lat="42.93114" lon="0.12331">
        <ele>2491</ele>
        <time>2013-01-05T11:34:00Z</time>
      </trkpt>
      <trkpt lat="42.93113" lon="0.12332">
        <ele>2491</ele>
        <time>2013-01-05T11:34:04Z</time>
      </trkpt>
      <trkpt lat="42.93111" lon="0.12334">
        <ele>2491</ele>
        <time>2013-01-05T11:34:07Z</time>
      </trkpt>
      <trkpt lat="42.9311" lon="0.12336">
        <ele>2491</ele>
        <time>2013-01-05T11:34:10Z</time>
      </trkpt>
      <trkpt lat="42.93109" lon="0.12337">
        <ele>2491</ele>
        <time>2013-01-05T11:34:14Z</time>
      </trkpt>
      <trkpt lat="42.93108" lon="0.12339">
        <ele>2491</ele>
        <time>2013-01-05T11:34:17Z</time>
      </trkpt>
      <trkpt lat="42.93107" lon="0.1234">
        <ele>2491</ele>
        <time>2013-01-05T11:34:20Z</time>
      </trkpt>
      <trkpt lat="42.93105" lon="0.12342">
        <ele>2492</ele>
        <time>2013-01-05T11:34:24Z</time>
      </trkpt>
      <trkpt lat="42.93104" lon="0.12343">
        <ele>2493</ele>
        <time>2013-01-05T11:34:27Z</time>
      </trkpt>
      <trkpt lat="42.93103" lon="0.12344">
        <ele>2493</ele>
        <time>2013-01-05T11:34:30Z</time>
      </trkpt>
      <trkpt lat="42.93102" lon="0.12346">
        <ele>2493</ele>
        <time>2013-01-05T11:34:33Z</time>
      </trkpt>
      <trkpt lat="42.93101" lon="0.12347">
        <ele>2493</ele>
        <time>2013-01-05T11:34:36Z</time>
      </trkpt>
      <trkpt lat="42.931" lon="0.12348">
        <ele>2494</ele>
        <time>2013-01-05T11:34:39Z</time>
      </trkpt>
      <trkpt lat="42.93099" lon="0.1235">
        <ele>2494</ele>
        <time>2013-01-05T11:34:42Z</time>
      </trkpt>
      <trkpt lat="42.93097" lon="0.12352">
        <ele>2494</ele>
        <time>2013-01-05T11:34:45Z</time>
      </trkpt>
      <trkpt lat="42.93097" lon="0.12353">
        <ele>2494</ele>
        <time>2013-01-05T11:34:48Z</time>
      </trkpt>
      <trkpt lat="42.93096" lon="0.12355">
        <ele>2494</ele>
        <time>2013-01-05T11:34:52Z</time>
      </trkpt>
      <trkpt lat="42.93097" lon="0.12356">
        <ele>2494</ele>
        <time>2013-01-05T11:34:58Z</time>
      </trkpt>
      <trkpt lat="42.93097" lon="0.12358">
        <ele>2494</ele>
        <time>2013-01-05T11:35:01Z</time>
      </trkpt>
      <trkpt lat="42.93098" lon="0.12359">
        <ele>2494</ele>
        <time>2013-01-05T11:35:06Z</time>
      </trkpt>
      <trkpt lat="42.93097" lon="0.12361">
        <ele>2494</ele>
        <time>2013-01-05T11:35:14Z</time>
      </trkpt>
      <trkpt lat="42.93095" lon="0.12363">
        <ele>2494</ele>
        <time>2013-01-05T11:35:17Z</time>
      </trkpt>
      <trkpt lat="42.93094" lon="0.12364">
        <ele>2494</ele>
        <time>2013-01-05T11:35:20Z</time>
      </trkpt>
      <trkpt lat="42.93093" lon="0.12365">
        <ele>2494</ele>
        <time>2013-01-05T11:35:23Z</time>
      </trkpt>
      <trkpt lat="42.93092" lon="0.12366">
        <ele>2494</ele>
        <time>2013-01-05T11:35:26Z</time>
      </trkpt>
      <trkpt lat="42.9309" lon="0.12368">
        <ele>2494</ele>
        <time>2013-01-05T11:35:29Z</time>
      </trkpt>
      <trkpt lat="42.93089" lon="0.12369">
        <ele>2494</ele>
        <time>2013-01-05T11:35:32Z</time>
      </trkpt>
      <trkpt lat="42.93087" lon="0.1237">
        <ele>2494</ele>
        <time>2013-01-05T11:35:35Z</time>
      </trkpt>
      <trkpt lat="42.93086" lon="0.12372">
        <ele>2494</ele>
        <time>2013-01-05T11:35:38Z</time>
      </trkpt>
      <trkpt lat="42.93084" lon="0.12373">
        <ele>2494</ele>
        <time>2013-01-05T11:35:41Z</time>
      </trkpt>
      <trkpt lat="42.93083" lon="0.12374">
        <ele>2494</ele>
        <time>2013-01-05T11:35:43Z</time>
      </trkpt>
      <trkpt lat="42.93082" lon="0.12374">
        <ele>2494</ele>
        <time>2013-01-05T11:35:45Z</time>
      </trkpt>
      <trkpt lat="42.93081" lon="0.12375">
        <ele>2494</ele>
        <time>2013-01-05T11:35:47Z</time>
      </trkpt>
      <trkpt lat="42.93079" lon="0.12376">
        <ele>2495</ele>
        <time>2013-01-05T11:35:49Z</time>
      </trkpt>
      <trkpt lat="42.93078" lon="0.12376">
        <ele>2495</ele>
        <time>2013-01-05T11:35:51Z</time>
      </trkpt>
      <trkpt lat="42.93077" lon="0.12376">
        <ele>2495</ele>
        <time>2013-01-05T11:35:54Z</time>
      </trkpt>
      <trkpt lat="42.93078" lon="0.12378">
        <ele>2497</ele>
        <time>2013-01-05T11:36:07Z</time>
      </trkpt>
      <trkpt lat="42.93079" lon="0.12378">
        <ele>2497</ele>
        <time>2013-01-05T11:36:11Z</time>
      </trkpt>
      <trkpt lat="42.93081" lon="0.12378">
        <ele>2497</ele>
        <time>2013-01-05T11:36:14Z</time>
      </trkpt>
      <trkpt lat="42.93081" lon="0.1238">
        <ele>2497</ele>
        <time>2013-01-05T11:36:20Z</time>
      </trkpt>
      <trkpt lat="42.93083" lon="0.12381">
        <ele>2497</ele>
        <time>2013-01-05T11:36:24Z</time>
      </trkpt>
      <trkpt lat="42.93084" lon="0.12381">
        <ele>2497</ele>
        <time>2013-01-05T11:36:26Z</time>
      </trkpt>
      <trkpt lat="42.93085" lon="0.12382">
        <ele>2497</ele>
        <time>2013-01-05T11:36:32Z</time>
      </trkpt>
      <trkpt lat="42.93084" lon="0.1238">
        <ele>2497</ele>
        <time>2013-01-05T11:36:41Z</time>
      </trkpt>
      <trkpt lat="42.93085" lon="0.1238">
        <ele>2497</ele>
        <time>2013-01-05T11:36:44Z</time>
      </trkpt>
      <trkpt lat="42.93087" lon="0.1238">
        <ele>2497</ele>
        <time>2013-01-05T11:36:47Z</time>
      </trkpt>
      <trkpt lat="42.93089" lon="0.1238">
        <ele>2497</ele>
        <time>2013-01-05T11:36:50Z</time>
      </trkpt>
      <trkpt lat="42.9309" lon="0.12379">
        <ele>2497</ele>
        <time>2013-01-05T11:36:52Z</time>
      </trkpt>
      <trkpt lat="42.93091" lon="0.12378">
        <ele>2497</ele>
        <time>2013-01-05T11:36:55Z</time>
      </trkpt>
      <trkpt lat="42.93093" lon="0.12377">
        <ele>2497</ele>
        <time>2013-01-05T11:36:58Z</time>
      </trkpt>
      <trkpt lat="42.93094" lon="0.12377">
        <ele>2497</ele>
        <time>2013-01-05T11:37:01Z</time>
      </trkpt>
      <trkpt lat="42.93096" lon="0.12376">
        <ele>2497</ele>
        <time>2013-01-05T11:37:04Z</time>
      </trkpt>
      <trkpt lat="42.93097" lon="0.12375">
        <ele>2498</ele>
        <time>2013-01-05T11:37:06Z</time>
      </trkpt>
      <trkpt lat="42.93098" lon="0.12374">
        <ele>2498</ele>
        <time>2013-01-05T11:37:08Z</time>
      </trkpt>
      <trkpt lat="42.93099" lon="0.12374">
        <ele>2498</ele>
        <time>2013-01-05T11:37:10Z</time>
      </trkpt>
      <trkpt lat="42.93101" lon="0.12373">
        <ele>2499</ele>
        <time>2013-01-05T11:37:13Z</time>
      </trkpt>
      <trkpt lat="42.93102" lon="0.12371">
        <ele>2499</ele>
        <time>2013-01-05T11:37:16Z</time>
      </trkpt>
      <trkpt lat="42.93103" lon="0.1237">
        <ele>2499</ele>
        <time>2013-01-05T11:37:19Z</time>
      </trkpt>
      <trkpt lat="42.93105" lon="0.12369">
        <ele>2500</ele>
        <time>2013-01-05T11:37:22Z</time>
      </trkpt>
      <trkpt lat="42.93105" lon="0.12367">
        <ele>2501</ele>
        <time>2013-01-05T11:37:24Z</time>
      </trkpt>
      <trkpt lat="42.93106" lon="0.12365">
        <ele>2502</ele>
        <time>2013-01-05T11:37:27Z</time>
      </trkpt>
      <trkpt lat="42.93107" lon="0.12363">
        <ele>2504</ele>
        <time>2013-01-05T11:37:30Z</time>
      </trkpt>
      <trkpt lat="42.93108" lon="0.12362">
        <ele>2504</ele>
        <time>2013-01-05T11:37:32Z</time>
      </trkpt>
      <trkpt lat="42.93109" lon="0.1236">
        <ele>2505</ele>
        <time>2013-01-05T11:37:35Z</time>
      </trkpt>
      <trkpt lat="42.93111" lon="0.12358">
        <ele>2506</ele>
        <time>2013-01-05T11:37:38Z</time>
      </trkpt>
      <trkpt lat="42.93111" lon="0.12357">
        <ele>2507</ele>
        <time>2013-01-05T11:37:43Z</time>
      </trkpt>
      <trkpt lat="42.9311" lon="0.12355">
        <ele>2509</ele>
        <time>2013-01-05T11:37:51Z</time>
      </trkpt>
      <trkpt lat="42.9311" lon="0.12354">
        <ele>2510</ele>
        <time>2013-01-05T11:37:57Z</time>
      </trkpt>
      <trkpt lat="42.93111" lon="0.12355">
        <ele>2511</ele>
        <time>2013-01-05T11:38:06Z</time>
      </trkpt>
      <trkpt lat="42.9311" lon="0.12356">
        <ele>2511</ele>
        <time>2013-01-05T11:38:13Z</time>
      </trkpt>
      <trkpt lat="42.9311" lon="0.12357">
        <ele>2511</ele>
        <time>2013-01-05T11:38:18Z</time>
      </trkpt>
      <trkpt lat="42.9311" lon="0.12359">
        <ele>2511</ele>
        <time>2013-01-05T11:38:31Z</time>
      </trkpt>
      <trkpt lat="42.93111" lon="0.1236">
        <ele>2511</ele>
        <time>2013-01-05T11:38:35Z</time>
      </trkpt>
      <trkpt lat="42.93112" lon="0.1236">
        <ele>2511</ele>
        <time>2013-01-05T11:38:41Z</time>
      </trkpt>
      <trkpt lat="42.93112" lon="0.12358">
        <ele>2511</ele>
        <time>2013-01-05T11:38:49Z</time>
      </trkpt>
      <trkpt lat="42.93112" lon="0.1236">
        <ele>2511</ele>
        <time>2013-01-05T11:38:56Z</time>
      </trkpt>
      <trkpt lat="42.93111" lon="0.12361">
        <ele>2511</ele>
        <time>2013-01-05T11:38:59Z</time>
      </trkpt>
      <trkpt lat="42.93111" lon="0.12363">
        <ele>2511</ele>
        <time>2013-01-05T11:39:02Z</time>
      </trkpt>
      <trkpt lat="42.93109" lon="0.12364">
        <ele>2511</ele>
        <time>2013-01-05T11:39:05Z</time>
      </trkpt>
      <trkpt lat="42.93108" lon="0.12366">
        <ele>2511</ele>
        <time>2013-01-05T11:39:08Z</time>
      </trkpt>
      <trkpt lat="42.93107" lon="0.12368">
        <ele>2511</ele>
        <time>2013-01-05T11:39:12Z</time>
      </trkpt>
      <trkpt lat="42.93106" lon="0.1237">
        <ele>2511</ele>
        <time>2013-01-05T11:39:15Z</time>
      </trkpt>
      <trkpt lat="42.93105" lon="0.12371">
        <ele>2511</ele>
        <time>2013-01-05T11:39:18Z</time>
      </trkpt>
      <trkpt lat="42.93104" lon="0.12373">
        <ele>2511</ele>
        <time>2013-01-05T11:39:21Z</time>
      </trkpt>
      <trkpt lat="42.93103" lon="0.12374">
        <ele>2511</ele>
        <time>2013-01-05T11:39:24Z</time>
      </trkpt>
      <trkpt lat="42.93101" lon="0.12375">
        <ele>2511</ele>
        <time>2013-01-05T11:39:27Z</time>
      </trkpt>
      <trkpt lat="42.931" lon="0.12376">
        <ele>2511</ele>
        <time>2013-01-05T11:39:30Z</time>
      </trkpt>
      <trkpt lat="42.93099" lon="0.12378">
        <ele>2511</ele>
        <time>2013-01-05T11:39:33Z</time>
      </trkpt>
      <trkpt lat="42.93098" lon="0.12379">
        <ele>2511</ele>
        <time>2013-01-05T11:39:36Z</time>
      </trkpt>
      <trkpt lat="42.93097" lon="0.12381">
        <ele>2511</ele>
        <time>2013-01-05T11:39:38Z</time>
      </trkpt>
      <trkpt lat="42.93096" lon="0.12382">
        <ele>2511</ele>
        <time>2013-01-05T11:39:41Z</time>
      </trkpt>
      <trkpt lat="42.93095" lon="0.12384">
        <ele>2511</ele>
        <time>2013-01-05T11:39:44Z</time>
      </trkpt>
      <trkpt lat="42.93093" lon="0.12385">
        <ele>2511</ele>
        <time>2013-01-05T11:39:49Z</time>
      </trkpt>
      <trkpt lat="42.93092" lon="0.12386">
        <ele>2511</ele>
        <time>2013-01-05T11:39:52Z</time>
      </trkpt>
      <trkpt lat="42.9309" lon="0.12387">
        <ele>2511</ele>
        <time>2013-01-05T11:39:54Z</time>
      </trkpt>
      <trkpt lat="42.93089" lon="0.12388">
        <ele>2511</ele>
        <time>2013-01-05T11:39:57Z</time>
      </trkpt>
      <trkpt lat="42.93088" lon="0.12388">
        <ele>2511</ele>
        <time>2013-01-05T11:39:59Z</time>
      </trkpt>
      <trkpt lat="42.93087" lon="0.12388">
        <ele>2512</ele>
        <time>2013-01-05T11:40:10Z</time>
      </trkpt>
      <trkpt lat="42.93088" lon="0.1239">
        <ele>2513</ele>
        <time>2013-01-05T11:40:30Z</time>
      </trkpt>
      <trkpt lat="42.93089" lon="0.12391">
        <ele>2513</ele>
        <time>2013-01-05T11:40:32Z</time>
      </trkpt>
      <trkpt lat="42.9309" lon="0.12392">
        <ele>2513</ele>
        <time>2013-01-05T11:40:35Z</time>
      </trkpt>
      <trkpt lat="42.93091" lon="0.12392">
        <ele>2513</ele>
        <time>2013-01-05T11:40:37Z</time>
      </trkpt>
      <trkpt lat="42.93092" lon="0.12392">
        <ele>2513</ele>
        <time>2013-01-05T11:40:39Z</time>
      </trkpt>
      <trkpt lat="42.93094" lon="0.12393">
        <ele>2513</ele>
        <time>2013-01-05T11:40:41Z</time>
      </trkpt>
      <trkpt lat="42.93095" lon="0.12392">
        <ele>2513</ele>
        <time>2013-01-05T11:40:44Z</time>
      </trkpt>
      <trkpt lat="42.93096" lon="0.12391">
        <ele>2513</ele>
        <time>2013-01-05T11:40:46Z</time>
      </trkpt>
      <trkpt lat="42.93098" lon="0.12391">
        <ele>2513</ele>
        <time>2013-01-05T11:40:49Z</time>
      </trkpt>
      <trkpt lat="42.931" lon="0.1239">
        <ele>2513</ele>
        <time>2013-01-05T11:40:52Z</time>
      </trkpt>
      <trkpt lat="42.93101" lon="0.12389">
        <ele>2513</ele>
        <time>2013-01-05T11:40:55Z</time>
      </trkpt>
      <trkpt lat="42.93102" lon="0.12389">
        <ele>2513</ele>
        <time>2013-01-05T11:40:57Z</time>
      </trkpt>
      <trkpt lat="42.93103" lon="0.12388">
        <ele>2513</ele>
        <time>2013-01-05T11:41:00Z</time>
      </trkpt>
      <trkpt lat="42.93105" lon="0.12388">
        <ele>2513</ele>
        <time>2013-01-05T11:41:02Z</time>
      </trkpt>
      <trkpt lat="42.93106" lon="0.12387">
        <ele>2513</ele>
        <time>2013-01-05T11:41:05Z</time>
      </trkpt>
      <trkpt lat="42.93107" lon="0.12386">
        <ele>2513</ele>
        <time>2013-01-05T11:41:08Z</time>
      </trkpt>
      <trkpt lat="42.93108" lon="0.12384">
        <ele>2513</ele>
        <time>2013-01-05T11:41:11Z</time>
      </trkpt>
      <trkpt lat="42.93109" lon="0.12382">
        <ele>2513</ele>
        <time>2013-01-05T11:41:15Z</time>
      </trkpt>
      <trkpt lat="42.93109" lon="0.1238">
        <ele>2513</ele>
        <time>2013-01-05T11:41:18Z</time>
      </trkpt>
      <trkpt lat="42.9311" lon="0.12382">
        <ele>2513</ele>
        <time>2013-01-05T11:41:26Z</time>
      </trkpt>
      <trkpt lat="42.93111" lon="0.12383">
        <ele>2513</ele>
        <time>2013-01-05T11:41:35Z</time>
      </trkpt>
      <trkpt lat="42.9311" lon="0.12385">
        <ele>2513</ele>
        <time>2013-01-05T11:41:45Z</time>
      </trkpt>
      <trkpt lat="42.93109" lon="0.12386">
        <ele>2513</ele>
        <time>2013-01-05T11:41:48Z</time>
      </trkpt>
      <trkpt lat="42.93108" lon="0.12388">
        <ele>2513</ele>
        <time>2013-01-05T11:41:51Z</time>
      </trkpt>
      <trkpt lat="42.93107" lon="0.1239">
        <ele>2513</ele>
        <time>2013-01-05T11:41:54Z</time>
      </trkpt>
      <trkpt lat="42.93106" lon="0.12392">
        <ele>2513</ele>
        <time>2013-01-05T11:41:57Z</time>
      </trkpt>
      <trkpt lat="42.93105" lon="0.12393">
        <ele>2514</ele>
        <time>2013-01-05T11:42:01Z</time>
      </trkpt>
      <trkpt lat="42.93104" lon="0.12395">
        <ele>2515</ele>
        <time>2013-01-05T11:42:04Z</time>
      </trkpt>
      <trkpt lat="42.93103" lon="0.12397">
        <ele>2515</ele>
        <time>2013-01-05T11:42:08Z</time>
      </trkpt>
      <trkpt lat="42.93102" lon="0.12398">
        <ele>2515</ele>
        <time>2013-01-05T11:42:11Z</time>
      </trkpt>
      <trkpt lat="42.93101" lon="0.124">
        <ele>2515</ele>
        <time>2013-01-05T11:42:14Z</time>
      </trkpt>
      <trkpt lat="42.931" lon="0.12402">
        <ele>2515</ele>
        <time>2013-01-05T11:42:17Z</time>
      </trkpt>
      <trkpt lat="42.93099" lon="0.12404">
        <ele>2515</ele>
        <time>2013-01-05T11:42:20Z</time>
      </trkpt>
      <trkpt lat="42.93098" lon="0.12405">
        <ele>2515</ele>
        <time>2013-01-05T11:42:23Z</time>
      </trkpt>
      <trkpt lat="42.93097" lon="0.12407">
        <ele>2515</ele>
        <time>2013-01-05T11:42:26Z</time>
      </trkpt>
      <trkpt lat="42.93095" lon="0.12407">
        <ele>2517</ele>
        <time>2013-01-05T11:42:39Z</time>
      </trkpt>
      <trkpt lat="42.93096" lon="0.12409">
        <ele>2518</ele>
        <time>2013-01-05T11:42:53Z</time>
      </trkpt>
      <trkpt lat="42.93095" lon="0.12409">
        <ele>2518</ele>
        <time>2013-01-05T11:42:57Z</time>
      </trkpt>
      <trkpt lat="42.93096" lon="0.12409">
        <ele>2519</ele>
        <time>2013-01-05T11:43:09Z</time>
      </trkpt>
      <trkpt lat="42.93098" lon="0.12408">
        <ele>2520</ele>
        <time>2013-01-05T11:43:12Z</time>
      </trkpt>
      <trkpt lat="42.93098" lon="0.1241">
        <ele>2520</ele>
        <time>2013-01-05T11:43:18Z</time>
      </trkpt>
      <trkpt lat="42.93099" lon="0.12411">
        <ele>2520</ele>
        <time>2013-01-05T11:43:23Z</time>
      </trkpt>
      <trkpt lat="42.93099" lon="0.12413">
        <ele>2520</ele>
        <time>2013-01-05T11:43:30Z</time>
      </trkpt>
      <trkpt lat="42.93099" lon="0.12415">
        <ele>2520</ele>
        <time>2013-01-05T11:43:33Z</time>
      </trkpt>
      <trkpt lat="42.93098" lon="0.12416">
        <ele>2520</ele>
        <time>2013-01-05T11:43:35Z</time>
      </trkpt>
      <trkpt lat="42.93097" lon="0.12418">
        <ele>2520</ele>
        <time>2013-01-05T11:43:38Z</time>
      </trkpt>
      <trkpt lat="42.93096" lon="0.1242">
        <ele>2520</ele>
        <time>2013-01-05T11:43:41Z</time>
      </trkpt>
      <trkpt lat="42.93095" lon="0.12421">
        <ele>2520</ele>
        <time>2013-01-05T11:43:45Z</time>
      </trkpt>
      <trkpt lat="42.93094" lon="0.12422">
        <ele>2520</ele>
        <time>2013-01-05T11:43:50Z</time>
      </trkpt>
      <trkpt lat="42.93093" lon="0.12424">
        <ele>2520</ele>
        <time>2013-01-05T11:43:53Z</time>
      </trkpt>
      <trkpt lat="42.93092" lon="0.12425">
        <ele>2520</ele>
        <time>2013-01-05T11:43:57Z</time>
      </trkpt>
      <trkpt lat="42.9309" lon="0.12427">
        <ele>2520</ele>
        <time>2013-01-05T11:44:00Z</time>
      </trkpt>
      <trkpt lat="42.9309" lon="0.12428">
        <ele>2521</ele>
        <time>2013-01-05T11:44:03Z</time>
      </trkpt>
      <trkpt lat="42.93088" lon="0.12429">
        <ele>2522</ele>
        <time>2013-01-05T11:44:06Z</time>
      </trkpt>
      <trkpt lat="42.93087" lon="0.1243">
        <ele>2523</ele>
        <time>2013-01-05T11:44:10Z</time>
      </trkpt>
      <trkpt lat="42.93086" lon="0.12429">
        <ele>2525</ele>
        <time>2013-01-05T11:44:36Z</time>
      </trkpt>
      <trkpt lat="42.93087" lon="0.12428">
        <ele>2529</ele>
        <time>2013-01-05T11:44:47Z</time>
      </trkpt>
      <trkpt lat="42.93089" lon="0.12428">
        <ele>2529</ele>
        <time>2013-01-05T11:44:49Z</time>
      </trkpt>
      <trkpt lat="42.9309" lon="0.12428">
        <ele>2529</ele>
        <time>2013-01-05T11:44:51Z</time>
      </trkpt>
      <trkpt lat="42.93092" lon="0.12428">
        <ele>2529</ele>
        <time>2013-01-05T11:44:54Z</time>
      </trkpt>
      <trkpt lat="42.93093" lon="0.12428">
        <ele>2530</ele>
        <time>2013-01-05T11:44:56Z</time>
      </trkpt>
      <trkpt lat="42.93095" lon="0.12429">
        <ele>2530</ele>
        <time>2013-01-05T11:44:58Z</time>
      </trkpt>
      <trkpt lat="42.93096" lon="0.1243">
        <ele>2530</ele>
        <time>2013-01-05T11:45:00Z</time>
      </trkpt>
      <trkpt lat="42.93098" lon="0.12431">
        <ele>2530</ele>
        <time>2013-01-05T11:45:02Z</time>
      </trkpt>
      <trkpt lat="42.93099" lon="0.12432">
        <ele>2530</ele>
        <time>2013-01-05T11:45:04Z</time>
      </trkpt>
      <trkpt lat="42.931" lon="0.12432">
        <ele>2530</ele>
        <time>2013-01-05T11:45:06Z</time>
      </trkpt>
      <trkpt lat="42.931" lon="0.12434">
        <ele>2530</ele>
        <time>2013-01-05T11:45:32Z</time>
      </trkpt>
      <trkpt lat="42.931" lon="0.12436">
        <ele>2530</ele>
        <time>2013-01-05T11:45:36Z</time>
      </trkpt>
      <trkpt lat="42.93099" lon="0.12438">
        <ele>2530</ele>
        <time>2013-01-05T11:45:39Z</time>
      </trkpt>
      <trkpt lat="42.93099" lon="0.12439">
        <ele>2530</ele>
        <time>2013-01-05T11:45:42Z</time>
      </trkpt>
      <trkpt lat="42.93098" lon="0.12441">
        <ele>2530</ele>
        <time>2013-01-05T11:45:45Z</time>
      </trkpt>
      <trkpt lat="42.93097" lon="0.12443">
        <ele>2530</ele>
        <time>2013-01-05T11:45:48Z</time>
      </trkpt>
      <trkpt lat="42.93096" lon="0.12443">
        <ele>2530</ele>
        <time>2013-01-05T11:46:07Z</time>
      </trkpt>
      <trkpt lat="42.93095" lon="0.12444">
        <ele>2532</ele>
        <time>2013-01-05T11:46:28Z</time>
      </trkpt>
      <trkpt lat="42.93094" lon="0.12446">
        <ele>2532</ele>
        <time>2013-01-05T11:46:31Z</time>
      </trkpt>
      <trkpt lat="42.93094" lon="0.12448">
        <ele>2533</ele>
        <time>2013-01-05T11:46:34Z</time>
      </trkpt>
      <trkpt lat="42.93095" lon="0.12449">
        <ele>2533</ele>
        <time>2013-01-05T11:46:47Z</time>
      </trkpt>
      <trkpt lat="42.93096" lon="0.1245">
        <ele>2533</ele>
        <time>2013-01-05T11:46:55Z</time>
      </trkpt>
      <trkpt lat="42.93095" lon="0.12451">
        <ele>2533</ele>
        <time>2013-01-05T11:47:03Z</time>
      </trkpt>
      <trkpt lat="42.93093" lon="0.12452">
        <ele>2533</ele>
        <time>2013-01-05T11:47:06Z</time>
      </trkpt>
      <trkpt lat="42.93092" lon="0.12454">
        <ele>2533</ele>
        <time>2013-01-05T11:47:08Z</time>
      </trkpt>
      <trkpt lat="42.93091" lon="0.12455">
        <ele>2533</ele>
        <time>2013-01-05T11:47:11Z</time>
      </trkpt>
      <trkpt lat="42.9309" lon="0.12457">
        <ele>2533</ele>
        <time>2013-01-05T11:47:14Z</time>
      </trkpt>
      <trkpt lat="42.93088" lon="0.12459">
        <ele>2533</ele>
        <time>2013-01-05T11:47:17Z</time>
      </trkpt>
      <trkpt lat="42.93089" lon="0.12461">
        <ele>2534</ele>
        <time>2013-01-05T11:47:20Z</time>
      </trkpt>
      <trkpt lat="42.9309" lon="0.12461">
        <ele>2535</ele>
        <time>2013-01-05T11:47:22Z</time>
      </trkpt>
      <trkpt lat="42.93091" lon="0.12461">
        <ele>2535</ele>
        <time>2013-01-05T11:47:24Z</time>
      </trkpt>
      <trkpt lat="42.93092" lon="0.12461">
        <ele>2536</ele>
        <time>2013-01-05T11:47:26Z</time>
      </trkpt>
      <trkpt lat="42.93094" lon="0.12462">
        <ele>2536</ele>
        <time>2013-01-05T11:47:28Z</time>
      </trkpt>
      <trkpt lat="42.93095" lon="0.12463">
        <ele>2536</ele>
        <time>2013-01-05T11:47:30Z</time>
      </trkpt>
      <trkpt lat="42.93096" lon="0.12464">
        <ele>2537</ele>
        <time>2013-01-05T11:47:32Z</time>
      </trkpt>
      <trkpt lat="42.93097" lon="0.12464">
        <ele>2537</ele>
        <time>2013-01-05T11:47:34Z</time>
      </trkpt>
      <trkpt lat="42.93097" lon="0.12462">
        <ele>2539</ele>
        <time>2013-01-05T11:47:45Z</time>
      </trkpt>
      <trkpt lat="42.93098" lon="0.12463">
        <ele>2541</ele>
        <time>2013-01-05T11:47:52Z</time>
      </trkpt>
      <trkpt lat="42.93099" lon="0.12463">
        <ele>2541</ele>
        <time>2013-01-05T11:47:54Z</time>
      </trkpt>
      <trkpt lat="42.93101" lon="0.12465">
        <ele>2542</ele>
        <time>2013-01-05T11:47:56Z</time>
      </trkpt>
      <trkpt lat="42.93102" lon="0.12465">
        <ele>2542</ele>
        <time>2013-01-05T11:47:58Z</time>
      </trkpt>
      <trkpt lat="42.93104" lon="0.12465">
        <ele>2542</ele>
        <time>2013-01-05T11:48:00Z</time>
      </trkpt>
      <trkpt lat="42.93105" lon="0.12466">
        <ele>2542</ele>
        <time>2013-01-05T11:48:02Z</time>
      </trkpt>
      <trkpt lat="42.93106" lon="0.12467">
        <ele>2542</ele>
        <time>2013-01-05T11:48:04Z</time>
      </trkpt>
      <trkpt lat="42.93108" lon="0.12467">
        <ele>2542</ele>
        <time>2013-01-05T11:48:13Z</time>
      </trkpt>
      <trkpt lat="42.93108" lon="0.12467">
        <ele>2542</ele>
        <time>2013-01-05T11:48:15Z</time>
      </trkpt>
    </trkseg>
  </trk>
</gpx>